<?xml version='1.0' encoding='UTF-8'?><gpx version="1.1" creator="JPX - https://github.com/jenetics/jpx" xmlns="http://www.topografix.com/GPX/1/1"><trk><trkseg><trkpt lat="40.46561663545307" lon="15.015502700707737"><ele>26.0</ele><time>2026-04-26T17:30:11Z</time></trkpt><trkpt lat="40.46570099486098" lon="15.015456395826654"><ele>26.0</ele><time>2026-04-26T17:30:13Z</time></trkpt><trkpt lat="40.46579125134057" lon="15.015392292439582"><ele>26.0</ele><time>2026-04-26T17:30:15Z</time></trkpt><trkpt lat="40.46587817933967" lon="15.01531507872487"><ele>26.0</ele><time>2026-04-26T17:30:18Z</time></trkpt><trkpt lat="40.465941967724" lon="15.015238291804634"><ele>26.0</ele><time>2026-04-26T17:30:20Z</time></trkpt><trkpt lat="40.46598976501624" lon="15.015168843542632"><ele>26.0</ele><time>2026-04-26T17:30:22Z</time></trkpt><trkpt lat="40.466079780992246" lon="15.015110011932437"><ele>26.0</ele><time>2026-04-26T17:30:26Z</time></trkpt><trkpt lat="40.46620097921817" lon="15.015047485343452"><ele>26.0</ele><time>2026-04-26T17:30:28Z</time></trkpt><trkpt lat="40.46633428207978" lon="15.015014039155862"><ele>26.0</ele><time>2026-04-26T17:30:29Z</time></trkpt><trkpt lat="40.46641978831113" lon="15.014980995252248"><ele>25.75</ele><time>2026-04-26T17:30:30Z</time></trkpt><trkpt lat="40.46652510684394" lon="15.01494621033212"><ele>25.5</ele><time>2026-04-26T17:30:31Z</time></trkpt><trkpt lat="40.466671209115134" lon="15.014925054103914"><ele>25.25</ele><time>2026-04-26T17:30:32Z</time></trkpt><trkpt lat="40.46683555172332" lon="15.014863468373791"><ele>25.0</ele><time>2026-04-26T17:30:33Z</time></trkpt><trkpt lat="40.46695423950795" lon="15.014834466922157"><ele>25.000000000000004</ele><time>2026-04-26T17:30:34Z</time></trkpt><trkpt lat="40.46702613034376" lon="15.014831493178065"><ele>25.0</ele><time>2026-04-26T17:30:35Z</time></trkpt><trkpt lat="40.4671192916295" lon="15.014806049056567"><ele>25.0</ele><time>2026-04-26T17:30:36Z</time></trkpt><trkpt lat="40.46719551483466" lon="15.014785558563476"><ele>25.0</ele><time>2026-04-26T17:30:37Z</time></trkpt><trkpt lat="40.467292936049766" lon="15.014760188436185"><ele>25.000000000000004</ele><time>2026-04-26T17:30:39Z</time></trkpt><trkpt lat="40.4673676203434" lon="15.014740739398658"><ele>25.0</ele><time>2026-04-26T17:30:41Z</time></trkpt><trkpt lat="40.46745663428863" lon="15.014717558702017"><ele>25.0</ele><time>2026-04-26T17:30:44Z</time></trkpt><trkpt lat="40.467539433295315" lon="15.01469599646203"><ele>25.0</ele><time>2026-04-26T17:30:45Z</time></trkpt><trkpt lat="40.467616641893116" lon="15.014675890035232"><ele>25.0</ele><time>2026-04-26T17:30:46Z</time></trkpt><trkpt lat="40.467707996973004" lon="15.014652099646053"><ele>25.0</ele><time>2026-04-26T17:30:47Z</time></trkpt><trkpt lat="40.46782079033775" lon="15.014622726347103"><ele>25.0</ele><time>2026-04-26T17:30:48Z</time></trkpt><trkpt lat="40.467962650595865" lon="15.014585783612262"><ele>25.0</ele><time>2026-04-26T17:30:49Z</time></trkpt><trkpt lat="40.46811524854008" lon="15.014546044606018"><ele>25.0</ele><time>2026-04-26T17:30:50Z</time></trkpt><trkpt lat="40.46824113865094" lon="15.014513260684405"><ele>25.0</ele><time>2026-04-26T17:30:51Z</time></trkpt><trkpt lat="40.468356359057054" lon="15.01448325536572"><ele>25.0</ele><time>2026-04-26T17:30:52Z</time></trkpt><trkpt lat="40.46846132253406" lon="15.014455921112113"><ele>25.0</ele><time>2026-04-26T17:30:53Z</time></trkpt><trkpt lat="40.46855682289799" lon="15.014431051252345"><ele>25.0</ele><time>2026-04-26T17:30:54Z</time></trkpt><trkpt lat="40.468642034678005" lon="15.014408861296301"><ele>25.0</ele><time>2026-04-26T17:30:55Z</time></trkpt><trkpt lat="40.468753656955954" lon="15.014379237095541"><ele>25.0</ele><time>2026-04-26T17:30:56Z</time></trkpt><trkpt lat="40.46887719255264" lon="15.014346722310357"><ele>25.0</ele><time>2026-04-26T17:30:57Z</time></trkpt><trkpt lat="40.46899720666009" lon="15.014316052078346"><ele>25.0</ele><time>2026-04-26T17:30:58Z</time></trkpt><trkpt lat="40.46911424644537" lon="15.014286141886867"><ele>25.0</ele><time>2026-04-26T17:30:59Z</time></trkpt><trkpt lat="40.469216591791664" lon="15.014260305792176"><ele>25.0</ele><time>2026-04-26T17:31:00Z</time></trkpt><trkpt lat="40.46930911038903" lon="15.014236975844875"><ele>25.0</ele><time>2026-04-26T17:31:01Z</time></trkpt><trkpt lat="40.469396849546925" lon="15.014214851129266"><ele>25.0</ele><time>2026-04-26T17:31:02Z</time></trkpt><trkpt lat="40.4694696239666" lon="15.014196499959302"><ele>25.000000000000004</ele><time>2026-04-26T17:31:03Z</time></trkpt><trkpt lat="40.469549482131676" lon="15.014176362568836"><ele>25.0</ele><time>2026-04-26T17:31:04Z</time></trkpt><trkpt lat="40.469634142547825" lon="15.014155014580494"><ele>25.0</ele><time>2026-04-26T17:31:05Z</time></trkpt><trkpt lat="40.46969845282199" lon="15.01413671809532"><ele>25.0</ele><time>2026-04-26T17:31:06Z</time></trkpt><trkpt lat="40.469784764200185" lon="15.014109781138039"><ele>25.000000000000004</ele><time>2026-04-26T17:31:08Z</time></trkpt><trkpt lat="40.46986484001076" lon="15.014057730592748"><ele>25.0</ele><time>2026-04-26T17:31:11Z</time></trkpt><trkpt lat="40.46993440766889" lon="15.014042654493409"><ele>25.2</ele><time>2026-04-26T17:31:13Z</time></trkpt><trkpt lat="40.46999547458099" lon="15.014020695098658"><ele>25.4</ele><time>2026-04-26T17:31:17Z</time></trkpt><trkpt lat="40.47007300378488" lon="15.014041457443478"><ele>25.6</ele><time>2026-04-26T17:31:22Z</time></trkpt><trkpt lat="40.47017837638468" lon="15.014024616554835"><ele>25.8</ele><time>2026-04-26T17:31:24Z</time></trkpt><trkpt lat="40.4702962287926" lon="15.013907097531956"><ele>26.0</ele><time>2026-04-26T17:31:26Z</time></trkpt><trkpt lat="40.47035384504871" lon="15.01383339004054"><ele>26.0</ele><time>2026-04-26T17:31:27Z</time></trkpt><trkpt lat="40.47040963128144" lon="15.01379189499362"><ele>26.0</ele><time>2026-04-26T17:31:28Z</time></trkpt><trkpt lat="40.470497710254946" lon="15.013759361345516"><ele>26.0</ele><time>2026-04-26T17:31:30Z</time></trkpt><trkpt lat="40.47057857530184" lon="15.013761793653247"><ele>26.0</ele><time>2026-04-26T17:31:33Z</time></trkpt><trkpt lat="40.47072258813825" lon="15.013791400607436"><ele>26.0</ele><time>2026-04-26T17:31:35Z</time></trkpt><trkpt lat="40.47084111378473" lon="15.013790205101417"><ele>25.75</ele><time>2026-04-26T17:31:36Z</time></trkpt><trkpt lat="40.47098014594568" lon="15.013789049408086"><ele>25.5</ele><time>2026-04-26T17:31:37Z</time></trkpt><trkpt lat="40.471136913354954" lon="15.013793284448926"><ele>25.25</ele><time>2026-04-26T17:31:38Z</time></trkpt><trkpt lat="40.47127605620256" lon="15.013799337883405"><ele>25.0</ele><time>2026-04-26T17:31:39Z</time></trkpt><trkpt lat="40.47141247681199" lon="15.013809363205924"><ele>25.0</ele><time>2026-04-26T17:31:40Z</time></trkpt><trkpt lat="40.47155766345368" lon="15.013822463847255"><ele>25.0</ele><time>2026-04-26T17:31:41Z</time></trkpt><trkpt lat="40.47170674663014" lon="15.01379797016328"><ele>25.0</ele><time>2026-04-26T17:31:42Z</time></trkpt><trkpt lat="40.471845450225246" lon="15.013810789964666"><ele>25.0</ele><time>2026-04-26T17:31:43Z</time></trkpt><trkpt lat="40.471980423083664" lon="15.0138248717731"><ele>24.75</ele><time>2026-04-26T17:31:44Z</time></trkpt><trkpt lat="40.47210984056993" lon="15.013844068374631"><ele>24.5</ele><time>2026-04-26T17:31:45Z</time></trkpt><trkpt lat="40.47223743510839" lon="15.013898479505249"><ele>24.25</ele><time>2026-04-26T17:31:46Z</time></trkpt><trkpt lat="40.47236476327779" lon="15.013913052104934"><ele>24.0</ele><time>2026-04-26T17:31:47Z</time></trkpt><trkpt lat="40.47249850210224" lon="15.01392961046913"><ele>24.0</ele><time>2026-04-26T17:31:48Z</time></trkpt><trkpt lat="40.47262911132573" lon="15.0139455852139"><ele>24.0</ele><time>2026-04-26T17:31:49Z</time></trkpt><trkpt lat="40.47275138908315" lon="15.013960540857362"><ele>24.0</ele><time>2026-04-26T17:31:50Z</time></trkpt><trkpt lat="40.472870803469235" lon="15.013976564407717"><ele>24.0</ele><time>2026-04-26T17:31:51Z</time></trkpt><trkpt lat="40.47299463005639" lon="15.013992992888966"><ele>23.799999999999997</ele><time>2026-04-26T17:31:52Z</time></trkpt><trkpt lat="40.473105946359624" lon="15.014006600680606"><ele>23.599999999999998</ele><time>2026-04-26T17:31:53Z</time></trkpt><trkpt lat="40.47322198860726" lon="15.014020041738183"><ele>23.4</ele><time>2026-04-26T17:31:54Z</time></trkpt><trkpt lat="40.47333243677219" lon="15.014032834846384"><ele>23.2</ele><time>2026-04-26T17:31:55Z</time></trkpt><trkpt lat="40.47344176851277" lon="15.014045498638371"><ele>23.0</ele><time>2026-04-26T17:31:56Z</time></trkpt><trkpt lat="40.47354395482079" lon="15.014057334782862"><ele>23.0</ele><time>2026-04-26T17:31:57Z</time></trkpt><trkpt lat="40.4736662338582" lon="15.014071498248073"><ele>23.0</ele><time>2026-04-26T17:31:58Z</time></trkpt><trkpt lat="40.47379723604834" lon="15.014086671913898"><ele>23.0</ele><time>2026-04-26T17:31:59Z</time></trkpt><trkpt lat="40.473945484735566" lon="15.014055970444392"><ele>23.0</ele><time>2026-04-26T17:32:00Z</time></trkpt><trkpt lat="40.47407774258759" lon="15.01407849186311"><ele>23.0</ele><time>2026-04-26T17:32:01Z</time></trkpt><trkpt lat="40.47419361039519" lon="15.014093159217262"><ele>23.0</ele><time>2026-04-26T17:32:02Z</time></trkpt><trkpt lat="40.47430889181181" lon="15.014106560420913"><ele>23.0</ele><time>2026-04-26T17:32:03Z</time></trkpt><trkpt lat="40.47442902061151" lon="15.014118901998733"><ele>23.0</ele><time>2026-04-26T17:32:04Z</time></trkpt><trkpt lat="40.474555013103526" lon="15.014130820648086"><ele>22.333333333333336</ele><time>2026-04-26T17:32:05Z</time></trkpt><trkpt lat="40.47469331761602" lon="15.01414447660884"><ele>21.666666666666668</ele><time>2026-04-26T17:32:06Z</time></trkpt><trkpt lat="40.474846582376124" lon="15.014165752011591"><ele>21.0</ele><time>2026-04-26T17:32:07Z</time></trkpt><trkpt lat="40.47500474308997" lon="15.014233775942875"><ele>20.666666666666668</ele><time>2026-04-26T17:32:08Z</time></trkpt><trkpt lat="40.475159892560555" lon="15.014252823225654"><ele>20.333333333333336</ele><time>2026-04-26T17:32:09Z</time></trkpt><trkpt lat="40.47530807744802" lon="15.014271015507873"><ele>20.0</ele><time>2026-04-26T17:32:10Z</time></trkpt><trkpt lat="40.475456540458076" lon="15.014289243471907"><ele>20.666666666666668</ele><time>2026-04-26T17:32:11Z</time></trkpt><trkpt lat="40.475607314903996" lon="15.014307753627675"><ele>21.333333333333332</ele><time>2026-04-26T17:32:12Z</time></trkpt><trkpt lat="40.475773494471895" lon="15.014326723066723"><ele>22.0</ele><time>2026-04-26T17:32:13Z</time></trkpt><trkpt lat="40.47593442285427" lon="15.014347005901929"><ele>22.0</ele><time>2026-04-26T17:32:14Z</time></trkpt><trkpt lat="40.47609241157132" lon="15.01436741496554"><ele>22.0</ele><time>2026-04-26T17:32:15Z</time></trkpt><trkpt lat="40.47623884204278" lon="15.014385055858213"><ele>22.0</ele><time>2026-04-26T17:32:16Z</time></trkpt><trkpt lat="40.47637596190098" lon="15.014400846865847"><ele>22.0</ele><time>2026-04-26T17:32:17Z</time></trkpt><trkpt lat="40.47649494251379" lon="15.014414319244514"><ele>21.666666666666664</ele><time>2026-04-26T17:32:18Z</time></trkpt><trkpt lat="40.476584716827404" lon="15.01442500286195"><ele>21.333333333333332</ele><time>2026-04-26T17:32:19Z</time></trkpt><trkpt lat="40.476672813810346" lon="15.014435492182834"><ele>21.0</ele><time>2026-04-26T17:32:20Z</time></trkpt><trkpt lat="40.47675080005262" lon="15.014423727182358"><ele>20.666666666666668</ele><time>2026-04-26T17:32:21Z</time></trkpt><trkpt lat="40.47681908967926" lon="15.014444706181933"><ele>20.333333333333336</ele><time>2026-04-26T17:32:22Z</time></trkpt><trkpt lat="40.47689162465502" lon="15.014465386934637"><ele>20.0</ele><time>2026-04-26T17:32:23Z</time></trkpt><trkpt lat="40.47696653088398" lon="15.014486587793149"><ele>20.0</ele><time>2026-04-26T17:32:24Z</time></trkpt><trkpt lat="40.47704470139545" lon="15.014502588114407"><ele>20.0</ele><time>2026-04-26T17:32:25Z</time></trkpt><trkpt lat="40.47711604711835" lon="15.014510689311468"><ele>20.0</ele><time>2026-04-26T17:32:26Z</time></trkpt><trkpt lat="40.477229787582445" lon="15.014533051722895"><ele>20.0</ele><time>2026-04-26T17:32:28Z</time></trkpt><trkpt lat="40.47731685888925" lon="15.014539717184897"><ele>20.0</ele><time>2026-04-26T17:32:30Z</time></trkpt><trkpt lat="40.477395606081096" lon="15.014555849213023"><ele>20.0</ele><time>2026-04-26T17:32:32Z</time></trkpt><trkpt lat="40.477461743316546" lon="15.014594959133529"><ele>19.8</ele><time>2026-04-26T17:32:34Z</time></trkpt><trkpt lat="40.477516860971704" lon="15.014640883115844"><ele>19.6</ele><time>2026-04-26T17:32:36Z</time></trkpt><trkpt lat="40.47761003294201" lon="15.014678461493453"><ele>19.4</ele><time>2026-04-26T17:32:39Z</time></trkpt><trkpt lat="40.47773807657928" lon="15.014746308555013"><ele>19.2</ele><time>2026-04-26T17:32:41Z</time></trkpt><trkpt lat="40.47786092218423" lon="15.014754657128742"><ele>19.0</ele><time>2026-04-26T17:32:43Z</time></trkpt><trkpt lat="40.477911003791355" lon="15.014693097781656"><ele>19.0</ele><time>2026-04-26T17:32:44Z</time></trkpt><trkpt lat="40.477963025485316" lon="15.014629428283529"><ele>19.0</ele><time>2026-04-26T17:34:59Z</time></trkpt><trkpt lat="40.478052703072926" lon="15.014613637296565"><ele>19.0</ele><time>2026-04-26T17:35:01Z</time></trkpt><trkpt lat="40.47813450354708" lon="15.01463250597878"><ele>19.0</ele><time>2026-04-26T17:35:02Z</time></trkpt><trkpt lat="40.478236356824425" lon="15.014648002912963"><ele>19.0</ele><time>2026-04-26T17:35:03Z</time></trkpt><trkpt lat="40.47834782584515" lon="15.0146592398686"><ele>19.0</ele><time>2026-04-26T17:35:04Z</time></trkpt><trkpt lat="40.47846799620683" lon="15.014665590255435"><ele>19.0</ele><time>2026-04-26T17:35:05Z</time></trkpt><trkpt lat="40.47859250717387" lon="15.014667655733305"><ele>19.0</ele><time>2026-04-26T17:35:06Z</time></trkpt><trkpt lat="40.47872720196916" lon="15.014667950492658"><ele>19.0</ele><time>2026-04-26T17:35:07Z</time></trkpt><trkpt lat="40.47887154847904" lon="15.014704891650428"><ele>18.75</ele><time>2026-04-26T17:35:08Z</time></trkpt><trkpt lat="40.47902060142434" lon="15.014723378334224"><ele>18.5</ele><time>2026-04-26T17:35:09Z</time></trkpt><trkpt lat="40.479166404278345" lon="15.014741461919531"><ele>18.25</ele><time>2026-04-26T17:35:10Z</time></trkpt><trkpt lat="40.47931128079886" lon="15.014759430620666"><ele>18.0</ele><time>2026-04-26T17:35:11Z</time></trkpt><trkpt lat="40.47945712209584" lon="15.0147775189781"><ele>18.0</ele><time>2026-04-26T17:35:12Z</time></trkpt><trkpt lat="40.479596445980306" lon="15.014778633943648"><ele>18.0</ele><time>2026-04-26T17:35:13Z</time></trkpt><trkpt lat="40.47972624092698" lon="15.014807483867479"><ele>18.0</ele><time>2026-04-26T17:35:14Z</time></trkpt><trkpt lat="40.47984805661857" lon="15.014821086051544"><ele>18.0</ele><time>2026-04-26T17:35:15Z</time></trkpt><trkpt lat="40.47996838846396" lon="15.014832839304242"><ele>17.75</ele><time>2026-04-26T17:35:16Z</time></trkpt><trkpt lat="40.48009594045233" lon="15.014845911636067"><ele>17.5</ele><time>2026-04-26T17:35:17Z</time></trkpt><trkpt lat="40.48022341750345" lon="15.014858495901017"><ele>17.25</ele><time>2026-04-26T17:35:18Z</time></trkpt><trkpt lat="40.48035457470583" lon="15.014877381104835"><ele>17.0</ele><time>2026-04-26T17:35:19Z</time></trkpt><trkpt lat="40.480487570399134" lon="15.014893772073705"><ele>16.75</ele><time>2026-04-26T17:35:20Z</time></trkpt><trkpt lat="40.48062406917069" lon="15.014912421165667"><ele>16.5</ele><time>2026-04-26T17:35:21Z</time></trkpt><trkpt lat="40.48075509833896" lon="15.014928722300851"><ele>16.25</ele><time>2026-04-26T17:35:22Z</time></trkpt><trkpt lat="40.480885018389344" lon="15.01494251703456"><ele>16.0</ele><time>2026-04-26T17:35:23Z</time></trkpt><trkpt lat="40.48100524668578" lon="15.014961559769885"><ele>16.0</ele><time>2026-04-26T17:35:24Z</time></trkpt><trkpt lat="40.48112474826756" lon="15.014983909025782"><ele>16.0</ele><time>2026-04-26T17:35:25Z</time></trkpt><trkpt lat="40.48125242152296" lon="15.015004978808417"><ele>16.0</ele><time>2026-04-26T17:35:26Z</time></trkpt><trkpt lat="40.481379067123676" lon="15.015019261373293"><ele>16.0</ele><time>2026-04-26T17:35:27Z</time></trkpt><trkpt lat="40.48149490411745" lon="15.015034082048535"><ele>15.4</ele><time>2026-04-26T17:35:28Z</time></trkpt><trkpt lat="40.48160676034427" lon="15.015047707612283"><ele>14.8</ele><time>2026-04-26T17:35:29Z</time></trkpt><trkpt lat="40.481711285631086" lon="15.015060324465125"><ele>14.200000000000001</ele><time>2026-04-26T17:35:30Z</time></trkpt><trkpt lat="40.48181161251915" lon="15.01507231805787"><ele>13.600000000000001</ele><time>2026-04-26T17:35:31Z</time></trkpt><trkpt lat="40.481907333743756" lon="15.01508376106441"><ele>13.0</ele><time>2026-04-26T17:35:32Z</time></trkpt><trkpt lat="40.48199687627324" lon="15.015047030831571"><ele>12.999999999999998</ele><time>2026-04-26T17:35:33Z</time></trkpt><trkpt lat="40.482078993848184" lon="15.015057082492671"><ele>13.0</ele><time>2026-04-26T17:35:34Z</time></trkpt><trkpt lat="40.4821604350873" lon="15.015065223476306"><ele>13.0</ele><time>2026-04-26T17:35:35Z</time></trkpt><trkpt lat="40.482248443612086" lon="15.01507651251606"><ele>13.0</ele><time>2026-04-26T17:35:36Z</time></trkpt><trkpt lat="40.4823344769093" lon="15.015135041797205"><ele>12.999999999999998</ele><time>2026-04-26T17:35:37Z</time></trkpt><trkpt lat="40.48241998416701" lon="15.0151453172365"><ele>13.0</ele><time>2026-04-26T17:35:38Z</time></trkpt><trkpt lat="40.48250335297053" lon="15.015154941070257"><ele>12.833333333333332</ele><time>2026-04-26T17:35:39Z</time></trkpt><trkpt lat="40.48257922725449" lon="15.01516373786183"><ele>12.666666666666666</ele><time>2026-04-26T17:35:40Z</time></trkpt><trkpt lat="40.48265714667875" lon="15.015172771774775"><ele>12.5</ele><time>2026-04-26T17:35:41Z</time></trkpt><trkpt lat="40.48273911637045" lon="15.015182275258034"><ele>12.333333333333332</ele><time>2026-04-26T17:35:42Z</time></trkpt><trkpt lat="40.48282754418907" lon="15.01519252749524"><ele>12.166666666666666</ele><time>2026-04-26T17:35:43Z</time></trkpt><trkpt lat="40.482921718893216" lon="15.015203446122259"><ele>12.0</ele><time>2026-04-26T17:35:44Z</time></trkpt><trkpt lat="40.48301856932548" lon="15.01521331962997"><ele>11.833333333333334</ele><time>2026-04-26T17:35:45Z</time></trkpt><trkpt lat="40.48311713786844" lon="15.015225442590841"><ele>11.666666666666666</ele><time>2026-04-26T17:35:46Z</time></trkpt><trkpt lat="40.48321494496579" lon="15.015237163109756"><ele>11.5</ele><time>2026-04-26T17:35:47Z</time></trkpt><trkpt lat="40.483300816850054" lon="15.015246181344326"><ele>11.333333333333332</ele><time>2026-04-26T17:35:48Z</time></trkpt><trkpt lat="40.483369561242036" lon="15.015253533009908"><ele>11.166666666666666</ele><time>2026-04-26T17:35:49Z</time></trkpt><trkpt lat="40.4834329397201" lon="15.015260310821557"><ele>11.0</ele><time>2026-04-26T17:35:50Z</time></trkpt><trkpt lat="40.48349880339234" lon="15.015267354266465"><ele>11.0</ele><time>2026-04-26T17:35:51Z</time></trkpt><trkpt lat="40.48357776353281" lon="15.015278156907648"><ele>11.0</ele><time>2026-04-26T17:35:52Z</time></trkpt><trkpt lat="40.48367642596393" lon="15.015291137160936"><ele>11.0</ele><time>2026-04-26T17:35:53Z</time></trkpt><trkpt lat="40.48376873443511" lon="15.015303281491"><ele>11.0</ele><time>2026-04-26T17:35:54Z</time></trkpt><trkpt lat="40.48386575248146" lon="15.015316045402244"><ele>11.0</ele><time>2026-04-26T17:35:55Z</time></trkpt><trkpt lat="40.48397563918984" lon="15.015280144591022"><ele>11.4</ele><time>2026-04-26T17:35:56Z</time></trkpt><trkpt lat="40.484080609914095" lon="15.015295162863012"><ele>11.8</ele><time>2026-04-26T17:35:57Z</time></trkpt><trkpt lat="40.48418673710575" lon="15.015311081220638"><ele>12.200000000000001</ele><time>2026-04-26T17:35:58Z</time></trkpt><trkpt lat="40.48429425814375" lon="15.01532377962032"><ele>12.600000000000001</ele><time>2026-04-26T17:35:59Z</time></trkpt><trkpt lat="40.484395969950214" lon="15.015336838974697"><ele>13.0</ele><time>2026-04-26T17:36:00Z</time></trkpt><trkpt lat="40.48449762545966" lon="15.015349182472834"><ele>12.75</ele><time>2026-04-26T17:36:01Z</time></trkpt><trkpt lat="40.4846119405501" lon="15.015361794586584"><ele>12.5</ele><time>2026-04-26T17:36:02Z</time></trkpt><trkpt lat="40.484741882939716" lon="15.015430108654236"><ele>12.25</ele><time>2026-04-26T17:36:03Z</time></trkpt><trkpt lat="40.48486193254175" lon="15.015444454987412"><ele>12.0</ele><time>2026-04-26T17:36:04Z</time></trkpt><trkpt lat="40.48497441573005" lon="15.015457897082307"><ele>12.0</ele><time>2026-04-26T17:36:05Z</time></trkpt><trkpt lat="40.48507855695516" lon="15.015470342311266"><ele>12.0</ele><time>2026-04-26T17:36:06Z</time></trkpt><trkpt lat="40.48518088995608" lon="15.01548257302979"><ele>12.0</ele><time>2026-04-26T17:36:07Z</time></trkpt><trkpt lat="40.48528545250982" lon="15.015495068600531"><ele>12.0</ele><time>2026-04-26T17:36:08Z</time></trkpt><trkpt lat="40.485396850339114" lon="15.015508124952849"><ele>12.0</ele><time>2026-04-26T17:36:09Z</time></trkpt><trkpt lat="40.485521708148376" lon="15.015522715084389"><ele>11.75</ele><time>2026-04-26T17:36:10Z</time></trkpt><trkpt lat="40.485648789442216" lon="15.015537565028964"><ele>11.5</ele><time>2026-04-26T17:36:11Z</time></trkpt><trkpt lat="40.485777342011446" lon="15.015553508959671"><ele>11.25</ele><time>2026-04-26T17:36:12Z</time></trkpt><trkpt lat="40.485927435926634" lon="15.01557133400842"><ele>11.0</ele><time>2026-04-26T17:36:13Z</time></trkpt><trkpt lat="40.486072216787434" lon="15.015588411109894"><ele>11.0</ele><time>2026-04-26T17:36:14Z</time></trkpt><trkpt lat="40.48621765755073" lon="15.015605566053406"><ele>11.0</ele><time>2026-04-26T17:36:15Z</time></trkpt><trkpt lat="40.486364164086424" lon="15.015622846703398"><ele>11.0</ele><time>2026-04-26T17:36:16Z</time></trkpt><trkpt lat="40.48650847215757" lon="15.015639868037601"><ele>11.0</ele><time>2026-04-26T17:36:17Z</time></trkpt><trkpt lat="40.48665664587265" lon="15.015658086622025"><ele>11.0</ele><time>2026-04-26T17:36:18Z</time></trkpt><trkpt lat="40.48681044125787" lon="15.015677530022666"><ele>11.0</ele><time>2026-04-26T17:36:19Z</time></trkpt><trkpt lat="40.48696463363864" lon="15.015697023614864"><ele>11.0</ele><time>2026-04-26T17:36:20Z</time></trkpt><trkpt lat="40.48711712272085" lon="15.01571630186851"><ele>11.0</ele><time>2026-04-26T17:36:21Z</time></trkpt><trkpt lat="40.48726697274478" lon="15.015735246483374"><ele>11.0</ele><time>2026-04-26T17:36:22Z</time></trkpt><trkpt lat="40.48742186689535" lon="15.015753414369206"><ele>11.0</ele><time>2026-04-26T17:36:23Z</time></trkpt><trkpt lat="40.48758615223328" lon="15.015774304035839"><ele>11.0</ele><time>2026-04-26T17:36:24Z</time></trkpt><trkpt lat="40.48774572773461" lon="15.015791999536447"><ele>11.0</ele><time>2026-04-26T17:36:25Z</time></trkpt><trkpt lat="40.48790529662281" lon="15.015809702946944"><ele>11.0</ele><time>2026-04-26T17:36:26Z</time></trkpt><trkpt lat="40.48805759174618" lon="15.015826679407688"><ele>11.75</ele><time>2026-04-26T17:36:27Z</time></trkpt><trkpt lat="40.48819575672647" lon="15.01584215584029"><ele>12.5</ele><time>2026-04-26T17:36:28Z</time></trkpt><trkpt lat="40.48831703477477" lon="15.015855776855199"><ele>13.25</ele><time>2026-04-26T17:36:29Z</time></trkpt><trkpt lat="40.48843184924278" lon="15.01586867177456"><ele>14.0</ele><time>2026-04-26T17:36:30Z</time></trkpt><trkpt lat="40.488538613022904" lon="15.015880662182015"><ele>14.0</ele><time>2026-04-26T17:36:31Z</time></trkpt><trkpt lat="40.488635938332166" lon="15.015891592556603"><ele>13.999999999999998</ele><time>2026-04-26T17:36:32Z</time></trkpt><trkpt lat="40.48873254779037" lon="15.01590244253683"><ele>13.999999999999998</ele><time>2026-04-26T17:36:33Z</time></trkpt><trkpt lat="40.48883378293568" lon="15.015864343386765"><ele>14.0</ele><time>2026-04-26T17:36:34Z</time></trkpt><trkpt lat="40.48893292975246" lon="15.015872717974906"><ele>14.0</ele><time>2026-04-26T17:36:35Z</time></trkpt><trkpt lat="40.48903346981487" lon="15.015879537255655"><ele>14.799999999999999</ele><time>2026-04-26T17:36:36Z</time></trkpt><trkpt lat="40.48913586688813" lon="15.015889061500262"><ele>15.599999999999998</ele><time>2026-04-26T17:36:37Z</time></trkpt><trkpt lat="40.48923524917162" lon="15.015899306677197"><ele>16.4</ele><time>2026-04-26T17:36:38Z</time></trkpt><trkpt lat="40.489330725211815" lon="15.015910318353393"><ele>17.2</ele><time>2026-04-26T17:36:39Z</time></trkpt><trkpt lat="40.489426082770336" lon="15.015925256720998"><ele>18.0</ele><time>2026-04-26T17:36:40Z</time></trkpt><trkpt lat="40.48951998867612" lon="15.015934287859999"><ele>17.666666666666668</ele><time>2026-04-26T17:36:41Z</time></trkpt><trkpt lat="40.48960512118164" lon="15.01594755027252"><ele>17.333333333333332</ele><time>2026-04-26T17:36:42Z</time></trkpt><trkpt lat="40.489689986388214" lon="15.015960033834327"><ele>17.0</ele><time>2026-04-26T17:36:43Z</time></trkpt><trkpt lat="40.48976562050886" lon="15.015968773053427"><ele>16.666666666666664</ele><time>2026-04-26T17:36:44Z</time></trkpt><trkpt lat="40.48984225023864" lon="15.015979779757862"><ele>16.333333333333332</ele><time>2026-04-26T17:36:45Z</time></trkpt><trkpt lat="40.48992036018664" lon="15.015987381389177"><ele>16.0</ele><time>2026-04-26T17:36:46Z</time></trkpt><trkpt lat="40.49000110257899" lon="15.015997413757098"><ele>16.0</ele><time>2026-04-26T17:36:47Z</time></trkpt><trkpt lat="40.49010332405421" lon="15.016004345590693"><ele>16.0</ele><time>2026-04-26T17:36:48Z</time></trkpt><trkpt lat="40.49021180596226" lon="15.01601739457075"><ele>16.0</ele><time>2026-04-26T17:36:49Z</time></trkpt><trkpt lat="40.49031363930586" lon="15.016034694454747"><ele>16.0</ele><time>2026-04-26T17:36:50Z</time></trkpt><trkpt lat="40.4904364031965" lon="15.016041321579047"><ele>16.0</ele><time>2026-04-26T17:36:51Z</time></trkpt><trkpt lat="40.49055973108861" lon="15.016056004415965"><ele>16.25</ele><time>2026-04-26T17:36:52Z</time></trkpt><trkpt lat="40.490679251397076" lon="15.016066843927714"><ele>16.5</ele><time>2026-04-26T17:36:53Z</time></trkpt><trkpt lat="40.49079658671046" lon="15.016078771546418"><ele>16.75</ele><time>2026-04-26T17:36:54Z</time></trkpt><trkpt lat="40.4909100484606" lon="15.016094153059873"><ele>17.0</ele><time>2026-04-26T17:36:55Z</time></trkpt><trkpt lat="40.49102527605152" lon="15.0161097004495"><ele>17.0</ele><time>2026-04-26T17:36:56Z</time></trkpt><trkpt lat="40.4911456135209" lon="15.016126364066803"><ele>17.0</ele><time>2026-04-26T17:36:57Z</time></trkpt><trkpt lat="40.49126630133289" lon="15.016142764509567"><ele>17.0</ele><time>2026-04-26T17:36:58Z</time></trkpt><trkpt lat="40.49138483446222" lon="15.016156673141579"><ele>17.0</ele><time>2026-04-26T17:36:59Z</time></trkpt><trkpt lat="40.491501591524454" lon="15.016169990322425"><ele>17.25</ele><time>2026-04-26T17:37:00Z</time></trkpt><trkpt lat="40.49161641127462" lon="15.016181166401541"><ele>17.5</ele><time>2026-04-26T17:37:01Z</time></trkpt><trkpt lat="40.491734027038234" lon="15.016193608082942"><ele>17.75</ele><time>2026-04-26T17:37:02Z</time></trkpt><trkpt lat="40.491853013654456" lon="15.01620676233447"><ele>18.0</ele><time>2026-04-26T17:37:03Z</time></trkpt><trkpt lat="40.49196458002545" lon="15.01621905498059"><ele>18.0</ele><time>2026-04-26T17:37:04Z</time></trkpt><trkpt lat="40.49206762620755" lon="15.016233146435827"><ele>18.0</ele><time>2026-04-26T17:37:05Z</time></trkpt><trkpt lat="40.49215853136088" lon="15.016245119714561"><ele>18.0</ele><time>2026-04-26T17:37:06Z</time></trkpt><trkpt lat="40.49223347360572" lon="15.016255130774157"><ele>18.0</ele><time>2026-04-26T17:37:07Z</time></trkpt><trkpt lat="40.49230011910017" lon="15.01626465736914"><ele>18.0</ele><time>2026-04-26T17:37:08Z</time></trkpt><trkpt lat="40.492374740201406" lon="15.016271810693388"><ele>18.0</ele><time>2026-04-26T17:37:09Z</time></trkpt><trkpt lat="40.492478099986606" lon="15.01628412107989"><ele>17.75</ele><time>2026-04-26T17:37:10Z</time></trkpt><trkpt lat="40.492603976330784" lon="15.01628849753888"><ele>17.5</ele><time>2026-04-26T17:37:11Z</time></trkpt><trkpt lat="40.49275182303315" lon="15.016296240639067"><ele>17.25</ele><time>2026-04-26T17:37:12Z</time></trkpt><trkpt lat="40.492919609638165" lon="15.016298650399069"><ele>17.0</ele><time>2026-04-26T17:37:13Z</time></trkpt><trkpt lat="40.49308522449382" lon="15.01628709266493"><ele>16.666666666666668</ele><time>2026-04-26T17:37:14Z</time></trkpt><trkpt lat="40.49324997308083" lon="15.016256919427978"><ele>16.333333333333332</ele><time>2026-04-26T17:37:15Z</time></trkpt><trkpt lat="40.493408028565014" lon="15.016217829064843"><ele>16.0</ele><time>2026-04-26T17:37:16Z</time></trkpt><trkpt lat="40.493552148714" lon="15.016175091044472"><ele>16.0</ele><time>2026-04-26T17:37:17Z</time></trkpt><trkpt lat="40.493687183145276" lon="15.016134603589968"><ele>16.0</ele><time>2026-04-26T17:37:18Z</time></trkpt><trkpt lat="40.49381346169619" lon="15.016090737517482"><ele>16.0</ele><time>2026-04-26T17:37:19Z</time></trkpt><trkpt lat="40.493925933476305" lon="15.0160502037087"><ele>16.0</ele><time>2026-04-26T17:37:20Z</time></trkpt><trkpt lat="40.49402995644904" lon="15.016011738620131"><ele>16.2</ele><time>2026-04-26T17:37:21Z</time></trkpt><trkpt lat="40.49412765134295" lon="15.015970091364716"><ele>16.400000000000002</ele><time>2026-04-26T17:37:22Z</time></trkpt><trkpt lat="40.494225120888956" lon="15.01593300931894"><ele>16.6</ele><time>2026-04-26T17:37:23Z</time></trkpt><trkpt lat="40.49431149832644" lon="15.015921025868302"><ele>16.8</ele><time>2026-04-26T17:37:24Z</time></trkpt><trkpt lat="40.49438873812522" lon="15.015944955154815"><ele>17.0</ele><time>2026-04-26T17:37:25Z</time></trkpt><trkpt lat="40.49446905965995" lon="15.015984230623225"><ele>16.999999999999996</ele><time>2026-04-26T17:37:26Z</time></trkpt><trkpt lat="40.49454433169868" lon="15.015987466470058"><ele>17.0</ele><time>2026-04-26T17:37:27Z</time></trkpt><trkpt lat="40.4946191939911" lon="15.01595104043594"><ele>17.0</ele><time>2026-04-26T17:37:28Z</time></trkpt><trkpt lat="40.49467345075363" lon="15.015886710554723"><ele>17.0</ele><time>2026-04-26T17:37:29Z</time></trkpt><trkpt lat="40.49470443461677" lon="15.015803337854235"><ele>17.0</ele><time>2026-04-26T17:37:30Z</time></trkpt><trkpt lat="40.494719505609304" lon="15.015719690710117"><ele>16.999999999999996</ele><time>2026-04-26T17:37:31Z</time></trkpt><trkpt lat="40.49472780965627" lon="15.015630155504526"><ele>17.0</ele><time>2026-04-26T17:37:32Z</time></trkpt><trkpt lat="40.4947865851667" lon="15.015492259487141"><ele>16.6</ele><time>2026-04-26T17:37:34Z</time></trkpt><trkpt lat="40.49485810797052" lon="15.015449247453784"><ele>16.2</ele><time>2026-04-26T17:37:35Z</time></trkpt><trkpt lat="40.4949492965566" lon="15.01540047112032"><ele>15.8</ele><time>2026-04-26T17:37:36Z</time></trkpt><trkpt lat="40.495050160213005" lon="15.015318796588907"><ele>15.4</ele><time>2026-04-26T17:37:37Z</time></trkpt><trkpt lat="40.49516802117214" lon="15.015232319504303"><ele>15.0</ele><time>2026-04-26T17:37:38Z</time></trkpt><trkpt lat="40.4953010204858" lon="15.015148574258111"><ele>14.0</ele><time>2026-04-26T17:37:39Z</time></trkpt><trkpt lat="40.49544929729617" lon="15.015068360480996"><ele>13.0</ele><time>2026-04-26T17:37:40Z</time></trkpt><trkpt lat="40.495588931928104" lon="15.014986899359677"><ele>12.0</ele><time>2026-04-26T17:37:41Z</time></trkpt><trkpt lat="40.49573971937798" lon="15.01489878102534"><ele>11.333333333333334</ele><time>2026-04-26T17:37:42Z</time></trkpt><trkpt lat="40.49590576043753" lon="15.01479847577783"><ele>10.666666666666668</ele><time>2026-04-26T17:37:43Z</time></trkpt><trkpt lat="40.49608649627947" lon="15.014694378938314"><ele>10.0</ele><time>2026-04-26T17:37:44Z</time></trkpt><trkpt lat="40.496279127093075" lon="15.014581626289923"><ele>8.666666666666668</ele><time>2026-04-26T17:37:45Z</time></trkpt><trkpt lat="40.49648340783897" lon="15.014479407685883"><ele>7.333333333333334</ele><time>2026-04-26T17:37:46Z</time></trkpt><trkpt lat="40.49669130924977" lon="15.014362221497601"><ele>6.0</ele><time>2026-04-26T17:37:47Z</time></trkpt><trkpt lat="40.49689537329315" lon="15.014239728372333"><ele>6.333333333333334</ele><time>2026-04-26T17:37:48Z</time></trkpt><trkpt lat="40.4970972577632" lon="15.014123455721382"><ele>6.666666666666667</ele><time>2026-04-26T17:37:49Z</time></trkpt><trkpt lat="40.49729385570254" lon="15.014012447427405"><ele>7.0</ele><time>2026-04-26T17:37:50Z</time></trkpt><trkpt lat="40.49749209470262" lon="15.013900125746138"><ele>7.0</ele><time>2026-04-26T17:37:51Z</time></trkpt><trkpt lat="40.49769308894501" lon="15.013785485042982"><ele>7.0</ele><time>2026-04-26T17:37:52Z</time></trkpt><trkpt lat="40.49789247746952" lon="15.013669724673505"><ele>7.0</ele><time>2026-04-26T17:37:53Z</time></trkpt><trkpt lat="40.498097100246355" lon="15.013553816761771"><ele>7.5</ele><time>2026-04-26T17:37:54Z</time></trkpt><trkpt lat="40.498304934724814" lon="15.013437879608308"><ele>8.0</ele><time>2026-04-26T17:37:55Z</time></trkpt><trkpt lat="40.498516607347646" lon="15.013319719880137"><ele>6.5</ele><time>2026-04-26T17:37:56Z</time></trkpt><trkpt lat="40.49872967883711" lon="15.01319626846455"><ele>5.0</ele><time>2026-04-26T17:37:57Z</time></trkpt><trkpt lat="40.49893903667592" lon="15.013073429643237"><ele>4.666666666666667</ele><time>2026-04-26T17:37:58Z</time></trkpt><trkpt lat="40.49914592932177" lon="15.012952867443706"><ele>4.333333333333333</ele><time>2026-04-26T17:37:59Z</time></trkpt><trkpt lat="40.499338870541536" lon="15.012840318627632"><ele>4.0</ele><time>2026-04-26T17:38:00Z</time></trkpt><trkpt lat="40.499526701281134" lon="15.012736951216194"><ele>4.333333333333333</ele><time>2026-04-26T17:38:01Z</time></trkpt><trkpt lat="40.49970230052756" lon="15.01262533274405"><ele>4.666666666666667</ele><time>2026-04-26T17:38:02Z</time></trkpt><trkpt lat="40.49988638253768" lon="15.012512064180488"><ele>5.0</ele><time>2026-04-26T17:38:03Z</time></trkpt><trkpt lat="40.50006597119204" lon="15.012405694374037"><ele>5.0</ele><time>2026-04-26T17:38:04Z</time></trkpt><trkpt lat="40.50023658931528" lon="15.012301485960945"><ele>5.0</ele><time>2026-04-26T17:38:05Z</time></trkpt><trkpt lat="40.500400314429726" lon="15.01220136532412"><ele>5.0</ele><time>2026-04-26T17:38:06Z</time></trkpt><trkpt lat="40.50057286787079" lon="15.012097816926426"><ele>5.0</ele><time>2026-04-26T17:38:07Z</time></trkpt><trkpt lat="40.500756810825244" lon="15.011989286589424"><ele>5.0</ele><time>2026-04-26T17:38:08Z</time></trkpt><trkpt lat="40.500943479374065" lon="15.011875795237295"><ele>5.0</ele><time>2026-04-26T17:38:09Z</time></trkpt><trkpt lat="40.50111644820786" lon="15.01177765288881"><ele>5.0</ele><time>2026-04-26T17:38:10Z</time></trkpt><trkpt lat="40.501282000752894" lon="15.011687755584834"><ele>5.0</ele><time>2026-04-26T17:38:11Z</time></trkpt><trkpt lat="40.50143947906548" lon="15.01160047750416"><ele>5.0</ele><time>2026-04-26T17:38:12Z</time></trkpt><trkpt lat="40.501584420563645" lon="15.011516388711176"><ele>5.25</ele><time>2026-04-26T17:38:13Z</time></trkpt><trkpt lat="40.50172374210949" lon="15.011440195152664"><ele>5.5</ele><time>2026-04-26T17:38:14Z</time></trkpt><trkpt lat="40.5018590896333" lon="15.011369774867703"><ele>5.75</ele><time>2026-04-26T17:38:15Z</time></trkpt><trkpt lat="40.50199711108442" lon="15.011313334836515"><ele>6.0</ele><time>2026-04-26T17:38:16Z</time></trkpt><trkpt lat="40.50214188117802" lon="15.011268029814614"><ele>6.0</ele><time>2026-04-26T17:38:17Z</time></trkpt><trkpt lat="40.502286604034985" lon="15.011233803932265"><ele>6.0</ele><time>2026-04-26T17:38:18Z</time></trkpt><trkpt lat="40.50243287564741" lon="15.011205947697425"><ele>6.0</ele><time>2026-04-26T17:38:19Z</time></trkpt><trkpt lat="40.50257695510765" lon="15.01119242306536"><ele>6.0</ele><time>2026-04-26T17:38:20Z</time></trkpt><trkpt lat="40.50272024467305" lon="15.011193939401894"><ele>6.0</ele><time>2026-04-26T17:38:21Z</time></trkpt><trkpt lat="40.50286932439821" lon="15.01121179100067"><ele>6.0</ele><time>2026-04-26T17:38:22Z</time></trkpt><trkpt lat="40.5030268519659" lon="15.011248291436821"><ele>6.0</ele><time>2026-04-26T17:38:23Z</time></trkpt><trkpt lat="40.50319239841019" lon="15.011293501183554"><ele>5.666666666666667</ele><time>2026-04-26T17:38:24Z</time></trkpt><trkpt lat="40.503352948906" lon="15.01133763992857"><ele>5.333333333333334</ele><time>2026-04-26T17:38:25Z</time></trkpt><trkpt lat="40.50351814534109" lon="15.011379892313785"><ele>5.0</ele><time>2026-04-26T17:38:26Z</time></trkpt><trkpt lat="40.50368406182597" lon="15.011422821969996"><ele>5.333333333333334</ele><time>2026-04-26T17:38:27Z</time></trkpt><trkpt lat="40.50384916484755" lon="15.011471227400039"><ele>5.666666666666667</ele><time>2026-04-26T17:38:28Z</time></trkpt><trkpt lat="40.50401498552826" lon="15.011520030103842"><ele>6.0</ele><time>2026-04-26T17:38:29Z</time></trkpt><trkpt lat="40.50417910149187" lon="15.011566019828145"><ele>6.0</ele><time>2026-04-26T17:38:30Z</time></trkpt><trkpt lat="40.504341338488416" lon="15.011610506240572"><ele>6.0</ele><time>2026-04-26T17:38:31Z</time></trkpt><trkpt lat="40.504505053161694" lon="15.011655127433736"><ele>6.0</ele><time>2026-04-26T17:38:32Z</time></trkpt><trkpt lat="40.504674867252504" lon="15.011700620057384"><ele>6.0</ele><time>2026-04-26T17:38:33Z</time></trkpt><trkpt lat="40.50485340088665" lon="15.011744817837705"><ele>6.0</ele><time>2026-04-26T17:38:34Z</time></trkpt><trkpt lat="40.50504352275967" lon="15.011791045960917"><ele>6.0</ele><time>2026-04-26T17:38:35Z</time></trkpt><trkpt lat="40.50522356599689" lon="15.01183659928468"><ele>6.0</ele><time>2026-04-26T17:38:36Z</time></trkpt><trkpt lat="40.5054070296831" lon="15.01188548158859"><ele>6.0</ele><time>2026-04-26T17:38:37Z</time></trkpt><trkpt lat="40.505590340030615" lon="15.01193525334668"><ele>6.0</ele><time>2026-04-26T17:38:38Z</time></trkpt><trkpt lat="40.505778711174486" lon="15.011979729966255"><ele>6.333333333333334</ele><time>2026-04-26T17:38:39Z</time></trkpt><trkpt lat="40.505963724747986" lon="15.012028950297484"><ele>6.666666666666667</ele><time>2026-04-26T17:38:40Z</time></trkpt><trkpt lat="40.50614324653938" lon="15.012078801216722"><ele>7.0</ele><time>2026-04-26T17:38:41Z</time></trkpt><trkpt lat="40.50632060334657" lon="15.012125376963686"><ele>7.0</ele><time>2026-04-26T17:38:42Z</time></trkpt><trkpt lat="40.50650544125613" lon="15.01215795908871"><ele>7.0</ele><time>2026-04-26T17:38:43Z</time></trkpt><trkpt lat="40.50669627047968" lon="15.012171605425438"><ele>7.0</ele><time>2026-04-26T17:38:44Z</time></trkpt><trkpt lat="40.50687470974693" lon="15.012162140370862"><ele>7.0</ele><time>2026-04-26T17:38:45Z</time></trkpt><trkpt lat="40.50703026117257" lon="15.012150605000297"><ele>7.0</ele><time>2026-04-26T17:38:46Z</time></trkpt><trkpt lat="40.50719297950214" lon="15.012123590872443"><ele>7.0</ele><time>2026-04-26T17:38:47Z</time></trkpt><trkpt lat="40.50736587356361" lon="15.012070971248654"><ele>7.0</ele><time>2026-04-26T17:38:48Z</time></trkpt><trkpt lat="40.50755078860166" lon="15.011998592010762"><ele>7.0</ele><time>2026-04-26T17:38:49Z</time></trkpt><trkpt lat="40.50775052045938" lon="15.011922351379402"><ele>7.0</ele><time>2026-04-26T17:38:50Z</time></trkpt><trkpt lat="40.50796366138342" lon="15.011862687155132"><ele>7.0</ele><time>2026-04-26T17:38:51Z</time></trkpt><trkpt lat="40.50817601592156" lon="15.01178987713536"><ele>7.0</ele><time>2026-04-26T17:38:52Z</time></trkpt><trkpt lat="40.50837378301466" lon="15.011713018990584"><ele>7.0</ele><time>2026-04-26T17:38:53Z</time></trkpt><trkpt lat="40.50856727852461" lon="15.011642157795775"><ele>6.333333333333334</ele><time>2026-04-26T17:38:54Z</time></trkpt><trkpt lat="40.50874513870155" lon="15.011579151552974"><ele>5.666666666666667</ele><time>2026-04-26T17:38:55Z</time></trkpt><trkpt lat="40.50891216666672" lon="15.011521898430038"><ele>5.0</ele><time>2026-04-26T17:38:56Z</time></trkpt><trkpt lat="40.509072023922585" lon="15.011460488848146"><ele>5.0</ele><time>2026-04-26T17:38:57Z</time></trkpt><trkpt lat="40.50922735573036" lon="15.011403621261238"><ele>5.0</ele><time>2026-04-26T17:38:58Z</time></trkpt><trkpt lat="40.50938578776974" lon="15.011344094271703"><ele>5.0</ele><time>2026-04-26T17:38:59Z</time></trkpt><trkpt lat="40.50954150504793" lon="15.011279239784049"><ele>5.333333333333334</ele><time>2026-04-26T17:39:00Z</time></trkpt><trkpt lat="40.509700967830334" lon="15.011223839052823"><ele>5.666666666666667</ele><time>2026-04-26T17:39:01Z</time></trkpt><trkpt lat="40.50987142126162" lon="15.011160809476"><ele>6.0</ele><time>2026-04-26T17:39:02Z</time></trkpt><trkpt lat="40.51004870134244" lon="15.01109466884527"><ele>6.0</ele><time>2026-04-26T17:39:03Z</time></trkpt><trkpt lat="40.510220273968024" lon="15.011035024755135"><ele>6.0</ele><time>2026-04-26T17:39:04Z</time></trkpt><trkpt lat="40.51038311560291" lon="15.010978176352136"><ele>6.0</ele><time>2026-04-26T17:39:05Z</time></trkpt><trkpt lat="40.510536006383745" lon="15.010921814784933"><ele>6.0</ele><time>2026-04-26T17:39:06Z</time></trkpt><trkpt lat="40.51068625826661" lon="15.010867471111332"><ele>6.0</ele><time>2026-04-26T17:39:07Z</time></trkpt><trkpt lat="40.51083541151" lon="15.010809812377458"><ele>6.0</ele><time>2026-04-26T17:39:08Z</time></trkpt><trkpt lat="40.51098093010897" lon="15.010749473399002"><ele>6.0</ele><time>2026-04-26T17:39:09Z</time></trkpt><trkpt lat="40.51112238074152" lon="15.010697570155738"><ele>6.0</ele><time>2026-04-26T17:39:10Z</time></trkpt><trkpt lat="40.51125330340554" lon="15.01065303907809"><ele>6.0</ele><time>2026-04-26T17:39:11Z</time></trkpt><trkpt lat="40.511377709412486" lon="15.01060590960973"><ele>6.0</ele><time>2026-04-26T17:39:12Z</time></trkpt><trkpt lat="40.51149506047222" lon="15.010558251741797"><ele>6.75</ele><time>2026-04-26T17:39:13Z</time></trkpt><trkpt lat="40.511614608341034" lon="15.010514160950416"><ele>7.5</ele><time>2026-04-26T17:39:14Z</time></trkpt><trkpt lat="40.5117475948822" lon="15.010467779799297"><ele>8.25</ele><time>2026-04-26T17:39:15Z</time></trkpt><trkpt lat="40.51189116585815" lon="15.010413984055997"><ele>9.0</ele><time>2026-04-26T17:39:16Z</time></trkpt><trkpt lat="40.51204368221153" lon="15.010360021755659"><ele>9.0</ele><time>2026-04-26T17:39:17Z</time></trkpt><trkpt lat="40.512198891396125" lon="15.010303817967108"><ele>9.0</ele><time>2026-04-26T17:39:18Z</time></trkpt><trkpt lat="40.512349426718174" lon="15.010250151460768"><ele>9.0</ele><time>2026-04-26T17:39:19Z</time></trkpt><trkpt lat="40.51249459346786" lon="15.010197399538479"><ele>9.0</ele><time>2026-04-26T17:39:20Z</time></trkpt><trkpt lat="40.51263617119237" lon="15.010146774376231"><ele>9.0</ele><time>2026-04-26T17:39:21Z</time></trkpt><trkpt lat="40.512767548105565" lon="15.010096602237383"><ele>9.0</ele><time>2026-04-26T17:39:22Z</time></trkpt><trkpt lat="40.512904961973" lon="15.010042897707837"><ele>9.0</ele><time>2026-04-26T17:39:23Z</time></trkpt><trkpt lat="40.513050889376565" lon="15.00999034872037"><ele>8.666666666666666</ele><time>2026-04-26T17:39:24Z</time></trkpt><trkpt lat="40.51319961396725" lon="15.009941645723133"><ele>8.333333333333332</ele><time>2026-04-26T17:39:25Z</time></trkpt><trkpt lat="40.51335178446067" lon="15.009884594516514"><ele>8.0</ele><time>2026-04-26T17:39:26Z</time></trkpt><trkpt lat="40.51350158858443" lon="15.00983414970767"><ele>8.0</ele><time>2026-04-26T17:39:27Z</time></trkpt><trkpt lat="40.51364198914509" lon="15.009782735484343"><ele>8.0</ele><time>2026-04-26T17:39:28Z</time></trkpt><trkpt lat="40.513775154918044" lon="15.0097346038045"><ele>8.0</ele><time>2026-04-26T17:39:29Z</time></trkpt><trkpt lat="40.51390142235891" lon="15.009685328765636"><ele>8.0</ele><time>2026-04-26T17:39:30Z</time></trkpt><trkpt lat="40.51403016721604" lon="15.0096362949532"><ele>7.75</ele><time>2026-04-26T17:39:31Z</time></trkpt><trkpt lat="40.514162059394884" lon="15.009588040663004"><ele>7.5</ele><time>2026-04-26T17:39:32Z</time></trkpt><trkpt lat="40.51430164844778" lon="15.009534772891072"><ele>7.25</ele><time>2026-04-26T17:39:33Z</time></trkpt><trkpt lat="40.514454541288316" lon="15.009477434948439"><ele>7.0</ele><time>2026-04-26T17:39:34Z</time></trkpt><trkpt lat="40.51462294523383" lon="15.009416263710024"><ele>7.0</ele><time>2026-04-26T17:39:35Z</time></trkpt><trkpt lat="40.51479085709347" lon="15.009362365937873"><ele>7.0</ele><time>2026-04-26T17:39:36Z</time></trkpt><trkpt lat="40.5149400199299" lon="15.009312384366911"><ele>7.0</ele><time>2026-04-26T17:39:37Z</time></trkpt><trkpt lat="40.51508280171207" lon="15.009259926166814"><ele>7.0</ele><time>2026-04-26T17:39:38Z</time></trkpt><trkpt lat="40.51522577089754" lon="15.009205766703742"><ele>7.0</ele><time>2026-04-26T17:39:39Z</time></trkpt><trkpt lat="40.515367424209956" lon="15.009154776729199"><ele>7.0</ele><time>2026-04-26T17:39:40Z</time></trkpt><trkpt lat="40.51550872032754" lon="15.009107965842139"><ele>7.0</ele><time>2026-04-26T17:39:41Z</time></trkpt><trkpt lat="40.51564734977502" lon="15.009060670262325"><ele>7.25</ele><time>2026-04-26T17:39:42Z</time></trkpt><trkpt lat="40.51578580991839" lon="15.00901118009186"><ele>7.5</ele><time>2026-04-26T17:39:43Z</time></trkpt><trkpt lat="40.51592638367561" lon="15.008960330313188"><ele>7.75</ele><time>2026-04-26T17:39:44Z</time></trkpt><trkpt lat="40.516070349210466" lon="15.008911189529096"><ele>8.0</ele><time>2026-04-26T17:39:45Z</time></trkpt><trkpt lat="40.51621524129144" lon="15.008859989001074"><ele>8.25</ele><time>2026-04-26T17:39:46Z</time></trkpt><trkpt lat="40.51635876391443" lon="15.008806839848765"><ele>8.5</ele><time>2026-04-26T17:39:47Z</time></trkpt><trkpt lat="40.51649232372038" lon="15.008756749343142"><ele>8.75</ele><time>2026-04-26T17:39:48Z</time></trkpt><trkpt lat="40.516617091602356" lon="15.008709110213053"><ele>9.0</ele><time>2026-04-26T17:39:49Z</time></trkpt><trkpt lat="40.51673453196478" lon="15.008663629567225"><ele>9.0</ele><time>2026-04-26T17:39:50Z</time></trkpt><trkpt lat="40.51684816294979" lon="15.00862150117268"><ele>9.0</ele><time>2026-04-26T17:39:51Z</time></trkpt><trkpt lat="40.516959494134994" lon="15.008578038997976"><ele>9.0</ele><time>2026-04-26T17:39:52Z</time></trkpt><trkpt lat="40.51708252246012" lon="15.008527258227463"><ele>9.0</ele><time>2026-04-26T17:39:53Z</time></trkpt><trkpt lat="40.51721077848854" lon="15.008465066584446"><ele>9.25</ele><time>2026-04-26T17:39:54Z</time></trkpt><trkpt lat="40.51734799834125" lon="15.008383262775565"><ele>9.5</ele><time>2026-04-26T17:39:55Z</time></trkpt><trkpt lat="40.51748199814087" lon="15.008297847508027"><ele>9.75</ele><time>2026-04-26T17:39:56Z</time></trkpt><trkpt lat="40.51761675408575" lon="15.008211679948198"><ele>10.0</ele><time>2026-04-26T17:39:57Z</time></trkpt><trkpt lat="40.517747267843845" lon="15.008122199756164"><ele>10.0</ele><time>2026-04-26T17:39:58Z</time></trkpt><trkpt lat="40.517876660542946" lon="15.00802950602323"><ele>10.0</ele><time>2026-04-26T17:39:59Z</time></trkpt><trkpt lat="40.51800217015098" lon="15.00793459773634"><ele>10.0</ele><time>2026-04-26T17:40:00Z</time></trkpt><trkpt lat="40.51811598442423" lon="15.007841056556297"><ele>10.0</ele><time>2026-04-26T17:40:01Z</time></trkpt><trkpt lat="40.51823037728555" lon="15.007739811016188"><ele>10.75</ele><time>2026-04-26T17:40:02Z</time></trkpt><trkpt lat="40.51833558097542" lon="15.007638117335405"><ele>11.5</ele><time>2026-04-26T17:40:03Z</time></trkpt><trkpt lat="40.51842824110932" lon="15.007542890076232"><ele>12.25</ele><time>2026-04-26T17:40:04Z</time></trkpt><trkpt lat="40.51851106900263" lon="15.007453629103841"><ele>13.0</ele><time>2026-04-26T17:40:05Z</time></trkpt><trkpt lat="40.518591969109316" lon="15.007360866633492"><ele>13.0</ele><time>2026-04-26T17:40:06Z</time></trkpt><trkpt lat="40.51867194636215" lon="15.007265102727802"><ele>13.0</ele><time>2026-04-26T17:40:07Z</time></trkpt><trkpt lat="40.51875488018234" lon="15.007158738668286"><ele>13.0</ele><time>2026-04-26T17:40:08Z</time></trkpt><trkpt lat="40.51884685280419" lon="15.00703640398679"><ele>13.0</ele><time>2026-04-26T17:40:09Z</time></trkpt><trkpt lat="40.51894774823135" lon="15.006899377244517"><ele>13.0</ele><time>2026-04-26T17:40:10Z</time></trkpt><trkpt lat="40.5190424722544" lon="15.006759208387864"><ele>13.0</ele><time>2026-04-26T17:40:11Z</time></trkpt><trkpt lat="40.51912857223698" lon="15.006620662842803"><ele>13.0</ele><time>2026-04-26T17:40:12Z</time></trkpt><trkpt lat="40.51921289173917" lon="15.006482670614957"><ele>13.0</ele><time>2026-04-26T17:40:13Z</time></trkpt><trkpt lat="40.51929206959229" lon="15.006339822731402"><ele>13.0</ele><time>2026-04-26T17:40:14Z</time></trkpt><trkpt lat="40.519363108728" lon="15.006201060261732"><ele>13.0</ele><time>2026-04-26T17:40:15Z</time></trkpt><trkpt lat="40.519431869541116" lon="15.006073074364423"><ele>13.0</ele><time>2026-04-26T17:40:16Z</time></trkpt><trkpt lat="40.519502029177865" lon="15.005948442820225"><ele>13.0</ele><time>2026-04-26T17:40:17Z</time></trkpt><trkpt lat="40.519563006170465" lon="15.005829661206134"><ele>13.25</ele><time>2026-04-26T17:40:18Z</time></trkpt><trkpt lat="40.51963038946292" lon="15.005717876284521"><ele>13.5</ele><time>2026-04-26T17:40:19Z</time></trkpt><trkpt lat="40.51970793299935" lon="15.005605324004609"><ele>13.75</ele><time>2026-04-26T17:40:20Z</time></trkpt><trkpt lat="40.519790647318274" lon="15.005492132248724"><ele>14.0</ele><time>2026-04-26T17:40:21Z</time></trkpt><trkpt lat="40.51988431012242" lon="15.005380062240503"><ele>14.0</ele><time>2026-04-26T17:40:22Z</time></trkpt><trkpt lat="40.51998847089953" lon="15.005264234627402"><ele>14.0</ele><time>2026-04-26T17:40:23Z</time></trkpt><trkpt lat="40.520095806697604" lon="15.00514763063989"><ele>14.0</ele><time>2026-04-26T17:40:24Z</time></trkpt><trkpt lat="40.520206820775066" lon="15.005042548810517"><ele>14.0</ele><time>2026-04-26T17:40:25Z</time></trkpt><trkpt lat="40.52032040412193" lon="15.00494511110502"><ele>15.0</ele><time>2026-04-26T17:40:26Z</time></trkpt><trkpt lat="40.520432783564736" lon="15.004846136087675"><ele>16.0</ele><time>2026-04-26T17:40:27Z</time></trkpt><trkpt lat="40.52054141595271" lon="15.004745984151166"><ele>17.0</ele><time>2026-04-26T17:40:28Z</time></trkpt><trkpt lat="40.520667884316524" lon="15.00462723007353"><ele>18.0</ele><time>2026-04-26T17:40:29Z</time></trkpt><trkpt lat="40.5208145950737" lon="15.004516511608607"><ele>18.0</ele><time>2026-04-26T17:40:30Z</time></trkpt><trkpt lat="40.52095036026735" lon="15.004414297959926"><ele>18.0</ele><time>2026-04-26T17:40:31Z</time></trkpt><trkpt lat="40.521071408705275" lon="15.004306410200094"><ele>18.0</ele><time>2026-04-26T17:40:32Z</time></trkpt><trkpt lat="40.521186190382714" lon="15.004206083024329"><ele>18.0</ele><time>2026-04-26T17:40:33Z</time></trkpt><trkpt lat="40.52130341334358" lon="15.004102360467014"><ele>17.75</ele><time>2026-04-26T17:40:34Z</time></trkpt><trkpt lat="40.521417145334645" lon="15.00400322027203"><ele>17.5</ele><time>2026-04-26T17:40:35Z</time></trkpt><trkpt lat="40.521531084109725" lon="15.003898728566755"><ele>17.25</ele><time>2026-04-26T17:40:36Z</time></trkpt><trkpt lat="40.521642085476074" lon="15.003787162412456"><ele>17.0</ele><time>2026-04-26T17:40:37Z</time></trkpt><trkpt lat="40.52175908010918" lon="15.003695120673147"><ele>17.0</ele><time>2026-04-26T17:40:38Z</time></trkpt><trkpt lat="40.5218700246862" lon="15.003600651725183"><ele>17.0</ele><time>2026-04-26T17:40:39Z</time></trkpt><trkpt lat="40.52198404670957" lon="15.003505840210227"><ele>17.0</ele><time>2026-04-26T17:40:40Z</time></trkpt><trkpt lat="40.5221014297131" lon="15.003409959771778"><ele>17.0</ele><time>2026-04-26T17:40:41Z</time></trkpt><trkpt lat="40.52221951961861" lon="15.003301924031776"><ele>17.0</ele><time>2026-04-26T17:40:42Z</time></trkpt><trkpt lat="40.52234147888566" lon="15.003196865607679"><ele>17.0</ele><time>2026-04-26T17:40:43Z</time></trkpt><trkpt lat="40.52246431085612" lon="15.003079941214446"><ele>17.0</ele><time>2026-04-26T17:40:44Z</time></trkpt><trkpt lat="40.52258915544717" lon="15.002968546719737"><ele>17.0</ele><time>2026-04-26T17:40:45Z</time></trkpt><trkpt lat="40.522700445046524" lon="15.002862819279295"><ele>17.0</ele><time>2026-04-26T17:40:46Z</time></trkpt><trkpt lat="40.52280546743775" lon="15.00276555907426"><ele>17.0</ele><time>2026-04-26T17:40:47Z</time></trkpt><trkpt lat="40.52290567205832" lon="15.002679518957352"><ele>17.0</ele><time>2026-04-26T17:40:48Z</time></trkpt><trkpt lat="40.52300362753547" lon="15.002601337728088"><ele>17.0</ele><time>2026-04-26T17:40:49Z</time></trkpt><trkpt lat="40.523109755288914" lon="15.00251057293721"><ele>17.0</ele><time>2026-04-26T17:40:50Z</time></trkpt><trkpt lat="40.52322095148672" lon="15.002411982181522"><ele>17.0</ele><time>2026-04-26T17:40:51Z</time></trkpt><trkpt lat="40.52330997912877" lon="15.002329871453977"><ele>17.0</ele><time>2026-04-26T17:40:52Z</time></trkpt><trkpt lat="40.52339610541901" lon="15.0022414414185"><ele>17.0</ele><time>2026-04-26T17:40:53Z</time></trkpt><trkpt lat="40.523494393266425" lon="15.002166167666676"><ele>17.0</ele><time>2026-04-26T17:40:54Z</time></trkpt><trkpt lat="40.52358425295154" lon="15.00210925294611"><ele>17.0</ele><time>2026-04-26T17:40:55Z</time></trkpt><trkpt lat="40.52370501501053" lon="15.002067576327551"><ele>17.0</ele><time>2026-04-26T17:40:57Z</time></trkpt><trkpt lat="40.52383885723941" lon="15.002103493514632"><ele>17.0</ele><time>2026-04-26T17:40:59Z</time></trkpt><trkpt lat="40.523918065762395" lon="15.002131287525327"><ele>17.0</ele><time>2026-04-26T17:41:00Z</time></trkpt><trkpt lat="40.52398722562818" lon="15.002168130888316"><ele>17.0</ele><time>2026-04-26T17:41:01Z</time></trkpt><trkpt lat="40.52404462699517" lon="15.00223532154995"><ele>17.0</ele><time>2026-04-26T17:41:03Z</time></trkpt><trkpt lat="40.52412617022134" lon="15.002340010670073"><ele>17.0</ele><time>2026-04-26T17:41:05Z</time></trkpt><trkpt lat="40.524185959657174" lon="15.002438465163003"><ele>17.0</ele><time>2026-04-26T17:41:07Z</time></trkpt><trkpt lat="40.52427806666421" lon="15.002591366722553"><ele>17.0</ele><time>2026-04-26T17:41:09Z</time></trkpt><trkpt lat="40.52435014251398" lon="15.002701935933716"><ele>17.25</ele><time>2026-04-26T17:41:10Z</time></trkpt><trkpt lat="40.52442028690111" lon="15.002816089496557"><ele>17.5</ele><time>2026-04-26T17:41:11Z</time></trkpt><trkpt lat="40.52450768310304" lon="15.002936280707855"><ele>17.75</ele><time>2026-04-26T17:41:12Z</time></trkpt><trkpt lat="40.52460961069739" lon="15.003072990716797"><ele>18.0</ele><time>2026-04-26T17:41:13Z</time></trkpt><trkpt lat="40.52472286785195" lon="15.003218857049822"><ele>17.333333333333332</ele><time>2026-04-26T17:41:14Z</time></trkpt><trkpt lat="40.52482628269349" lon="15.003362365298502"><ele>16.666666666666664</ele><time>2026-04-26T17:41:15Z</time></trkpt><trkpt lat="40.524943386040746" lon="15.003509943784174"><ele>16.0</ele><time>2026-04-26T17:41:16Z</time></trkpt><trkpt lat="40.525075937277556" lon="15.003656578565458"><ele>16.0</ele><time>2026-04-26T17:41:17Z</time></trkpt><trkpt lat="40.525219986600035" lon="15.003801650827254"><ele>16.0</ele><time>2026-04-26T17:41:18Z</time></trkpt><trkpt lat="40.52537640348566" lon="15.003956236701118"><ele>16.0</ele><time>2026-04-26T17:41:19Z</time></trkpt><trkpt lat="40.52554486689307" lon="15.004113793607782"><ele>16.0</ele><time>2026-04-26T17:41:20Z</time></trkpt><trkpt lat="40.52571670270245" lon="15.004285659944998"><ele>16.0</ele><time>2026-04-26T17:41:21Z</time></trkpt><trkpt lat="40.52588998865216" lon="15.004470532162447"><ele>16.0</ele><time>2026-04-26T17:41:22Z</time></trkpt><trkpt lat="40.52605428160917" lon="15.004662201735577"><ele>16.0</ele><time>2026-04-26T17:41:23Z</time></trkpt><trkpt lat="40.52620379709102" lon="15.00486496700337"><ele>16.0</ele><time>2026-04-26T17:41:24Z</time></trkpt><trkpt lat="40.52634218264654" lon="15.005056413359664"><ele>16.0</ele><time>2026-04-26T17:41:25Z</time></trkpt><trkpt lat="40.526467144948256" lon="15.005231423415482"><ele>16.333333333333332</ele><time>2026-04-26T17:41:26Z</time></trkpt><trkpt lat="40.526580179030795" lon="15.005402420977733"><ele>16.666666666666668</ele><time>2026-04-26T17:41:27Z</time></trkpt><trkpt lat="40.5266956011448" lon="15.005601265583271"><ele>17.0</ele><time>2026-04-26T17:41:28Z</time></trkpt><trkpt lat="40.52681399250646" lon="15.005817015557554"><ele>16.666666666666668</ele><time>2026-04-26T17:41:29Z</time></trkpt><trkpt lat="40.52693206574949" lon="15.00603378775601"><ele>16.333333333333332</ele><time>2026-04-26T17:41:30Z</time></trkpt><trkpt lat="40.52704181832017" lon="15.006239593179824"><ele>16.0</ele><time>2026-04-26T17:41:31Z</time></trkpt><trkpt lat="40.527146657405524" lon="15.006429757634844"><ele>15.666666666666666</ele><time>2026-04-26T17:41:32Z</time></trkpt><trkpt lat="40.52724977376258" lon="15.00661097037716"><ele>15.333333333333332</ele><time>2026-04-26T17:41:33Z</time></trkpt><trkpt lat="40.52734213746123" lon="15.00677681210704"><ele>15.0</ele><time>2026-04-26T17:41:34Z</time></trkpt><trkpt lat="40.52743400018056" lon="15.006939830230984"><ele>15.0</ele><time>2026-04-26T17:41:35Z</time></trkpt><trkpt lat="40.527524529458454" lon="15.00708896373258"><ele>15.0</ele><time>2026-04-26T17:41:36Z</time></trkpt><trkpt lat="40.52761281313455" lon="15.007243004136095"><ele>15.0</ele><time>2026-04-26T17:41:37Z</time></trkpt><trkpt lat="40.52771589924452" lon="15.007405248500937"><ele>15.666666666666668</ele><time>2026-04-26T17:41:38Z</time></trkpt><trkpt lat="40.52782398937555" lon="15.007569673776816"><ele>16.333333333333336</ele><time>2026-04-26T17:41:39Z</time></trkpt><trkpt lat="40.527924441503366" lon="15.007725004718976"><ele>17.0</ele><time>2026-04-26T17:41:40Z</time></trkpt><trkpt lat="40.52802202268867" lon="15.00787710380403"><ele>17.0</ele><time>2026-04-26T17:41:41Z</time></trkpt><trkpt lat="40.52812239839731" lon="15.008031163161105"><ele>17.0</ele><time>2026-04-26T17:41:42Z</time></trkpt><trkpt lat="40.52823270821708" lon="15.008190149941896"><ele>17.0</ele><time>2026-04-26T17:41:43Z</time></trkpt><trkpt lat="40.52834398364464" lon="15.008351664160749"><ele>17.666666666666668</ele><time>2026-04-26T17:41:44Z</time></trkpt><trkpt lat="40.52844732596723" lon="15.00850397822824"><ele>18.333333333333332</ele><time>2026-04-26T17:41:45Z</time></trkpt><trkpt lat="40.528559834982296" lon="15.00866445427261"><ele>19.0</ele><time>2026-04-26T17:41:46Z</time></trkpt><trkpt lat="40.528680897333814" lon="15.008832140020916"><ele>18.333333333333332</ele><time>2026-04-26T17:41:47Z</time></trkpt><trkpt lat="40.52880299781841" lon="15.009000098679913"><ele>17.666666666666668</ele><time>2026-04-26T17:41:48Z</time></trkpt><trkpt lat="40.52892432883211" lon="15.009165479821451"><ele>17.0</ele><time>2026-04-26T17:41:49Z</time></trkpt><trkpt lat="40.529040125022696" lon="15.009333166104291"><ele>17.0</ele><time>2026-04-26T17:41:50Z</time></trkpt><trkpt lat="40.529155754494916" lon="15.009502764946248"><ele>17.0</ele><time>2026-04-26T17:41:51Z</time></trkpt><trkpt lat="40.52927721511521" lon="15.00967267516488"><ele>17.0</ele><time>2026-04-26T17:41:52Z</time></trkpt><trkpt lat="40.52939738485392" lon="15.009840274607054"><ele>17.333333333333336</ele><time>2026-04-26T17:41:53Z</time></trkpt><trkpt lat="40.52952426163883" lon="15.010009150753453"><ele>17.666666666666668</ele><time>2026-04-26T17:41:54Z</time></trkpt><trkpt lat="40.529648446315576" lon="15.0101807727944"><ele>18.0</ele><time>2026-04-26T17:41:55Z</time></trkpt><trkpt lat="40.52977406404102" lon="15.0103530147934"><ele>18.0</ele><time>2026-04-26T17:41:56Z</time></trkpt><trkpt lat="40.529895289969794" lon="15.010526333250223"><ele>18.0</ele><time>2026-04-26T17:41:57Z</time></trkpt><trkpt lat="40.53001783775279" lon="15.0106962252648"><ele>18.0</ele><time>2026-04-26T17:41:58Z</time></trkpt><trkpt lat="40.53014242612833" lon="15.010862945854244"><ele>18.0</ele><time>2026-04-26T17:41:59Z</time></trkpt><trkpt lat="40.530265898879136" lon="15.011031359152714"><ele>18.0</ele><time>2026-04-26T17:42:00Z</time></trkpt><trkpt lat="40.53038986426912" lon="15.011202519726586"><ele>18.0</ele><time>2026-04-26T17:42:01Z</time></trkpt><trkpt lat="40.53051743939281" lon="15.011377843541034"><ele>18.0</ele><time>2026-04-26T17:42:02Z</time></trkpt><trkpt lat="40.53064153658078" lon="15.011555641272267"><ele>18.0</ele><time>2026-04-26T17:42:03Z</time></trkpt><trkpt lat="40.53076759913737" lon="15.011733457521661"><ele>18.0</ele><time>2026-04-26T17:42:04Z</time></trkpt><trkpt lat="40.53089548117238" lon="15.011911803490301"><ele>18.0</ele><time>2026-04-26T17:42:05Z</time></trkpt><trkpt lat="40.531026165427676" lon="15.01209193931154"><ele>18.0</ele><time>2026-04-26T17:42:06Z</time></trkpt><trkpt lat="40.53115266308115" lon="15.012270646630839"><ele>18.0</ele><time>2026-04-26T17:42:07Z</time></trkpt><trkpt lat="40.531280057883045" lon="15.012449427590823"><ele>18.333333333333332</ele><time>2026-04-26T17:42:08Z</time></trkpt><trkpt lat="40.531408027071" lon="15.012628291919757"><ele>18.666666666666664</ele><time>2026-04-26T17:42:09Z</time></trkpt><trkpt lat="40.53153777986461" lon="15.012805781730128"><ele>19.0</ele><time>2026-04-26T17:42:10Z</time></trkpt><trkpt lat="40.531662773076334" lon="15.012981271731734"><ele>19.0</ele><time>2026-04-26T17:42:11Z</time></trkpt><trkpt lat="40.53179102845555" lon="15.013165847806933"><ele>19.0</ele><time>2026-04-26T17:42:12Z</time></trkpt><trkpt lat="40.53192238413584" lon="15.013355878061205"><ele>19.0</ele><time>2026-04-26T17:42:13Z</time></trkpt><trkpt lat="40.53205706091121" lon="15.013546953276474"><ele>18.333333333333332</ele><time>2026-04-26T17:42:14Z</time></trkpt><trkpt lat="40.53218634888395" lon="15.0137331971965"><ele>17.666666666666668</ele><time>2026-04-26T17:42:15Z</time></trkpt><trkpt lat="40.532317438505174" lon="15.013918969367372"><ele>17.0</ele><time>2026-04-26T17:42:16Z</time></trkpt><trkpt lat="40.53244690062144" lon="15.014099323711681"><ele>17.666666666666668</ele><time>2026-04-26T17:42:17Z</time></trkpt><trkpt lat="40.532578654354666" lon="15.01428525887605"><ele>18.333333333333332</ele><time>2026-04-26T17:42:18Z</time></trkpt><trkpt lat="40.532711710550686" lon="15.014472636930988"><ele>19.0</ele><time>2026-04-26T17:42:19Z</time></trkpt><trkpt lat="40.53284446406584" lon="15.014656111501022"><ele>19.0</ele><time>2026-04-26T17:42:20Z</time></trkpt><trkpt lat="40.53297796195327" lon="15.014840894292885"><ele>19.0</ele><time>2026-04-26T17:42:21Z</time></trkpt><trkpt lat="40.53311429777029" lon="15.015025321355965"><ele>19.0</ele><time>2026-04-26T17:42:22Z</time></trkpt><trkpt lat="40.53324782330462" lon="15.015211153785883"><ele>19.0</ele><time>2026-04-26T17:42:23Z</time></trkpt><trkpt lat="40.53337978496509" lon="15.015391750401934"><ele>19.0</ele><time>2026-04-26T17:42:24Z</time></trkpt><trkpt lat="40.533497886501706" lon="15.015560414057472"><ele>19.0</ele><time>2026-04-26T17:42:25Z</time></trkpt><trkpt lat="40.533610904376964" lon="15.01572378499157"><ele>18.666666666666664</ele><time>2026-04-26T17:42:26Z</time></trkpt><trkpt lat="40.53371934036794" lon="15.01587773552691"><ele>18.333333333333332</ele><time>2026-04-26T17:42:27Z</time></trkpt><trkpt lat="40.53383040159935" lon="15.01602926373379"><ele>18.0</ele><time>2026-04-26T17:42:28Z</time></trkpt><trkpt lat="40.53394519192309" lon="15.016188186147389"><ele>18.333333333333332</ele><time>2026-04-26T17:42:29Z</time></trkpt><trkpt lat="40.53406549951636" lon="15.016355211972506"><ele>18.666666666666664</ele><time>2026-04-26T17:42:30Z</time></trkpt><trkpt lat="40.53418856882866" lon="15.01652929578111"><ele>19.0</ele><time>2026-04-26T17:42:31Z</time></trkpt><trkpt lat="40.534314965750426" lon="15.016711809327088"><ele>19.0</ele><time>2026-04-26T17:42:32Z</time></trkpt><trkpt lat="40.53444724677604" lon="15.016900136246342"><ele>19.0</ele><time>2026-04-26T17:42:33Z</time></trkpt><trkpt lat="40.53458469225643" lon="15.017092593770897"><ele>19.0</ele><time>2026-04-26T17:42:34Z</time></trkpt><trkpt lat="40.53472606871434" lon="15.017290893180016"><ele>20.333333333333332</ele><time>2026-04-26T17:42:35Z</time></trkpt><trkpt lat="40.53486792161888" lon="15.01749568175627"><ele>21.666666666666668</ele><time>2026-04-26T17:42:36Z</time></trkpt><trkpt lat="40.53501659996845" lon="15.017703838814672"><ele>23.0</ele><time>2026-04-26T17:42:37Z</time></trkpt><trkpt lat="40.5351701277888" lon="15.017914437001963"><ele>23.0</ele><time>2026-04-26T17:42:38Z</time></trkpt><trkpt lat="40.53532752537829" lon="15.018129316083254"><ele>23.0</ele><time>2026-04-26T17:42:39Z</time></trkpt><trkpt lat="40.53548952008785" lon="15.018349762039152"><ele>22.0</ele><time>2026-04-26T17:42:40Z</time></trkpt><trkpt lat="40.53564932928492" lon="15.01857409473669"><ele>21.0</ele><time>2026-04-26T17:42:41Z</time></trkpt><trkpt lat="40.535803112288946" lon="15.018794201654778"><ele>21.0</ele><time>2026-04-26T17:42:42Z</time></trkpt><trkpt lat="40.5359545583226" lon="15.019005949281379"><ele>21.0</ele><time>2026-04-26T17:42:43Z</time></trkpt><trkpt lat="40.53610378351212" lon="15.019206446574925"><ele>21.0</ele><time>2026-04-26T17:42:44Z</time></trkpt><trkpt lat="40.53624660451107" lon="15.019401196720557"><ele>22.0</ele><time>2026-04-26T17:42:45Z</time></trkpt><trkpt lat="40.53637832435914" lon="15.019592061085165"><ele>23.0</ele><time>2026-04-26T17:42:46Z</time></trkpt><trkpt lat="40.536514289084245" lon="15.01978490491261"><ele>24.0</ele><time>2026-04-26T17:42:47Z</time></trkpt><trkpt lat="40.53665547045004" lon="15.019975802530881"><ele>24.333333333333336</ele><time>2026-04-26T17:42:48Z</time></trkpt><trkpt lat="40.53679820303746" lon="15.020173890842797"><ele>24.666666666666668</ele><time>2026-04-26T17:42:49Z</time></trkpt><trkpt lat="40.53694218513367" lon="15.020376271683457"><ele>25.0</ele><time>2026-04-26T17:42:50Z</time></trkpt><trkpt lat="40.537087329223766" lon="15.020578935292818"><ele>25.0</ele><time>2026-04-26T17:42:51Z</time></trkpt><trkpt lat="40.53724014649926" lon="15.020790082161085"><ele>25.0</ele><time>2026-04-26T17:42:52Z</time></trkpt><trkpt lat="40.53740155847588" lon="15.02100621815208"><ele>24.5</ele><time>2026-04-26T17:42:53Z</time></trkpt><trkpt lat="40.53756472274715" lon="15.02123457585875"><ele>24.0</ele><time>2026-04-26T17:42:54Z</time></trkpt><trkpt lat="40.537731310292635" lon="15.021470505290036"><ele>23.5</ele><time>2026-04-26T17:42:55Z</time></trkpt><trkpt lat="40.53789765530056" lon="15.021713972755467"><ele>23.0</ele><time>2026-04-26T17:42:56Z</time></trkpt><trkpt lat="40.5380561676559" lon="15.02194951747923"><ele>23.0</ele><time>2026-04-26T17:42:57Z</time></trkpt><trkpt lat="40.53820931998346" lon="15.022171065242455"><ele>23.0</ele><time>2026-04-26T17:42:58Z</time></trkpt><trkpt lat="40.53835988078958" lon="15.022389436869398"><ele>23.333333333333336</ele><time>2026-04-26T17:42:59Z</time></trkpt><trkpt lat="40.53850762785978" lon="15.02259992315914"><ele>23.666666666666668</ele><time>2026-04-26T17:43:00Z</time></trkpt><trkpt lat="40.53865870654053" lon="15.022807225550183"><ele>24.0</ele><time>2026-04-26T17:43:01Z</time></trkpt><trkpt lat="40.53881135190554" lon="15.02300868071659"><ele>24.0</ele><time>2026-04-26T17:43:02Z</time></trkpt><trkpt lat="40.538973552859076" lon="15.023205502817623"><ele>24.0</ele><time>2026-04-26T17:43:03Z</time></trkpt><trkpt lat="40.53914526523347" lon="15.02339842647005"><ele>24.0</ele><time>2026-04-26T17:43:04Z</time></trkpt><trkpt lat="40.53932734037615" lon="15.023585396680284"><ele>25.0</ele><time>2026-04-26T17:43:05Z</time></trkpt><trkpt lat="40.539509793799304" lon="15.023775331478259"><ele>26.0</ele><time>2026-04-26T17:43:06Z</time></trkpt><trkpt lat="40.53970112899779" lon="15.02396683478187"><ele>25.5</ele><time>2026-04-26T17:43:07Z</time></trkpt><trkpt lat="40.53989122068555" lon="15.024158658226835"><ele>25.0</ele><time>2026-04-26T17:43:08Z</time></trkpt><trkpt lat="40.540073389430816" lon="15.024348729944826"><ele>25.0</ele><time>2026-04-26T17:43:09Z</time></trkpt><trkpt lat="40.54025041846528" lon="15.024532935914948"><ele>25.0</ele><time>2026-04-26T17:43:10Z</time></trkpt><trkpt lat="40.5404213659499" lon="15.02470739451052"><ele>25.0</ele><time>2026-04-26T17:43:11Z</time></trkpt><trkpt lat="40.540586734921185" lon="15.02487734823046"><ele>24.333333333333336</ele><time>2026-04-26T17:43:12Z</time></trkpt><trkpt lat="40.54075867257177" lon="15.025041437561857"><ele>23.666666666666668</ele><time>2026-04-26T17:43:13Z</time></trkpt><trkpt lat="40.540929147083794" lon="15.025211464214435"><ele>23.0</ele><time>2026-04-26T17:43:14Z</time></trkpt><trkpt lat="40.54109651460184" lon="15.025384227893516"><ele>23.666666666666668</ele><time>2026-04-26T17:43:15Z</time></trkpt><trkpt lat="40.54126059125006" lon="15.025553820793135"><ele>24.333333333333336</ele><time>2026-04-26T17:43:16Z</time></trkpt><trkpt lat="40.54142080211125" lon="15.025720130527338"><ele>25.0</ele><time>2026-04-26T17:43:17Z</time></trkpt><trkpt lat="40.541579700354795" lon="15.025885953643392"><ele>25.0</ele><time>2026-04-26T17:43:18Z</time></trkpt><trkpt lat="40.541742167703134" lon="15.026050261460107"><ele>25.0</ele><time>2026-04-26T17:43:19Z</time></trkpt><trkpt lat="40.54190864719163" lon="15.026214693737755"><ele>25.0</ele><time>2026-04-26T17:43:20Z</time></trkpt><trkpt lat="40.5420697343649" lon="15.026380013411327"><ele>25.0</ele><time>2026-04-26T17:43:21Z</time></trkpt><trkpt lat="40.542226259388755" lon="15.02654148098987"><ele>25.0</ele><time>2026-04-26T17:43:22Z</time></trkpt><trkpt lat="40.542381534563006" lon="15.02670363558667"><ele>25.0</ele><time>2026-04-26T17:43:23Z</time></trkpt><trkpt lat="40.54254267665977" lon="15.026868921842224"><ele>25.0</ele><time>2026-04-26T17:43:24Z</time></trkpt><trkpt lat="40.54270669306409" lon="15.027032370715826"><ele>25.0</ele><time>2026-04-26T17:43:25Z</time></trkpt><trkpt lat="40.5428748657534" lon="15.027199796017413"><ele>25.0</ele><time>2026-04-26T17:43:26Z</time></trkpt><trkpt lat="40.54304506870631" lon="15.02737194969988"><ele>25.666666666666668</ele><time>2026-04-26T17:43:27Z</time></trkpt><trkpt lat="40.543215215471896" lon="15.027540749492525"><ele>26.333333333333336</ele><time>2026-04-26T17:43:28Z</time></trkpt><trkpt lat="40.54337120647134" lon="15.02769757799315"><ele>27.0</ele><time>2026-04-26T17:43:29Z</time></trkpt><trkpt lat="40.54351723887932" lon="15.027848735864167"><ele>27.0</ele><time>2026-04-26T17:43:30Z</time></trkpt><trkpt lat="40.543664190720875" lon="15.02799517954784"><ele>27.0</ele><time>2026-04-26T17:43:31Z</time></trkpt><trkpt lat="40.54380400032984" lon="15.028134326041835"><ele>27.0</ele><time>2026-04-26T17:43:32Z</time></trkpt><trkpt lat="40.543946616065426" lon="15.028268310026936"><ele>28.666666666666664</ele><time>2026-04-26T17:43:33Z</time></trkpt><trkpt lat="40.54409692791753" lon="15.02840731237646"><ele>30.333333333333332</ele><time>2026-04-26T17:43:34Z</time></trkpt><trkpt lat="40.544236567591085" lon="15.028552449577443"><ele>32.0</ele><time>2026-04-26T17:43:35Z</time></trkpt><trkpt lat="40.54436127493015" lon="15.028686029477358"><ele>32.0</ele><time>2026-04-26T17:43:36Z</time></trkpt><trkpt lat="40.54447733002195" lon="15.02879926991653"><ele>32.0</ele><time>2026-04-26T17:43:37Z</time></trkpt><trkpt lat="40.54458214855944" lon="15.028901851985108"><ele>32.0</ele><time>2026-04-26T17:43:38Z</time></trkpt><trkpt lat="40.54468943488172" lon="15.029007396066483"><ele>32.0</ele><time>2026-04-26T17:43:39Z</time></trkpt><trkpt lat="40.54477886738663" lon="15.02909195034123"><ele>32.6</ele><time>2026-04-26T17:43:40Z</time></trkpt><trkpt lat="40.544856623839955" lon="15.02916209929959"><ele>33.2</ele><time>2026-04-26T17:43:41Z</time></trkpt><trkpt lat="40.54491408706262" lon="15.029214043993786"><ele>33.8</ele><time>2026-04-26T17:43:42Z</time></trkpt><trkpt lat="40.54501055158072" lon="15.02930718247633"><ele>34.4</ele><time>2026-04-26T17:43:44Z</time></trkpt><trkpt lat="40.54509193624547" lon="15.029385658097187"><ele>35.0</ele><time>2026-04-26T17:43:46Z</time></trkpt><trkpt lat="40.54516290220719" lon="15.029470451154408"><ele>35.0</ele><time>2026-04-26T17:43:48Z</time></trkpt><trkpt lat="40.54522735842818" lon="15.029591405115864"><ele>35.0</ele><time>2026-04-26T17:43:50Z</time></trkpt><trkpt lat="40.54527436195796" lon="15.029723675198845"><ele>35.0</ele><time>2026-04-26T17:43:52Z</time></trkpt><trkpt lat="40.545353058793275" lon="15.02982815119074"><ele>35.0</ele><time>2026-04-26T17:43:54Z</time></trkpt><trkpt lat="40.54541796145395" lon="15.029844996971423"><ele>35.0</ele><time>2026-04-26T17:43:55Z</time></trkpt><trkpt lat="40.545486019215424" lon="15.029858126216602"><ele>35.2</ele><time>2026-04-26T17:43:56Z</time></trkpt><trkpt lat="40.54556290478113" lon="15.02988766172302"><ele>35.4</ele><time>2026-04-26T17:43:57Z</time></trkpt><trkpt lat="40.54564471984186" lon="15.029933858727624"><ele>35.6</ele><time>2026-04-26T17:43:58Z</time></trkpt><trkpt lat="40.545747760314896" lon="15.030004414802258"><ele>35.8</ele><time>2026-04-26T17:43:59Z</time></trkpt><trkpt lat="40.545863662272914" lon="15.030111928727246"><ele>36.0</ele><time>2026-04-26T17:44:00Z</time></trkpt><trkpt lat="40.54599307432837" lon="15.030236395435452"><ele>36.0</ele><time>2026-04-26T17:44:01Z</time></trkpt><trkpt lat="40.54612703158471" lon="15.030357544487577"><ele>36.0</ele><time>2026-04-26T17:44:02Z</time></trkpt><trkpt lat="40.54627961265008" lon="15.030490336528617"><ele>36.0</ele><time>2026-04-26T17:44:03Z</time></trkpt><trkpt lat="40.546436432223906" lon="15.030644001274558"><ele>35.666666666666664</ele><time>2026-04-26T17:44:04Z</time></trkpt><trkpt lat="40.54660131274278" lon="15.030809257214946"><ele>35.33333333333333</ele><time>2026-04-26T17:44:05Z</time></trkpt><trkpt lat="40.546780296001835" lon="15.030974722280225"><ele>35.0</ele><time>2026-04-26T17:44:06Z</time></trkpt><trkpt lat="40.546963830919154" lon="15.031150017076957"><ele>35.0</ele><time>2026-04-26T17:44:07Z</time></trkpt><trkpt lat="40.5471535770252" lon="15.03133263449373"><ele>35.0</ele><time>2026-04-26T17:44:08Z</time></trkpt><trkpt lat="40.54734444687931" lon="15.031515059366784"><ele>35.0</ele><time>2026-04-26T17:44:09Z</time></trkpt><trkpt lat="40.547545299641605" lon="15.031703838728891"><ele>35.0</ele><time>2026-04-26T17:44:10Z</time></trkpt><trkpt lat="40.54774773516073" lon="15.031900340199533"><ele>35.5</ele><time>2026-04-26T17:44:11Z</time></trkpt><trkpt lat="40.54795011330863" lon="15.032112780175199"><ele>36.0</ele><time>2026-04-26T17:44:12Z</time></trkpt><trkpt lat="40.54816174958071" lon="15.032321110493896"><ele>35.5</ele><time>2026-04-26T17:44:13Z</time></trkpt><trkpt lat="40.54837893004241" lon="15.032532061471622"><ele>35.0</ele><time>2026-04-26T17:44:14Z</time></trkpt><trkpt lat="40.54860138318615" lon="15.032745562015231"><ele>34.0</ele><time>2026-04-26T17:44:15Z</time></trkpt><trkpt lat="40.54882835896128" lon="15.032960893582887"><ele>33.0</ele><time>2026-04-26T17:44:16Z</time></trkpt><trkpt lat="40.54905328903798" lon="15.033170543468513"><ele>33.5</ele><time>2026-04-26T17:44:17Z</time></trkpt><trkpt lat="40.54924341638802" lon="15.033351290439253"><ele>34.0</ele><time>2026-04-26T17:44:18Z</time></trkpt><trkpt lat="40.549422095231066" lon="15.03352707581261"><ele>34.0</ele><time>2026-04-26T17:44:19Z</time></trkpt><trkpt lat="40.54959786807321" lon="15.0336945629389"><ele>34.0</ele><time>2026-04-26T17:44:20Z</time></trkpt><trkpt lat="40.54976822654782" lon="15.033856793865652"><ele>34.0</ele><time>2026-04-26T17:44:21Z</time></trkpt><trkpt lat="40.549938994980636" lon="15.034019143134119"><ele>34.0</ele><time>2026-04-26T17:44:22Z</time></trkpt><trkpt lat="40.550104374081414" lon="15.034178751956624"><ele>34.0</ele><time>2026-04-26T17:44:23Z</time></trkpt><trkpt lat="40.55026083402853" lon="15.034328957921486"><ele>34.0</ele><time>2026-04-26T17:44:24Z</time></trkpt><trkpt lat="40.550430074551734" lon="15.034483100154224"><ele>34.333333333333336</ele><time>2026-04-26T17:44:25Z</time></trkpt><trkpt lat="40.55061040208697" lon="15.034643873183116"><ele>34.666666666666664</ele><time>2026-04-26T17:44:26Z</time></trkpt><trkpt lat="40.5507918568134" lon="15.034810182764783"><ele>35.0</ele><time>2026-04-26T17:44:27Z</time></trkpt><trkpt lat="40.55096563229771" lon="15.034975279528362"><ele>35.33333333333333</ele><time>2026-04-26T17:44:28Z</time></trkpt><trkpt lat="40.55112140088512" lon="15.035126718569632"><ele>35.666666666666664</ele><time>2026-04-26T17:44:29Z</time></trkpt><trkpt lat="40.551271220723784" lon="15.035267698727985"><ele>36.0</ele><time>2026-04-26T17:44:30Z</time></trkpt><trkpt lat="40.55141281918564" lon="15.035399486653132"><ele>35.0</ele><time>2026-04-26T17:44:31Z</time></trkpt><trkpt lat="40.5515567942357" lon="15.035535890962127"><ele>34.0</ele><time>2026-04-26T17:44:32Z</time></trkpt><trkpt lat="40.55168197089927" lon="15.035668385977111"><ele>33.0</ele><time>2026-04-26T17:44:33Z</time></trkpt><trkpt lat="40.55179324594738" lon="15.035781723634296"><ele>33.25</ele><time>2026-04-26T17:44:34Z</time></trkpt><trkpt lat="40.55189181969522" lon="15.035881224032156"><ele>33.5</ele><time>2026-04-26T17:44:35Z</time></trkpt><trkpt lat="40.551989766512065" lon="15.035974488506609"><ele>33.75</ele><time>2026-04-26T17:44:36Z</time></trkpt><trkpt lat="40.552096978096344" lon="15.036076296413627"><ele>34.0</ele><time>2026-04-26T17:44:37Z</time></trkpt><trkpt lat="40.55221991349388" lon="15.036193883384222"><ele>34.0</ele><time>2026-04-26T17:44:38Z</time></trkpt><trkpt lat="40.55234317572772" lon="15.036327805550288"><ele>34.0</ele><time>2026-04-26T17:44:39Z</time></trkpt><trkpt lat="40.55244161454439" lon="15.036474102686947"><ele>34.0</ele><time>2026-04-26T17:44:40Z</time></trkpt><trkpt lat="40.55251181210709" lon="15.036614719179568"><ele>34.0</ele><time>2026-04-26T17:44:41Z</time></trkpt><trkpt lat="40.552569733986424" lon="15.036764414611097"><ele>33.6</ele><time>2026-04-26T17:44:42Z</time></trkpt><trkpt lat="40.55262507475171" lon="15.036909668055936"><ele>33.2</ele><time>2026-04-26T17:44:43Z</time></trkpt><trkpt lat="40.55268658472924" lon="15.037044549584879"><ele>32.800000000000004</ele><time>2026-04-26T17:44:44Z</time></trkpt><trkpt lat="40.552747133977185" lon="15.037158397761713"><ele>32.4</ele><time>2026-04-26T17:44:45Z</time></trkpt><trkpt lat="40.5528004183996" lon="15.037262851982359"><ele>32.0</ele><time>2026-04-26T17:44:46Z</time></trkpt><trkpt lat="40.55285703737855" lon="15.037355513015445"><ele>32.800000000000004</ele><time>2026-04-26T17:44:47Z</time></trkpt><trkpt lat="40.5529099565645" lon="15.037424498460352"><ele>33.6</ele><time>2026-04-26T17:44:48Z</time></trkpt><trkpt lat="40.55296587940346" lon="15.037479392592639"><ele>34.400000000000006</ele><time>2026-04-26T17:44:49Z</time></trkpt><trkpt lat="40.5530346222543" lon="15.037517776931143"><ele>35.2</ele><time>2026-04-26T17:44:50Z</time></trkpt><trkpt lat="40.55313907369886" lon="15.037523176690343"><ele>36.0</ele><time>2026-04-26T17:44:51Z</time></trkpt><trkpt lat="40.553272713472744" lon="15.037481438380537"><ele>36.0</ele><time>2026-04-26T17:44:52Z</time></trkpt><trkpt lat="40.55342579612915" lon="15.037427504015128"><ele>36.0</ele><time>2026-04-26T17:44:53Z</time></trkpt><trkpt lat="40.55359456813389" lon="15.037379957179791"><ele>36.0</ele><time>2026-04-26T17:44:54Z</time></trkpt><trkpt lat="40.553775348905106" lon="15.037332257197177"><ele>35.333333333333336</ele><time>2026-04-26T17:44:55Z</time></trkpt><trkpt lat="40.55397716913243" lon="15.037300366317654"><ele>34.66666666666667</ele><time>2026-04-26T17:44:56Z</time></trkpt><trkpt lat="40.55419175940863" lon="15.037266278638912"><ele>34.0</ele><time>2026-04-26T17:44:57Z</time></trkpt><trkpt lat="40.55441032214305" lon="15.037233337092026"><ele>31.0</ele><time>2026-04-26T17:44:58Z</time></trkpt><trkpt lat="40.55460608598009" lon="15.037203391320276"><ele>28.0</ele><time>2026-04-26T17:44:59Z</time></trkpt><trkpt lat="40.55478190915516" lon="15.037180128471897"><ele>25.0</ele><time>2026-04-26T17:45:00Z</time></trkpt><trkpt lat="40.55493639450045" lon="15.037156555551615"><ele>25.0</ele><time>2026-04-26T17:45:01Z</time></trkpt><trkpt lat="40.55504244255087" lon="15.037146754837899"><ele>25.0</ele><time>2026-04-26T17:45:02Z</time></trkpt><trkpt lat="40.55514195688207" lon="15.037139715307063"><ele>25.0</ele><time>2026-04-26T17:45:03Z</time></trkpt><trkpt lat="40.55522704420949" lon="15.037133353853962"><ele>25.0</ele><time>2026-04-26T17:45:04Z</time></trkpt><trkpt lat="40.55530825944838" lon="15.03714578098842"><ele>25.0</ele><time>2026-04-26T17:45:05Z</time></trkpt><trkpt lat="40.55539065069825" lon="15.03718030137901"><ele>24.8</ele><time>2026-04-26T17:45:06Z</time></trkpt><trkpt lat="40.55547536000829" lon="15.03723825740161"><ele>24.6</ele><time>2026-04-26T17:45:07Z</time></trkpt><trkpt lat="40.55555713377652" lon="15.037334026040051"><ele>24.4</ele><time>2026-04-26T17:45:08Z</time></trkpt><trkpt lat="40.55562476580469" lon="15.03744786085738"><ele>24.2</ele><time>2026-04-26T17:45:09Z</time></trkpt><trkpt lat="40.5556749583872" lon="15.037589888167657"><ele>24.0</ele><time>2026-04-26T17:45:10Z</time></trkpt><trkpt lat="40.555728206266544" lon="15.037771113196689"><ele>24.0</ele><time>2026-04-26T17:45:11Z</time></trkpt><trkpt lat="40.55577281971429" lon="15.037984676758459"><ele>24.0</ele><time>2026-04-26T17:45:12Z</time></trkpt><trkpt lat="40.555802645125105" lon="15.038209531991125"><ele>24.0</ele><time>2026-04-26T17:45:13Z</time></trkpt><trkpt lat="40.555840153379584" lon="15.038453979921485"><ele>24.0</ele><time>2026-04-26T17:45:14Z</time></trkpt><trkpt lat="40.5558943169024" lon="15.038689636477413"><ele>24.0</ele><time>2026-04-26T17:45:15Z</time></trkpt><trkpt lat="40.55596577010618" lon="15.038920519767032"><ele>24.0</ele><time>2026-04-26T17:45:16Z</time></trkpt><trkpt lat="40.55604057366072" lon="15.039117634388743"><ele>23.25</ele><time>2026-04-26T17:45:17Z</time></trkpt><trkpt lat="40.55609415557589" lon="15.039274962926267"><ele>22.5</ele><time>2026-04-26T17:45:18Z</time></trkpt><trkpt lat="40.55615129604212" lon="15.039427465482662"><ele>21.75</ele><time>2026-04-26T17:45:19Z</time></trkpt><trkpt lat="40.55622092990779" lon="15.039581939420662"><ele>21.0</ele><time>2026-04-26T17:45:20Z</time></trkpt><trkpt lat="40.55630706910108" lon="15.039748343597928"><ele>22.25</ele><time>2026-04-26T17:45:21Z</time></trkpt><trkpt lat="40.55640232090034" lon="15.039915156664156"><ele>23.5</ele><time>2026-04-26T17:45:22Z</time></trkpt><trkpt lat="40.55646566231829" lon="15.040021849530405"><ele>24.75</ele><time>2026-04-26T17:45:23Z</time></trkpt><trkpt lat="40.55653856860924" lon="15.040135826289264"><ele>26.0</ele><time>2026-04-26T17:45:24Z</time></trkpt><trkpt lat="40.55661746547197" lon="15.040248132794643"><ele>26.0</ele><time>2026-04-26T17:45:25Z</time></trkpt><trkpt lat="40.556701388818205" lon="15.0403519782033"><ele>26.0</ele><time>2026-04-26T17:45:26Z</time></trkpt><trkpt lat="40.55680113538885" lon="15.040470042315166"><ele>26.0</ele><time>2026-04-26T17:45:27Z</time></trkpt><trkpt lat="40.55692292598427" lon="15.040604659449722"><ele>26.0</ele><time>2026-04-26T17:45:28Z</time></trkpt><trkpt lat="40.557041567975965" lon="15.040766250252322"><ele>27.0</ele><time>2026-04-26T17:45:29Z</time></trkpt><trkpt lat="40.557156446076604" lon="15.040941122796735"><ele>28.0</ele><time>2026-04-26T17:45:30Z</time></trkpt><trkpt lat="40.55727330767259" lon="15.041139043526433"><ele>29.0</ele><time>2026-04-26T17:45:31Z</time></trkpt><trkpt lat="40.55740553387071" lon="15.041327426790343"><ele>29.0</ele><time>2026-04-26T17:45:32Z</time></trkpt><trkpt lat="40.55755074587202" lon="15.041486773083397"><ele>29.0</ele><time>2026-04-26T17:45:33Z</time></trkpt><trkpt lat="40.557698214737655" lon="15.041621050509296"><ele>29.0</ele><time>2026-04-26T17:45:34Z</time></trkpt><trkpt lat="40.55785223505461" lon="15.041762027931881"><ele>30.0</ele><time>2026-04-26T17:45:35Z</time></trkpt><trkpt lat="40.558027139787306" lon="15.041900530121241"><ele>31.0</ele><time>2026-04-26T17:45:36Z</time></trkpt><trkpt lat="40.558215750415364" lon="15.042044035493438"><ele>32.0</ele><time>2026-04-26T17:45:37Z</time></trkpt><trkpt lat="40.55841656214685" lon="15.042185589017345"><ele>32.0</ele><time>2026-04-26T17:45:38Z</time></trkpt><trkpt lat="40.55862242427978" lon="15.042330304853111"><ele>32.0</ele><time>2026-04-26T17:45:39Z</time></trkpt><trkpt lat="40.55882490278962" lon="15.042471570774534"><ele>32.0</ele><time>2026-04-26T17:45:40Z</time></trkpt><trkpt lat="40.559026288689104" lon="15.042605275378557"><ele>32.0</ele><time>2026-04-26T17:45:41Z</time></trkpt><trkpt lat="40.55920499902405" lon="15.042727052846631"><ele>32.0</ele><time>2026-04-26T17:45:42Z</time></trkpt><trkpt lat="40.55935483698279" lon="15.042840618265933"><ele>32.0</ele><time>2026-04-26T17:45:43Z</time></trkpt><trkpt lat="40.55948750912937" lon="15.04294631161875"><ele>32.0</ele><time>2026-04-26T17:45:44Z</time></trkpt><trkpt lat="40.559612450919914" lon="15.04304587112488"><ele>32.0</ele><time>2026-04-26T17:45:45Z</time></trkpt><trkpt lat="40.55973340494216" lon="15.043150473250837"><ele>32.0</ele><time>2026-04-26T17:45:46Z</time></trkpt><trkpt lat="40.559847733158364" lon="15.043254440877282"><ele>33.25</ele><time>2026-04-26T17:45:47Z</time></trkpt><trkpt lat="40.55994670300321" lon="15.043349868781666"><ele>34.5</ele><time>2026-04-26T17:45:48Z</time></trkpt><trkpt lat="40.560039760139894" lon="15.043433854059835"><ele>35.75</ele><time>2026-04-26T17:45:49Z</time></trkpt><trkpt lat="40.5601350312422" lon="15.043510000582256"><ele>37.0</ele><time>2026-04-26T17:45:50Z</time></trkpt><trkpt lat="40.560227138547184" lon="15.043579693813113"><ele>37.0</ele><time>2026-04-26T17:45:51Z</time></trkpt><trkpt lat="40.56030483415624" lon="15.043641628903012"><ele>37.0</ele><time>2026-04-26T17:45:52Z</time></trkpt><trkpt lat="40.56038034605327" lon="15.043694525290896"><ele>37.0</ele><time>2026-04-26T17:45:53Z</time></trkpt><trkpt lat="40.56046770370601" lon="15.043747995446267"><ele>37.0</ele><time>2026-04-26T17:45:54Z</time></trkpt><trkpt lat="40.56054248900029" lon="15.04379490136031"><ele>37.0</ele><time>2026-04-26T17:45:55Z</time></trkpt><trkpt lat="40.56061743330215" lon="15.043840977242546"><ele>37.0</ele><time>2026-04-26T17:45:56Z</time></trkpt><trkpt lat="40.56070205105531" lon="15.043890416275714"><ele>37.4</ele><time>2026-04-26T17:45:57Z</time></trkpt><trkpt lat="40.560784251562396" lon="15.043939241441567"><ele>37.800000000000004</ele><time>2026-04-26T17:45:58Z</time></trkpt><trkpt lat="40.560874549446694" lon="15.043981321309895"><ele>38.2</ele><time>2026-04-26T17:45:59Z</time></trkpt><trkpt lat="40.560967680078676" lon="15.044020638817166"><ele>38.6</ele><time>2026-04-26T17:46:00Z</time></trkpt><trkpt lat="40.56106002984088" lon="15.044058276192805"><ele>39.0</ele><time>2026-04-26T17:46:01Z</time></trkpt><trkpt lat="40.56116174375591" lon="15.044095002467692"><ele>39.75</ele><time>2026-04-26T17:46:02Z</time></trkpt><trkpt lat="40.56129155990554" lon="15.044132390336946"><ele>40.5</ele><time>2026-04-26T17:46:03Z</time></trkpt><trkpt lat="40.56143096772665" lon="15.044180920680617"><ele>41.25</ele><time>2026-04-26T17:46:04Z</time></trkpt><trkpt lat="40.56157093555231" lon="15.044237428871233"><ele>42.0</ele><time>2026-04-26T17:46:05Z</time></trkpt><trkpt lat="40.56173233366453" lon="15.044295666805004"><ele>42.0</ele><time>2026-04-26T17:46:06Z</time></trkpt><trkpt lat="40.56190153785092" lon="15.044361753163903"><ele>42.0</ele><time>2026-04-26T17:46:07Z</time></trkpt><trkpt lat="40.562048160044746" lon="15.044431089440428"><ele>42.0</ele><time>2026-04-26T17:46:08Z</time></trkpt><trkpt lat="40.562178244067724" lon="15.044484307645485"><ele>42.0</ele><time>2026-04-26T17:46:09Z</time></trkpt><trkpt lat="40.56228706541475" lon="15.04452780146388"><ele>42.0</ele><time>2026-04-26T17:46:10Z</time></trkpt><trkpt lat="40.56238764769772" lon="15.044570642504771"><ele>42.0</ele><time>2026-04-26T17:46:11Z</time></trkpt><trkpt lat="40.56249792155414" lon="15.044614489426595"><ele>42.0</ele><time>2026-04-26T17:46:12Z</time></trkpt><trkpt lat="40.56261252844641" lon="15.044655245046494"><ele>42.0</ele><time>2026-04-26T17:46:13Z</time></trkpt><trkpt lat="40.56273032162995" lon="15.044688267854726"><ele>42.0</ele><time>2026-04-26T17:46:14Z</time></trkpt><trkpt lat="40.56284463064488" lon="15.044713940928398"><ele>42.0</ele><time>2026-04-26T17:46:15Z</time></trkpt><trkpt lat="40.56296261991244" lon="15.04473183240007"><ele>42.0</ele><time>2026-04-26T17:46:16Z</time></trkpt><trkpt lat="40.56308300775716" lon="15.044739984712145"><ele>42.25</ele><time>2026-04-26T17:46:17Z</time></trkpt><trkpt lat="40.563204313780815" lon="15.044739131683006"><ele>42.5</ele><time>2026-04-26T17:46:18Z</time></trkpt><trkpt lat="40.56331577578116" lon="15.044734244569879"><ele>42.75</ele><time>2026-04-26T17:46:19Z</time></trkpt><trkpt lat="40.563429903795445" lon="15.044723400136805"><ele>43.0</ele><time>2026-04-26T17:46:20Z</time></trkpt><trkpt lat="40.56354344163355" lon="15.044713089362476"><ele>43.0</ele><time>2026-04-26T17:46:21Z</time></trkpt><trkpt lat="40.56365395077415" lon="15.044702467765667"><ele>43.0</ele><time>2026-04-26T17:46:22Z</time></trkpt><trkpt lat="40.563770056899514" lon="15.044683119932467"><ele>43.0</ele><time>2026-04-26T17:46:23Z</time></trkpt><trkpt lat="40.563890287576044" lon="15.044665821855885"><ele>43.0</ele><time>2026-04-26T17:46:24Z</time></trkpt><trkpt lat="40.56402912776186" lon="15.044639166861536"><ele>42.66666666666667</ele><time>2026-04-26T17:46:25Z</time></trkpt><trkpt lat="40.56419470188331" lon="15.044621201363283"><ele>42.333333333333336</ele><time>2026-04-26T17:46:26Z</time></trkpt><trkpt lat="40.564370131366296" lon="15.044604622409716"><ele>42.0</ele><time>2026-04-26T17:46:27Z</time></trkpt><trkpt lat="40.564562581864365" lon="15.044594731446567"><ele>41.666666666666664</ele><time>2026-04-26T17:46:28Z</time></trkpt><trkpt lat="40.564763040605406" lon="15.044579596035156"><ele>41.33333333333333</ele><time>2026-04-26T17:46:29Z</time></trkpt><trkpt lat="40.5649460603792" lon="15.044567147067326"><ele>41.0</ele><time>2026-04-26T17:46:30Z</time></trkpt><trkpt lat="40.56511945641973" lon="15.044555534259915"><ele>41.0</ele><time>2026-04-26T17:46:31Z</time></trkpt><trkpt lat="40.56528861742604" lon="15.044541183758566"><ele>41.0</ele><time>2026-04-26T17:46:32Z</time></trkpt><trkpt lat="40.56546139137397" lon="15.044529169099283"><ele>41.0</ele><time>2026-04-26T17:46:33Z</time></trkpt><trkpt lat="40.565645117338796" lon="15.044516101447751"><ele>41.666666666666664</ele><time>2026-04-26T17:46:34Z</time></trkpt><trkpt lat="40.56584492303301" lon="15.044508822802293"><ele>42.333333333333336</ele><time>2026-04-26T17:46:35Z</time></trkpt><trkpt lat="40.566054137542366" lon="15.044502471304503"><ele>43.0</ele><time>2026-04-26T17:46:36Z</time></trkpt><trkpt lat="40.566273163226214" lon="15.0445024932647"><ele>43.0</ele><time>2026-04-26T17:46:37Z</time></trkpt><trkpt lat="40.566501970155045" lon="15.0445076981105"><ele>43.0</ele><time>2026-04-26T17:46:38Z</time></trkpt><trkpt lat="40.5667378811473" lon="15.044519655938815"><ele>43.0</ele><time>2026-04-26T17:46:39Z</time></trkpt><trkpt lat="40.56697633138701" lon="15.044530795314579"><ele>43.0</ele><time>2026-04-26T17:46:40Z</time></trkpt><trkpt lat="40.56722252353621" lon="15.044544066814787"><ele>43.0</ele><time>2026-04-26T17:46:41Z</time></trkpt><trkpt lat="40.56747163619273" lon="15.044581509212412"><ele>43.0</ele><time>2026-04-26T17:46:42Z</time></trkpt><trkpt lat="40.5677206788938" lon="15.044601526171824"><ele>43.333333333333336</ele><time>2026-04-26T17:46:43Z</time></trkpt><trkpt lat="40.56795088721806" lon="15.044606365258792"><ele>43.666666666666664</ele><time>2026-04-26T17:46:44Z</time></trkpt><trkpt lat="40.568167639090234" lon="15.044619685325692"><ele>44.0</ele><time>2026-04-26T17:46:45Z</time></trkpt><trkpt lat="40.56838268553347" lon="15.044628848700821"><ele>44.0</ele><time>2026-04-26T17:46:46Z</time></trkpt><trkpt lat="40.568600284007715" lon="15.044635580599387"><ele>44.0</ele><time>2026-04-26T17:46:47Z</time></trkpt><trkpt lat="40.56882086210929" lon="15.044640281966135"><ele>44.0</ele><time>2026-04-26T17:46:48Z</time></trkpt><trkpt lat="40.56905219690643" lon="15.044647096903626"><ele>43.5</ele><time>2026-04-26T17:46:49Z</time></trkpt><trkpt lat="40.569291169317026" lon="15.044661684112517"><ele>43.0</ele><time>2026-04-26T17:46:50Z</time></trkpt><trkpt lat="40.56953447931347" lon="15.044687773831757"><ele>42.5</ele><time>2026-04-26T17:46:51Z</time></trkpt><trkpt lat="40.56977400070439" lon="15.044718635379333"><ele>42.0</ele><time>2026-04-26T17:46:52Z</time></trkpt><trkpt lat="40.57000567570546" lon="15.044755318622695"><ele>42.0</ele><time>2026-04-26T17:46:53Z</time></trkpt><trkpt lat="40.57023720825044" lon="15.044792283353365"><ele>42.0</ele><time>2026-04-26T17:46:54Z</time></trkpt><trkpt lat="40.570468143723154" lon="15.0448268285544"><ele>41.5</ele><time>2026-04-26T17:46:55Z</time></trkpt><trkpt lat="40.570700834873435" lon="15.044857341857641"><ele>41.0</ele><time>2026-04-26T17:46:56Z</time></trkpt><trkpt lat="40.570941169270675" lon="15.044885916580927"><ele>41.0</ele><time>2026-04-26T17:46:57Z</time></trkpt><trkpt lat="40.57118287975054" lon="15.044928611225846"><ele>41.0</ele><time>2026-04-26T17:46:58Z</time></trkpt><trkpt lat="40.57141850268237" lon="15.044965868058203"><ele>42.0</ele><time>2026-04-26T17:46:59Z</time></trkpt><trkpt lat="40.5716511693767" lon="15.045002370965335"><ele>43.0</ele><time>2026-04-26T17:47:00Z</time></trkpt><trkpt lat="40.571881644126506" lon="15.045046342456976"><ele>43.333333333333336</ele><time>2026-04-26T17:47:01Z</time></trkpt><trkpt lat="40.57210068945806" lon="15.045099883536109"><ele>43.666666666666664</ele><time>2026-04-26T17:47:02Z</time></trkpt><trkpt lat="40.57229313435633" lon="15.045150195691509"><ele>44.0</ele><time>2026-04-26T17:47:03Z</time></trkpt><trkpt lat="40.57247322014032" lon="15.04520211960046"><ele>44.0</ele><time>2026-04-26T17:47:04Z</time></trkpt><trkpt lat="40.572649638959824" lon="15.045261880891196"><ele>44.0</ele><time>2026-04-26T17:47:05Z</time></trkpt><trkpt lat="40.57282734151245" lon="15.045322049621738"><ele>44.0</ele><time>2026-04-26T17:47:06Z</time></trkpt><trkpt lat="40.57300979342512" lon="15.045382460410918"><ele>43.666666666666664</ele><time>2026-04-26T17:47:07Z</time></trkpt><trkpt lat="40.57320173098384" lon="15.045441313032367"><ele>43.333333333333336</ele><time>2026-04-26T17:47:08Z</time></trkpt><trkpt lat="40.57339013229073" lon="15.04550110003713"><ele>43.0</ele><time>2026-04-26T17:47:09Z</time></trkpt><trkpt lat="40.573578150609066" lon="15.045559912007324"><ele>43.333333333333336</ele><time>2026-04-26T17:47:10Z</time></trkpt><trkpt lat="40.57375392129261" lon="15.045614697526677"><ele>43.666666666666664</ele><time>2026-04-26T17:47:11Z</time></trkpt><trkpt lat="40.57391986293665" lon="15.045670029819721"><ele>44.0</ele><time>2026-04-26T17:47:12Z</time></trkpt><trkpt lat="40.57408662795167" lon="15.045722841422904"><ele>44.0</ele><time>2026-04-26T17:47:13Z</time></trkpt><trkpt lat="40.57426154564973" lon="15.045774922317372"><ele>44.0</ele><time>2026-04-26T17:47:14Z</time></trkpt><trkpt lat="40.574436626572286" lon="15.045831375053876"><ele>44.0</ele><time>2026-04-26T17:47:15Z</time></trkpt><trkpt lat="40.57460640203693" lon="15.045884450192458"><ele>44.0</ele><time>2026-04-26T17:47:16Z</time></trkpt><trkpt lat="40.57476982723629" lon="15.045940328053568"><ele>44.0</ele><time>2026-04-26T17:47:17Z</time></trkpt><trkpt lat="40.57493396115715" lon="15.046003594048116"><ele>44.0</ele><time>2026-04-26T17:47:18Z</time></trkpt><trkpt lat="40.575099193615664" lon="15.046075367804528"><ele>44.0</ele><time>2026-04-26T17:47:19Z</time></trkpt><trkpt lat="40.57527321615316" lon="15.046166309023368"><ele>44.0</ele><time>2026-04-26T17:47:20Z</time></trkpt><trkpt lat="40.57543498477533" lon="15.046278710016596"><ele>44.0</ele><time>2026-04-26T17:47:21Z</time></trkpt><trkpt lat="40.575585530440044" lon="15.046396299938905"><ele>43.666666666666664</ele><time>2026-04-26T17:47:22Z</time></trkpt><trkpt lat="40.57573948369551" lon="15.04651219493538"><ele>43.333333333333336</ele><time>2026-04-26T17:47:23Z</time></trkpt><trkpt lat="40.57589212554028" lon="15.046605914640548"><ele>43.0</ele><time>2026-04-26T17:47:24Z</time></trkpt><trkpt lat="40.57604618893324" lon="15.046682096257632"><ele>43.333333333333336</ele><time>2026-04-26T17:47:25Z</time></trkpt><trkpt lat="40.576205438746754" lon="15.046741013223725"><ele>43.666666666666664</ele><time>2026-04-26T17:47:26Z</time></trkpt><trkpt lat="40.57636611596506" lon="15.046787674588177"><ele>44.0</ele><time>2026-04-26T17:47:27Z</time></trkpt><trkpt lat="40.57655000261959" lon="15.046833220598103"><ele>44.0</ele><time>2026-04-26T17:47:28Z</time></trkpt><trkpt lat="40.576744114905814" lon="15.046890980942335"><ele>44.0</ele><time>2026-04-26T17:47:29Z</time></trkpt><trkpt lat="40.576946604941334" lon="15.046961923001344"><ele>44.0</ele><time>2026-04-26T17:47:30Z</time></trkpt><trkpt lat="40.57716058007068" lon="15.04704089674736"><ele>44.0</ele><time>2026-04-26T17:47:31Z</time></trkpt><trkpt lat="40.57737966848859" lon="15.047128474650712"><ele>44.0</ele><time>2026-04-26T17:47:32Z</time></trkpt><trkpt lat="40.57760410738889" lon="15.04721998323343"><ele>44.0</ele><time>2026-04-26T17:47:33Z</time></trkpt><trkpt lat="40.577829251931824" lon="15.047320338762326"><ele>44.0</ele><time>2026-04-26T17:47:34Z</time></trkpt><trkpt lat="40.57803329798479" lon="15.047448269460594"><ele>44.0</ele><time>2026-04-26T17:47:35Z</time></trkpt><trkpt lat="40.578212382517954" lon="15.047619919032062"><ele>44.0</ele><time>2026-04-26T17:47:36Z</time></trkpt><trkpt lat="40.578386198062134" lon="15.04782375394963"><ele>44.0</ele><time>2026-04-26T17:47:37Z</time></trkpt><trkpt lat="40.578559770038865" lon="15.04804549011552"><ele>44.0</ele><time>2026-04-26T17:47:38Z</time></trkpt><trkpt lat="40.5787377481138" lon="15.048271061215587"><ele>44.0</ele><time>2026-04-26T17:47:39Z</time></trkpt><trkpt lat="40.57890750156716" lon="15.048481907226192"><ele>44.0</ele><time>2026-04-26T17:47:40Z</time></trkpt><trkpt lat="40.57906990798679" lon="15.048667159319535"><ele>44.0</ele><time>2026-04-26T17:47:41Z</time></trkpt><trkpt lat="40.57922665300692" lon="15.04883057107401"><ele>44.0</ele><time>2026-04-26T17:47:42Z</time></trkpt><trkpt lat="40.5793781426208" lon="15.048976784363822"><ele>44.0</ele><time>2026-04-26T17:47:43Z</time></trkpt><trkpt lat="40.57953785762469" lon="15.049087811077106"><ele>44.0</ele><time>2026-04-26T17:47:44Z</time></trkpt><trkpt lat="40.57971376252013" lon="15.049166436506521"><ele>42.666666666666664</ele><time>2026-04-26T17:47:45Z</time></trkpt><trkpt lat="40.57990513015703" lon="15.049211621712482"><ele>41.333333333333336</ele><time>2026-04-26T17:47:46Z</time></trkpt><trkpt lat="40.58008845827792" lon="15.049230360493153"><ele>40.0</ele><time>2026-04-26T17:47:47Z</time></trkpt><trkpt lat="40.5802586157987" lon="15.049249851922987"><ele>39.75</ele><time>2026-04-26T17:47:48Z</time></trkpt><trkpt lat="40.58041448102155" lon="15.04927950129238"><ele>39.5</ele><time>2026-04-26T17:47:49Z</time></trkpt><trkpt lat="40.58054938476221" lon="15.049289295685433"><ele>39.25</ele><time>2026-04-26T17:47:50Z</time></trkpt><trkpt lat="40.58067271895137" lon="15.049287399110709"><ele>39.0</ele><time>2026-04-26T17:47:51Z</time></trkpt><trkpt lat="40.580795364958256" lon="15.049289335748302"><ele>39.0</ele><time>2026-04-26T17:47:52Z</time></trkpt><trkpt lat="40.580908384306966" lon="15.049293414601783"><ele>39.0</ele><time>2026-04-26T17:47:53Z</time></trkpt><trkpt lat="40.581014034359335" lon="15.049298740235203"><ele>39.0</ele><time>2026-04-26T17:47:54Z</time></trkpt><trkpt lat="40.581087872072295" lon="15.049305664679236"><ele>39.0</ele><time>2026-04-26T17:47:55Z</time></trkpt><trkpt lat="40.58115783261897" lon="15.049323530368167"><ele>39.0</ele><time>2026-04-26T17:47:57Z</time></trkpt><trkpt lat="40.581252724925896" lon="15.049372770447372"><ele>38.666666666666664</ele><time>2026-04-26T17:47:59Z</time></trkpt><trkpt lat="40.58132233039973" lon="15.049400109870854"><ele>38.333333333333336</ele><time>2026-04-26T17:48:00Z</time></trkpt><trkpt lat="40.58140265172347" lon="15.049387136266173"><ele>38.0</ele><time>2026-04-26T17:48:01Z</time></trkpt><trkpt lat="40.58147433311048" lon="15.04934364247632"><ele>37.66666666666667</ele><time>2026-04-26T17:48:02Z</time></trkpt><trkpt lat="40.58154644732047" lon="15.049278350100431"><ele>37.333333333333336</ele><time>2026-04-26T17:48:03Z</time></trkpt><trkpt lat="40.58162785470283" lon="15.04921829911211"><ele>37.0</ele><time>2026-04-26T17:48:04Z</time></trkpt><trkpt lat="40.58174463761891" lon="15.049184763355779"><ele>37.0</ele><time>2026-04-26T17:48:05Z</time></trkpt><trkpt lat="40.581888826379995" lon="15.0491530378903"><ele>37.0</ele><time>2026-04-26T17:48:06Z</time></trkpt><trkpt lat="40.58204803471304" lon="15.049105832640397"><ele>37.0</ele><time>2026-04-26T17:48:07Z</time></trkpt><trkpt lat="40.58221355221234" lon="15.049045666732997"><ele>37.66666666666667</ele><time>2026-04-26T17:48:08Z</time></trkpt><trkpt lat="40.582392632216255" lon="15.048978665502265"><ele>38.333333333333336</ele><time>2026-04-26T17:48:09Z</time></trkpt><trkpt lat="40.582582764098696" lon="15.048899500732114"><ele>39.0</ele><time>2026-04-26T17:48:10Z</time></trkpt><trkpt lat="40.58278538080184" lon="15.048818744570632"><ele>39.5</ele><time>2026-04-26T17:48:11Z</time></trkpt><trkpt lat="40.5830000334074" lon="15.048733821635489"><ele>40.0</ele><time>2026-04-26T17:48:12Z</time></trkpt><trkpt lat="40.58322420080464" lon="15.048641346980574"><ele>40.0</ele><time>2026-04-26T17:48:13Z</time></trkpt><trkpt lat="40.5834485462182" lon="15.048542152126869"><ele>40.0</ele><time>2026-04-26T17:48:14Z</time></trkpt><trkpt lat="40.58367849562605" lon="15.04843954750183"><ele>39.5</ele><time>2026-04-26T17:48:15Z</time></trkpt><trkpt lat="40.583914902380805" lon="15.048339606586822"><ele>39.0</ele><time>2026-04-26T17:48:16Z</time></trkpt><trkpt lat="40.58415701250765" lon="15.048241855676272"><ele>40.5</ele><time>2026-04-26T17:48:17Z</time></trkpt><trkpt lat="40.58439595068523" lon="15.048142718391885"><ele>42.0</ele><time>2026-04-26T17:48:18Z</time></trkpt><trkpt lat="40.584615716470466" lon="15.04805159765093"><ele>42.0</ele><time>2026-04-26T17:48:19Z</time></trkpt><trkpt lat="40.584832855233856" lon="15.047965201584901"><ele>42.0</ele><time>2026-04-26T17:48:20Z</time></trkpt><trkpt lat="40.58504853130738" lon="15.047890340258178"><ele>42.0</ele><time>2026-04-26T17:48:21Z</time></trkpt><trkpt lat="40.585262576355184" lon="15.047825528386477"><ele>42.0</ele><time>2026-04-26T17:48:22Z</time></trkpt><trkpt lat="40.585469779455345" lon="15.047767105667722"><ele>42.0</ele><time>2026-04-26T17:48:23Z</time></trkpt><trkpt lat="40.58566610540629" lon="15.047712609937294"><ele>42.333333333333336</ele><time>2026-04-26T17:48:24Z</time></trkpt><trkpt lat="40.58585483403563" lon="15.04765962921121"><ele>42.66666666666667</ele><time>2026-04-26T17:48:25Z</time></trkpt><trkpt lat="40.586041186707924" lon="15.047613970736004"><ele>43.0</ele><time>2026-04-26T17:48:26Z</time></trkpt><trkpt lat="40.58622520488967" lon="15.04758557612901"><ele>43.0</ele><time>2026-04-26T17:48:27Z</time></trkpt><trkpt lat="40.58640014091672" lon="15.047576280742177"><ele>43.0</ele><time>2026-04-26T17:48:28Z</time></trkpt><trkpt lat="40.58657232660791" lon="15.047596633177635"><ele>43.0</ele><time>2026-04-26T17:48:29Z</time></trkpt><trkpt lat="40.58675754402647" lon="15.047636654859526"><ele>43.0</ele><time>2026-04-26T17:48:30Z</time></trkpt><trkpt lat="40.58695381025559" lon="15.047692708632583"><ele>43.0</ele><time>2026-04-26T17:48:31Z</time></trkpt><trkpt lat="40.587152836088926" lon="15.047754011987365"><ele>43.0</ele><time>2026-04-26T17:48:32Z</time></trkpt><trkpt lat="40.587360608433684" lon="15.047820267727852"><ele>43.5</ele><time>2026-04-26T17:48:33Z</time></trkpt><trkpt lat="40.58757894191062" lon="15.04788278205331"><ele>44.0</ele><time>2026-04-26T17:48:34Z</time></trkpt><trkpt lat="40.587802232514115" lon="15.047935135400591"><ele>43.666666666666664</ele><time>2026-04-26T17:48:35Z</time></trkpt><trkpt lat="40.588011729015875" lon="15.047987204219924"><ele>43.333333333333336</ele><time>2026-04-26T17:48:36Z</time></trkpt><trkpt lat="40.58821841651299" lon="15.04804300534037"><ele>43.0</ele><time>2026-04-26T17:48:37Z</time></trkpt><trkpt lat="40.58842463653896" lon="15.048102239829259"><ele>43.0</ele><time>2026-04-26T17:48:38Z</time></trkpt><trkpt lat="40.58863016285338" lon="15.048159677765144"><ele>43.0</ele><time>2026-04-26T17:48:39Z</time></trkpt><trkpt lat="40.58882875368452" lon="15.048216004582473"><ele>43.0</ele><time>2026-04-26T17:48:40Z</time></trkpt><trkpt lat="40.58902170803449" lon="15.048275312985073"><ele>43.66666666666667</ele><time>2026-04-26T17:48:41Z</time></trkpt><trkpt lat="40.58921031374603" lon="15.048337261379352"><ele>44.333333333333336</ele><time>2026-04-26T17:48:42Z</time></trkpt><trkpt lat="40.58939525192564" lon="15.048386453181111"><ele>45.0</ele><time>2026-04-26T17:48:43Z</time></trkpt><trkpt lat="40.58956212652571" lon="15.048434275239721"><ele>45.25</ele><time>2026-04-26T17:48:44Z</time></trkpt><trkpt lat="40.58970879387751" lon="15.048477578255088"><ele>45.5</ele><time>2026-04-26T17:48:45Z</time></trkpt><trkpt lat="40.5898488882845" lon="15.048519847316735"><ele>45.75</ele><time>2026-04-26T17:48:46Z</time></trkpt><trkpt lat="40.58996831328539" lon="15.048556523159938"><ele>46.0</ele><time>2026-04-26T17:48:47Z</time></trkpt><trkpt lat="40.59008313757055" lon="15.04858443308104"><ele>46.0</ele><time>2026-04-26T17:48:48Z</time></trkpt><trkpt lat="40.59020668167883" lon="15.048612536669534"><ele>46.0</ele><time>2026-04-26T17:48:49Z</time></trkpt><trkpt lat="40.59033892960773" lon="15.048648378573345"><ele>46.0</ele><time>2026-04-26T17:48:50Z</time></trkpt><trkpt lat="40.5904863705216" lon="15.048682009366864"><ele>46.0</ele><time>2026-04-26T17:48:51Z</time></trkpt><trkpt lat="40.590637182010305" lon="15.048711302581339"><ele>46.5</ele><time>2026-04-26T17:48:52Z</time></trkpt><trkpt lat="40.59077022001756" lon="15.048744166884488"><ele>47.0</ele><time>2026-04-26T17:48:53Z</time></trkpt><trkpt lat="40.59088766131806" lon="15.04876756152216"><ele>47.5</ele><time>2026-04-26T17:48:54Z</time></trkpt><trkpt lat="40.59098790297491" lon="15.048787077568312"><ele>48.0</ele><time>2026-04-26T17:48:55Z</time></trkpt><trkpt lat="40.591097567887005" lon="15.048806214608408"><ele>48.25</ele><time>2026-04-26T17:48:56Z</time></trkpt><trkpt lat="40.591205462557944" lon="15.048827637494387"><ele>48.5</ele><time>2026-04-26T17:48:57Z</time></trkpt><trkpt lat="40.59133206739122" lon="15.048845805768389"><ele>48.75</ele><time>2026-04-26T17:48:58Z</time></trkpt><trkpt lat="40.5914659940042" lon="15.048877786781123"><ele>49.0</ele><time>2026-04-26T17:48:59Z</time></trkpt><trkpt lat="40.591583979039626" lon="15.04890770052033"><ele>49.0</ele><time>2026-04-26T17:49:00Z</time></trkpt><trkpt lat="40.591696181755765" lon="15.048932865663167"><ele>49.0</ele><time>2026-04-26T17:49:01Z</time></trkpt><trkpt lat="40.59181464604142" lon="15.048953042476423"><ele>49.0</ele><time>2026-04-26T17:49:02Z</time></trkpt><trkpt lat="40.591944141906566" lon="15.048977025762031"><ele>49.0</ele><time>2026-04-26T17:49:03Z</time></trkpt><trkpt lat="40.59208486661518" lon="15.049017497560515"><ele>49.25</ele><time>2026-04-26T17:49:04Z</time></trkpt><trkpt lat="40.592211262685325" lon="15.04906325018912"><ele>49.5</ele><time>2026-04-26T17:49:05Z</time></trkpt><trkpt lat="40.592320708832425" lon="15.049113268232858"><ele>49.75</ele><time>2026-04-26T17:49:06Z</time></trkpt><trkpt lat="40.5924323009055" lon="15.049168350878993"><ele>50.0</ele><time>2026-04-26T17:49:07Z</time></trkpt><trkpt lat="40.59255530931053" lon="15.049230458623493"><ele>50.0</ele><time>2026-04-26T17:49:08Z</time></trkpt><trkpt lat="40.59269147287409" lon="15.04931176325436"><ele>50.0</ele><time>2026-04-26T17:49:09Z</time></trkpt><trkpt lat="40.59282843180167" lon="15.049407671533684"><ele>50.0</ele><time>2026-04-26T17:49:10Z</time></trkpt><trkpt lat="40.59295409324952" lon="15.049491677113592"><ele>50.0</ele><time>2026-04-26T17:49:11Z</time></trkpt><trkpt lat="40.59307586237587" lon="15.049574899857912"><ele>50.25</ele><time>2026-04-26T17:49:12Z</time></trkpt><trkpt lat="40.59320029416663" lon="15.049662606182611"><ele>50.5</ele><time>2026-04-26T17:49:13Z</time></trkpt><trkpt lat="40.593332303063356" lon="15.049748327946542"><ele>50.75</ele><time>2026-04-26T17:49:14Z</time></trkpt><trkpt lat="40.593469986868705" lon="15.049823040330809"><ele>51.0</ele><time>2026-04-26T17:49:15Z</time></trkpt><trkpt lat="40.59358780115232" lon="15.049870322738215"><ele>51.25</ele><time>2026-04-26T17:49:16Z</time></trkpt><trkpt lat="40.59370331690654" lon="15.049905122764248"><ele>51.5</ele><time>2026-04-26T17:49:17Z</time></trkpt><trkpt lat="40.59382395906455" lon="15.049932005202765"><ele>51.75</ele><time>2026-04-26T17:49:18Z</time></trkpt><trkpt lat="40.59394392319376" lon="15.049954569128754"><ele>52.0</ele><time>2026-04-26T17:49:19Z</time></trkpt><trkpt lat="40.59407895488423" lon="15.04997866810074"><ele>52.0</ele><time>2026-04-26T17:49:20Z</time></trkpt><trkpt lat="40.59422700471187" lon="15.050000987846031"><ele>52.0</ele><time>2026-04-26T17:49:21Z</time></trkpt><trkpt lat="40.5943649469974" lon="15.050018911584248"><ele>52.0</ele><time>2026-04-26T17:49:22Z</time></trkpt><trkpt lat="40.5944940421536" lon="15.050030750361154"><ele>52.0</ele><time>2026-04-26T17:49:23Z</time></trkpt><trkpt lat="40.594616630742976" lon="15.050037951423576"><ele>52.0</ele><time>2026-04-26T17:49:24Z</time></trkpt><trkpt lat="40.594736382565394" lon="15.050030666551118"><ele>52.0</ele><time>2026-04-26T17:49:25Z</time></trkpt><trkpt lat="40.59486936527264" lon="15.05000940276819"><ele>52.0</ele><time>2026-04-26T17:49:26Z</time></trkpt><trkpt lat="40.59499123533902" lon="15.049985263939158"><ele>52.0</ele><time>2026-04-26T17:49:27Z</time></trkpt><trkpt lat="40.59509617692043" lon="15.049956286048277"><ele>52.0</ele><time>2026-04-26T17:49:28Z</time></trkpt><trkpt lat="40.59519441867404" lon="15.049924103231744"><ele>52.0</ele><time>2026-04-26T17:49:29Z</time></trkpt><trkpt lat="40.5953075784974" lon="15.049871506960224"><ele>52.0</ele><time>2026-04-26T17:49:30Z</time></trkpt><trkpt lat="40.595420332461295" lon="15.049817277268204"><ele>52.0</ele><time>2026-04-26T17:49:31Z</time></trkpt><trkpt lat="40.59552431568667" lon="15.049760889596406"><ele>52.75</ele><time>2026-04-26T17:49:32Z</time></trkpt><trkpt lat="40.59563149167901" lon="15.049709670615956"><ele>53.5</ele><time>2026-04-26T17:49:33Z</time></trkpt><trkpt lat="40.59575465359121" lon="15.049638632759832"><ele>54.25</ele><time>2026-04-26T17:49:34Z</time></trkpt><trkpt lat="40.595887910755444" lon="15.04957447970115"><ele>55.0</ele><time>2026-04-26T17:49:35Z</time></trkpt><trkpt lat="40.59601221130868" lon="15.049516432704804"><ele>55.0</ele><time>2026-04-26T17:49:36Z</time></trkpt><trkpt lat="40.59612571797457" lon="15.049460068790689"><ele>55.0</ele><time>2026-04-26T17:49:37Z</time></trkpt><trkpt lat="40.5962236209831" lon="15.04942028158557"><ele>55.0</ele><time>2026-04-26T17:49:38Z</time></trkpt><trkpt lat="40.596308492052486" lon="15.04938713454464"><ele>55.0</ele><time>2026-04-26T17:49:39Z</time></trkpt><trkpt lat="40.59642059498859" lon="15.049339881470692"><ele>55.0</ele><time>2026-04-26T17:49:40Z</time></trkpt><trkpt lat="40.59655323059577" lon="15.049306296864867"><ele>55.33333333333333</ele><time>2026-04-26T17:49:41Z</time></trkpt><trkpt lat="40.59669749858517" lon="15.049268822608429"><ele>55.66666666666667</ele><time>2026-04-26T17:49:42Z</time></trkpt><trkpt lat="40.596857538773335" lon="15.049219622769995"><ele>56.0</ele><time>2026-04-26T17:49:43Z</time></trkpt><trkpt lat="40.59702615401211" lon="15.049164836574423"><ele>56.25</ele><time>2026-04-26T17:49:44Z</time></trkpt><trkpt lat="40.59717627546957" lon="15.049122923645628"><ele>56.5</ele><time>2026-04-26T17:49:45Z</time></trkpt><trkpt lat="40.59731841686092" lon="15.049083854533347"><ele>56.75</ele><time>2026-04-26T17:49:46Z</time></trkpt><trkpt lat="40.59745184432278" lon="15.049041148011144"><ele>57.0</ele><time>2026-04-26T17:49:47Z</time></trkpt><trkpt lat="40.59757742789824" lon="15.049001801772658"><ele>57.0</ele><time>2026-04-26T17:49:48Z</time></trkpt><trkpt lat="40.59770081526893" lon="15.048967261249024"><ele>57.0</ele><time>2026-04-26T17:49:49Z</time></trkpt><trkpt lat="40.59782182900519" lon="15.048934275079468"><ele>57.0</ele><time>2026-04-26T17:49:50Z</time></trkpt><trkpt lat="40.5979234245693" lon="15.048906557910525"><ele>57.0</ele><time>2026-04-26T17:49:51Z</time></trkpt><trkpt lat="40.59801097725377" lon="15.048890951436343"><ele>57.0</ele><time>2026-04-26T17:49:52Z</time></trkpt><trkpt lat="40.59810380748001" lon="15.04886622769732"><ele>57.5</ele><time>2026-04-26T17:49:53Z</time></trkpt><trkpt lat="40.598217779055545" lon="15.048837529410578"><ele>58.0</ele><time>2026-04-26T17:49:54Z</time></trkpt><trkpt lat="40.59832789038626" lon="15.048823397801991"><ele>58.5</ele><time>2026-04-26T17:49:55Z</time></trkpt><trkpt lat="40.59844379783694" lon="15.048801350485148"><ele>59.0</ele><time>2026-04-26T17:49:56Z</time></trkpt><trkpt lat="40.59857856700188" lon="15.048790982660499"><ele>59.5</ele><time>2026-04-26T17:49:57Z</time></trkpt><trkpt lat="40.59872723989632" lon="15.04878037544785"><ele>60.0</ele><time>2026-04-26T17:49:58Z</time></trkpt><trkpt lat="40.59887290864715" lon="15.0487687952418"><ele>60.5</ele><time>2026-04-26T17:49:59Z</time></trkpt><trkpt lat="40.59902472179296" lon="15.04875323907168"><ele>61.0</ele><time>2026-04-26T17:50:00Z</time></trkpt><trkpt lat="40.59917240278918" lon="15.048745364246278"><ele>61.0</ele><time>2026-04-26T17:50:01Z</time></trkpt><trkpt lat="40.59930942753014" lon="15.048735155227073"><ele>61.0</ele><time>2026-04-26T17:50:02Z</time></trkpt><trkpt lat="40.59944852973149" lon="15.048719095446558"><ele>61.0</ele><time>2026-04-26T17:50:03Z</time></trkpt><trkpt lat="40.5995891687281" lon="15.048706475632681"><ele>61.0</ele><time>2026-04-26T17:50:04Z</time></trkpt><trkpt lat="40.599731690930135" lon="15.048697816363344"><ele>61.75</ele><time>2026-04-26T17:50:05Z</time></trkpt><trkpt lat="40.599873320609824" lon="15.04868957450396"><ele>62.5</ele><time>2026-04-26T17:50:06Z</time></trkpt><trkpt lat="40.600020832953284" lon="15.048671175483289"><ele>63.25</ele><time>2026-04-26T17:50:07Z</time></trkpt><trkpt lat="40.600175495689946" lon="15.048657295048548"><ele>64.0</ele><time>2026-04-26T17:50:08Z</time></trkpt><trkpt lat="40.60034115611906" lon="15.048647870828788"><ele>64.66666666666666</ele><time>2026-04-26T17:50:09Z</time></trkpt><trkpt lat="40.60052280499323" lon="15.048639254201236"><ele>65.33333333333333</ele><time>2026-04-26T17:50:10Z</time></trkpt><trkpt lat="40.60070730118152" lon="15.048626814521704"><ele>66.0</ele><time>2026-04-26T17:50:11Z</time></trkpt><trkpt lat="40.60087969493334" lon="15.048615081696141"><ele>66.0</ele><time>2026-04-26T17:50:12Z</time></trkpt><trkpt lat="40.60104746656305" lon="15.048609537685158"><ele>66.0</ele><time>2026-04-26T17:50:13Z</time></trkpt><trkpt lat="40.60120924544181" lon="15.048608760842235"><ele>66.0</ele><time>2026-04-26T17:50:14Z</time></trkpt><trkpt lat="40.60136618790423" lon="15.04860361656832"><ele>66.0</ele><time>2026-04-26T17:50:15Z</time></trkpt><trkpt lat="40.60153176394996" lon="15.048607432688469"><ele>66.0</ele><time>2026-04-26T17:50:16Z</time></trkpt><trkpt lat="40.60171360791782" lon="15.048620758991806"><ele>66.0</ele><time>2026-04-26T17:50:17Z</time></trkpt><trkpt lat="40.601887057302605" lon="15.04863638719113"><ele>66.25</ele><time>2026-04-26T17:50:18Z</time></trkpt><trkpt lat="40.602044399941285" lon="15.048659478659077"><ele>66.5</ele><time>2026-04-26T17:50:19Z</time></trkpt><trkpt lat="40.60218981948953" lon="15.048677637980322"><ele>66.75</ele><time>2026-04-26T17:50:20Z</time></trkpt><trkpt lat="40.60232141548047" lon="15.048732939160706"><ele>67.0</ele><time>2026-04-26T17:50:21Z</time></trkpt><trkpt lat="40.60245082931055" lon="15.0487351830122"><ele>67.0</ele><time>2026-04-26T17:50:22Z</time></trkpt><trkpt lat="40.60257395526432" lon="15.048726278138474"><ele>67.0</ele><time>2026-04-26T17:50:23Z</time></trkpt><trkpt lat="40.60268019081039" lon="15.04871628169229"><ele>67.0</ele><time>2026-04-26T17:50:24Z</time></trkpt><trkpt lat="40.602757242778075" lon="15.048709595821839"><ele>67.0</ele><time>2026-04-26T17:50:25Z</time></trkpt><trkpt lat="40.602857058283035" lon="15.048700836650413"><ele>67.0</ele><time>2026-04-26T17:50:27Z</time></trkpt><trkpt lat="40.602922601545494" lon="15.048695085002803"><ele>67.66666666666666</ele><time>2026-04-26T17:50:28Z</time></trkpt><trkpt lat="40.60299883118237" lon="15.04868730642151"><ele>68.33333333333333</ele><time>2026-04-26T17:50:29Z</time></trkpt><trkpt lat="40.603088638708655" lon="15.048678875609122"><ele>69.0</ele><time>2026-04-26T17:50:30Z</time></trkpt><trkpt lat="40.60317874825812" lon="15.048670416442565"><ele>69.66666666666667</ele><time>2026-04-26T17:50:31Z</time></trkpt><trkpt lat="40.603272295127155" lon="15.048659646655247"><ele>70.33333333333334</ele><time>2026-04-26T17:50:32Z</time></trkpt><trkpt lat="40.60334944990316" lon="15.048650497141631"><ele>71.0</ele><time>2026-04-26T17:50:33Z</time></trkpt><trkpt lat="40.603414600225015" lon="15.048642771195185"><ele>71.0</ele><time>2026-04-26T17:50:34Z</time></trkpt><trkpt lat="40.60347926141031" lon="15.048635103251707"><ele>71.0</ele><time>2026-04-26T17:50:35Z</time></trkpt><trkpt lat="40.603554425933545" lon="15.048625419943047"><ele>71.0</ele><time>2026-04-26T17:50:36Z</time></trkpt><trkpt lat="40.60362943709911" lon="15.04861567614048"><ele>71.0</ele><time>2026-04-26T17:50:37Z</time></trkpt><trkpt lat="40.603696459817485" lon="15.048606970015303"><ele>71.0</ele><time>2026-04-26T17:50:38Z</time></trkpt><trkpt lat="40.603759240322255" lon="15.048595695571054"><ele>71.0</ele><time>2026-04-26T17:50:39Z</time></trkpt><trkpt lat="40.60387150612105" lon="15.04857705326614"><ele>71.2</ele><time>2026-04-26T17:50:41Z</time></trkpt><trkpt lat="40.60391942971004" lon="15.04851866798985"><ele>71.39999999999999</ele><time>2026-04-26T17:50:42Z</time></trkpt><trkpt lat="40.603986047958884" lon="15.048500062919679"><ele>71.6</ele><time>2026-04-26T17:50:43Z</time></trkpt><trkpt lat="40.604083542815786" lon="15.048471409370427"><ele>71.8</ele><time>2026-04-26T17:50:44Z</time></trkpt><trkpt lat="40.604200834546056" lon="15.048450568072036"><ele>72.0</ele><time>2026-04-26T17:50:45Z</time></trkpt><trkpt lat="40.60431070623606" lon="15.048428254463339"><ele>72.0</ele><time>2026-04-26T17:50:46Z</time></trkpt><trkpt lat="40.604419224106245" lon="15.048406192362405"><ele>72.0</ele><time>2026-04-26T17:50:47Z</time></trkpt><trkpt lat="40.60452560951827" lon="15.048383230600429"><ele>72.0</ele><time>2026-04-26T17:50:48Z</time></trkpt><trkpt lat="40.60461718957447" lon="15.048363982792385"><ele>72.0</ele><time>2026-04-26T17:50:49Z</time></trkpt><trkpt lat="40.60471213535379" lon="15.048351212002734"><ele>72.0</ele><time>2026-04-26T17:50:50Z</time></trkpt><trkpt lat="40.6048360274946" lon="15.048400726172392"><ele>72.0</ele><time>2026-04-26T17:50:51Z</time></trkpt><trkpt lat="40.60494242404356" lon="15.048377194868102"><ele>72.0</ele><time>2026-04-26T17:50:52Z</time></trkpt><trkpt lat="40.60504660183268" lon="15.048353647420942"><ele>72.0</ele><time>2026-04-26T17:50:53Z</time></trkpt><trkpt lat="40.60514614478619" lon="15.048331185423265"><ele>72.0</ele><time>2026-04-26T17:50:54Z</time></trkpt><trkpt lat="40.60524096629627" lon="15.048311521749268"><ele>72.0</ele><time>2026-04-26T17:50:55Z</time></trkpt><trkpt lat="40.60533595914964" lon="15.048292923472616"><ele>72.2</ele><time>2026-04-26T17:50:56Z</time></trkpt><trkpt lat="40.60542965374227" lon="15.04827457937643"><ele>72.4</ele><time>2026-04-26T17:50:57Z</time></trkpt><trkpt lat="40.60551234801374" lon="15.048258388985307"><ele>72.6</ele><time>2026-04-26T17:50:58Z</time></trkpt><trkpt lat="40.605578210896645" lon="15.04824554955571"><ele>72.8</ele><time>2026-04-26T17:50:59Z</time></trkpt><trkpt lat="40.60564455428006" lon="15.048232907544186"><ele>73.0</ele><time>2026-04-26T17:51:00Z</time></trkpt><trkpt lat="40.60578171913592" lon="15.04820841695366"><ele>73.0</ele><time>2026-04-26T17:51:02Z</time></trkpt><trkpt lat="40.60585938929959" lon="15.048194906795805"><ele>73.0</ele><time>2026-04-26T17:51:03Z</time></trkpt><trkpt lat="40.6059218569181" lon="15.048184041011284"><ele>73.0</ele><time>2026-04-26T17:51:04Z</time></trkpt><trkpt lat="40.60602119733492" lon="15.04816589155231"><ele>73.0</ele><time>2026-04-26T17:51:06Z</time></trkpt><trkpt lat="40.606033678914734" lon="15.04791020299079"><ele>73.0</ele><time>2026-04-26T17:51:08Z</time></trkpt><trkpt lat="40.60601257683048" lon="15.047767080390535"><ele>73.0</ele><time>2026-04-26T17:51:10Z</time></trkpt><trkpt lat="40.60600407263926" lon="15.047679716749846"><ele>73.0</ele><time>2026-04-26T17:51:11Z</time></trkpt><trkpt lat="40.60601426080708" lon="15.047558051735898"><ele>73.0</ele><time>2026-04-26T17:51:12Z</time></trkpt><trkpt lat="40.60599474477975" lon="15.047420239039615"><ele>73.0</ele><time>2026-04-26T17:51:13Z</time></trkpt><trkpt lat="40.60610726916784" lon="15.04730341548895"><ele>73.0</ele><time>2026-04-26T17:51:14Z</time></trkpt><trkpt lat="40.60619242704255" lon="15.047188234972356"><ele>73.25</ele><time>2026-04-26T17:51:15Z</time></trkpt><trkpt lat="40.60627777751785" lon="15.04708455875563"><ele>73.5</ele><time>2026-04-26T17:51:16Z</time></trkpt><trkpt lat="40.606363014290274" lon="15.046974332899012"><ele>73.75</ele><time>2026-04-26T17:51:17Z</time></trkpt><trkpt lat="40.60644914297173" lon="15.046869898552902"><ele>74.0</ele><time>2026-04-26T17:51:18Z</time></trkpt><trkpt lat="40.60654119764354" lon="15.046785141635427"><ele>74.0</ele><time>2026-04-26T17:51:19Z</time></trkpt><trkpt lat="40.606640337091115" lon="15.046750368157005"><ele>74.0</ele><time>2026-04-26T17:51:20Z</time></trkpt><trkpt lat="40.60673184224906" lon="15.046710871663786"><ele>74.0</ele><time>2026-04-26T17:51:21Z</time></trkpt><trkpt lat="40.606827096398426" lon="15.046722726472119"><ele>74.0</ele><time>2026-04-26T17:51:22Z</time></trkpt><trkpt lat="40.606917940339585" lon="15.046750727021534"><ele>74.0</ele><time>2026-04-26T17:51:23Z</time></trkpt><trkpt lat="40.60699973599027" lon="15.046786167910152"><ele>74.5</ele><time>2026-04-26T17:51:24Z</time></trkpt><trkpt lat="40.60707677103212" lon="15.04683838088456"><ele>75.0</ele><time>2026-04-26T17:51:25Z</time></trkpt><trkpt lat="40.60713878971324" lon="15.046924225248134"><ele>75.5</ele><time>2026-04-26T17:51:26Z</time></trkpt><trkpt lat="40.60719921996937" lon="15.047011482297561"><ele>76.0</ele><time>2026-04-26T17:51:27Z</time></trkpt><trkpt lat="40.60725649522469" lon="15.04710457856722"><ele>76.5</ele><time>2026-04-26T17:51:28Z</time></trkpt><trkpt lat="40.60729923979148" lon="15.047193191878002"><ele>77.0</ele><time>2026-04-26T17:51:29Z</time></trkpt><trkpt lat="40.6073495087911" lon="15.047319895228823"><ele>77.0</ele><time>2026-04-26T17:51:30Z</time></trkpt><trkpt lat="40.60739548360495" lon="15.047493917701456"><ele>77.0</ele><time>2026-04-26T17:51:31Z</time></trkpt><trkpt lat="40.60745545229021" lon="15.047683210085701"><ele>77.0</ele><time>2026-04-26T17:51:32Z</time></trkpt><trkpt lat="40.607483618062794" lon="15.047899231258928"><ele>77.0</ele><time>2026-04-26T17:51:33Z</time></trkpt><trkpt lat="40.60751307193603" lon="15.04813338104232"><ele>77.0</ele><time>2026-04-26T17:51:34Z</time></trkpt><trkpt lat="40.60754714190778" lon="15.048390913134085"><ele>77.0</ele><time>2026-04-26T17:51:35Z</time></trkpt><trkpt lat="40.607582471977814" lon="15.048663126826591"><ele>77.0</ele><time>2026-04-26T17:51:36Z</time></trkpt><trkpt lat="40.607610503300386" lon="15.04892591940593"><ele>77.0</ele><time>2026-04-26T17:51:37Z</time></trkpt><trkpt lat="40.607627986760924" lon="15.049169515604019"><ele>77.0</ele><time>2026-04-26T17:51:38Z</time></trkpt><trkpt lat="40.60764134431891" lon="15.049402200910096"><ele>77.33333333333334</ele><time>2026-04-26T17:51:39Z</time></trkpt><trkpt lat="40.60765656757563" lon="15.049623063033962"><ele>77.66666666666667</ele><time>2026-04-26T17:51:40Z</time></trkpt><trkpt lat="40.607666841971906" lon="15.049830744377998"><ele>78.0</ele><time>2026-04-26T17:51:41Z</time></trkpt><trkpt lat="40.60767829060183" lon="15.05003119584539"><ele>77.5</ele><time>2026-04-26T17:51:42Z</time></trkpt><trkpt lat="40.60769122340545" lon="15.050220121186506"><ele>77.0</ele><time>2026-04-26T17:51:43Z</time></trkpt><trkpt lat="40.6076969205731" lon="15.050397832970878"><ele>76.5</ele><time>2026-04-26T17:51:44Z</time></trkpt><trkpt lat="40.607698182221554" lon="15.050570584873867"><ele>76.0</ele><time>2026-04-26T17:51:45Z</time></trkpt><trkpt lat="40.60769874189499" lon="15.050744371813831"><ele>75.75</ele><time>2026-04-26T17:51:46Z</time></trkpt><trkpt lat="40.607703750744086" lon="15.05090286263907"><ele>75.5</ele><time>2026-04-26T17:51:47Z</time></trkpt><trkpt lat="40.607706300154724" lon="15.051064700850606"><ele>75.25</ele><time>2026-04-26T17:51:48Z</time></trkpt><trkpt lat="40.607709529900085" lon="15.051233126317875"><ele>75.0</ele><time>2026-04-26T17:51:49Z</time></trkpt><trkpt lat="40.60771210314382" lon="15.051404798075843"><ele>75.0</ele><time>2026-04-26T17:51:50Z</time></trkpt><trkpt lat="40.607715456846805" lon="15.051582321828784"><ele>75.0</ele><time>2026-04-26T17:51:51Z</time></trkpt><trkpt lat="40.60771839388431" lon="15.051759970458612"><ele>75.0</ele><time>2026-04-26T17:51:52Z</time></trkpt><trkpt lat="40.60771834692808" lon="15.05193175458658"><ele>75.0</ele><time>2026-04-26T17:51:53Z</time></trkpt><trkpt lat="40.607716832352835" lon="15.052101444134935"><ele>76.0</ele><time>2026-04-26T17:51:54Z</time></trkpt><trkpt lat="40.607717394909436" lon="15.052271772681507"><ele>77.0</ele><time>2026-04-26T17:51:55Z</time></trkpt><trkpt lat="40.607718094131535" lon="15.052441388790118"><ele>78.0</ele><time>2026-04-26T17:51:56Z</time></trkpt><trkpt lat="40.60771609819832" lon="15.05260947551392"><ele>79.0</ele><time>2026-04-26T17:51:57Z</time></trkpt><trkpt lat="40.60771533412799" lon="15.052779576800518"><ele>79.0</ele><time>2026-04-26T17:51:58Z</time></trkpt><trkpt lat="40.60771387912749" lon="15.052950618198507"><ele>79.0</ele><time>2026-04-26T17:51:59Z</time></trkpt><trkpt lat="40.60771825441481" lon="15.053124227615383"><ele>79.0</ele><time>2026-04-26T17:52:00Z</time></trkpt><trkpt lat="40.60772103676575" lon="15.053308276116875"><ele>79.0</ele><time>2026-04-26T17:52:01Z</time></trkpt><trkpt lat="40.60772376744626" lon="15.053506864601921"><ele>79.33333333333333</ele><time>2026-04-26T17:52:02Z</time></trkpt><trkpt lat="40.607725106121066" lon="15.053712498700085"><ele>79.66666666666667</ele><time>2026-04-26T17:52:03Z</time></trkpt><trkpt lat="40.607727304827236" lon="15.053923005872175"><ele>80.0</ele><time>2026-04-26T17:52:04Z</time></trkpt><trkpt lat="40.60772856472693" lon="15.054137125865696"><ele>80.0</ele><time>2026-04-26T17:52:05Z</time></trkpt><trkpt lat="40.60772911609983" lon="15.054340133984196"><ele>80.0</ele><time>2026-04-26T17:52:06Z</time></trkpt><trkpt lat="40.60772794045034" lon="15.054527212813152"><ele>80.0</ele><time>2026-04-26T17:52:07Z</time></trkpt><trkpt lat="40.60772718423714" lon="15.054708147986345"><ele>80.0</ele><time>2026-04-26T17:52:08Z</time></trkpt><trkpt lat="40.60772297626851" lon="15.054887996079735"><ele>80.5</ele><time>2026-04-26T17:52:09Z</time></trkpt><trkpt lat="40.60772552280035" lon="15.055075877826715"><ele>81.0</ele><time>2026-04-26T17:52:10Z</time></trkpt><trkpt lat="40.607724072940066" lon="15.055270249108846"><ele>81.5</ele><time>2026-04-26T17:52:11Z</time></trkpt><trkpt lat="40.60772485725108" lon="15.055463911831483"><ele>82.0</ele><time>2026-04-26T17:52:12Z</time></trkpt><trkpt lat="40.607727136300284" lon="15.055666087500766"><ele>81.66666666666666</ele><time>2026-04-26T17:52:13Z</time></trkpt><trkpt lat="40.60772173813801" lon="15.055871172025661"><ele>81.33333333333333</ele><time>2026-04-26T17:52:14Z</time></trkpt><trkpt lat="40.60772409544174" lon="15.056079211885747"><ele>81.0</ele><time>2026-04-26T17:52:15Z</time></trkpt><trkpt lat="40.60772754243448" lon="15.056282242580556"><ele>81.0</ele><time>2026-04-26T17:52:16Z</time></trkpt><trkpt lat="40.60773109563975" lon="15.05647948379625"><ele>81.0</ele><time>2026-04-26T17:52:17Z</time></trkpt><trkpt lat="40.60772901784105" lon="15.056674718352749"><ele>81.0</ele><time>2026-04-26T17:52:18Z</time></trkpt><trkpt lat="40.60773329283746" lon="15.056865125858293"><ele>81.0</ele><time>2026-04-26T17:52:19Z</time></trkpt><trkpt lat="40.60773215509979" lon="15.057054793622038"><ele>80.25</ele><time>2026-04-26T17:52:20Z</time></trkpt><trkpt lat="40.60773307054505" lon="15.057245542489742"><ele>79.5</ele><time>2026-04-26T17:52:21Z</time></trkpt><trkpt lat="40.60773947331874" lon="15.057436496380301"><ele>78.75</ele><time>2026-04-26T17:52:22Z</time></trkpt><trkpt lat="40.60772433439151" lon="15.057633004887176"><ele>78.0</ele><time>2026-04-26T17:52:23Z</time></trkpt><trkpt lat="40.60772139281818" lon="15.057835598468696"><ele>77.66666666666667</ele><time>2026-04-26T17:52:24Z</time></trkpt><trkpt lat="40.6077198175163" lon="15.058045841790445"><ele>77.33333333333334</ele><time>2026-04-26T17:52:25Z</time></trkpt><trkpt lat="40.60771199828238" lon="15.05826044654584"><ele>77.0</ele><time>2026-04-26T17:52:26Z</time></trkpt><trkpt lat="40.60770964661756" lon="15.058478971637761"><ele>77.0</ele><time>2026-04-26T17:52:27Z</time></trkpt><trkpt lat="40.6077172221409" lon="15.058706747654725"><ele>77.0</ele><time>2026-04-26T17:52:28Z</time></trkpt><trkpt lat="40.607716379367496" lon="15.058931439139254"><ele>77.0</ele><time>2026-04-26T17:52:29Z</time></trkpt><trkpt lat="40.60771841230245" lon="15.05915578050186"><ele>77.0</ele><time>2026-04-26T17:52:30Z</time></trkpt><trkpt lat="40.60771806683573" lon="15.059383625560173"><ele>77.0</ele><time>2026-04-26T17:52:31Z</time></trkpt><trkpt lat="40.60771823733012" lon="15.059607160535023"><ele>77.0</ele><time>2026-04-26T17:52:32Z</time></trkpt><trkpt lat="40.60771797859933" lon="15.059825325759958"><ele>77.0</ele><time>2026-04-26T17:52:33Z</time></trkpt><trkpt lat="40.60771755041195" lon="15.060030783252877"><ele>77.0</ele><time>2026-04-26T17:52:34Z</time></trkpt><trkpt lat="40.60771745641799" lon="15.060239046063606"><ele>77.0</ele><time>2026-04-26T17:52:35Z</time></trkpt><trkpt lat="40.60771560029401" lon="15.060448770456222"><ele>77.0</ele><time>2026-04-26T17:52:36Z</time></trkpt><trkpt lat="40.60771273772098" lon="15.060654047009"><ele>77.0</ele><time>2026-04-26T17:52:37Z</time></trkpt><trkpt lat="40.607714748778285" lon="15.060860515107136"><ele>77.0</ele><time>2026-04-26T17:52:38Z</time></trkpt><trkpt lat="40.60771788406075" lon="15.061061307909542"><ele>77.0</ele><time>2026-04-26T17:52:39Z</time></trkpt><trkpt lat="40.607713492035636" lon="15.061260658603917"><ele>77.0</ele><time>2026-04-26T17:52:40Z</time></trkpt><trkpt lat="40.60770769644487" lon="15.061475201364921"><ele>77.0</ele><time>2026-04-26T17:52:41Z</time></trkpt><trkpt lat="40.60770684074591" lon="15.061687685925753"><ele>77.0</ele><time>2026-04-26T17:52:42Z</time></trkpt><trkpt lat="40.60770845671999" lon="15.061902410533301"><ele>77.0</ele><time>2026-04-26T17:52:43Z</time></trkpt><trkpt lat="40.607708952497546" lon="15.062115180988801"><ele>77.0</ele><time>2026-04-26T17:52:44Z</time></trkpt><trkpt lat="40.60771210888288" lon="15.062327909514535"><ele>76.33333333333334</ele><time>2026-04-26T17:52:45Z</time></trkpt><trkpt lat="40.607712943777095" lon="15.062541906782018"><ele>75.66666666666667</ele><time>2026-04-26T17:52:46Z</time></trkpt><trkpt lat="40.60771245194436" lon="15.062753195813256"><ele>75.0</ele><time>2026-04-26T17:52:47Z</time></trkpt><trkpt lat="40.6077120441593" lon="15.062960532566455"><ele>75.0</ele><time>2026-04-26T17:52:48Z</time></trkpt><trkpt lat="40.60771025444781" lon="15.06316942795949"><ele>75.0</ele><time>2026-04-26T17:52:49Z</time></trkpt><trkpt lat="40.60771319286533" lon="15.063379690607388"><ele>75.0</ele><time>2026-04-26T17:52:50Z</time></trkpt><trkpt lat="40.60771193946734" lon="15.063588258422437"><ele>74.66666666666667</ele><time>2026-04-26T17:52:51Z</time></trkpt><trkpt lat="40.60771367191441" lon="15.063792548220308"><ele>74.33333333333334</ele><time>2026-04-26T17:52:52Z</time></trkpt><trkpt lat="40.607714223031806" lon="15.063998853059871"><ele>74.0</ele><time>2026-04-26T17:52:53Z</time></trkpt><trkpt lat="40.6077156238192" lon="15.064206241865028"><ele>73.0</ele><time>2026-04-26T17:52:54Z</time></trkpt><trkpt lat="40.607718448149065" lon="15.06441782865087"><ele>72.0</ele><time>2026-04-26T17:52:55Z</time></trkpt><trkpt lat="40.607715417626615" lon="15.064630816885924"><ele>71.0</ele><time>2026-04-26T17:52:56Z</time></trkpt><trkpt lat="40.60771678727394" lon="15.064843538778733"><ele>71.0</ele><time>2026-04-26T17:52:57Z</time></trkpt><trkpt lat="40.607715099580986" lon="15.065058750655039"><ele>71.0</ele><time>2026-04-26T17:52:58Z</time></trkpt><trkpt lat="40.60771484882281" lon="15.065275822703521"><ele>71.0</ele><time>2026-04-26T17:52:59Z</time></trkpt><trkpt lat="40.60771442177349" lon="15.065493053002552"><ele>71.0</ele><time>2026-04-26T17:53:00Z</time></trkpt><trkpt lat="40.60771647499624" lon="15.06571050546827"><ele>71.0</ele><time>2026-04-26T17:53:01Z</time></trkpt><trkpt lat="40.607713744114044" lon="15.06592766463506"><ele>71.0</ele><time>2026-04-26T17:53:02Z</time></trkpt><trkpt lat="40.607713191564976" lon="15.066142767952199"><ele>70.66666666666667</ele><time>2026-04-26T17:53:03Z</time></trkpt><trkpt lat="40.607713858767504" lon="15.066356390995205"><ele>70.33333333333333</ele><time>2026-04-26T17:53:04Z</time></trkpt><trkpt lat="40.60771305286435" lon="15.066566457467784"><ele>70.0</ele><time>2026-04-26T17:53:05Z</time></trkpt><trkpt lat="40.60771422983014" lon="15.06677355510416"><ele>69.66666666666666</ele><time>2026-04-26T17:53:06Z</time></trkpt><trkpt lat="40.607714272272034" lon="15.066978623711567"><ele>69.33333333333333</ele><time>2026-04-26T17:53:07Z</time></trkpt><trkpt lat="40.60771680894451" lon="15.067182515881145"><ele>69.0</ele><time>2026-04-26T17:53:08Z</time></trkpt><trkpt lat="40.607718665102496" lon="15.067386365589108"><ele>69.0</ele><time>2026-04-26T17:53:09Z</time></trkpt><trkpt lat="40.60772452643775" lon="15.067594692749994"><ele>69.0</ele><time>2026-04-26T17:53:10Z</time></trkpt><trkpt lat="40.60772754673149" lon="15.067807023128536"><ele>69.0</ele><time>2026-04-26T17:53:11Z</time></trkpt><trkpt lat="40.60773120781526" lon="15.068021092478046"><ele>69.0</ele><time>2026-04-26T17:53:12Z</time></trkpt><trkpt lat="40.60773741267299" lon="15.068232190525178"><ele>69.0</ele><time>2026-04-26T17:53:13Z</time></trkpt><trkpt lat="40.607744792875444" lon="15.068438921513446"><ele>69.0</ele><time>2026-04-26T17:53:14Z</time></trkpt><trkpt lat="40.60775397881991" lon="15.068647646837446"><ele>69.0</ele><time>2026-04-26T17:53:15Z</time></trkpt><trkpt lat="40.607762657643654" lon="15.068853647535862"><ele>69.0</ele><time>2026-04-26T17:53:16Z</time></trkpt><trkpt lat="40.60777368128076" lon="15.069057885046336"><ele>69.0</ele><time>2026-04-26T17:53:17Z</time></trkpt><trkpt lat="40.607785132814165" lon="15.069264668636128"><ele>69.0</ele><time>2026-04-26T17:53:18Z</time></trkpt><trkpt lat="40.60780281746497" lon="15.069475974045446"><ele>69.0</ele><time>2026-04-26T17:53:19Z</time></trkpt><trkpt lat="40.60781961199798" lon="15.0696886041514"><ele>69.0</ele><time>2026-04-26T17:53:20Z</time></trkpt><trkpt lat="40.6078398559154" lon="15.069898655091118"><ele>69.66666666666667</ele><time>2026-04-26T17:53:21Z</time></trkpt><trkpt lat="40.607858704202606" lon="15.070105890237812"><ele>70.33333333333334</ele><time>2026-04-26T17:53:22Z</time></trkpt><trkpt lat="40.60788004039633" lon="15.070312227738402"><ele>71.0</ele><time>2026-04-26T17:53:23Z</time></trkpt><trkpt lat="40.60790439555123" lon="15.070518083327379"><ele>71.0</ele><time>2026-04-26T17:53:24Z</time></trkpt><trkpt lat="40.6079314731754" lon="15.070726154241168"><ele>71.0</ele><time>2026-04-26T17:53:25Z</time></trkpt><trkpt lat="40.60795471876612" lon="15.070931519362222"><ele>71.0</ele><time>2026-04-26T17:53:26Z</time></trkpt><trkpt lat="40.607983752657674" lon="15.071138679437606"><ele>71.66666666666667</ele><time>2026-04-26T17:53:27Z</time></trkpt><trkpt lat="40.608010163377486" lon="15.071346727692644"><ele>72.33333333333333</ele><time>2026-04-26T17:53:28Z</time></trkpt><trkpt lat="40.60803787297253" lon="15.071555582462114"><ele>73.0</ele><time>2026-04-26T17:53:29Z</time></trkpt><trkpt lat="40.60806822130784" lon="15.07176276660661"><ele>74.0</ele><time>2026-04-26T17:53:30Z</time></trkpt><trkpt lat="40.60809906393904" lon="15.071968326678206"><ele>75.0</ele><time>2026-04-26T17:53:31Z</time></trkpt><trkpt lat="40.60813133160341" lon="15.072173513899845"><ele>76.0</ele><time>2026-04-26T17:53:32Z</time></trkpt><trkpt lat="40.608167357527215" lon="15.072377408658875"><ele>76.0</ele><time>2026-04-26T17:53:33Z</time></trkpt><trkpt lat="40.608204169353144" lon="15.072576761934162"><ele>76.0</ele><time>2026-04-26T17:53:34Z</time></trkpt><trkpt lat="40.60824083194543" lon="15.072775224181107"><ele>76.0</ele><time>2026-04-26T17:53:35Z</time></trkpt><trkpt lat="40.60827778333044" lon="15.072978262147345"><ele>76.0</ele><time>2026-04-26T17:53:36Z</time></trkpt><trkpt lat="40.60831509686607" lon="15.07318172516834"><ele>76.0</ele><time>2026-04-26T17:53:37Z</time></trkpt><trkpt lat="40.60835329642224" lon="15.073384227543155"><ele>76.0</ele><time>2026-04-26T17:53:38Z</time></trkpt><trkpt lat="40.608392265487346" lon="15.073586536863806"><ele>75.66666666666666</ele><time>2026-04-26T17:53:39Z</time></trkpt><trkpt lat="40.60843311631298" lon="15.073791211666881"><ele>75.33333333333333</ele><time>2026-04-26T17:53:40Z</time></trkpt><trkpt lat="40.608471584695764" lon="15.073995628055828"><ele>75.0</ele><time>2026-04-26T17:53:41Z</time></trkpt><trkpt lat="40.608511743935125" lon="15.07419854212954"><ele>76.33333333333333</ele><time>2026-04-26T17:53:42Z</time></trkpt><trkpt lat="40.608553763062986" lon="15.074400787394174"><ele>77.66666666666666</ele><time>2026-04-26T17:53:43Z</time></trkpt><trkpt lat="40.608596764856735" lon="15.074600882519887"><ele>79.0</ele><time>2026-04-26T17:53:44Z</time></trkpt><trkpt lat="40.608641318611916" lon="15.074802527390453"><ele>79.33333333333333</ele><time>2026-04-26T17:53:45Z</time></trkpt><trkpt lat="40.608677671480905" lon="15.07500575925284"><ele>79.66666666666667</ele><time>2026-04-26T17:53:46Z</time></trkpt><trkpt lat="40.60871713539603" lon="15.075209176856067"><ele>80.0</ele><time>2026-04-26T17:53:47Z</time></trkpt><trkpt lat="40.60875402148623" lon="15.07541016875083"><ele>80.0</ele><time>2026-04-26T17:53:48Z</time></trkpt><trkpt lat="40.608790703235954" lon="15.075613175036862"><ele>80.0</ele><time>2026-04-26T17:53:49Z</time></trkpt><trkpt lat="40.608831501513585" lon="15.075816583613447"><ele>80.0</ele><time>2026-04-26T17:53:50Z</time></trkpt><trkpt lat="40.60887388746997" lon="15.076022440878273"><ele>80.33333333333334</ele><time>2026-04-26T17:53:51Z</time></trkpt><trkpt lat="40.608907882005624" lon="15.076222314052846"><ele>80.66666666666667</ele><time>2026-04-26T17:53:52Z</time></trkpt><trkpt lat="40.608945192237954" lon="15.076422971647894"><ele>81.0</ele><time>2026-04-26T17:53:53Z</time></trkpt><trkpt lat="40.60898625018152" lon="15.076624127506777"><ele>81.0</ele><time>2026-04-26T17:53:54Z</time></trkpt><trkpt lat="40.6090273882327" lon="15.07682694739302"><ele>81.0</ele><time>2026-04-26T17:53:55Z</time></trkpt><trkpt lat="40.60906133716512" lon="15.077029728843877"><ele>81.0</ele><time>2026-04-26T17:53:56Z</time></trkpt><trkpt lat="40.60910098058515" lon="15.077229662702992"><ele>81.0</ele><time>2026-04-26T17:53:57Z</time></trkpt><trkpt lat="40.609129797200914" lon="15.077419659981894"><ele>81.0</ele><time>2026-04-26T17:53:58Z</time></trkpt><trkpt lat="40.609161995129234" lon="15.077610742925218"><ele>81.0</ele><time>2026-04-26T17:53:59Z</time></trkpt><trkpt lat="40.60919175788706" lon="15.077798101249636"><ele>81.0</ele><time>2026-04-26T17:54:00Z</time></trkpt><trkpt lat="40.60922761517571" lon="15.077985819962105"><ele>81.25</ele><time>2026-04-26T17:54:01Z</time></trkpt><trkpt lat="40.609257507507316" lon="15.07817139334657"><ele>81.5</ele><time>2026-04-26T17:54:02Z</time></trkpt><trkpt lat="40.60928856441183" lon="15.078359094389322"><ele>81.75</ele><time>2026-04-26T17:54:03Z</time></trkpt><trkpt lat="40.609319797844165" lon="15.078550568925856"><ele>82.0</ele><time>2026-04-26T17:54:04Z</time></trkpt><trkpt lat="40.609348797479754" lon="15.078748756711942"><ele>83.33333333333333</ele><time>2026-04-26T17:54:05Z</time></trkpt><trkpt lat="40.60937944287549" lon="15.07894986766645"><ele>84.66666666666667</ele><time>2026-04-26T17:54:06Z</time></trkpt><trkpt lat="40.60941284405768" lon="15.079150222690703"><ele>86.0</ele><time>2026-04-26T17:54:07Z</time></trkpt><trkpt lat="40.60943948238316" lon="15.079359805267456"><ele>86.33333333333334</ele><time>2026-04-26T17:54:08Z</time></trkpt><trkpt lat="40.609457958684594" lon="15.079572178310118"><ele>86.66666666666667</ele><time>2026-04-26T17:54:09Z</time></trkpt><trkpt lat="40.60947789709876" lon="15.079789895187057"><ele>87.0</ele><time>2026-04-26T17:54:10Z</time></trkpt><trkpt lat="40.609501025833936" lon="15.080009820475968"><ele>87.66666666666667</ele><time>2026-04-26T17:54:11Z</time></trkpt><trkpt lat="40.60952719641668" lon="15.080233112664963"><ele>88.33333333333334</ele><time>2026-04-26T17:54:12Z</time></trkpt><trkpt lat="40.60954973802359" lon="15.080460507993843"><ele>89.0</ele><time>2026-04-26T17:54:13Z</time></trkpt><trkpt lat="40.60956899395332" lon="15.080688338784219"><ele>89.33333333333334</ele><time>2026-04-26T17:54:14Z</time></trkpt><trkpt lat="40.60959197351132" lon="15.080901938821272"><ele>89.66666666666667</ele><time>2026-04-26T17:54:15Z</time></trkpt><trkpt lat="40.60960803015847" lon="15.081113418828505"><ele>90.0</ele><time>2026-04-26T17:54:16Z</time></trkpt><trkpt lat="40.60961668701015" lon="15.081319396269159"><ele>90.0</ele><time>2026-04-26T17:54:17Z</time></trkpt><trkpt lat="40.609623353608626" lon="15.081518980316465"><ele>90.0</ele><time>2026-04-26T17:54:18Z</time></trkpt><trkpt lat="40.60963261811427" lon="15.08172055258986"><ele>90.0</ele><time>2026-04-26T17:54:19Z</time></trkpt><trkpt lat="40.609648199980846" lon="15.08193166415618"><ele>90.33333333333333</ele><time>2026-04-26T17:54:20Z</time></trkpt><trkpt lat="40.60965278945568" lon="15.082150011443671"><ele>90.66666666666666</ele><time>2026-04-26T17:54:21Z</time></trkpt><trkpt lat="40.60965627795704" lon="15.082371491186805"><ele>91.0</ele><time>2026-04-26T17:54:22Z</time></trkpt><trkpt lat="40.609658125731606" lon="15.082602914616942"><ele>91.0</ele><time>2026-04-26T17:54:23Z</time></trkpt><trkpt lat="40.609661777692374" lon="15.082835345827437"><ele>91.0</ele><time>2026-04-26T17:54:24Z</time></trkpt><trkpt lat="40.609660450450924" lon="15.083061282962898"><ele>91.0</ele><time>2026-04-26T17:54:25Z</time></trkpt><trkpt lat="40.60965875996791" lon="15.083284161292275"><ele>90.66666666666666</ele><time>2026-04-26T17:54:26Z</time></trkpt><trkpt lat="40.60965504654803" lon="15.08349877404741"><ele>90.33333333333333</ele><time>2026-04-26T17:54:27Z</time></trkpt><trkpt lat="40.60964783819384" lon="15.083708191373242"><ele>90.0</ele><time>2026-04-26T17:54:28Z</time></trkpt><trkpt lat="40.609641375261894" lon="15.083918317665894"><ele>90.0</ele><time>2026-04-26T17:54:29Z</time></trkpt><trkpt lat="40.609637366531686" lon="15.084126954909161"><ele>90.0</ele><time>2026-04-26T17:54:30Z</time></trkpt><trkpt lat="40.60963403074731" lon="15.084337243638375"><ele>90.0</ele><time>2026-04-26T17:54:31Z</time></trkpt><trkpt lat="40.609623614645145" lon="15.084546494630303"><ele>90.0</ele><time>2026-04-26T17:54:32Z</time></trkpt><trkpt lat="40.609605832026666" lon="15.08475924646097"><ele>90.0</ele><time>2026-04-26T17:54:33Z</time></trkpt><trkpt lat="40.609586927458004" lon="15.084974753215597"><ele>90.0</ele><time>2026-04-26T17:54:34Z</time></trkpt><trkpt lat="40.609574710482256" lon="15.085188723075001"><ele>89.0</ele><time>2026-04-26T17:54:35Z</time></trkpt><trkpt lat="40.60956251368004" lon="15.085401269645633"><ele>88.0</ele><time>2026-04-26T17:54:36Z</time></trkpt><trkpt lat="40.609549025322565" lon="15.085611545184863"><ele>87.0</ele><time>2026-04-26T17:54:37Z</time></trkpt><trkpt lat="40.60953826560243" lon="15.08582171579442"><ele>86.66666666666667</ele><time>2026-04-26T17:54:38Z</time></trkpt><trkpt lat="40.60953496833003" lon="15.086036894529395"><ele>86.33333333333334</ele><time>2026-04-26T17:54:39Z</time></trkpt><trkpt lat="40.609520504021646" lon="15.086261137435246"><ele>86.0</ele><time>2026-04-26T17:54:40Z</time></trkpt><trkpt lat="40.60950631142497" lon="15.0864875454317"><ele>86.33333333333334</ele><time>2026-04-26T17:54:41Z</time></trkpt><trkpt lat="40.60949029530289" lon="15.086719395828611"><ele>86.66666666666667</ele><time>2026-04-26T17:54:42Z</time></trkpt><trkpt lat="40.60947580566734" lon="15.086955069349099"><ele>87.0</ele><time>2026-04-26T17:54:43Z</time></trkpt><trkpt lat="40.609459166529064" lon="15.087189759664657"><ele>87.0</ele><time>2026-04-26T17:54:44Z</time></trkpt><trkpt lat="40.60943872231197" lon="15.087422057797943"><ele>87.0</ele><time>2026-04-26T17:54:45Z</time></trkpt><trkpt lat="40.609423399265964" lon="15.087650868842857"><ele>87.0</ele><time>2026-04-26T17:54:46Z</time></trkpt><trkpt lat="40.60941027682513" lon="15.087893032948747"><ele>88.0</ele><time>2026-04-26T17:54:47Z</time></trkpt><trkpt lat="40.60940375201733" lon="15.088152079794472"><ele>89.0</ele><time>2026-04-26T17:54:48Z</time></trkpt><trkpt lat="40.60938573238033" lon="15.088419786554413"><ele>90.0</ele><time>2026-04-26T17:54:49Z</time></trkpt><trkpt lat="40.6093610489441" lon="15.088699989428456"><ele>90.33333333333333</ele><time>2026-04-26T17:54:50Z</time></trkpt><trkpt lat="40.60932944352418" lon="15.08898808313052"><ele>90.66666666666666</ele><time>2026-04-26T17:54:51Z</time></trkpt><trkpt lat="40.60929236940378" lon="15.089284319855652"><ele>91.0</ele><time>2026-04-26T17:54:52Z</time></trkpt><trkpt lat="40.60925085895896" lon="15.089588563048041"><ele>92.5</ele><time>2026-04-26T17:54:53Z</time></trkpt><trkpt lat="40.60920185529812" lon="15.089902113633382"><ele>94.0</ele><time>2026-04-26T17:54:54Z</time></trkpt><trkpt lat="40.60913871082722" lon="15.090219094270655"><ele>95.0</ele><time>2026-04-26T17:54:55Z</time></trkpt><trkpt lat="40.609068555298364" lon="15.090540802845874"><ele>96.0</ele><time>2026-04-26T17:54:56Z</time></trkpt><trkpt lat="40.60899533391419" lon="15.090868833701677"><ele>96.0</ele><time>2026-04-26T17:54:57Z</time></trkpt><trkpt lat="40.60891452654444" lon="15.091203010171323"><ele>96.0</ele><time>2026-04-26T17:54:58Z</time></trkpt><trkpt lat="40.608821778440124" lon="15.091539476820893"><ele>96.0</ele><time>2026-04-26T17:54:59Z</time></trkpt><trkpt lat="40.60872228107212" lon="15.09187739994304"><ele>96.0</ele><time>2026-04-26T17:55:00Z</time></trkpt><trkpt lat="40.60861751712666" lon="15.092217103307243"><ele>95.0</ele><time>2026-04-26T17:55:01Z</time></trkpt><trkpt lat="40.608503787007564" lon="15.09255762664205"><ele>94.0</ele><time>2026-04-26T17:55:02Z</time></trkpt><trkpt lat="40.60838667883707" lon="15.092898543253188"><ele>94.0</ele><time>2026-04-26T17:55:03Z</time></trkpt><trkpt lat="40.60826563022745" lon="15.093238656658647"><ele>94.0</ele><time>2026-04-26T17:55:04Z</time></trkpt><trkpt lat="40.608145181920314" lon="15.093581530526885"><ele>94.5</ele><time>2026-04-26T17:55:05Z</time></trkpt><trkpt lat="40.60802887813297" lon="15.093931152579627"><ele>95.0</ele><time>2026-04-26T17:55:06Z</time></trkpt><trkpt lat="40.6079156794561" lon="15.09428582334453"><ele>95.0</ele><time>2026-04-26T17:55:07Z</time></trkpt><trkpt lat="40.6078007295067" lon="15.094641113063625"><ele>95.0</ele><time>2026-04-26T17:55:08Z</time></trkpt><trkpt lat="40.607686374691745" lon="15.094998166163043"><ele>95.5</ele><time>2026-04-26T17:55:09Z</time></trkpt><trkpt lat="40.60757860903482" lon="15.095360922402136"><ele>96.0</ele><time>2026-04-26T17:55:10Z</time></trkpt><trkpt lat="40.60747277348817" lon="15.095730793093782"><ele>96.0</ele><time>2026-04-26T17:55:11Z</time></trkpt><trkpt lat="40.60736407551219" lon="15.096103918509954"><ele>96.0</ele><time>2026-04-26T17:55:12Z</time></trkpt><trkpt lat="40.607261502863906" lon="15.096477090218736"><ele>96.0</ele><time>2026-04-26T17:55:13Z</time></trkpt><trkpt lat="40.607154724245476" lon="15.09685033196883"><ele>96.0</ele><time>2026-04-26T17:55:14Z</time></trkpt><trkpt lat="40.60705877790767" lon="15.097220883680203"><ele>95.0</ele><time>2026-04-26T17:55:15Z</time></trkpt><trkpt lat="40.60696241812005" lon="15.097594237613553"><ele>94.0</ele><time>2026-04-26T17:55:16Z</time></trkpt><trkpt lat="40.606875514586626" lon="15.097973707644012"><ele>95.0</ele><time>2026-04-26T17:55:17Z</time></trkpt><trkpt lat="40.60679657201537" lon="15.09835749212111"><ele>96.0</ele><time>2026-04-26T17:55:18Z</time></trkpt><trkpt lat="40.60671764785479" lon="15.098745298159637"><ele>96.0</ele><time>2026-04-26T17:55:19Z</time></trkpt><trkpt lat="40.60663860822946" lon="15.099135147668797"><ele>96.0</ele><time>2026-04-26T17:55:20Z</time></trkpt><trkpt lat="40.606565756389536" lon="15.099516909846816"><ele>96.0</ele><time>2026-04-26T17:55:21Z</time></trkpt><trkpt lat="40.60649674101207" lon="15.099861904204149"><ele>96.0</ele><time>2026-04-26T17:55:22Z</time></trkpt><trkpt lat="40.60643886609565" lon="15.100179093687217"><ele>96.0</ele><time>2026-04-26T17:55:23Z</time></trkpt><trkpt lat="40.60638067376396" lon="15.10048589615986"><ele>96.0</ele><time>2026-04-26T17:55:24Z</time></trkpt><trkpt lat="40.60632913435799" lon="15.100778897148448"><ele>96.0</ele><time>2026-04-26T17:55:25Z</time></trkpt><trkpt lat="40.606277239659086" lon="15.101056848436379"><ele>96.0</ele><time>2026-04-26T17:55:26Z</time></trkpt><trkpt lat="40.6062319650542" lon="15.101325127316588"><ele>96.0</ele><time>2026-04-26T17:55:27Z</time></trkpt><trkpt lat="40.60619435405771" lon="15.101583790740667"><ele>95.33333333333333</ele><time>2026-04-26T17:55:28Z</time></trkpt><trkpt lat="40.60615890914242" lon="15.101846835450019"><ele>94.66666666666666</ele><time>2026-04-26T17:55:29Z</time></trkpt><trkpt lat="40.60612526289437" lon="15.102114746294507"><ele>94.0</ele><time>2026-04-26T17:55:30Z</time></trkpt><trkpt lat="40.60609379755779" lon="15.102385345207567"><ele>94.66666666666666</ele><time>2026-04-26T17:55:31Z</time></trkpt><trkpt lat="40.60606581652737" lon="15.102668072651495"><ele>95.33333333333333</ele><time>2026-04-26T17:55:32Z</time></trkpt><trkpt lat="40.606043634871625" lon="15.102961107482539"><ele>96.0</ele><time>2026-04-26T17:55:33Z</time></trkpt><trkpt lat="40.60602550183912" lon="15.103267332201497"><ele>97.0</ele><time>2026-04-26T17:55:34Z</time></trkpt><trkpt lat="40.60601548198459" lon="15.103585131630679"><ele>98.0</ele><time>2026-04-26T17:55:35Z</time></trkpt><trkpt lat="40.606012777810356" lon="15.103913089809037"><ele>98.5</ele><time>2026-04-26T17:55:36Z</time></trkpt><trkpt lat="40.60601627547975" lon="15.104243504725147"><ele>99.0</ele><time>2026-04-26T17:55:37Z</time></trkpt><trkpt lat="40.606020978663494" lon="15.104573767205533"><ele>99.0</ele><time>2026-04-26T17:55:38Z</time></trkpt><trkpt lat="40.606034313507294" lon="15.104905621036428"><ele>99.0</ele><time>2026-04-26T17:55:39Z</time></trkpt><trkpt lat="40.606052115450815" lon="15.105237236230757"><ele>99.0</ele><time>2026-04-26T17:55:40Z</time></trkpt><trkpt lat="40.606068928531336" lon="15.105571065248657"><ele>99.0</ele><time>2026-04-26T17:55:41Z</time></trkpt><trkpt lat="40.60608566055333" lon="15.105903975906953"><ele>99.0</ele><time>2026-04-26T17:55:42Z</time></trkpt><trkpt lat="40.60610457307116" lon="15.106233817110866"><ele>99.0</ele><time>2026-04-26T17:55:43Z</time></trkpt><trkpt lat="40.60612374974451" lon="15.10656600347967"><ele>96.5</ele><time>2026-04-26T17:55:44Z</time></trkpt><trkpt lat="40.60614196667947" lon="15.106899025797611"><ele>94.0</ele><time>2026-04-26T17:55:45Z</time></trkpt><trkpt lat="40.606160123735215" lon="15.10723603916627"><ele>95.5</ele><time>2026-04-26T17:55:46Z</time></trkpt><trkpt lat="40.60618207051796" lon="15.1075829299306"><ele>97.0</ele><time>2026-04-26T17:55:47Z</time></trkpt><trkpt lat="40.606199322069116" lon="15.107931556806536"><ele>98.5</ele><time>2026-04-26T17:55:48Z</time></trkpt><trkpt lat="40.606215179049" lon="15.108277342660603"><ele>100.0</ele><time>2026-04-26T17:55:49Z</time></trkpt><trkpt lat="40.60623443695262" lon="15.108623173640762"><ele>100.0</ele><time>2026-04-26T17:55:50Z</time></trkpt><trkpt lat="40.60625284593703" lon="15.108979815597795"><ele>100.0</ele><time>2026-04-26T17:55:51Z</time></trkpt><trkpt lat="40.60627485088653" lon="15.109343392576767"><ele>102.0</ele><time>2026-04-26T17:55:52Z</time></trkpt><trkpt lat="40.60629803560882" lon="15.109712955293967"><ele>104.0</ele><time>2026-04-26T17:55:53Z</time></trkpt><trkpt lat="40.60632324507804" lon="15.110087699426057"><ele>104.0</ele><time>2026-04-26T17:55:54Z</time></trkpt><trkpt lat="40.606348323253954" lon="15.11046631324474"><ele>104.0</ele><time>2026-04-26T17:55:55Z</time></trkpt><trkpt lat="40.606372592315076" lon="15.110848602276153"><ele>104.0</ele><time>2026-04-26T17:55:56Z</time></trkpt><trkpt lat="40.60639551374305" lon="15.111234938020388"><ele>104.0</ele><time>2026-04-26T17:55:57Z</time></trkpt><trkpt lat="40.60641795724591" lon="15.111625488293308"><ele>104.5</ele><time>2026-04-26T17:55:58Z</time></trkpt><trkpt lat="40.60644004714315" lon="15.112019652186794"><ele>105.0</ele><time>2026-04-26T17:55:59Z</time></trkpt><trkpt lat="40.60646290539354" lon="15.112416057588751"><ele>106.0</ele><time>2026-04-26T17:56:00Z</time></trkpt><trkpt lat="40.606495601380324" lon="15.112815498122416"><ele>107.0</ele><time>2026-04-26T17:56:01Z</time></trkpt><trkpt lat="40.60652306296221" lon="15.113217592423899"><ele>107.0</ele><time>2026-04-26T17:56:02Z</time></trkpt><trkpt lat="40.606544922560154" lon="15.113624481863727"><ele>107.0</ele><time>2026-04-26T17:56:03Z</time></trkpt><trkpt lat="40.60657046764613" lon="15.114029215134831"><ele>107.0</ele><time>2026-04-26T17:56:04Z</time></trkpt><trkpt lat="40.606597715171446" lon="15.114432769590335"><ele>107.0</ele><time>2026-04-26T17:56:05Z</time></trkpt><trkpt lat="40.606620773227746" lon="15.11483994387469"><ele>107.5</ele><time>2026-04-26T17:56:06Z</time></trkpt><trkpt lat="40.60664777572715" lon="15.115246270525285"><ele>108.0</ele><time>2026-04-26T17:56:07Z</time></trkpt><trkpt lat="40.606673020236926" lon="15.115654569481116"><ele>106.5</ele><time>2026-04-26T17:56:08Z</time></trkpt><trkpt lat="40.60670016702873" lon="15.116066580856453"><ele>105.0</ele><time>2026-04-26T17:56:09Z</time></trkpt><trkpt lat="40.606726040542355" lon="15.116479237946221"><ele>105.0</ele><time>2026-04-26T17:56:10Z</time></trkpt><trkpt lat="40.60675878340249" lon="15.11689185447426"><ele>105.0</ele><time>2026-04-26T17:56:11Z</time></trkpt><trkpt lat="40.60679824908636" lon="15.117306745577416"><ele>106.5</ele><time>2026-04-26T17:56:12Z</time></trkpt><trkpt lat="40.60683435051642" lon="15.117716471569487"><ele>108.0</ele><time>2026-04-26T17:56:13Z</time></trkpt><trkpt lat="40.60686898929112" lon="15.118125021890721"><ele>108.0</ele><time>2026-04-26T17:56:14Z</time></trkpt><trkpt lat="40.60690465195437" lon="15.118531156027236"><ele>108.0</ele><time>2026-04-26T17:56:15Z</time></trkpt><trkpt lat="40.60694147188761" lon="15.118940397851366"><ele>107.5</ele><time>2026-04-26T17:56:16Z</time></trkpt><trkpt lat="40.60697799468722" lon="15.11934924977992"><ele>107.0</ele><time>2026-04-26T17:56:17Z</time></trkpt><trkpt lat="40.60701809899803" lon="15.11975478041303"><ele>108.0</ele><time>2026-04-26T17:56:18Z</time></trkpt><trkpt lat="40.60705065209534" lon="15.120166608364874"><ele>109.0</ele><time>2026-04-26T17:56:19Z</time></trkpt><trkpt lat="40.607084242672045" lon="15.12057794715601"><ele>107.5</ele><time>2026-04-26T17:56:20Z</time></trkpt><trkpt lat="40.607116257000555" lon="15.120988533014234"><ele>106.0</ele><time>2026-04-26T17:56:21Z</time></trkpt><trkpt lat="40.60714976033638" lon="15.121399446600465"><ele>104.5</ele><time>2026-04-26T17:56:22Z</time></trkpt><trkpt lat="40.60718847955663" lon="15.121807026421871"><ele>103.0</ele><time>2026-04-26T17:56:23Z</time></trkpt><trkpt lat="40.60722486973492" lon="15.122200502610207"><ele>96.0</ele><time>2026-04-26T17:56:24Z</time></trkpt><trkpt lat="40.60725628092148" lon="15.122581720442525"><ele>89.0</ele><time>2026-04-26T17:56:25Z</time></trkpt><trkpt lat="40.607285933198646" lon="15.122951410640512"><ele>88.5</ele><time>2026-04-26T17:56:26Z</time></trkpt><trkpt lat="40.60732003194928" lon="15.12331988832943"><ele>88.0</ele><time>2026-04-26T17:56:27Z</time></trkpt><trkpt lat="40.60734868221588" lon="15.123690427306363"><ele>93.5</ele><time>2026-04-26T17:56:28Z</time></trkpt><trkpt lat="40.607381097392526" lon="15.124066343752185"><ele>99.0</ele><time>2026-04-26T17:56:29Z</time></trkpt><trkpt lat="40.60740732916933" lon="15.124440572615507"><ele>99.0</ele><time>2026-04-26T17:56:30Z</time></trkpt><trkpt lat="40.60743942153593" lon="15.12481476457318"><ele>99.0</ele><time>2026-04-26T17:56:31Z</time></trkpt><trkpt lat="40.60747522373946" lon="15.125184757887165"><ele>99.5</ele><time>2026-04-26T17:56:32Z</time></trkpt><trkpt lat="40.60750870289211" lon="15.12555656277039"><ele>100.0</ele><time>2026-04-26T17:56:33Z</time></trkpt><trkpt lat="40.60754586862838" lon="15.125931608872378"><ele>100.0</ele><time>2026-04-26T17:56:34Z</time></trkpt><trkpt lat="40.607585845953324" lon="15.126310023147282"><ele>100.0</ele><time>2026-04-26T17:56:35Z</time></trkpt><trkpt lat="40.607635483590556" lon="15.126688069803203"><ele>100.0</ele><time>2026-04-26T17:56:36Z</time></trkpt><trkpt lat="40.607687143548944" lon="15.1270652942855"><ele>100.0</ele><time>2026-04-26T17:56:37Z</time></trkpt><trkpt lat="40.607744610030004" lon="15.1274444827941"><ele>99.5</ele><time>2026-04-26T17:56:38Z</time></trkpt><trkpt lat="40.60781113257373" lon="15.127809078719428"><ele>99.0</ele><time>2026-04-26T17:56:39Z</time></trkpt><trkpt lat="40.60788247628315" lon="15.128167411382316"><ele>89.0</ele><time>2026-04-26T17:56:40Z</time></trkpt><trkpt lat="40.6079566638822" lon="15.128531397754951"><ele>79.0</ele><time>2026-04-26T17:56:41Z</time></trkpt><trkpt lat="40.60804424107784" lon="15.128902996862937"><ele>68.5</ele><time>2026-04-26T17:56:42Z</time></trkpt><trkpt lat="40.60814229708343" lon="15.129275876289126"><ele>58.0</ele><time>2026-04-26T17:56:43Z</time></trkpt><trkpt lat="40.60824427145079" lon="15.129652105870175"><ele>57.0</ele><time>2026-04-26T17:56:44Z</time></trkpt><trkpt lat="40.60835189707545" lon="15.130030675172446"><ele>56.0</ele><time>2026-04-26T17:56:45Z</time></trkpt><trkpt lat="40.60847180646209" lon="15.130408959332819"><ele>62.0</ele><time>2026-04-26T17:56:46Z</time></trkpt><trkpt lat="40.60860077944877" lon="15.130781408341626"><ele>68.0</ele><time>2026-04-26T17:56:47Z</time></trkpt><trkpt lat="40.60873724731831" lon="15.131151961952138"><ele>70.5</ele><time>2026-04-26T17:56:48Z</time></trkpt><trkpt lat="40.60887784314472" lon="15.131520793472154"><ele>73.0</ele><time>2026-04-26T17:56:49Z</time></trkpt><trkpt lat="40.609020985772716" lon="15.131891965965366"><ele>81.5</ele><time>2026-04-26T17:56:50Z</time></trkpt><trkpt lat="40.609162472197994" lon="15.132267464100536"><ele>90.0</ele><time>2026-04-26T17:56:51Z</time></trkpt><trkpt lat="40.60930109622161" lon="15.132631558124135"><ele>95.5</ele><time>2026-04-26T17:56:52Z</time></trkpt><trkpt lat="40.60943377251567" lon="15.132990309887742"><ele>101.0</ele><time>2026-04-26T17:56:53.012Z</time></trkpt><trkpt lat="40.60955862839348" lon="15.133348970631511"><ele>101.0</ele><time>2026-04-26T17:56:54.014Z</time></trkpt><trkpt lat="40.60968210076816" lon="15.133718668473819"><ele>101.0</ele><time>2026-04-26T17:56:55.014Z</time></trkpt><trkpt lat="40.60980459129651" lon="15.134088387607667"><ele>74.0</ele><time>2026-04-26T17:56:56.011Z</time></trkpt><trkpt lat="40.610248631649334" lon="15.135490408045053"><ele>73.5</ele><time>2026-04-26T17:57:00Z</time></trkpt><trkpt lat="40.6105871850086" lon="15.135578247776724"><ele>73.0</ele><time>2026-04-26T17:57:01Z</time></trkpt><trkpt lat="40.6107257950383" lon="15.135884316455808"><ele>73.0</ele><time>2026-04-26T17:57:02Z</time></trkpt><trkpt lat="40.6108683384747" lon="15.136201705490809"><ele>73.0</ele><time>2026-04-26T17:57:03Z</time></trkpt><trkpt lat="40.61102060497454" lon="15.13652650775824"><ele>71.0</ele><time>2026-04-26T17:57:04Z</time></trkpt><trkpt lat="40.61118218282886" lon="15.136848554199934"><ele>69.0</ele><time>2026-04-26T17:57:05Z</time></trkpt><trkpt lat="40.61134511684833" lon="15.137180483705974"><ele>68.0</ele><time>2026-04-26T17:57:06Z</time></trkpt><trkpt lat="40.611499008849535" lon="15.137523432203732"><ele>67.0</ele><time>2026-04-26T17:57:07Z</time></trkpt><trkpt lat="40.61164991321154" lon="15.137859613576602"><ele>67.0</ele><time>2026-04-26T17:57:08Z</time></trkpt><trkpt lat="40.61179534379521" lon="15.138186097646603"><ele>67.0</ele><time>2026-04-26T17:57:09Z</time></trkpt><trkpt lat="40.611942465266786" lon="15.138514567102758"><ele>69.5</ele><time>2026-04-26T17:57:10Z</time></trkpt><trkpt lat="40.61208451133581" lon="15.138840412241713"><ele>72.0</ele><time>2026-04-26T17:57:11Z</time></trkpt><trkpt lat="40.61222702159158" lon="15.139172831073152"><ele>72.0</ele><time>2026-04-26T17:57:12Z</time></trkpt><trkpt lat="40.61235887887989" lon="15.139504993621285"><ele>72.0</ele><time>2026-04-26T17:57:13Z</time></trkpt><trkpt lat="40.612489885819684" lon="15.13984159025654"><ele>70.5</ele><time>2026-04-26T17:57:14Z</time></trkpt><trkpt lat="40.61261550087696" lon="15.140182445309232"><ele>69.0</ele><time>2026-04-26T17:57:15Z</time></trkpt><trkpt lat="40.61273699826415" lon="15.140530503849961"><ele>72.0</ele><time>2026-04-26T17:57:16Z</time></trkpt><trkpt lat="40.61285211161519" lon="15.140883036105112"><ele>75.0</ele><time>2026-04-26T17:57:17Z</time></trkpt><trkpt lat="40.61296440836498" lon="15.141251082181366"><ele>71.5</ele><time>2026-04-26T17:57:18Z</time></trkpt><trkpt lat="40.61306822435969" lon="15.141626070750311"><ele>68.0</ele><time>2026-04-26T17:57:19Z</time></trkpt><trkpt lat="40.61315979521563" lon="15.14200941782406"><ele>65.0</ele><time>2026-04-26T17:57:20Z</time></trkpt><trkpt lat="40.61323998684624" lon="15.142400380544197"><ele>62.0</ele><time>2026-04-26T17:57:21Z</time></trkpt><trkpt lat="40.61330855470984" lon="15.142798177950958"><ele>62.0</ele><time>2026-04-26T17:57:22Z</time></trkpt><trkpt lat="40.6133620853448" lon="15.143201731356728"><ele>62.0</ele><time>2026-04-26T17:57:23Z</time></trkpt><trkpt lat="40.61340543578227" lon="15.143608451659125"><ele>60.5</ele><time>2026-04-26T17:57:24Z</time></trkpt><trkpt lat="40.61344779054437" lon="15.144019255632468"><ele>59.0</ele><time>2026-04-26T17:57:25Z</time></trkpt><trkpt lat="40.61347549644871" lon="15.144432896881575"><ele>58.5</ele><time>2026-04-26T17:57:26Z</time></trkpt><trkpt lat="40.61348262345072" lon="15.144849434465185"><ele>58.0</ele><time>2026-04-26T17:57:27Z</time></trkpt><trkpt lat="40.613479131937055" lon="15.145268712060314"><ele>57.5</ele><time>2026-04-26T17:57:28Z</time></trkpt><trkpt lat="40.61348110816104" lon="15.145692435173743"><ele>57.0</ele><time>2026-04-26T17:57:29Z</time></trkpt><trkpt lat="40.613476382933364" lon="15.146117171929674"><ele>58.0</ele><time>2026-04-26T17:57:30Z</time></trkpt><trkpt lat="40.613467205325364" lon="15.146541982713973"><ele>59.0</ele><time>2026-04-26T17:57:31Z</time></trkpt><trkpt lat="40.61345715251305" lon="15.146967671927666"><ele>60.5</ele><time>2026-04-26T17:57:32Z</time></trkpt><trkpt lat="40.613451024399765" lon="15.147394173646"><ele>62.0</ele><time>2026-04-26T17:57:33Z</time></trkpt><trkpt lat="40.61344593308576" lon="15.147819847699227"><ele>63.0</ele><time>2026-04-26T17:57:34Z</time></trkpt><trkpt lat="40.61344796017473" lon="15.14824412898633"><ele>64.0</ele><time>2026-04-26T17:57:35Z</time></trkpt><trkpt lat="40.61345610420161" lon="15.148669209202009"><ele>63.5</ele><time>2026-04-26T17:57:36Z</time></trkpt><trkpt lat="40.61347893087132" lon="15.149094035856319"><ele>63.0</ele><time>2026-04-26T17:57:37Z</time></trkpt><trkpt lat="40.61351511957852" lon="15.149519511309306"><ele>62.0</ele><time>2026-04-26T17:57:38Z</time></trkpt><trkpt lat="40.61356503394718" lon="15.149943914847752"><ele>61.0</ele><time>2026-04-26T17:57:39Z</time></trkpt><trkpt lat="40.613631336283305" lon="15.150365587151578"><ele>68.0</ele><time>2026-04-26T17:57:40Z</time></trkpt><trkpt lat="40.613703581204874" lon="15.150787134482128"><ele>75.0</ele><time>2026-04-26T17:57:41Z</time></trkpt><trkpt lat="40.61378522739196" lon="15.15120445458754"><ele>71.0</ele><time>2026-04-26T17:57:42Z</time></trkpt><trkpt lat="40.61387538639982" lon="15.151619796973616"><ele>67.0</ele><time>2026-04-26T17:57:43Z</time></trkpt><trkpt lat="40.61398125879959" lon="15.152032831640179"><ele>63.5</ele><time>2026-04-26T17:57:44Z</time></trkpt><trkpt lat="40.614087402572345" lon="15.1524481319373"><ele>60.0</ele><time>2026-04-26T17:57:45Z</time></trkpt><trkpt lat="40.61419891003761" lon="15.152863384982087"><ele>57.5</ele><time>2026-04-26T17:57:46Z</time></trkpt><trkpt lat="40.61430920660264" lon="15.153280775699661"><ele>55.0</ele><time>2026-04-26T17:57:47Z</time></trkpt><trkpt lat="40.614412073573995" lon="15.153700192750692"><ele>55.0</ele><time>2026-04-26T17:57:48Z</time></trkpt><trkpt lat="40.614520373846545" lon="15.154112120694066"><ele>55.0</ele><time>2026-04-26T17:57:49Z</time></trkpt><trkpt lat="40.6146245226424" lon="15.154530071392637"><ele>53.5</ele><time>2026-04-26T17:57:50Z</time></trkpt><trkpt lat="40.61473173899539" lon="15.154949107302393"><ele>52.0</ele><time>2026-04-26T17:57:51Z</time></trkpt><trkpt lat="40.614838368654404" lon="15.155353018571867"><ele>53.0</ele><time>2026-04-26T17:57:52Z</time></trkpt><trkpt lat="40.614937263354946" lon="15.155745013454966"><ele>54.0</ele><time>2026-04-26T17:57:53Z</time></trkpt><trkpt lat="40.61503553007738" lon="15.156136755923095"><ele>54.0</ele><time>2026-04-26T17:57:54Z</time></trkpt><trkpt lat="40.61514036965989" lon="15.156527651942824"><ele>54.0</ele><time>2026-04-26T17:57:55Z</time></trkpt><trkpt lat="40.615244034009315" lon="15.156912137070682"><ele>52.0</ele><time>2026-04-26T17:57:56Z</time></trkpt><trkpt lat="40.61534308879784" lon="15.157293164734583"><ele>50.0</ele><time>2026-04-26T17:57:57Z</time></trkpt><trkpt lat="40.61544881884094" lon="15.15767321903494"><ele>50.0</ele><time>2026-04-26T17:57:58Z</time></trkpt><trkpt lat="40.615549585617515" lon="15.158050946270217"><ele>50.0</ele><time>2026-04-26T17:57:59Z</time></trkpt><trkpt lat="40.61564937876759" lon="15.15842686582611"><ele>50.0</ele><time>2026-04-26T17:58:00Z</time></trkpt><trkpt lat="40.615744436354404" lon="15.158801102356675"><ele>50.0</ele><time>2026-04-26T17:58:01Z</time></trkpt><trkpt lat="40.615839296261086" lon="15.15916520665555"><ele>50.5</ele><time>2026-04-26T17:58:02Z</time></trkpt><trkpt lat="40.6159367507757" lon="15.159529319914906"><ele>51.0</ele><time>2026-04-26T17:58:03Z</time></trkpt><trkpt lat="40.61603737942889" lon="15.1598950055709"><ele>51.5</ele><time>2026-04-26T17:58:04Z</time></trkpt><trkpt lat="40.61613798423171" lon="15.1602650728581"><ele>52.0</ele><time>2026-04-26T17:58:05Z</time></trkpt><trkpt lat="40.616234212300874" lon="15.16063844822168"><ele>52.5</ele><time>2026-04-26T17:58:06Z</time></trkpt><trkpt lat="40.61633288407689" lon="15.161014768259802"><ele>53.0</ele><time>2026-04-26T17:58:07Z</time></trkpt><trkpt lat="40.616434764706334" lon="15.16139078809364"><ele>52.5</ele><time>2026-04-26T17:58:08Z</time></trkpt><trkpt lat="40.616537055031586" lon="15.161767259009517"><ele>52.0</ele><time>2026-04-26T17:58:09Z</time></trkpt><trkpt lat="40.61663875463448" lon="15.16214652915087"><ele>52.5</ele><time>2026-04-26T17:58:10Z</time></trkpt><trkpt lat="40.61674017549383" lon="15.162527318999755"><ele>53.0</ele><time>2026-04-26T17:58:11Z</time></trkpt><trkpt lat="40.61683896951162" lon="15.162910782618777"><ele>53.0</ele><time>2026-04-26T17:58:12Z</time></trkpt><trkpt lat="40.61693941190899" lon="15.16329501612696"><ele>53.0</ele><time>2026-04-26T17:58:13Z</time></trkpt><trkpt lat="40.617038552095664" lon="15.163683523398978"><ele>52.0</ele><time>2026-04-26T17:58:14Z</time></trkpt><trkpt lat="40.61714387547737" lon="15.164068698406638"><ele>51.0</ele><time>2026-04-26T17:58:15Z</time></trkpt><trkpt lat="40.617245707022775" lon="15.16445851993947"><ele>51.0</ele><time>2026-04-26T17:58:16Z</time></trkpt><trkpt lat="40.617347854557615" lon="15.164848659252774"><ele>51.0</ele><time>2026-04-26T17:58:17Z</time></trkpt><trkpt lat="40.61744994106093" lon="15.165231438790592"><ele>51.0</ele><time>2026-04-26T17:58:18Z</time></trkpt><trkpt lat="40.61755273539688" lon="15.165609372509488"><ele>51.0</ele><time>2026-04-26T17:58:19Z</time></trkpt><trkpt lat="40.61764985072023" lon="15.165980499091406"><ele>50.5</ele><time>2026-04-26T17:58:20Z</time></trkpt><trkpt lat="40.61774823423975" lon="15.166344883761306"><ele>50.0</ele><time>2026-04-26T17:58:21Z</time></trkpt><trkpt lat="40.61784069247694" lon="15.166704114288226"><ele>50.5</ele><time>2026-04-26T17:58:22Z</time></trkpt><trkpt lat="40.61793456620767" lon="15.167061922249333"><ele>51.0</ele><time>2026-04-26T17:58:23Z</time></trkpt><trkpt lat="40.618029803796816" lon="15.167419477727885"><ele>51.0</ele><time>2026-04-26T17:58:24Z</time></trkpt><trkpt lat="40.61812350911315" lon="15.167772979881585"><ele>51.0</ele><time>2026-04-26T17:58:25Z</time></trkpt><trkpt lat="40.61822050143783" lon="15.168124745497789"><ele>51.0</ele><time>2026-04-26T17:58:26Z</time></trkpt><trkpt lat="40.6183161416712" lon="15.168474885372168"><ele>51.0</ele><time>2026-04-26T17:58:27Z</time></trkpt><trkpt lat="40.61841720145246" lon="15.168822587073013"><ele>52.0</ele><time>2026-04-26T17:58:28Z</time></trkpt><trkpt lat="40.6185175646172" lon="15.169170780096056"><ele>53.0</ele><time>2026-04-26T17:58:29Z</time></trkpt><trkpt lat="40.61862246628329" lon="15.16951656896125"><ele>54.5</ele><time>2026-04-26T17:58:30Z</time></trkpt><trkpt lat="40.618732910591554" lon="15.169856832769952"><ele>56.0</ele><time>2026-04-26T17:58:31Z</time></trkpt><trkpt lat="40.61885053361838" lon="15.170194961574099"><ele>56.5</ele><time>2026-04-26T17:58:32Z</time></trkpt><trkpt lat="40.61896880840604" lon="15.170529800952915"><ele>57.0</ele><time>2026-04-26T17:58:33Z</time></trkpt><trkpt lat="40.61909540830245" lon="15.170865440527079"><ele>57.5</ele><time>2026-04-26T17:58:34Z</time></trkpt><trkpt lat="40.619227977538074" lon="15.171200776166035"><ele>58.0</ele><time>2026-04-26T17:58:35Z</time></trkpt><trkpt lat="40.61936551086313" lon="15.171535218309288"><ele>66.5</ele><time>2026-04-26T17:58:36Z</time></trkpt><trkpt lat="40.61949736814088" lon="15.171873825754895"><ele>75.0</ele><time>2026-04-26T17:58:37Z</time></trkpt><trkpt lat="40.61963563147538" lon="15.172215022669906"><ele>78.0</ele><time>2026-04-26T17:58:38Z</time></trkpt><trkpt lat="40.6197817616235" lon="15.172560032990951"><ele>81.0</ele><time>2026-04-26T17:58:39.012Z</time></trkpt><trkpt lat="40.619933626168184" lon="15.172900801510014"><ele>82.5</ele><time>2026-04-26T17:58:40.012Z</time></trkpt><trkpt lat="40.62008860166169" lon="15.17324332655434"><ele>84.0</ele><time>2026-04-26T17:58:41.015Z</time></trkpt><trkpt lat="40.62024773834723" lon="15.17358472706044"><ele>90.5</ele><time>2026-04-26T17:58:42.012Z</time></trkpt><trkpt lat="40.62041462368992" lon="15.173927252098357"><ele>97.0</ele><time>2026-04-26T17:58:43.013Z</time></trkpt><trkpt lat="40.62058347871574" lon="15.174269732504865"><ele>71.0</ele><time>2026-04-26T17:58:44.013Z</time></trkpt><trkpt lat="40.62500030271767" lon="15.181313417866063"><ele>69.0</ele><time>2026-04-26T17:59:05Z</time></trkpt><trkpt lat="40.62519139068138" lon="15.181655948218454"><ele>67.0</ele><time>2026-04-26T17:59:06Z</time></trkpt><trkpt lat="40.62537814081783" lon="15.182005631821578"><ele>66.0</ele><time>2026-04-26T17:59:07Z</time></trkpt><trkpt lat="40.62554905616914" lon="15.182366628615913"><ele>65.0</ele><time>2026-04-26T17:59:08Z</time></trkpt><trkpt lat="40.62571310891766" lon="15.182734132858343"><ele>65.0</ele><time>2026-04-26T17:59:09Z</time></trkpt><trkpt lat="40.625870909384474" lon="15.183103789293284"><ele>65.0</ele><time>2026-04-26T17:59:10Z</time></trkpt><trkpt lat="40.626017425001436" lon="15.183482042624966"><ele>67.0</ele><time>2026-04-26T17:59:11Z</time></trkpt><trkpt lat="40.6261541891569" lon="15.183866695222983"><ele>69.0</ele><time>2026-04-26T17:59:12Z</time></trkpt><trkpt lat="40.62628225094562" lon="15.184252925681967"><ele>69.0</ele><time>2026-04-26T17:59:13Z</time></trkpt><trkpt lat="40.626402037288685" lon="15.18464897723798"><ele>69.0</ele><time>2026-04-26T17:59:14Z</time></trkpt><trkpt lat="40.62651354329055" lon="15.185047685613387"><ele>67.0</ele><time>2026-04-26T17:59:15Z</time></trkpt><trkpt lat="40.62661204614662" lon="15.185449550835683"><ele>65.0</ele><time>2026-04-26T17:59:16Z</time></trkpt><trkpt lat="40.626705672442604" lon="15.185855214985834"><ele>63.0</ele><time>2026-04-26T17:59:17Z</time></trkpt><trkpt lat="40.626781742226626" lon="15.186269131996399"><ele>61.0</ele><time>2026-04-26T17:59:18Z</time></trkpt><trkpt lat="40.62684440049403" lon="15.186687254677"><ele>61.0</ele><time>2026-04-26T17:59:19Z</time></trkpt><trkpt lat="40.62690965521486" lon="15.187107665434402"><ele>61.0</ele><time>2026-04-26T17:59:20Z</time></trkpt><trkpt lat="40.626973184785015" lon="15.187529146318152"><ele>62.5</ele><time>2026-04-26T17:59:21Z</time></trkpt><trkpt lat="40.627018968533996" lon="15.187952031841029"><ele>64.0</ele><time>2026-04-26T17:59:22Z</time></trkpt><trkpt lat="40.627052412110096" lon="15.188374800761702"><ele>64.0</ele><time>2026-04-26T17:59:23Z</time></trkpt><trkpt lat="40.627077769258314" lon="15.188799769860859"><ele>64.0</ele><time>2026-04-26T17:59:24Z</time></trkpt><trkpt lat="40.62708702927542" lon="15.189221440530389"><ele>64.0</ele><time>2026-04-26T17:59:25Z</time></trkpt><trkpt lat="40.627085798607354" lon="15.189645129576629"><ele>64.0</ele><time>2026-04-26T17:59:26Z</time></trkpt><trkpt lat="40.62707689771899" lon="15.190067524383947"><ele>66.0</ele><time>2026-04-26T17:59:27Z</time></trkpt><trkpt lat="40.627060525088396" lon="15.190487936520249"><ele>68.0</ele><time>2026-04-26T17:59:28Z</time></trkpt><trkpt lat="40.62703489018382" lon="15.190907156132617"><ele>68.5</ele><time>2026-04-26T17:59:29Z</time></trkpt><trkpt lat="40.627004105949474" lon="15.191324113378473"><ele>69.0</ele><time>2026-04-26T17:59:30Z</time></trkpt><trkpt lat="40.626964951935165" lon="15.191737888130222"><ele>67.0</ele><time>2026-04-26T17:59:31Z</time></trkpt><trkpt lat="40.626923747458775" lon="15.192151404748724"><ele>65.0</ele><time>2026-04-26T17:59:32Z</time></trkpt><trkpt lat="40.626879888663694" lon="15.19256582019276"><ele>65.0</ele><time>2026-04-26T17:59:33Z</time></trkpt><trkpt lat="40.626832215522136" lon="15.192976631126657"><ele>65.0</ele><time>2026-04-26T17:59:34Z</time></trkpt><trkpt lat="40.62677977149179" lon="15.193384347944168"><ele>67.0</ele><time>2026-04-26T17:59:35Z</time></trkpt><trkpt lat="40.62672191076488" lon="15.193794727420627"><ele>69.0</ele><time>2026-04-26T17:59:36Z</time></trkpt><trkpt lat="40.62665986090121" lon="15.194205816730411"><ele>70.5</ele><time>2026-04-26T17:59:37Z</time></trkpt><trkpt lat="40.6265952804655" lon="15.194615080375067"><ele>72.0</ele><time>2026-04-26T17:59:38Z</time></trkpt><trkpt lat="40.626529321194965" lon="15.19502414497903"><ele>73.0</ele><time>2026-04-26T17:59:39Z</time></trkpt><trkpt lat="40.62646153897505" lon="15.195433206468987"><ele>74.0</ele><time>2026-04-26T17:59:40Z</time></trkpt><trkpt lat="40.626404317209456" lon="15.19584143502887"><ele>76.0</ele><time>2026-04-26T17:59:41Z</time></trkpt><trkpt lat="40.62635132486768" lon="15.196253846599564"><ele>78.0</ele><time>2026-04-26T17:59:42Z</time></trkpt><trkpt lat="40.62630703828262" lon="15.196666708914812"><ele>79.0</ele><time>2026-04-26T17:59:43Z</time></trkpt><trkpt lat="40.62626565234538" lon="15.1970826383869"><ele>80.0</ele><time>2026-04-26T17:59:44Z</time></trkpt><trkpt lat="40.626227819301725" lon="15.197499910097594"><ele>80.0</ele><time>2026-04-26T17:59:45Z</time></trkpt><trkpt lat="40.626197843562124" lon="15.197921123082542"><ele>80.0</ele><time>2026-04-26T17:59:46Z</time></trkpt><trkpt lat="40.626169364921076" lon="15.198341933370957"><ele>81.0</ele><time>2026-04-26T17:59:47Z</time></trkpt><trkpt lat="40.6261489623653" lon="15.198765563410642"><ele>82.0</ele><time>2026-04-26T17:59:48Z</time></trkpt><trkpt lat="40.626137193651026" lon="15.199187263459418"><ele>84.5</ele><time>2026-04-26T17:59:49Z</time></trkpt><trkpt lat="40.62613469121708" lon="15.199608734161306"><ele>87.0</ele><time>2026-04-26T17:59:50Z</time></trkpt><trkpt lat="40.62614629137904" lon="15.200033156802274"><ele>87.0</ele><time>2026-04-26T17:59:51Z</time></trkpt><trkpt lat="40.62616683849487" lon="15.200460435788218"><ele>87.0</ele><time>2026-04-26T17:59:52Z</time></trkpt><trkpt lat="40.626193004415654" lon="15.200882080546979"><ele>88.5</ele><time>2026-04-26T17:59:53Z</time></trkpt><trkpt lat="40.62622841224297" lon="15.201303233615395"><ele>90.0</ele><time>2026-04-26T17:59:54Z</time></trkpt><trkpt lat="40.62625485581797" lon="15.201723231257755"><ele>92.5</ele><time>2026-04-26T17:59:55Z</time></trkpt><trkpt lat="40.62629762208567" lon="15.202146594429566"><ele>95.0</ele><time>2026-04-26T17:59:56Z</time></trkpt><trkpt lat="40.62634873494789" lon="15.202573513546024"><ele>96.5</ele><time>2026-04-26T17:59:57.013Z</time></trkpt><trkpt lat="40.626405606653435" lon="15.20299222422681"><ele>98.0</ele><time>2026-04-26T17:59:58.012Z</time></trkpt><trkpt lat="40.62647093323742" lon="15.203408875655995"><ele>99.0</ele><time>2026-04-26T17:59:59.013Z</time></trkpt><trkpt lat="40.62654125611266" lon="15.20382251503053"><ele>100.0</ele><time>2026-04-26T18:00:00.015Z</time></trkpt><trkpt lat="40.626614321431624" lon="15.204229514528535"><ele>98.0</ele><time>2026-04-26T18:00:01.012Z</time></trkpt><trkpt lat="40.626689088028286" lon="15.204636957406343"><ele>96.0</ele><time>2026-04-26T18:00:02.012Z</time></trkpt><trkpt lat="40.62727733053325" lon="15.206786943613743"><ele>86.5</ele><time>2026-04-26T18:00:07Z</time></trkpt><trkpt lat="40.62737135787205" lon="15.207212508766"><ele>77.0</ele><time>2026-04-26T18:00:08Z</time></trkpt><trkpt lat="40.627457294474894" lon="15.20765105742641"><ele>77.0</ele><time>2026-04-26T18:00:09Z</time></trkpt><trkpt lat="40.62754084296402" lon="15.208070013490431"><ele>77.0</ele><time>2026-04-26T18:00:10Z</time></trkpt><trkpt lat="40.627630745995184" lon="15.208485277366368"><ele>77.0</ele><time>2026-04-26T18:00:11Z</time></trkpt><trkpt lat="40.62771127266512" lon="15.208905727958124"><ele>77.0</ele><time>2026-04-26T18:00:12Z</time></trkpt><trkpt lat="40.627787947875646" lon="15.209323917193213"><ele>85.5</ele><time>2026-04-26T18:00:13Z</time></trkpt><trkpt lat="40.62786087290504" lon="15.209744161318453"><ele>94.0</ele><time>2026-04-26T18:00:14Z</time></trkpt><trkpt lat="40.627928115839204" lon="15.210162393291496"><ele>95.0</ele><time>2026-04-26T18:00:15Z</time></trkpt><trkpt lat="40.62799257825638" lon="15.21058669197314"><ele>96.0</ele><time>2026-04-26T18:00:16.013Z</time></trkpt><trkpt lat="40.628050138687044" lon="15.210999915620716"><ele>96.5</ele><time>2026-04-26T18:00:17.013Z</time></trkpt><trkpt lat="40.62809868959121" lon="15.211400706575581"><ele>97.0</ele><time>2026-04-26T18:00:18.011Z</time></trkpt><trkpt lat="40.62813777868431" lon="15.211790200420992"><ele>100.0</ele><time>2026-04-26T18:00:19.012Z</time></trkpt><trkpt lat="40.62817299140591" lon="15.212174285360998"><ele>103.0</ele><time>2026-04-26T18:00:20.012Z</time></trkpt><trkpt lat="40.62841446142702" lon="15.22253016942667"><ele>92.0</ele><time>2026-04-26T18:00:47Z</time></trkpt><trkpt lat="40.62841446084149" lon="15.222897985705725"><ele>81.0</ele><time>2026-04-26T18:00:48Z</time></trkpt><trkpt lat="40.62844430583023" lon="15.223256033884153"><ele>77.0</ele><time>2026-04-26T18:00:49Z</time></trkpt><trkpt lat="40.62845164578243" lon="15.223624038411977"><ele>73.0</ele><time>2026-04-26T18:00:50Z</time></trkpt><trkpt lat="40.62845634011137" lon="15.223992823369768"><ele>71.5</ele><time>2026-04-26T18:00:51Z</time></trkpt><trkpt lat="40.62845819542546" lon="15.224365600770874"><ele>70.0</ele><time>2026-04-26T18:00:52Z</time></trkpt><trkpt lat="40.628461321393125" lon="15.22474378616925"><ele>72.5</ele><time>2026-04-26T18:00:53Z</time></trkpt><trkpt lat="40.62846776521638" lon="15.225117319971233"><ele>75.0</ele><time>2026-04-26T18:00:54Z</time></trkpt><trkpt lat="40.62847191111688" lon="15.225492308077836"><ele>75.0</ele><time>2026-04-26T18:00:55Z</time></trkpt><trkpt lat="40.62847610748011" lon="15.225871639502659"><ele>75.0</ele><time>2026-04-26T18:00:56Z</time></trkpt><trkpt lat="40.62848036245282" lon="15.226251793416507"><ele>74.5</ele><time>2026-04-26T18:00:57Z</time></trkpt><trkpt lat="40.628490312943676" lon="15.226634234148653"><ele>74.0</ele><time>2026-04-26T18:00:58Z</time></trkpt><trkpt lat="40.628493960536424" lon="15.227020883909468"><ele>75.5</ele><time>2026-04-26T18:00:59Z</time></trkpt><trkpt lat="40.62849903254059" lon="15.227405453178568"><ele>77.0</ele><time>2026-04-26T18:01:00Z</time></trkpt><trkpt lat="40.62850535939256" lon="15.227787221929303"><ele>79.5</ele><time>2026-04-26T18:01:01Z</time></trkpt><trkpt lat="40.628512968862786" lon="15.228168934387147"><ele>82.0</ele><time>2026-04-26T18:01:02Z</time></trkpt><trkpt lat="40.628519352413505" lon="15.22855245440088"><ele>82.0</ele><time>2026-04-26T18:01:03Z</time></trkpt><trkpt lat="40.62850963665937" lon="15.228937388263482"><ele>82.0</ele><time>2026-04-26T18:01:04Z</time></trkpt><trkpt lat="40.62850152741576" lon="15.229318040992808"><ele>87.0</ele><time>2026-04-26T18:01:05Z</time></trkpt><trkpt lat="40.62848923830029" lon="15.22969988705394"><ele>92.0</ele><time>2026-04-26T18:01:06Z</time></trkpt><trkpt lat="40.628468930707065" lon="15.230084267792916"><ele>95.5</ele><time>2026-04-26T18:01:07Z</time></trkpt><trkpt lat="40.628453891300744" lon="15.230465060754126"><ele>99.0</ele><time>2026-04-26T18:01:08Z</time></trkpt><trkpt lat="40.628438122098196" lon="15.230849062258828"><ele>101.5</ele><time>2026-04-26T18:01:09Z</time></trkpt><trkpt lat="40.62841531930309" lon="15.231233747032418"><ele>104.0</ele><time>2026-04-26T18:01:10Z</time></trkpt><trkpt lat="40.6283789190666" lon="15.231616244385874"><ele>105.0</ele><time>2026-04-26T18:01:11Z</time></trkpt><trkpt lat="40.62833635809623" lon="15.23199828869026"><ele>106.0</ele><time>2026-04-26T18:01:12Z</time></trkpt><trkpt lat="40.62827777600419" lon="15.232374794578455"><ele>106.0</ele><time>2026-04-26T18:01:13Z</time></trkpt><trkpt lat="40.62821612272418" lon="15.232748784966647"><ele>106.0</ele><time>2026-04-26T18:01:14Z</time></trkpt><trkpt lat="40.62814803356826" lon="15.233123699303142"><ele>106.5</ele><time>2026-04-26T18:01:15Z</time></trkpt><trkpt lat="40.62806004412932" lon="15.233488366000865"><ele>107.0</ele><time>2026-04-26T18:01:16Z</time></trkpt><trkpt lat="40.6279611702584" lon="15.233848527487686"><ele>106.5</ele><time>2026-04-26T18:01:17Z</time></trkpt><trkpt lat="40.62785381797021" lon="15.234204287357691"><ele>106.0</ele><time>2026-04-26T18:01:18Z</time></trkpt><trkpt lat="40.627738581834876" lon="15.23455681146773"><ele>109.5</ele><time>2026-04-26T18:01:19Z</time></trkpt><trkpt lat="40.627616046659014" lon="15.234904575344176"><ele>113.0</ele><time>2026-04-26T18:01:20Z</time></trkpt><trkpt lat="40.6274824459775" lon="15.235244405635111"><ele>113.0</ele><time>2026-04-26T18:01:21Z</time></trkpt><trkpt lat="40.6273414551471" lon="15.235578560685349"><ele>113.0</ele><time>2026-04-26T18:01:22Z</time></trkpt><trkpt lat="40.62719036562369" lon="15.235906632859548"><ele>110.0</ele><time>2026-04-26T18:01:23Z</time></trkpt><trkpt lat="40.62703397796319" lon="15.23622949848092"><ele>107.0</ele><time>2026-04-26T18:01:24Z</time></trkpt><trkpt lat="40.6268694280138" lon="15.236546245857529"><ele>114.5</ele><time>2026-04-26T18:01:25Z</time></trkpt><trkpt lat="40.626697699378575" lon="15.236855802287327"><ele>122.0</ele><time>2026-04-26T18:01:26Z</time></trkpt><trkpt lat="40.626517832378426" lon="15.237158725038825"><ele>117.5</ele><time>2026-04-26T18:01:27Z</time></trkpt><trkpt lat="40.62633239900483" lon="15.237454506627463"><ele>113.0</ele><time>2026-04-26T18:01:28Z</time></trkpt><trkpt lat="40.62613906437942" lon="15.23773863135016"><ele>127.0</ele><time>2026-04-26T18:01:29Z</time></trkpt><trkpt lat="40.625931083019886" lon="15.238008792316887"><ele>141.0</ele><time>2026-04-26T18:01:30Z</time></trkpt><trkpt lat="40.625712412488184" lon="15.23826818805211"><ele>141.0</ele><time>2026-04-26T18:01:31Z</time></trkpt><trkpt lat="40.62548683355669" lon="15.238527460975734"><ele>141.0</ele><time>2026-04-26T18:01:32.012Z</time></trkpt><trkpt lat="40.62525444061238" lon="15.238775542478216"><ele>154.0</ele><time>2026-04-26T18:01:33.012Z</time></trkpt><trkpt lat="40.625014777261406" lon="15.23901437622713"><ele>167.0</ele><time>2026-04-26T18:01:34.013Z</time></trkpt><trkpt lat="40.624770585809294" lon="15.23924121713102"><ele>167.0</ele><time>2026-04-26T18:01:35.012Z</time></trkpt><trkpt lat="40.62450650859796" lon="15.239451090373048"><ele>167.0</ele><time>2026-04-26T18:01:36.012Z</time></trkpt><trkpt lat="40.62424646360641" lon="15.239664181435646"><ele>163.0</ele><time>2026-04-26T18:01:37.012Z</time></trkpt><trkpt lat="40.6217014807868" lon="15.241239832437383"><ele>111.0</ele><time>2026-04-26T18:01:47.304Z</time></trkpt><trkpt lat="40.61822504274605" lon="15.244106696932803"><ele>111.0</ele><time>2026-04-26T18:01:59Z</time></trkpt><trkpt lat="40.617985043946526" lon="15.244275042765324"><ele>111.0</ele><time>2026-04-26T18:02:00Z</time></trkpt><trkpt lat="40.61782794700037" lon="15.244330770416852"><ele>111.0</ele><time>2026-04-26T18:02:01Z</time></trkpt><trkpt lat="40.61759140581183" lon="15.244519120702181"><ele>112.5</ele><time>2026-04-26T18:02:02Z</time></trkpt><trkpt lat="40.617356660457546" lon="15.24469200074749"><ele>114.0</ele><time>2026-04-26T18:02:03Z</time></trkpt><trkpt lat="40.617119867716646" lon="15.244873687156343"><ele>123.0</ele><time>2026-04-26T18:02:04Z</time></trkpt><trkpt lat="40.61688398953062" lon="15.245064636099285"><ele>132.0</ele><time>2026-04-26T18:02:05Z</time></trkpt><trkpt lat="40.616649677610695" lon="15.245266475128286"><ele>132.0</ele><time>2026-04-26T18:02:06.011Z</time></trkpt><trkpt lat="40.616414155097225" lon="15.245475929833544"><ele>132.0</ele><time>2026-04-26T18:02:07.011Z</time></trkpt><trkpt lat="40.61617822370522" lon="15.245696901481335"><ele>143.5</ele><time>2026-04-26T18:02:08.011Z</time></trkpt><trkpt lat="40.61594508924636" lon="15.245929170622869"><ele>155.0</ele><time>2026-04-26T18:02:09.013Z</time></trkpt><trkpt lat="40.615714769922576" lon="15.246164186013567"><ele>118.0</ele><time>2026-04-26T18:02:10.012Z</time></trkpt><trkpt lat="40.6125170054775" lon="15.253506109205933"><ele>118.0</ele><time>2026-04-26T18:02:32Z</time></trkpt><trkpt lat="40.61252582411427" lon="15.253911659236206"><ele>118.0</ele><time>2026-04-26T18:02:33Z</time></trkpt><trkpt lat="40.612495914146386" lon="15.254300051416362"><ele>116.5</ele><time>2026-04-26T18:02:34Z</time></trkpt><trkpt lat="40.61248161205338" lon="15.2546886166696"><ele>115.0</ele><time>2026-04-26T18:02:35Z</time></trkpt><trkpt lat="40.61247544942947" lon="15.25508068185923"><ele>113.0</ele><time>2026-04-26T18:02:36Z</time></trkpt><trkpt lat="40.61248055485503" lon="15.255467569667239"><ele>111.0</ele><time>2026-04-26T18:02:37Z</time></trkpt><trkpt lat="40.612495358248886" lon="15.255855207608047"><ele>108.5</ele><time>2026-04-26T18:02:38Z</time></trkpt><trkpt lat="40.612522524326174" lon="15.256242192651431"><ele>106.0</ele><time>2026-04-26T18:02:39Z</time></trkpt><trkpt lat="40.612560002228655" lon="15.256629492692989"><ele>102.5</ele><time>2026-04-26T18:02:40Z</time></trkpt><trkpt lat="40.61259545136935" lon="15.257014557410454"><ele>99.0</ele><time>2026-04-26T18:02:41Z</time></trkpt><trkpt lat="40.612635072865054" lon="15.25740001940931"><ele>99.0</ele><time>2026-04-26T18:02:42Z</time></trkpt><trkpt lat="40.61268002840412" lon="15.257786777653132"><ele>99.0</ele><time>2026-04-26T18:02:43Z</time></trkpt><trkpt lat="40.61272645482422" lon="15.258171507691687"><ele>100.5</ele><time>2026-04-26T18:02:44Z</time></trkpt><trkpt lat="40.61278040411794" lon="15.258554029269137"><ele>102.0</ele><time>2026-04-26T18:02:45Z</time></trkpt><trkpt lat="40.61284134646726" lon="15.258936243506504"><ele>100.5</ele><time>2026-04-26T18:02:46Z</time></trkpt><trkpt lat="40.612899397247865" lon="15.25931051355916"><ele>99.0</ele><time>2026-04-26T18:02:47Z</time></trkpt><trkpt lat="40.612948502935346" lon="15.259691809177331"><ele>106.5</ele><time>2026-04-26T18:02:48Z</time></trkpt><trkpt lat="40.613000749387346" lon="15.260078375945175"><ele>114.0</ele><time>2026-04-26T18:02:49Z</time></trkpt><trkpt lat="40.61304631763028" lon="15.260459242725679"><ele>123.0</ele><time>2026-04-26T18:02:50Z</time></trkpt><trkpt lat="40.61309222748696" lon="15.260841662063935"><ele>132.0</ele><time>2026-04-26T18:02:51Z</time></trkpt><trkpt lat="40.61314323056906" lon="15.261218875147755"><ele>136.5</ele><time>2026-04-26T18:02:52Z</time></trkpt><trkpt lat="40.613192323211244" lon="15.26159615076837"><ele>141.0</ele><time>2026-04-26T18:02:53Z</time></trkpt><trkpt lat="40.61323833228079" lon="15.261972630632558"><ele>142.0</ele><time>2026-04-26T18:02:54Z</time></trkpt><trkpt lat="40.61328254502926" lon="15.262353407124655"><ele>143.0</ele><time>2026-04-26T18:02:55Z</time></trkpt><trkpt lat="40.61333147373418" lon="15.262728306258575"><ele>143.0</ele><time>2026-04-26T18:02:56Z</time></trkpt><trkpt lat="40.61338152768373" lon="15.263101853672742"><ele>143.0</ele><time>2026-04-26T18:02:57Z</time></trkpt><trkpt lat="40.613433870701115" lon="15.263475550801916"><ele>142.5</ele><time>2026-04-26T18:02:58Z</time></trkpt><trkpt lat="40.61348357761017" lon="15.263847418853976"><ele>142.0</ele><time>2026-04-26T18:02:59Z</time></trkpt><trkpt lat="40.613532970067844" lon="15.264222821288998"><ele>142.0</ele><time>2026-04-26T18:03:00Z</time></trkpt><trkpt lat="40.61358166243583" lon="15.264595466632462"><ele>142.0</ele><time>2026-04-26T18:03:01Z</time></trkpt><trkpt lat="40.613633122531645" lon="15.264968851292842"><ele>150.0</ele><time>2026-04-26T18:03:02Z</time></trkpt><trkpt lat="40.613679777967654" lon="15.265343784626777"><ele>158.0</ele><time>2026-04-26T18:03:03Z</time></trkpt><trkpt lat="40.61372839301904" lon="15.265716384769028"><ele>159.0</ele><time>2026-04-26T18:03:04Z</time></trkpt><trkpt lat="40.613781944218616" lon="15.266086498001878"><ele>160.0</ele><time>2026-04-26T18:03:05Z</time></trkpt><trkpt lat="40.61383689560514" lon="15.26645692239166"><ele>160.0</ele><time>2026-04-26T18:03:06Z</time></trkpt><trkpt lat="40.61388842107566" lon="15.266831157011259"><ele>160.0</ele><time>2026-04-26T18:03:07Z</time></trkpt><trkpt lat="40.6139392244828" lon="15.26720398160544"><ele>160.5</ele><time>2026-04-26T18:03:08Z</time></trkpt><trkpt lat="40.61398507790541" lon="15.267576084998648"><ele>161.0</ele><time>2026-04-26T18:03:09Z</time></trkpt><trkpt lat="40.614035140852245" lon="15.267949286764855"><ele>162.5</ele><time>2026-04-26T18:03:10Z</time></trkpt><trkpt lat="40.61409234350978" lon="15.268322281690006"><ele>164.0</ele><time>2026-04-26T18:03:11Z</time></trkpt><trkpt lat="40.61414305849562" lon="15.268694135034071"><ele>166.0</ele><time>2026-04-26T18:03:12Z</time></trkpt><trkpt lat="40.61418805448254" lon="15.269070458190008"><ele>168.0</ele><time>2026-04-26T18:03:13Z</time></trkpt><trkpt lat="40.6142324985874" lon="15.26944805356162"><ele>170.0</ele><time>2026-04-26T18:03:14Z</time></trkpt><trkpt lat="40.61428263184428" lon="15.26982110580618"><ele>172.0</ele><time>2026-04-26T18:03:15Z</time></trkpt><trkpt lat="40.61433197925051" lon="15.270187679453034"><ele>172.0</ele><time>2026-04-26T18:03:16Z</time></trkpt><trkpt lat="40.61436867896899" lon="15.270536700038145"><ele>172.0</ele><time>2026-04-26T18:03:17Z</time></trkpt><trkpt lat="40.61440767274301" lon="15.270882618411328"><ele>171.5</ele><time>2026-04-26T18:03:18Z</time></trkpt><trkpt lat="40.614445713722034" lon="15.271230300897487"><ele>171.0</ele><time>2026-04-26T18:03:19Z</time></trkpt><trkpt lat="40.61447013754011" lon="15.271587655182751"><ele>161.5</ele><time>2026-04-26T18:03:20Z</time></trkpt><trkpt lat="40.61448843846689" lon="15.27195083583252"><ele>152.0</ele><time>2026-04-26T18:03:21Z</time></trkpt><trkpt lat="40.6145051337455" lon="15.272318023428978"><ele>151.5</ele><time>2026-04-26T18:03:22Z</time></trkpt><trkpt lat="40.6145110916272" lon="15.272688025702381"><ele>151.0</ele><time>2026-04-26T18:03:23Z</time></trkpt><trkpt lat="40.614516642131036" lon="15.27306047928626"><ele>150.5</ele><time>2026-04-26T18:03:24Z</time></trkpt><trkpt lat="40.61451388878655" lon="15.27343610938909"><ele>150.0</ele><time>2026-04-26T18:03:25Z</time></trkpt><trkpt lat="40.61449936618304" lon="15.273812226599608"><ele>160.0</ele><time>2026-04-26T18:03:26Z</time></trkpt><trkpt lat="40.6144752754779" lon="15.274188640040203"><ele>170.0</ele><time>2026-04-26T18:03:27Z</time></trkpt><trkpt lat="40.61444036870269" lon="15.27456669917811"><ele>169.0</ele><time>2026-04-26T18:03:28Z</time></trkpt><trkpt lat="40.61439769726812" lon="15.274947621236901"><ele>168.0</ele><time>2026-04-26T18:03:29Z</time></trkpt><trkpt lat="40.61434255872404" lon="15.275327644390448"><ele>167.5</ele><time>2026-04-26T18:03:30Z</time></trkpt><trkpt lat="40.614277129432615" lon="15.275705533839687"><ele>167.0</ele><time>2026-04-26T18:03:31Z</time></trkpt><trkpt lat="40.6142240463792" lon="15.2760889130768"><ele>166.0</ele><time>2026-04-26T18:03:32Z</time></trkpt><trkpt lat="40.61416452331245" lon="15.27646927908579"><ele>165.0</ele><time>2026-04-26T18:03:33Z</time></trkpt><trkpt lat="40.61409179988528" lon="15.276842102649118"><ele>165.0</ele><time>2026-04-26T18:03:34Z</time></trkpt><trkpt lat="40.61401495191858" lon="15.277206487499706"><ele>165.0</ele><time>2026-04-26T18:03:35Z</time></trkpt><trkpt lat="40.613929989853915" lon="15.277565629771626"><ele>165.5</ele><time>2026-04-26T18:03:36Z</time></trkpt><trkpt lat="40.61383934550248" lon="15.277924302744065"><ele>166.0</ele><time>2026-04-26T18:03:37Z</time></trkpt><trkpt lat="40.61374156636835" lon="15.278284342845165"><ele>164.5</ele><time>2026-04-26T18:03:38Z</time></trkpt><trkpt lat="40.6136356660965" lon="15.278643753250677"><ele>163.0</ele><time>2026-04-26T18:03:39Z</time></trkpt><trkpt lat="40.61352758397077" lon="15.279004335412235"><ele>166.0</ele><time>2026-04-26T18:03:40Z</time></trkpt><trkpt lat="40.61341087234206" lon="15.279362133849789"><ele>169.0</ele><time>2026-04-26T18:03:41Z</time></trkpt><trkpt lat="40.61328133493981" lon="15.279709929192713"><ele>168.0</ele><time>2026-04-26T18:03:42Z</time></trkpt><trkpt lat="40.61314956730481" lon="15.280047535455212"><ele>167.0</ele><time>2026-04-26T18:03:43Z</time></trkpt><trkpt lat="40.61301619704227" lon="15.280374115349122"><ele>168.0</ele><time>2026-04-26T18:03:44Z</time></trkpt><trkpt lat="40.61288140314067" lon="15.280690711808507"><ele>169.0</ele><time>2026-04-26T18:03:45Z</time></trkpt><trkpt lat="40.6127436532504" lon="15.281004671480153"><ele>166.0</ele><time>2026-04-26T18:03:46Z</time></trkpt><trkpt lat="40.61260217569409" lon="15.28131991833118"><ele>163.0</ele><time>2026-04-26T18:03:47Z</time></trkpt><trkpt lat="40.61245490652561" lon="15.281633216205238"><ele>163.0</ele><time>2026-04-26T18:03:48Z</time></trkpt><trkpt lat="40.612308396104154" lon="15.281948702751107"><ele>163.0</ele><time>2026-04-26T18:03:49Z</time></trkpt><trkpt lat="40.61215914561659" lon="15.282262182515877"><ele>165.0</ele><time>2026-04-26T18:03:50Z</time></trkpt><trkpt lat="40.61200933342534" lon="15.282575140455647"><ele>167.0</ele><time>2026-04-26T18:03:51Z</time></trkpt><trkpt lat="40.61186312521898" lon="15.28288077166873"><ele>164.0</ele><time>2026-04-26T18:03:52Z</time></trkpt><trkpt lat="40.61172087749582" lon="15.28318286782147"><ele>161.0</ele><time>2026-04-26T18:03:53Z</time></trkpt><trkpt lat="40.611582701496594" lon="15.28348488870298"><ele>161.0</ele><time>2026-04-26T18:03:54Z</time></trkpt><trkpt lat="40.61144731113779" lon="15.283787542154403"><ele>161.0</ele><time>2026-04-26T18:03:55Z</time></trkpt><trkpt lat="40.611311696774294" lon="15.284091643331873"><ele>161.5</ele><time>2026-04-26T18:03:56Z</time></trkpt><trkpt lat="40.61118385279157" lon="15.284399334108382"><ele>162.0</ele><time>2026-04-26T18:03:57Z</time></trkpt><trkpt lat="40.61106492138442" lon="15.284709569585269"><ele>152.5</ele><time>2026-04-26T18:03:58Z</time></trkpt><trkpt lat="40.610952306697705" lon="15.285021770638101"><ele>143.0</ele><time>2026-04-26T18:03:59Z</time></trkpt><trkpt lat="40.61084311289082" lon="15.285329422613687"><ele>143.5</ele><time>2026-04-26T18:04:00Z</time></trkpt><trkpt lat="40.61073848104714" lon="15.285638463029896"><ele>144.0</ele><time>2026-04-26T18:04:01Z</time></trkpt><trkpt lat="40.610640812005585" lon="15.285952049209245"><ele>144.0</ele><time>2026-04-26T18:04:02Z</time></trkpt><trkpt lat="40.61054713470213" lon="15.286272305556825"><ele>144.0</ele><time>2026-04-26T18:04:03Z</time></trkpt><trkpt lat="40.61046138144685" lon="15.286600311193158"><ele>146.5</ele><time>2026-04-26T18:04:04Z</time></trkpt><trkpt lat="40.610386964907015" lon="15.286924677449228"><ele>149.0</ele><time>2026-04-26T18:04:05Z</time></trkpt><trkpt lat="40.610318423408074" lon="15.287249549938572"><ele>155.5</ele><time>2026-04-26T18:04:06Z</time></trkpt><trkpt lat="40.61025729481597" lon="15.287573125228937"><ele>162.0</ele><time>2026-04-26T18:04:07Z</time></trkpt><trkpt lat="40.6101970059286" lon="15.287891290389467"><ele>162.0</ele><time>2026-04-26T18:04:08Z</time></trkpt><trkpt lat="40.61014454722199" lon="15.288205879259301"><ele>162.0</ele><time>2026-04-26T18:04:09Z</time></trkpt><trkpt lat="40.61010153173734" lon="15.288518511693374"><ele>162.0</ele><time>2026-04-26T18:04:10Z</time></trkpt><trkpt lat="40.61006866543343" lon="15.288830096173289"><ele>162.0</ele><time>2026-04-26T18:04:11Z</time></trkpt><trkpt lat="40.61004239235344" lon="15.289136520723485"><ele>162.66666666666666</ele><time>2026-04-26T18:04:12Z</time></trkpt><trkpt lat="40.61002027668471" lon="15.28943153823918"><ele>163.33333333333331</ele><time>2026-04-26T18:04:13Z</time></trkpt><trkpt lat="40.60999778804" lon="15.289724193494116"><ele>164.0</ele><time>2026-04-26T18:04:14Z</time></trkpt><trkpt lat="40.6099710725011" lon="15.290010010621021"><ele>165.0</ele><time>2026-04-26T18:04:15Z</time></trkpt><trkpt lat="40.60993823148969" lon="15.290276404416115"><ele>166.0</ele><time>2026-04-26T18:04:16Z</time></trkpt><trkpt lat="40.609890953587964" lon="15.290538022441654"><ele>167.0</ele><time>2026-04-26T18:04:17Z</time></trkpt><trkpt lat="40.60982117687945" lon="15.290791267084616"><ele>167.66666666666666</ele><time>2026-04-26T18:04:18Z</time></trkpt><trkpt lat="40.609726794638526" lon="15.29103829002892"><ele>168.33333333333334</ele><time>2026-04-26T18:04:19Z</time></trkpt><trkpt lat="40.609614719216694" lon="15.291260888340915"><ele>169.0</ele><time>2026-04-26T18:04:20Z</time></trkpt><trkpt lat="40.60948605964393" lon="15.291455276798393"><ele>171.33333333333334</ele><time>2026-04-26T18:04:21Z</time></trkpt><trkpt lat="40.609339051686035" lon="15.291625166485435"><ele>173.66666666666666</ele><time>2026-04-26T18:04:22Z</time></trkpt><trkpt lat="40.60917526358258" lon="15.291784693277243"><ele>176.0</ele><time>2026-04-26T18:04:23Z</time></trkpt><trkpt lat="40.60901239723405" lon="15.291926617306414"><ele>176.0</ele><time>2026-04-26T18:04:24Z</time></trkpt><trkpt lat="40.60887409943286" lon="15.29206168005787"><ele>176.0</ele><time>2026-04-26T18:04:25Z</time></trkpt><trkpt lat="40.60876687453273" lon="15.292204072975684"><ele>176.0</ele><time>2026-04-26T18:04:26Z</time></trkpt><trkpt lat="40.60867692560386" lon="15.292373183324054"><ele>176.0</ele><time>2026-04-26T18:04:27Z</time></trkpt><trkpt lat="40.60861938509462" lon="15.292548065945505"><ele>176.0</ele><time>2026-04-26T18:04:28Z</time></trkpt><trkpt lat="40.60859146238916" lon="15.292724913941091"><ele>176.0</ele><time>2026-04-26T18:04:29Z</time></trkpt><trkpt lat="40.60859239649792" lon="15.292905183246104"><ele>176.0</ele><time>2026-04-26T18:04:30Z</time></trkpt><trkpt lat="40.60862289644229" lon="15.29308953348332"><ele>177.0</ele><time>2026-04-26T18:04:31Z</time></trkpt><trkpt lat="40.60868784294494" lon="15.293261058286793"><ele>178.0</ele><time>2026-04-26T18:04:32Z</time></trkpt><trkpt lat="40.60878103090757" lon="15.29342089830311"><ele>179.0</ele><time>2026-04-26T18:04:33Z</time></trkpt><trkpt lat="40.608911503507095" lon="15.293548875243436"><ele>179.0</ele><time>2026-04-26T18:04:34Z</time></trkpt><trkpt lat="40.609064681601396" lon="15.293638558273097"><ele>179.0</ele><time>2026-04-26T18:04:35Z</time></trkpt><trkpt lat="40.60923174545299" lon="15.293712405121463"><ele>179.0</ele><time>2026-04-26T18:04:36Z</time></trkpt><trkpt lat="40.609413736425246" lon="15.293786540476805"><ele>178.0</ele><time>2026-04-26T18:04:37Z</time></trkpt><trkpt lat="40.609603202251314" lon="15.293862386863939"><ele>177.0</ele><time>2026-04-26T18:04:38Z</time></trkpt><trkpt lat="40.60978581873986" lon="15.293932814351498"><ele>176.0</ele><time>2026-04-26T18:04:39Z</time></trkpt><trkpt lat="40.60995836789383" lon="15.293999607296008"><ele>176.0</ele><time>2026-04-26T18:04:40Z</time></trkpt><trkpt lat="40.610118065412586" lon="15.294063066018968"><ele>176.0</ele><time>2026-04-26T18:04:41Z</time></trkpt><trkpt lat="40.61027108881423" lon="15.294127760965148"><ele>176.0</ele><time>2026-04-26T18:04:42Z</time></trkpt><trkpt lat="40.6104255683728" lon="15.294199881433938"><ele>175.0</ele><time>2026-04-26T18:04:43Z</time></trkpt><trkpt lat="40.6105797733814" lon="15.294291411175314"><ele>174.0</ele><time>2026-04-26T18:04:44Z</time></trkpt><trkpt lat="40.61072664455725" lon="15.294419628347487"><ele>173.0</ele><time>2026-04-26T18:04:45Z</time></trkpt><trkpt lat="40.61084192671021" lon="15.294583660312357"><ele>173.33333333333331</ele><time>2026-04-26T18:04:46Z</time></trkpt><trkpt lat="40.61092224542857" lon="15.294762750408024"><ele>173.66666666666666</ele><time>2026-04-26T18:04:47Z</time></trkpt><trkpt lat="40.61098127168515" lon="15.294950914606185"><ele>174.0</ele><time>2026-04-26T18:04:48Z</time></trkpt><trkpt lat="40.61101090010362" lon="15.295151145758389"><ele>174.0</ele><time>2026-04-26T18:04:49Z</time></trkpt><trkpt lat="40.61101252420289" lon="15.295366686520712"><ele>174.0</ele><time>2026-04-26T18:04:50Z</time></trkpt><trkpt lat="40.61098754857097" lon="15.295602074266395"><ele>174.0</ele><time>2026-04-26T18:04:51Z</time></trkpt><trkpt lat="40.61092145941908" lon="15.295845167841138"><ele>175.0</ele><time>2026-04-26T18:04:52Z</time></trkpt><trkpt lat="40.61083947153463" lon="15.296092811044149"><ele>176.0</ele><time>2026-04-26T18:04:53Z</time></trkpt><trkpt lat="40.6107468713327" lon="15.296351356048016"><ele>177.0</ele><time>2026-04-26T18:04:54Z</time></trkpt><trkpt lat="40.61065749341109" lon="15.296628435969327"><ele>178.5</ele><time>2026-04-26T18:04:55Z</time></trkpt><trkpt lat="40.61055992141004" lon="15.29691262861529"><ele>180.0</ele><time>2026-04-26T18:04:56Z</time></trkpt><trkpt lat="40.610464073738264" lon="15.297213600767257"><ele>180.0</ele><time>2026-04-26T18:04:57Z</time></trkpt><trkpt lat="40.610365570412334" lon="15.297519533243717"><ele>180.0</ele><time>2026-04-26T18:04:58Z</time></trkpt><trkpt lat="40.61026995255311" lon="15.29783270566551"><ele>180.5</ele><time>2026-04-26T18:04:59Z</time></trkpt><trkpt lat="40.61017400809067" lon="15.298157315575548"><ele>181.0</ele><time>2026-04-26T18:05:00Z</time></trkpt><trkpt lat="40.61008693208362" lon="15.29848221796254"><ele>181.0</ele><time>2026-04-26T18:05:01Z</time></trkpt><trkpt lat="40.610012513589645" lon="15.298817532644188"><ele>181.0</ele><time>2026-04-26T18:05:02Z</time></trkpt><trkpt lat="40.609948019306515" lon="15.299165587987845"><ele>179.0</ele><time>2026-04-26T18:05:03Z</time></trkpt><trkpt lat="40.60990156115526" lon="15.299526255938238"><ele>177.0</ele><time>2026-04-26T18:05:04Z</time></trkpt><trkpt lat="40.60987702695469" lon="15.299899962727975"><ele>176.5</ele><time>2026-04-26T18:05:05Z</time></trkpt><trkpt lat="40.60986435386875" lon="15.300281530656253"><ele>176.0</ele><time>2026-04-26T18:05:06Z</time></trkpt><trkpt lat="40.60986949902106" lon="15.300669248665791"><ele>173.5</ele><time>2026-04-26T18:05:07Z</time></trkpt><trkpt lat="40.609881650797675" lon="15.301066019440412"><ele>171.0</ele><time>2026-04-26T18:05:08Z</time></trkpt><trkpt lat="40.60989549396878" lon="15.301473089533864"><ele>170.0</ele><time>2026-04-26T18:05:09Z</time></trkpt><trkpt lat="40.609906185836856" lon="15.301881459912384"><ele>169.0</ele><time>2026-04-26T18:05:10Z</time></trkpt><trkpt lat="40.6099118763836" lon="15.302289907883031"><ele>169.0</ele><time>2026-04-26T18:05:11Z</time></trkpt><trkpt lat="40.60990867113661" lon="15.302705357661148"><ele>169.0</ele><time>2026-04-26T18:05:12Z</time></trkpt><trkpt lat="40.6098951685967" lon="15.303126813439807"><ele>169.0</ele><time>2026-04-26T18:05:13Z</time></trkpt><trkpt lat="40.60987150691982" lon="15.303540895294269"><ele>169.0</ele><time>2026-04-26T18:05:14Z</time></trkpt><trkpt lat="40.60984068789633" lon="15.303950096008219"><ele>169.0</ele><time>2026-04-26T18:05:15Z</time></trkpt><trkpt lat="40.609801226237906" lon="15.30435808074477"><ele>169.0</ele><time>2026-04-26T18:05:16Z</time></trkpt><trkpt lat="40.6097490683108" lon="15.30476234697947"><ele>166.0</ele><time>2026-04-26T18:05:17Z</time></trkpt><trkpt lat="40.60969948680038" lon="15.305168600370733"><ele>163.0</ele><time>2026-04-26T18:05:18Z</time></trkpt><trkpt lat="40.6096470587235" lon="15.305571304769524"><ele>159.5</ele><time>2026-04-26T18:05:19Z</time></trkpt><trkpt lat="40.60957566425378" lon="15.305969596516437"><ele>156.0</ele><time>2026-04-26T18:05:20Z</time></trkpt><trkpt lat="40.60949401116966" lon="15.306368220145414"><ele>154.0</ele><time>2026-04-26T18:05:21Z</time></trkpt><trkpt lat="40.609404143778775" lon="15.306769396859394"><ele>152.0</ele><time>2026-04-26T18:05:22Z</time></trkpt><trkpt lat="40.60930656630108" lon="15.307169875459"><ele>149.5</ele><time>2026-04-26T18:05:23Z</time></trkpt><trkpt lat="40.60921242044741" lon="15.307577033676658"><ele>147.0</ele><time>2026-04-26T18:05:24Z</time></trkpt><trkpt lat="40.60911178786089" lon="15.307987206671905"><ele>144.5</ele><time>2026-04-26T18:05:25Z</time></trkpt><trkpt lat="40.60900149585854" lon="15.308395585495784"><ele>142.0</ele><time>2026-04-26T18:05:26Z</time></trkpt><trkpt lat="40.60889576967327" lon="15.3088044042931"><ele>140.0</ele><time>2026-04-26T18:05:27Z</time></trkpt><trkpt lat="40.60879314057184" lon="15.309212742444041"><ele>138.0</ele><time>2026-04-26T18:05:28Z</time></trkpt><trkpt lat="40.60868739024427" lon="15.309623267214336"><ele>134.5</ele><time>2026-04-26T18:05:29Z</time></trkpt><trkpt lat="40.60857998791635" lon="15.31003111157704"><ele>131.0</ele><time>2026-04-26T18:05:30Z</time></trkpt><trkpt lat="40.60847251119086" lon="15.310437903107566"><ele>134.0</ele><time>2026-04-26T18:05:31Z</time></trkpt><trkpt lat="40.608363102228026" lon="15.310843167440538"><ele>137.0</ele><time>2026-04-26T18:05:32Z</time></trkpt><trkpt lat="40.60824598776916" lon="15.311242966806812"><ele>139.5</ele><time>2026-04-26T18:05:33Z</time></trkpt><trkpt lat="40.60811757364964" lon="15.311636686839892"><ele>142.0</ele><time>2026-04-26T18:05:34Z</time></trkpt><trkpt lat="40.60798542171541" lon="15.312028742875814"><ele>143.5</ele><time>2026-04-26T18:05:35Z</time></trkpt><trkpt lat="40.607845996911074" lon="15.312414127546349"><ele>145.0</ele><time>2026-04-26T18:05:36Z</time></trkpt><trkpt lat="40.60770126058552" lon="15.312794753245253"><ele>142.5</ele><time>2026-04-26T18:05:37Z</time></trkpt><trkpt lat="40.60755528345699" lon="15.313177476728233"><ele>140.0</ele><time>2026-04-26T18:05:38Z</time></trkpt><trkpt lat="40.607408070663546" lon="15.313556478770968"><ele>142.5</ele><time>2026-04-26T18:05:39Z</time></trkpt><trkpt lat="40.60726578335802" lon="15.31393979131977"><ele>145.0</ele><time>2026-04-26T18:05:40Z</time></trkpt><trkpt lat="40.60712396621298" lon="15.314322710474478"><ele>142.5</ele><time>2026-04-26T18:05:41Z</time></trkpt><trkpt lat="40.60698410369955" lon="15.314704811278492"><ele>140.0</ele><time>2026-04-26T18:05:42Z</time></trkpt><trkpt lat="40.606843032843074" lon="15.315086585736244"><ele>140.0</ele><time>2026-04-26T18:05:43Z</time></trkpt><trkpt lat="40.606695692284504" lon="15.315463979245568"><ele>140.0</ele><time>2026-04-26T18:05:44Z</time></trkpt><trkpt lat="40.606551266481766" lon="15.315844296219575"><ele>141.0</ele><time>2026-04-26T18:05:45Z</time></trkpt><trkpt lat="40.6064100596066" lon="15.316224344909239"><ele>142.0</ele><time>2026-04-26T18:05:46Z</time></trkpt><trkpt lat="40.60626850296496" lon="15.31660480616763"><ele>142.5</ele><time>2026-04-26T18:05:47Z</time></trkpt><trkpt lat="40.60612838284774" lon="15.316986983699746"><ele>143.0</ele><time>2026-04-26T18:05:48Z</time></trkpt><trkpt lat="40.605980968400445" lon="15.317366679628103"><ele>143.0</ele><time>2026-04-26T18:05:49Z</time></trkpt><trkpt lat="40.60583808497999" lon="15.317747733869217"><ele>143.0</ele><time>2026-04-26T18:05:50Z</time></trkpt><trkpt lat="40.6056982363802" lon="15.318126314880688"><ele>144.5</ele><time>2026-04-26T18:05:51Z</time></trkpt><trkpt lat="40.6055640856563" lon="15.318507408062883"><ele>146.0</ele><time>2026-04-26T18:05:52Z</time></trkpt><trkpt lat="40.605428008049884" lon="15.318890210816093"><ele>143.0</ele><time>2026-04-26T18:05:53Z</time></trkpt><trkpt lat="40.60530704437459" lon="15.319278314355566"><ele>140.0</ele><time>2026-04-26T18:05:54Z</time></trkpt><trkpt lat="40.60518790280958" lon="15.319666873686762"><ele>140.0</ele><time>2026-04-26T18:05:55Z</time></trkpt><trkpt lat="40.60506885899194" lon="15.320053471412933"><ele>140.0</ele><time>2026-04-26T18:05:56Z</time></trkpt><trkpt lat="40.60493969193122" lon="15.320434434773992"><ele>141.0</ele><time>2026-04-26T18:05:57Z</time></trkpt><trkpt lat="40.604801302609545" lon="15.320806187699441"><ele>142.0</ele><time>2026-04-26T18:05:58Z</time></trkpt><trkpt lat="40.604647386134424" lon="15.321166523242837"><ele>141.0</ele><time>2026-04-26T18:05:59Z</time></trkpt><trkpt lat="40.604476724935544" lon="15.321510924728159"><ele>140.0</ele><time>2026-04-26T18:06:00Z</time></trkpt><trkpt lat="40.604296468199536" lon="15.32184759601879"><ele>140.0</ele><time>2026-04-26T18:06:01Z</time></trkpt><trkpt lat="40.60410755356103" lon="15.322174767250917"><ele>140.0</ele><time>2026-04-26T18:06:02Z</time></trkpt><trkpt lat="40.60391483166953" lon="15.322496398572131"><ele>139.0</ele><time>2026-04-26T18:06:03Z</time></trkpt><trkpt lat="40.60372451950345" lon="15.322820405501954"><ele>138.0</ele><time>2026-04-26T18:06:04Z</time></trkpt><trkpt lat="40.60353652002697" lon="15.323146139391662"><ele>138.0</ele><time>2026-04-26T18:06:05Z</time></trkpt><trkpt lat="40.60334991251441" lon="15.323472190739167"><ele>138.0</ele><time>2026-04-26T18:06:06Z</time></trkpt><trkpt lat="40.60317614850258" lon="15.323803240771628"><ele>140.5</ele><time>2026-04-26T18:06:07Z</time></trkpt><trkpt lat="40.603020245403876" lon="15.32413988916942"><ele>143.0</ele><time>2026-04-26T18:06:08Z</time></trkpt><trkpt lat="40.60288226381981" lon="15.324487786002186"><ele>142.0</ele><time>2026-04-26T18:06:09Z</time></trkpt><trkpt lat="40.60275670998493" lon="15.324844486035104"><ele>141.0</ele><time>2026-04-26T18:06:10Z</time></trkpt><trkpt lat="40.60265005130083" lon="15.325212389948481"><ele>142.0</ele><time>2026-04-26T18:06:11Z</time></trkpt><trkpt lat="40.60255701124599" lon="15.325586494690961"><ele>143.0</ele><time>2026-04-26T18:06:12Z</time></trkpt><trkpt lat="40.60248601953154" lon="15.325969633196628"><ele>143.0</ele><time>2026-04-26T18:06:13Z</time></trkpt><trkpt lat="40.602438253026854" lon="15.326359343386242"><ele>143.0</ele><time>2026-04-26T18:06:14Z</time></trkpt><trkpt lat="40.60241036423509" lon="15.32675251302474"><ele>143.0</ele><time>2026-04-26T18:06:15Z</time></trkpt><trkpt lat="40.602391139627166" lon="15.327148150502527"><ele>143.0</ele><time>2026-04-26T18:06:16Z</time></trkpt><trkpt lat="40.60237137454972" lon="15.327544694448816"><ele>144.0</ele><time>2026-04-26T18:06:17Z</time></trkpt><trkpt lat="40.60234626410959" lon="15.327942036178307"><ele>145.0</ele><time>2026-04-26T18:06:18Z</time></trkpt><trkpt lat="40.60230515384626" lon="15.328334627958593"><ele>145.0</ele><time>2026-04-26T18:06:19Z</time></trkpt><trkpt lat="40.60225448053619" lon="15.328725214235735"><ele>145.0</ele><time>2026-04-26T18:06:20Z</time></trkpt><trkpt lat="40.602182222775276" lon="15.329111108970434"><ele>145.5</ele><time>2026-04-26T18:06:21Z</time></trkpt><trkpt lat="40.60209141157639" lon="15.329487148392278"><ele>146.0</ele><time>2026-04-26T18:06:22Z</time></trkpt><trkpt lat="40.60198277844503" lon="15.329856278008563"><ele>144.5</ele><time>2026-04-26T18:06:23Z</time></trkpt><trkpt lat="40.60185772923543" lon="15.330217224602801"><ele>143.0</ele><time>2026-04-26T18:06:24Z</time></trkpt><trkpt lat="40.601715928850105" lon="15.330567499474816"><ele>143.0</ele><time>2026-04-26T18:06:25Z</time></trkpt><trkpt lat="40.601553943463465" lon="15.330900472724462"><ele>143.0</ele><time>2026-04-26T18:06:26Z</time></trkpt><trkpt lat="40.60137338133426" lon="15.33121739805015"><ele>140.5</ele><time>2026-04-26T18:06:27Z</time></trkpt><trkpt lat="40.601177231030576" lon="15.331520334101016"><ele>138.0</ele><time>2026-04-26T18:06:28Z</time></trkpt><trkpt lat="40.60097462149892" lon="15.331815766536746"><ele>138.0</ele><time>2026-04-26T18:06:29Z</time></trkpt><trkpt lat="40.600767084580404" lon="15.332107675179222"><ele>138.0</ele><time>2026-04-26T18:06:30Z</time></trkpt><trkpt lat="40.60056680139284" lon="15.33240461053774"><ele>134.0</ele><time>2026-04-26T18:06:31Z</time></trkpt><trkpt lat="40.60036780203408" lon="15.332709327332573"><ele>130.0</ele><time>2026-04-26T18:06:32Z</time></trkpt><trkpt lat="40.60015610302619" lon="15.333004017924784"><ele>136.0</ele><time>2026-04-26T18:06:33Z</time></trkpt><trkpt lat="40.59995206544516" lon="15.33330960263864"><ele>142.0</ele><time>2026-04-26T18:06:34Z</time></trkpt><trkpt lat="40.59975245452642" lon="15.333617429707278"><ele>141.0</ele><time>2026-04-26T18:06:35Z</time></trkpt><trkpt lat="40.59953645813083" lon="15.33390906811452"><ele>140.0</ele><time>2026-04-26T18:06:36Z</time></trkpt><trkpt lat="40.59933542878435" lon="15.334213398698244"><ele>140.0</ele><time>2026-04-26T18:06:37Z</time></trkpt><trkpt lat="40.599133685488994" lon="15.334527144180623"><ele>140.0</ele><time>2026-04-26T18:06:38Z</time></trkpt><trkpt lat="40.598931281293616" lon="15.334834071678445"><ele>141.0</ele><time>2026-04-26T18:06:39Z</time></trkpt><trkpt lat="40.59872587997836" lon="15.335138927760777"><ele>142.0</ele><time>2026-04-26T18:06:40Z</time></trkpt><trkpt lat="40.59852042223068" lon="15.335443303913246"><ele>144.5</ele><time>2026-04-26T18:06:41Z</time></trkpt><trkpt lat="40.59831601922725" lon="15.335749075397022"><ele>147.0</ele><time>2026-04-26T18:06:42Z</time></trkpt><trkpt lat="40.59810744150992" lon="15.336049234206968"><ele>147.0</ele><time>2026-04-26T18:06:43Z</time></trkpt><trkpt lat="40.59790416647341" lon="15.336352905589719"><ele>147.0</ele><time>2026-04-26T18:06:44Z</time></trkpt><trkpt lat="40.59769674253949" lon="15.33665370154693"><ele>145.0</ele><time>2026-04-26T18:06:45Z</time></trkpt><trkpt lat="40.59748742829909" lon="15.33695330683465"><ele>143.0</ele><time>2026-04-26T18:06:46Z</time></trkpt><trkpt lat="40.59728906499348" lon="15.337242625987658"><ele>141.0</ele><time>2026-04-26T18:06:47Z</time></trkpt><trkpt lat="40.597101601473696" lon="15.337519409836787"><ele>139.0</ele><time>2026-04-26T18:06:48Z</time></trkpt><trkpt lat="40.59692221385221" lon="15.337790479616032"><ele>143.0</ele><time>2026-04-26T18:06:49Z</time></trkpt><trkpt lat="40.596755036664405" lon="15.338062517643031"><ele>147.0</ele><time>2026-04-26T18:06:50Z</time></trkpt><trkpt lat="40.596598175564964" lon="15.338355374624117"><ele>147.0</ele><time>2026-04-26T18:06:51Z</time></trkpt><trkpt lat="40.596448809334746" lon="15.338660056297675"><ele>147.0</ele><time>2026-04-26T18:06:52Z</time></trkpt><trkpt lat="40.596303916086754" lon="15.338972331440647"><ele>149.0</ele><time>2026-04-26T18:06:53Z</time></trkpt><trkpt lat="40.596174448404156" lon="15.339297377677132"><ele>151.0</ele><time>2026-04-26T18:06:54Z</time></trkpt><trkpt lat="40.59605859441179" lon="15.339634465848421"><ele>149.0</ele><time>2026-04-26T18:06:55Z</time></trkpt><trkpt lat="40.59595619258036" lon="15.339981181257503"><ele>147.0</ele><time>2026-04-26T18:06:56Z</time></trkpt><trkpt lat="40.59586663137619" lon="15.34033252936321"><ele>149.5</ele><time>2026-04-26T18:06:57Z</time></trkpt><trkpt lat="40.59578664394968" lon="15.340691803963109"><ele>152.0</ele><time>2026-04-26T18:06:58Z</time></trkpt><trkpt lat="40.59572164663964" lon="15.34105668909924"><ele>154.5</ele><time>2026-04-26T18:06:59Z</time></trkpt><trkpt lat="40.59566846099665" lon="15.341428060197687"><ele>157.0</ele><time>2026-04-26T18:07:00Z</time></trkpt><trkpt lat="40.595629600881" lon="15.341806461919777"><ele>157.0</ele><time>2026-04-26T18:07:01Z</time></trkpt><trkpt lat="40.59560363036314" lon="15.342188852875092"><ele>157.0</ele><time>2026-04-26T18:07:02Z</time></trkpt><trkpt lat="40.595588618132794" lon="15.342574584680097"><ele>159.0</ele><time>2026-04-26T18:07:03Z</time></trkpt><trkpt lat="40.59558333246623" lon="15.342963375768555"><ele>161.0</ele><time>2026-04-26T18:07:04Z</time></trkpt><trkpt lat="40.595577723885704" lon="15.343351731043082"><ele>161.0</ele><time>2026-04-26T18:07:05Z</time></trkpt><trkpt lat="40.59556840275322" lon="15.343740464780067"><ele>161.0</ele><time>2026-04-26T18:07:06Z</time></trkpt><trkpt lat="40.59555351973254" lon="15.34412889866965"><ele>161.0</ele><time>2026-04-26T18:07:07Z</time></trkpt><trkpt lat="40.59554082911781" lon="15.344519136136846"><ele>161.0</ele><time>2026-04-26T18:07:08Z</time></trkpt><trkpt lat="40.59552879638004" lon="15.34491130376483"><ele>162.5</ele><time>2026-04-26T18:07:09Z</time></trkpt><trkpt lat="40.59551843169998" lon="15.345301436219586"><ele>164.0</ele><time>2026-04-26T18:07:10Z</time></trkpt><trkpt lat="40.59550753701188" lon="15.34569298000491"><ele>164.5</ele><time>2026-04-26T18:07:11Z</time></trkpt><trkpt lat="40.595497303338654" lon="15.346083681107825"><ele>165.0</ele><time>2026-04-26T18:07:12Z</time></trkpt><trkpt lat="40.59548105269929" lon="15.346477229309157"><ele>163.0</ele><time>2026-04-26T18:07:13Z</time></trkpt><trkpt lat="40.59546724551524" lon="15.346868741171544"><ele>161.0</ele><time>2026-04-26T18:07:14Z</time></trkpt><trkpt lat="40.59546542774352" lon="15.347260971510273"><ele>161.0</ele><time>2026-04-26T18:07:15Z</time></trkpt><trkpt lat="40.59546560721811" lon="15.347650942842174"><ele>161.0</ele><time>2026-04-26T18:07:16Z</time></trkpt><trkpt lat="40.59548742220462" lon="15.348038821454239"><ele>161.5</ele><time>2026-04-26T18:07:17Z</time></trkpt><trkpt lat="40.595525252166865" lon="15.348429615449568"><ele>162.0</ele><time>2026-04-26T18:07:18Z</time></trkpt><trkpt lat="40.59557600241988" lon="15.348815074740441"><ele>159.5</ele><time>2026-04-26T18:07:19Z</time></trkpt><trkpt lat="40.59564414090163" lon="15.34919789393274"><ele>157.0</ele><time>2026-04-26T18:07:20Z</time></trkpt><trkpt lat="40.595723663382635" lon="15.349577233377497"><ele>154.0</ele><time>2026-04-26T18:07:21Z</time></trkpt><trkpt lat="40.59581472352061" lon="15.349948196040744"><ele>151.0</ele><time>2026-04-26T18:07:22Z</time></trkpt><trkpt lat="40.59592677197122" lon="15.350309059191888"><ele>151.5</ele><time>2026-04-26T18:07:23Z</time></trkpt><trkpt lat="40.59606018530758" lon="15.350661601068522"><ele>152.0</ele><time>2026-04-26T18:07:24Z</time></trkpt><trkpt lat="40.59620370340462" lon="15.351004952628246"><ele>152.0</ele><time>2026-04-26T18:07:25Z</time></trkpt><trkpt lat="40.59635648422057" lon="15.351339743591772"><ele>152.0</ele><time>2026-04-26T18:07:26Z</time></trkpt><trkpt lat="40.59652093487641" lon="15.351665149513686"><ele>152.5</ele><time>2026-04-26T18:07:27Z</time></trkpt><trkpt lat="40.59669178921578" lon="15.35198585505071"><ele>153.0</ele><time>2026-04-26T18:07:28Z</time></trkpt><trkpt lat="40.59686620147824" lon="15.352303519165366"><ele>157.0</ele><time>2026-04-26T18:07:29Z</time></trkpt><trkpt lat="40.597035493439186" lon="15.352623883181097"><ele>161.0</ele><time>2026-04-26T18:07:30Z</time></trkpt><trkpt lat="40.597191746440714" lon="15.352953301121289"><ele>161.0</ele><time>2026-04-26T18:07:31Z</time></trkpt><trkpt lat="40.59733618090306" lon="15.353291455970314"><ele>161.0</ele><time>2026-04-26T18:07:32Z</time></trkpt><trkpt lat="40.59747467310981" lon="15.353634301312903"><ele>160.0</ele><time>2026-04-26T18:07:33Z</time></trkpt><trkpt lat="40.59759829591804" lon="15.353981591585582"><ele>159.0</ele><time>2026-04-26T18:07:34Z</time></trkpt><trkpt lat="40.59771280331952" lon="15.354331331735308"><ele>159.0</ele><time>2026-04-26T18:07:35Z</time></trkpt><trkpt lat="40.5978152871" lon="15.354686960177924"><ele>159.0</ele><time>2026-04-26T18:07:36Z</time></trkpt><trkpt lat="40.5979036067389" lon="15.355046684033022"><ele>169.0</ele><time>2026-04-26T18:07:37Z</time></trkpt><trkpt lat="40.597977857372385" lon="15.35541044146252"><ele>179.0</ele><time>2026-04-26T18:07:38Z</time></trkpt><trkpt lat="40.59803753798137" lon="15.35577534024553"><ele>179.0</ele><time>2026-04-26T18:07:39Z</time></trkpt><trkpt lat="40.59808411535057" lon="15.356142237096927"><ele>179.0</ele><time>2026-04-26T18:07:40Z</time></trkpt><trkpt lat="40.59812032319488" lon="15.356508425600452"><ele>177.5</ele><time>2026-04-26T18:07:41Z</time></trkpt><trkpt lat="40.59814364159298" lon="15.356874579003232"><ele>176.0</ele><time>2026-04-26T18:07:42Z</time></trkpt><trkpt lat="40.59817039301685" lon="15.357239693767424"><ele>176.0</ele><time>2026-04-26T18:07:43Z</time></trkpt><trkpt lat="40.59819153522961" lon="15.357602831522716"><ele>176.0</ele><time>2026-04-26T18:07:44Z</time></trkpt><trkpt lat="40.598212490070914" lon="15.357966513459948"><ele>177.5</ele><time>2026-04-26T18:07:45Z</time></trkpt><trkpt lat="40.59822709979932" lon="15.358328489762576"><ele>179.0</ele><time>2026-04-26T18:07:46Z</time></trkpt><trkpt lat="40.59824311646328" lon="15.358691490701009"><ele>178.5</ele><time>2026-04-26T18:07:47Z</time></trkpt><trkpt lat="40.598266230522526" lon="15.359053270638672"><ele>178.0</ele><time>2026-04-26T18:07:48Z</time></trkpt><trkpt lat="40.598296480257765" lon="15.359415480126279"><ele>178.5</ele><time>2026-04-26T18:07:49Z</time></trkpt><trkpt lat="40.59832640823892" lon="15.359772976252383"><ele>179.0</ele><time>2026-04-26T18:07:50Z</time></trkpt><trkpt lat="40.598361964754176" lon="15.360128650342109"><ele>179.0</ele><time>2026-04-26T18:07:51Z</time></trkpt><trkpt lat="40.59841051895495" lon="15.360489735773072"><ele>179.0</ele><time>2026-04-26T18:07:52Z</time></trkpt><trkpt lat="40.598464025344356" lon="15.360846388773725"><ele>179.0</ele><time>2026-04-26T18:07:53Z</time></trkpt><trkpt lat="40.59851917302659" lon="15.361207138151327"><ele>179.0</ele><time>2026-04-26T18:07:54Z</time></trkpt><trkpt lat="40.59857821704683" lon="15.361566009611899"><ele>179.0</ele><time>2026-04-26T18:07:55Z</time></trkpt><trkpt lat="40.59864631209573" lon="15.361922122139896"><ele>179.0</ele><time>2026-04-26T18:07:56Z</time></trkpt><trkpt lat="40.59871964432319" lon="15.362280777015984"><ele>188.0</ele><time>2026-04-26T18:07:57Z</time></trkpt><trkpt lat="40.59880044231176" lon="15.362637243974154"><ele>197.0</ele><time>2026-04-26T18:07:58Z</time></trkpt><trkpt lat="40.59888792454068" lon="15.362995843678467"><ele>195.0</ele><time>2026-04-26T18:07:59Z</time></trkpt><trkpt lat="40.59897521839438" lon="15.363351926261027"><ele>193.0</ele><time>2026-04-26T18:08:00Z</time></trkpt><trkpt lat="40.59906952723722" lon="15.363706675823142"><ele>192.0</ele><time>2026-04-26T18:08:01Z</time></trkpt><trkpt lat="40.59917512615206" lon="15.364055066661798"><ele>191.0</ele><time>2026-04-26T18:08:02Z</time></trkpt><trkpt lat="40.59928523791126" lon="15.364402290085279"><ele>188.5</ele><time>2026-04-26T18:08:03Z</time></trkpt><trkpt lat="40.599406441313974" lon="15.364746104001787"><ele>186.0</ele><time>2026-04-26T18:08:04Z</time></trkpt><trkpt lat="40.599531433770565" lon="15.365088201068984"><ele>191.5</ele><time>2026-04-26T18:08:05Z</time></trkpt><trkpt lat="40.599662884417754" lon="15.365427394067556"><ele>197.0</ele><time>2026-04-26T18:08:06Z</time></trkpt><trkpt lat="40.59979476621755" lon="15.365764880747006"><ele>197.0</ele><time>2026-04-26T18:08:07Z</time></trkpt><trkpt lat="40.5999295873154" lon="15.366099009372302"><ele>197.0</ele><time>2026-04-26T18:08:08Z</time></trkpt><trkpt lat="40.60006799178289" lon="15.36643174437875"><ele>194.5</ele><time>2026-04-26T18:08:09Z</time></trkpt><trkpt lat="40.6002098633503" lon="15.366755443050563"><ele>192.0</ele><time>2026-04-26T18:08:10Z</time></trkpt><trkpt lat="40.6003569398435" lon="15.367076548614515"><ele>190.5</ele><time>2026-04-26T18:08:11Z</time></trkpt><trkpt lat="40.60050653244014" lon="15.367399018057574"><ele>189.0</ele><time>2026-04-26T18:08:12Z</time></trkpt><trkpt lat="40.60066065635405" lon="15.367716080827297"><ele>192.0</ele><time>2026-04-26T18:08:13Z</time></trkpt><trkpt lat="40.60082206775202" lon="15.368027172780563"><ele>195.0</ele><time>2026-04-26T18:08:14Z</time></trkpt><trkpt lat="40.600989916952756" lon="15.368333872046312"><ele>195.0</ele><time>2026-04-26T18:08:15Z</time></trkpt><trkpt lat="40.60115771582932" lon="15.36863479777607"><ele>195.0</ele><time>2026-04-26T18:08:16Z</time></trkpt><trkpt lat="40.60133083541446" lon="15.368933912395894"><ele>200.5</ele><time>2026-04-26T18:08:17Z</time></trkpt><trkpt lat="40.601501755348835" lon="15.36923377761104"><ele>206.0</ele><time>2026-04-26T18:08:18Z</time></trkpt><trkpt lat="40.60167117265299" lon="15.369535443409266"><ele>207.0</ele><time>2026-04-26T18:08:19Z</time></trkpt><trkpt lat="40.601846711238906" lon="15.369832196913755"><ele>208.0</ele><time>2026-04-26T18:08:20Z</time></trkpt><trkpt lat="40.60202033818816" lon="15.37012982159049"><ele>208.0</ele><time>2026-04-26T18:08:21Z</time></trkpt><trkpt lat="40.60219567440148" lon="15.370427380556858"><ele>208.0</ele><time>2026-04-26T18:08:22Z</time></trkpt><trkpt lat="40.60237108118124" lon="15.370726761124022"><ele>206.5</ele><time>2026-04-26T18:08:23Z</time></trkpt><trkpt lat="40.60255645590507" lon="15.371022272278957"><ele>205.0</ele><time>2026-04-26T18:08:24Z</time></trkpt><trkpt lat="40.60273473661501" lon="15.371320560585826"><ele>204.5</ele><time>2026-04-26T18:08:25Z</time></trkpt><trkpt lat="40.602908482320395" lon="15.371622305881923"><ele>204.0</ele><time>2026-04-26T18:08:26Z</time></trkpt><trkpt lat="40.60308475410596" lon="15.371926027308582"><ele>200.0</ele><time>2026-04-26T18:08:27Z</time></trkpt><trkpt lat="40.603261746919486" lon="15.372233378326767"><ele>196.0</ele><time>2026-04-26T18:08:28Z</time></trkpt><trkpt lat="40.60343776391655" lon="15.372541313030043"><ele>196.0</ele><time>2026-04-26T18:08:29Z</time></trkpt><trkpt lat="40.60361921838768" lon="15.37284898068605"><ele>196.0</ele><time>2026-04-26T18:08:30Z</time></trkpt><trkpt lat="40.60379882752878" lon="15.373160530264446"><ele>197.0</ele><time>2026-04-26T18:08:31Z</time></trkpt><trkpt lat="40.603982650423134" lon="15.373472398616723"><ele>198.0</ele><time>2026-04-26T18:08:32Z</time></trkpt><trkpt lat="40.60416771394245" lon="15.373782371667547"><ele>197.0</ele><time>2026-04-26T18:08:33Z</time></trkpt><trkpt lat="40.604353341461795" lon="15.374090729828193"><ele>196.0</ele><time>2026-04-26T18:08:34Z</time></trkpt><trkpt lat="40.60453510574364" lon="15.374405799555703"><ele>199.0</ele><time>2026-04-26T18:08:35Z</time></trkpt><trkpt lat="40.604716506302594" lon="15.374719550972223"><ele>202.0</ele><time>2026-04-26T18:08:36Z</time></trkpt><trkpt lat="40.60489860751529" lon="15.37503097158562"><ele>202.0</ele><time>2026-04-26T18:08:37Z</time></trkpt><trkpt lat="40.60507989511103" lon="15.375343041469836"><ele>202.0</ele><time>2026-04-26T18:08:38Z</time></trkpt><trkpt lat="40.605260023409805" lon="15.375652020089197"><ele>205.5</ele><time>2026-04-26T18:08:39Z</time></trkpt><trkpt lat="40.60544076636767" lon="15.375963638416014"><ele>209.0</ele><time>2026-04-26T18:08:40Z</time></trkpt><trkpt lat="40.605619381251245" lon="15.3762726222864"><ele>205.0</ele><time>2026-04-26T18:08:41Z</time></trkpt><trkpt lat="40.605795001207106" lon="15.376573657206553"><ele>201.0</ele><time>2026-04-26T18:08:42Z</time></trkpt><trkpt lat="40.60596782791748" lon="15.376862523428013"><ele>201.0</ele><time>2026-04-26T18:08:43Z</time></trkpt><trkpt lat="40.6061387020029" lon="15.377145233838274"><ele>201.0</ele><time>2026-04-26T18:08:44Z</time></trkpt><trkpt lat="40.60630677977816" lon="15.377429239176223"><ele>203.5</ele><time>2026-04-26T18:08:45Z</time></trkpt><trkpt lat="40.60647441022418" lon="15.37771750721101"><ele>206.0</ele><time>2026-04-26T18:08:46Z</time></trkpt><trkpt lat="40.606642503089645" lon="15.378003232140234"><ele>204.0</ele><time>2026-04-26T18:08:47Z</time></trkpt><trkpt lat="40.60681184648368" lon="15.378292538334765"><ele>202.0</ele><time>2026-04-26T18:08:48Z</time></trkpt><trkpt lat="40.60698086051468" lon="15.378582599707384"><ele>203.0</ele><time>2026-04-26T18:08:49Z</time></trkpt><trkpt lat="40.60714863708665" lon="15.378876130939956"><ele>204.0</ele><time>2026-04-26T18:08:50Z</time></trkpt><trkpt lat="40.607317458842495" lon="15.379170360878234"><ele>204.0</ele><time>2026-04-26T18:08:51Z</time></trkpt><trkpt lat="40.60748790353356" lon="15.379464619966306"><ele>204.0</ele><time>2026-04-26T18:08:52Z</time></trkpt><trkpt lat="40.60765816488764" lon="15.379754523377326"><ele>205.0</ele><time>2026-04-26T18:08:53Z</time></trkpt><trkpt lat="40.60782758444756" lon="15.380044075040468"><ele>206.0</ele><time>2026-04-26T18:08:54Z</time></trkpt><trkpt lat="40.607999715916606" lon="15.380332117757597"><ele>204.5</ele><time>2026-04-26T18:08:55Z</time></trkpt><trkpt lat="40.608167173779265" lon="15.380617934066034"><ele>203.0</ele><time>2026-04-26T18:08:56Z</time></trkpt><trkpt lat="40.6083311666401" lon="15.380900182474557"><ele>203.0</ele><time>2026-04-26T18:08:57Z</time></trkpt><trkpt lat="40.60849498088711" lon="15.381181168644138"><ele>203.0</ele><time>2026-04-26T18:08:58Z</time></trkpt><trkpt lat="40.60866071984504" lon="15.38146159953678"><ele>205.5</ele><time>2026-04-26T18:08:59Z</time></trkpt><trkpt lat="40.608823257360825" lon="15.381744999114401"><ele>208.0</ele><time>2026-04-26T18:09:00Z</time></trkpt><trkpt lat="40.60898909181423" lon="15.382027316267315"><ele>208.5</ele><time>2026-04-26T18:09:01Z</time></trkpt><trkpt lat="40.60916327944143" lon="15.382306916234114"><ele>209.0</ele><time>2026-04-26T18:09:02Z</time></trkpt><trkpt lat="40.60933560987196" lon="15.382587636350321"><ele>211.5</ele><time>2026-04-26T18:09:03Z</time></trkpt><trkpt lat="40.60950561845501" lon="15.382871734570283"><ele>214.0</ele><time>2026-04-26T18:09:04Z</time></trkpt><trkpt lat="40.60968077422886" lon="15.383151535956836"><ele>214.0</ele><time>2026-04-26T18:09:05Z</time></trkpt><trkpt lat="40.60986024426879" lon="15.383427750746566"><ele>214.0</ele><time>2026-04-26T18:09:06Z</time></trkpt><trkpt lat="40.61004553124479" lon="15.38369806552866"><ele>214.5</ele><time>2026-04-26T18:09:07Z</time></trkpt><trkpt lat="40.610229169706706" lon="15.383967052312084"><ele>215.0</ele><time>2026-04-26T18:09:08Z</time></trkpt><trkpt lat="40.6104230921694" lon="15.384225628417825"><ele>216.0</ele><time>2026-04-26T18:09:09Z</time></trkpt><trkpt lat="40.61061747862908" lon="15.38448562986752"><ele>217.0</ele><time>2026-04-26T18:09:10Z</time></trkpt><trkpt lat="40.61081077150082" lon="15.384749736195706"><ele>217.0</ele><time>2026-04-26T18:09:11Z</time></trkpt><trkpt lat="40.61100215593915" lon="15.385014664370484"><ele>217.0</ele><time>2026-04-26T18:09:12Z</time></trkpt><trkpt lat="40.611200731842466" lon="15.385277437303971"><ele>223.0</ele><time>2026-04-26T18:09:13Z</time></trkpt><trkpt lat="40.61139370604541" lon="15.385541423423868"><ele>229.0</ele><time>2026-04-26T18:09:14Z</time></trkpt><trkpt lat="40.61158774163851" lon="15.38580839440757"><ele>229.0</ele><time>2026-04-26T18:09:15Z</time></trkpt><trkpt lat="40.611788228803235" lon="15.386071745467746"><ele>229.0</ele><time>2026-04-26T18:09:16Z</time></trkpt><trkpt lat="40.611993718129796" lon="15.38633833792394"><ele>257.5</ele><time>2026-04-26T18:09:17Z</time></trkpt><trkpt lat="40.6121946190187" lon="15.38660790665651"><ele>286.0</ele><time>2026-04-26T18:09:18Z</time></trkpt><trkpt lat="40.612401324528065" lon="15.386880014314812"><ele>286.0</ele><time>2026-04-26T18:09:19.012Z</time></trkpt><trkpt lat="40.612607060443054" lon="15.38714678576429"><ele>286.0</ele><time>2026-04-26T18:09:20.013Z</time></trkpt><trkpt lat="40.61281607649716" lon="15.387412002364325"><ele>304.5</ele><time>2026-04-26T18:09:21.012Z</time></trkpt><trkpt lat="40.61302924827154" lon="15.387668060856214"><ele>323.0</ele><time>2026-04-26T18:09:22.012Z</time></trkpt><trkpt lat="40.6132455479975" lon="15.387924083206947"><ele>234.0</ele><time>2026-04-26T18:09:23.012Z</time></trkpt><trkpt lat="40.616812063418905" lon="15.392982121571332"><ele>234.0</ele><time>2026-04-26T18:09:41Z</time></trkpt><trkpt lat="40.617000489150875" lon="15.39327967892606"><ele>234.0</ele><time>2026-04-26T18:09:42Z</time></trkpt><trkpt lat="40.61720519843284" lon="15.393598422552792"><ele>233.0</ele><time>2026-04-26T18:09:43Z</time></trkpt><trkpt lat="40.61735436655369" lon="15.393924924384226"><ele>232.0</ele><time>2026-04-26T18:09:44Z</time></trkpt><trkpt lat="40.617497588737216" lon="15.394250118414757"><ele>232.0</ele><time>2026-04-26T18:09:45Z</time></trkpt><trkpt lat="40.61762626974724" lon="15.394582584704109"><ele>232.0</ele><time>2026-04-26T18:09:46Z</time></trkpt><trkpt lat="40.61774578336069" lon="15.394916748494426"><ele>244.5</ele><time>2026-04-26T18:09:47Z</time></trkpt><trkpt lat="40.617853647888246" lon="15.395254118718166"><ele>257.0</ele><time>2026-04-26T18:09:48Z</time></trkpt><trkpt lat="40.61794913219666" lon="15.395599516991048"><ele>257.0</ele><time>2026-04-26T18:09:49Z</time></trkpt><trkpt lat="40.61803683264892" lon="15.395949299993562"><ele>257.0</ele><time>2026-04-26T18:09:50Z</time></trkpt><trkpt lat="40.61811268285409" lon="15.396301820469693"><ele>252.5</ele><time>2026-04-26T18:09:51Z</time></trkpt><trkpt lat="40.61817551429597" lon="15.396659479413325"><ele>248.0</ele><time>2026-04-26T18:09:52Z</time></trkpt><trkpt lat="40.61822831224754" lon="15.397017516439288"><ele>246.5</ele><time>2026-04-26T18:09:53Z</time></trkpt><trkpt lat="40.618280304059226" lon="15.397373481064827"><ele>245.0</ele><time>2026-04-26T18:09:54Z</time></trkpt><trkpt lat="40.618341188648394" lon="15.397729353436489"><ele>244.0</ele><time>2026-04-26T18:09:55Z</time></trkpt><trkpt lat="40.61838484812427" lon="15.398089606656239"><ele>243.0</ele><time>2026-04-26T18:09:56Z</time></trkpt><trkpt lat="40.618441553025654" lon="15.398441919749322"><ele>243.0</ele><time>2026-04-26T18:09:57Z</time></trkpt><trkpt lat="40.61849229172818" lon="15.398795119955668"><ele>243.0</ele><time>2026-04-26T18:09:58Z</time></trkpt><trkpt lat="40.61853854040935" lon="15.399145068584472"><ele>243.0</ele><time>2026-04-26T18:09:59Z</time></trkpt><trkpt lat="40.618579876040315" lon="15.399489315893959"><ele>243.0</ele><time>2026-04-26T18:10:00Z</time></trkpt><trkpt lat="40.618629524617035" lon="15.399833148626549"><ele>263.5</ele><time>2026-04-26T18:10:01Z</time></trkpt><trkpt lat="40.61867218158008" lon="15.400174473781469"><ele>284.0</ele><time>2026-04-26T18:10:02Z</time></trkpt><trkpt lat="40.6187182452431" lon="15.400517828265912"><ele>284.0</ele><time>2026-04-26T18:10:03Z</time></trkpt><trkpt lat="40.618755833435" lon="15.40086180997295"><ele>284.0</ele><time>2026-04-26T18:10:04Z</time></trkpt><trkpt lat="40.61879666410768" lon="15.401201541317038"><ele>281.5</ele><time>2026-04-26T18:10:05Z</time></trkpt><trkpt lat="40.61883731023203" lon="15.401543507287165"><ele>279.0</ele><time>2026-04-26T18:10:06Z</time></trkpt><trkpt lat="40.61888049085627" lon="15.40188278102256"><ele>276.0</ele><time>2026-04-26T18:10:07Z</time></trkpt><trkpt lat="40.61892872938832" lon="15.402220317669048"><ele>273.0</ele><time>2026-04-26T18:10:08Z</time></trkpt><trkpt lat="40.61897949110364" lon="15.402558668523664"><ele>273.0</ele><time>2026-04-26T18:10:09Z</time></trkpt><trkpt lat="40.61903143569676" lon="15.402895843926137"><ele>273.0</ele><time>2026-04-26T18:10:10Z</time></trkpt><trkpt lat="40.619079428594446" lon="15.403235429896537"><ele>272.0</ele><time>2026-04-26T18:10:11Z</time></trkpt><trkpt lat="40.61912935033471" lon="15.403577556238822"><ele>271.0</ele><time>2026-04-26T18:10:12Z</time></trkpt><trkpt lat="40.619182418713045" lon="15.403923494169584"><ele>269.0</ele><time>2026-04-26T18:10:13Z</time></trkpt><trkpt lat="40.61923406710752" lon="15.40426846428389"><ele>267.0</ele><time>2026-04-26T18:10:14Z</time></trkpt><trkpt lat="40.6192880448716" lon="15.404616591814449"><ele>259.5</ele><time>2026-04-26T18:10:15Z</time></trkpt><trkpt lat="40.619343570196406" lon="15.404965830330061"><ele>252.0</ele><time>2026-04-26T18:10:16Z</time></trkpt><trkpt lat="40.61939750840231" lon="15.405317650088678"><ele>254.0</ele><time>2026-04-26T18:10:17Z</time></trkpt><trkpt lat="40.61945827617552" lon="15.405667361528781"><ele>256.0</ele><time>2026-04-26T18:10:18Z</time></trkpt><trkpt lat="40.61952185634948" lon="15.406016188927861"><ele>274.0</ele><time>2026-04-26T18:10:19Z</time></trkpt><trkpt lat="40.619575920391995" lon="15.40636935026599"><ele>292.0</ele><time>2026-04-26T18:10:20Z</time></trkpt><trkpt lat="40.61963032860257" lon="15.40671819010163"><ele>292.0</ele><time>2026-04-26T18:10:21Z</time></trkpt><trkpt lat="40.61967517081738" lon="15.407058912337902"><ele>292.0</ele><time>2026-04-26T18:10:22Z</time></trkpt><trkpt lat="40.6197249297971" lon="15.407399707722435"><ele>291.5</ele><time>2026-04-26T18:10:23Z</time></trkpt><trkpt lat="40.61976880676012" lon="15.407741997331932"><ele>291.0</ele><time>2026-04-26T18:10:24Z</time></trkpt><trkpt lat="40.6198072718754" lon="15.408081008068542"><ele>289.5</ele><time>2026-04-26T18:10:25Z</time></trkpt><trkpt lat="40.61984678539024" lon="15.408416758899982"><ele>288.0</ele><time>2026-04-26T18:10:26Z</time></trkpt><trkpt lat="40.619890825267284" lon="15.408753555595235"><ele>287.0</ele><time>2026-04-26T18:10:27Z</time></trkpt><trkpt lat="40.619932293464664" lon="15.409091531102693"><ele>286.0</ele><time>2026-04-26T18:10:28Z</time></trkpt><trkpt lat="40.619975138000065" lon="15.409427126659347"><ele>286.0</ele><time>2026-04-26T18:10:29Z</time></trkpt><trkpt lat="40.62001361736383" lon="15.409761091385795"><ele>286.0</ele><time>2026-04-26T18:10:30Z</time></trkpt><trkpt lat="40.620049562755796" lon="15.410092689044182"><ele>286.0</ele><time>2026-04-26T18:10:31Z</time></trkpt><trkpt lat="40.62008170511588" lon="15.410425421713832"><ele>286.0</ele><time>2026-04-26T18:10:32Z</time></trkpt><trkpt lat="40.620116651765244" lon="15.410756811226372"><ele>286.5</ele><time>2026-04-26T18:10:33Z</time></trkpt><trkpt lat="40.620157115767356" lon="15.411084397012154"><ele>287.0</ele><time>2026-04-26T18:10:34Z</time></trkpt><trkpt lat="40.620200054508075" lon="15.411412715251839"><ele>287.0</ele><time>2026-04-26T18:10:35Z</time></trkpt><trkpt lat="40.62023324851416" lon="15.411737879223987"><ele>287.0</ele><time>2026-04-26T18:10:36Z</time></trkpt><trkpt lat="40.62027925780943" lon="15.412057034215984"><ele>295.5</ele><time>2026-04-26T18:10:37Z</time></trkpt><trkpt lat="40.620322357383806" lon="15.412384931859817"><ele>304.0</ele><time>2026-04-26T18:10:38Z</time></trkpt><trkpt lat="40.62035713075204" lon="15.412716430149281"><ele>308.0</ele><time>2026-04-26T18:10:39Z</time></trkpt><trkpt lat="40.62039228996502" lon="15.413052414233912"><ele>312.0</ele><time>2026-04-26T18:10:40Z</time></trkpt><trkpt lat="40.620428498905405" lon="15.413389666967733"><ele>312.0</ele><time>2026-04-26T18:10:41Z</time></trkpt><trkpt lat="40.6204575912042" lon="15.41373069992677"><ele>312.0</ele><time>2026-04-26T18:10:42Z</time></trkpt><trkpt lat="40.62048875475831" lon="15.414073366636464"><ele>317.0</ele><time>2026-04-26T18:10:43Z</time></trkpt><trkpt lat="40.620535607615615" lon="15.414416165046239"><ele>322.0</ele><time>2026-04-26T18:10:44Z</time></trkpt><trkpt lat="40.620581163195865" lon="15.41476247276245"><ele>322.0</ele><time>2026-04-26T18:10:45Z</time></trkpt><trkpt lat="40.620633074623214" lon="15.41510708027188"><ele>322.0</ele><time>2026-04-26T18:10:46Z</time></trkpt><trkpt lat="40.620676387549494" lon="15.415454146407459"><ele>319.5</ele><time>2026-04-26T18:10:47Z</time></trkpt><trkpt lat="40.62072013135724" lon="15.415802748808833"><ele>317.0</ele><time>2026-04-26T18:10:48Z</time></trkpt><trkpt lat="40.6207626204808" lon="15.416151399077682"><ele>313.5</ele><time>2026-04-26T18:10:49Z</time></trkpt><trkpt lat="40.62080478775356" lon="15.416497997201292"><ele>310.0</ele><time>2026-04-26T18:10:50Z</time></trkpt><trkpt lat="40.62084845924989" lon="15.416849711878253"><ele>305.5</ele><time>2026-04-26T18:10:51Z</time></trkpt><trkpt lat="40.620887461515316" lon="15.417201049750194"><ele>301.0</ele><time>2026-04-26T18:10:52Z</time></trkpt><trkpt lat="40.620925265799706" lon="15.417552396096122"><ele>301.0</ele><time>2026-04-26T18:10:53Z</time></trkpt><trkpt lat="40.62096349308283" lon="15.417904189732019"><ele>301.0</ele><time>2026-04-26T18:10:54Z</time></trkpt><trkpt lat="40.621003420511" lon="15.418256330220165"><ele>304.0</ele><time>2026-04-26T18:10:55Z</time></trkpt><trkpt lat="40.621044615225635" lon="15.418604097002408"><ele>307.0</ele><time>2026-04-26T18:10:56Z</time></trkpt><trkpt lat="40.62107797663375" lon="15.41894810590053"><ele>311.5</ele><time>2026-04-26T18:10:57Z</time></trkpt><trkpt lat="40.621121989930096" lon="15.419290354446572"><ele>316.0</ele><time>2026-04-26T18:10:58Z</time></trkpt><trkpt lat="40.62116626977566" lon="15.419632738257455"><ele>341.5</ele><time>2026-04-26T18:10:59Z</time></trkpt><trkpt lat="40.621205239046134" lon="15.419972483640766"><ele>367.0</ele><time>2026-04-26T18:11:00Z</time></trkpt><trkpt lat="40.62122685143564" lon="15.420313805633892"><ele>368.0</ele><time>2026-04-26T18:11:01Z</time></trkpt><trkpt lat="40.62122841181813" lon="15.420662319623318"><ele>369.0</ele><time>2026-04-26T18:11:02Z</time></trkpt><trkpt lat="40.621209432716284" lon="15.4210095807904"><ele>366.5</ele><time>2026-04-26T18:11:03Z</time></trkpt><trkpt lat="40.62117001307681" lon="15.42135293685235"><ele>364.0</ele><time>2026-04-26T18:11:04Z</time></trkpt><trkpt lat="40.62111734241842" lon="15.421686842851107"><ele>346.0</ele><time>2026-04-26T18:11:05Z</time></trkpt><trkpt lat="40.62104756112064" lon="15.422016951241801"><ele>328.0</ele><time>2026-04-26T18:11:06Z</time></trkpt><trkpt lat="40.6209692877772" lon="15.4223453037166"><ele>328.0</ele><time>2026-04-26T18:11:07Z</time></trkpt><trkpt lat="40.62089685712699" lon="15.422677089868136"><ele>328.0</ele><time>2026-04-26T18:11:08Z</time></trkpt><trkpt lat="40.620833377661214" lon="15.423009482422149"><ele>329.5</ele><time>2026-04-26T18:11:09Z</time></trkpt><trkpt lat="40.62076877245861" lon="15.423339995294862"><ele>331.0</ele><time>2026-04-26T18:11:10Z</time></trkpt><trkpt lat="40.62070340644313" lon="15.42367543078631"><ele>332.0</ele><time>2026-04-26T18:11:11Z</time></trkpt><trkpt lat="40.620628637637964" lon="15.424004219825392"><ele>333.0</ele><time>2026-04-26T18:11:12Z</time></trkpt><trkpt lat="40.62055353743966" lon="15.424334436997231"><ele>337.5</ele><time>2026-04-26T18:11:13Z</time></trkpt><trkpt lat="40.62047781594631" lon="15.424662371561208"><ele>342.0</ele><time>2026-04-26T18:11:14Z</time></trkpt><trkpt lat="40.620405515604695" lon="15.424993139319948"><ele>342.0</ele><time>2026-04-26T18:11:15Z</time></trkpt><trkpt lat="40.620331657862" lon="15.42532242714924"><ele>342.0</ele><time>2026-04-26T18:11:16Z</time></trkpt><trkpt lat="40.620259682438764" lon="15.425654345665242"><ele>327.0</ele><time>2026-04-26T18:11:17Z</time></trkpt><trkpt lat="40.620192511026545" lon="15.425987852155444"><ele>312.0</ele><time>2026-04-26T18:11:18Z</time></trkpt><trkpt lat="40.62012958693509" lon="15.426318076695532"><ele>312.0</ele><time>2026-04-26T18:11:19Z</time></trkpt><trkpt lat="40.6200632185807" lon="15.426650114706204"><ele>312.0</ele><time>2026-04-26T18:11:20Z</time></trkpt><trkpt lat="40.619992927062476" lon="15.426979188263077"><ele>317.5</ele><time>2026-04-26T18:11:21Z</time></trkpt><trkpt lat="40.61992513532069" lon="15.427311776634586"><ele>323.0</ele><time>2026-04-26T18:11:22Z</time></trkpt><trkpt lat="40.619855856510256" lon="15.427648537147585"><ele>329.0</ele><time>2026-04-26T18:11:23Z</time></trkpt><trkpt lat="40.619790019481016" lon="15.427982508479651"><ele>335.0</ele><time>2026-04-26T18:11:24Z</time></trkpt><trkpt lat="40.619722150894205" lon="15.42831665953307"><ele>335.0</ele><time>2026-04-26T18:11:25Z</time></trkpt><trkpt lat="40.61965439980179" lon="15.428650359590993"><ele>335.0</ele><time>2026-04-26T18:11:26Z</time></trkpt><trkpt lat="40.61958862282892" lon="15.428981596827338"><ele>340.0</ele><time>2026-04-26T18:11:27Z</time></trkpt><trkpt lat="40.61952349049354" lon="15.429313486536822"><ele>345.0</ele><time>2026-04-26T18:11:28Z</time></trkpt><trkpt lat="40.61945491228001" lon="15.429650365424799"><ele>326.0</ele><time>2026-04-26T18:11:29Z</time></trkpt><trkpt lat="40.61938069504416" lon="15.429985390890204"><ele>307.0</ele><time>2026-04-26T18:11:30Z</time></trkpt><trkpt lat="40.619313948400475" lon="15.430317076581835"><ele>310.5</ele><time>2026-04-26T18:11:31Z</time></trkpt><trkpt lat="40.61924547751888" lon="15.43065409844346"><ele>314.0</ele><time>2026-04-26T18:11:32Z</time></trkpt><trkpt lat="40.619177749989326" lon="15.430990640601399"><ele>316.5</ele><time>2026-04-26T18:11:33Z</time></trkpt><trkpt lat="40.6191130208179" lon="15.43132724009729"><ele>319.0</ele><time>2026-04-26T18:11:34Z</time></trkpt><trkpt lat="40.61905413333037" lon="15.431668549744227"><ele>319.0</ele><time>2026-04-26T18:11:35Z</time></trkpt><trkpt lat="40.61899485262709" lon="15.432008628435996"><ele>319.0</ele><time>2026-04-26T18:11:36Z</time></trkpt><trkpt lat="40.61893924298916" lon="15.432350020721888"><ele>325.5</ele><time>2026-04-26T18:11:37Z</time></trkpt><trkpt lat="40.618883035053216" lon="15.432690441082347"><ele>332.0</ele><time>2026-04-26T18:11:38Z</time></trkpt><trkpt lat="40.61883029746806" lon="15.433031455079547"><ele>332.0</ele><time>2026-04-26T18:11:39Z</time></trkpt><trkpt lat="40.61878005921192" lon="15.43337560909227"><ele>332.0</ele><time>2026-04-26T18:11:40Z</time></trkpt><trkpt lat="40.61873418236603" lon="15.433719058206316"><ele>330.5</ele><time>2026-04-26T18:11:41Z</time></trkpt><trkpt lat="40.618691698913906" lon="15.434064319983742"><ele>329.0</ele><time>2026-04-26T18:11:42Z</time></trkpt><trkpt lat="40.6186511050131" lon="15.43440764849508"><ele>324.5</ele><time>2026-04-26T18:11:43Z</time></trkpt><trkpt lat="40.618618683997624" lon="15.434755280207696"><ele>320.0</ele><time>2026-04-26T18:11:44Z</time></trkpt><trkpt lat="40.61858143681771" lon="15.435103347211852"><ele>320.0</ele><time>2026-04-26T18:11:45Z</time></trkpt><trkpt lat="40.61854261564194" lon="15.435450500639696"><ele>320.0</ele><time>2026-04-26T18:11:46Z</time></trkpt><trkpt lat="40.61851024202297" lon="15.435796055182333"><ele>327.5</ele><time>2026-04-26T18:11:47Z</time></trkpt><trkpt lat="40.61847289555449" lon="15.436141443913765"><ele>335.0</ele><time>2026-04-26T18:11:48Z</time></trkpt><trkpt lat="40.618430157359825" lon="15.43649054685715"><ele>346.0</ele><time>2026-04-26T18:11:49Z</time></trkpt><trkpt lat="40.61837862410661" lon="15.436835403100137"><ele>357.0</ele><time>2026-04-26T18:11:50Z</time></trkpt><trkpt lat="40.618316976002575" lon="15.437176337296608"><ele>373.5</ele><time>2026-04-26T18:11:51Z</time></trkpt><trkpt lat="40.618250906499334" lon="15.437512580956454"><ele>390.0</ele><time>2026-04-26T18:11:52Z</time></trkpt><trkpt lat="40.61817800350591" lon="15.43784919885093"><ele>401.0</ele><time>2026-04-26T18:11:53Z</time></trkpt><trkpt lat="40.61810007055577" lon="15.438183855863576"><ele>412.0</ele><time>2026-04-26T18:11:54Z</time></trkpt><trkpt lat="40.61801719654759" lon="15.438516180528307"><ele>420.5</ele><time>2026-04-26T18:11:55Z</time></trkpt><trkpt lat="40.61792652124783" lon="15.438843821382527"><ele>429.0</ele><time>2026-04-26T18:11:56Z</time></trkpt><trkpt lat="40.61782675857593" lon="15.439167726938804"><ele>416.0</ele><time>2026-04-26T18:11:57Z</time></trkpt><trkpt lat="40.61772057176426" lon="15.439492592970852"><ele>403.0</ele><time>2026-04-26T18:11:58Z</time></trkpt><trkpt lat="40.61760715257579" lon="15.439814968135982"><ele>403.0</ele><time>2026-04-26T18:11:59Z</time></trkpt><trkpt lat="40.61749864859639" lon="15.44014024840085"><ele>403.0</ele><time>2026-04-26T18:12:00Z</time></trkpt><trkpt lat="40.61739371929849" lon="15.440464664924129"><ele>412.0</ele><time>2026-04-26T18:12:01Z</time></trkpt><trkpt lat="40.61728858796294" lon="15.440793353433586"><ele>421.0</ele><time>2026-04-26T18:12:02Z</time></trkpt><trkpt lat="40.61718018168289" lon="15.441122328632021"><ele>426.5</ele><time>2026-04-26T18:12:03Z</time></trkpt><trkpt lat="40.61706932116884" lon="15.44144954348956"><ele>432.0</ele><time>2026-04-26T18:12:04Z</time></trkpt><trkpt lat="40.61696345138277" lon="15.441781934728674"><ele>417.0</ele><time>2026-04-26T18:12:05Z</time></trkpt><trkpt lat="40.61685598287579" lon="15.442112118101749"><ele>402.0</ele><time>2026-04-26T18:12:06Z</time></trkpt><trkpt lat="40.61674397960578" lon="15.442445021922643"><ele>400.5</ele><time>2026-04-26T18:12:07Z</time></trkpt><trkpt lat="40.61663135075203" lon="15.442780575824578"><ele>399.0</ele><time>2026-04-26T18:12:08Z</time></trkpt><trkpt lat="40.6165267871223" lon="15.44311919234153"><ele>399.0</ele><time>2026-04-26T18:12:09Z</time></trkpt><trkpt lat="40.61643129830862" lon="15.443458355998747"><ele>399.0</ele><time>2026-04-26T18:12:10Z</time></trkpt><trkpt lat="40.616337285977075" lon="15.443801378566368"><ele>410.5</ele><time>2026-04-26T18:12:11Z</time></trkpt><trkpt lat="40.616246527945876" lon="15.44414893235082"><ele>422.0</ele><time>2026-04-26T18:12:12Z</time></trkpt><trkpt lat="40.616162999539405" lon="15.444500483277404"><ele>414.0</ele><time>2026-04-26T18:12:13Z</time></trkpt><trkpt lat="40.61607720710051" lon="15.444850680704842"><ele>406.0</ele><time>2026-04-26T18:12:14Z</time></trkpt><trkpt lat="40.61599729531577" lon="15.445200434541611"><ele>410.5</ele><time>2026-04-26T18:12:15Z</time></trkpt><trkpt lat="40.61592874812438" lon="15.445549261804212"><ele>415.0</ele><time>2026-04-26T18:12:16Z</time></trkpt><trkpt lat="40.61586536881238" lon="15.44590441570584"><ele>415.0</ele><time>2026-04-26T18:12:17Z</time></trkpt><trkpt lat="40.61580682713494" lon="15.446261274261634"><ele>415.0</ele><time>2026-04-26T18:12:18Z</time></trkpt><trkpt lat="40.6157557461813" lon="15.446621969250964"><ele>418.5</ele><time>2026-04-26T18:12:19Z</time></trkpt><trkpt lat="40.61570687639443" lon="15.44698303784482"><ele>422.0</ele><time>2026-04-26T18:12:20Z</time></trkpt><trkpt lat="40.615661435492605" lon="15.447347086540086"><ele>424.0</ele><time>2026-04-26T18:12:21Z</time></trkpt><trkpt lat="40.61562697884908" lon="15.447712527193572"><ele>426.0</ele><time>2026-04-26T18:12:22Z</time></trkpt><trkpt lat="40.61559926330145" lon="15.448081650792021"><ele>427.5</ele><time>2026-04-26T18:12:23Z</time></trkpt><trkpt lat="40.61557360126181" lon="15.448447104425057"><ele>429.0</ele><time>2026-04-26T18:12:24Z</time></trkpt><trkpt lat="40.61554892059562" lon="15.448817333863424"><ele>429.0</ele><time>2026-04-26T18:12:25Z</time></trkpt><trkpt lat="40.615526020169256" lon="15.44918824872763"><ele>429.0</ele><time>2026-04-26T18:12:26Z</time></trkpt><trkpt lat="40.61550464356221" lon="15.449560734336492"><ele>424.5</ele><time>2026-04-26T18:12:27Z</time></trkpt><trkpt lat="40.615474274719176" lon="15.44993248647158"><ele>420.0</ele><time>2026-04-26T18:12:28Z</time></trkpt><trkpt lat="40.61544164108652" lon="15.450305278061402"><ele>413.5</ele><time>2026-04-26T18:12:29Z</time></trkpt><trkpt lat="40.6154169549373" lon="15.45068013821291"><ele>407.0</ele><time>2026-04-26T18:12:30Z</time></trkpt><trkpt lat="40.61539041090102" lon="15.451052570343238"><ele>392.0</ele><time>2026-04-26T18:12:31Z</time></trkpt><trkpt lat="40.615361107841" lon="15.451427974906439"><ele>377.0</ele><time>2026-04-26T18:12:32Z</time></trkpt><trkpt lat="40.61533419542194" lon="15.451803427020748"><ele>371.5</ele><time>2026-04-26T18:12:33Z</time></trkpt><trkpt lat="40.615306261735995" lon="15.452179631210766"><ele>366.0</ele><time>2026-04-26T18:12:34Z</time></trkpt><trkpt lat="40.61528055386725" lon="15.452556362309211"><ele>366.0</ele><time>2026-04-26T18:12:35Z</time></trkpt><trkpt lat="40.61525046810106" lon="15.452933574587407"><ele>366.0</ele><time>2026-04-26T18:12:36Z</time></trkpt><trkpt lat="40.61521751847859" lon="15.453311057315997"><ele>339.0</ele><time>2026-04-26T18:12:37Z</time></trkpt><trkpt lat="40.615188333930526" lon="15.453689393481833"><ele>312.0</ele><time>2026-04-26T18:12:38Z</time></trkpt><trkpt lat="40.61515804264211" lon="15.454070171051727"><ele>298.5</ele><time>2026-04-26T18:12:39Z</time></trkpt><trkpt lat="40.61513298956995" lon="15.454451055431642"><ele>285.0</ele><time>2026-04-26T18:12:40Z</time></trkpt><trkpt lat="40.615107693223145" lon="15.454834364753772"><ele>321.0</ele><time>2026-04-26T18:12:41Z</time></trkpt><trkpt lat="40.615081947637044" lon="15.455218560559391"><ele>357.0</ele><time>2026-04-26T18:12:42Z</time></trkpt><trkpt lat="40.61505541161004" lon="15.455602513775377"><ele>366.5</ele><time>2026-04-26T18:12:43Z</time></trkpt><trkpt lat="40.615026632444916" lon="15.455986064211814"><ele>376.0</ele><time>2026-04-26T18:12:44Z</time></trkpt><trkpt lat="40.61500279271711" lon="15.456371586036907"><ele>380.0</ele><time>2026-04-26T18:12:45Z</time></trkpt><trkpt lat="40.614980581549105" lon="15.456756613345314"><ele>384.0</ele><time>2026-04-26T18:12:46Z</time></trkpt><trkpt lat="40.61495280917479" lon="15.457137762462333"><ele>395.0</ele><time>2026-04-26T18:12:47Z</time></trkpt><trkpt lat="40.61492852926317" lon="15.45751876395872"><ele>406.0</ele><time>2026-04-26T18:12:48Z</time></trkpt><trkpt lat="40.61489625078619" lon="15.457895985811103"><ele>416.0</ele><time>2026-04-26T18:12:49Z</time></trkpt><trkpt lat="40.61485379260822" lon="15.458268551766087"><ele>426.0</ele><time>2026-04-26T18:12:50Z</time></trkpt><trkpt lat="40.61479172381886" lon="15.458635192616516"><ele>435.5</ele><time>2026-04-26T18:12:51Z</time></trkpt><trkpt lat="40.614720105752475" lon="15.458997709064937"><ele>445.0</ele><time>2026-04-26T18:12:52Z</time></trkpt><trkpt lat="40.61463955561284" lon="15.45935578595001"><ele>454.0</ele><time>2026-04-26T18:12:53Z</time></trkpt><trkpt lat="40.61455726372622" lon="15.459705123162495"><ele>463.0</ele><time>2026-04-26T18:12:54Z</time></trkpt><trkpt lat="40.61447280830597" lon="15.460050681708246"><ele>440.0</ele><time>2026-04-26T18:12:55Z</time></trkpt><trkpt lat="40.61439648344389" lon="15.460397539981352"><ele>417.0</ele><time>2026-04-26T18:12:56Z</time></trkpt><trkpt lat="40.6143224023201" lon="15.46073907219147"><ele>417.0</ele><time>2026-04-26T18:12:57Z</time></trkpt><trkpt lat="40.61424241573695" lon="15.461079446474171"><ele>417.0</ele><time>2026-04-26T18:12:58Z</time></trkpt><trkpt lat="40.61416484059239" lon="15.461419449553983"><ele>425.5</ele><time>2026-04-26T18:12:59Z</time></trkpt><trkpt lat="40.61408518726285" lon="15.461757332575097"><ele>434.0</ele><time>2026-04-26T18:13:00Z</time></trkpt><trkpt lat="40.614007531630854" lon="15.462094784441447"><ele>440.5</ele><time>2026-04-26T18:13:01Z</time></trkpt><trkpt lat="40.61393154652658" lon="15.462432487173508"><ele>447.0</ele><time>2026-04-26T18:13:02Z</time></trkpt><trkpt lat="40.61385484578065" lon="15.462763038868218"><ele>452.0</ele><time>2026-04-26T18:13:03Z</time></trkpt><trkpt lat="40.61377405641173" lon="15.463093123677583"><ele>457.0</ele><time>2026-04-26T18:13:04Z</time></trkpt><trkpt lat="40.613694887814866" lon="15.46342084623859"><ele>440.5</ele><time>2026-04-26T18:13:05Z</time></trkpt><trkpt lat="40.61361991192698" lon="15.463748017836684"><ele>424.0</ele><time>2026-04-26T18:13:06Z</time></trkpt><trkpt lat="40.61354695067208" lon="15.464076234132486"><ele>424.0</ele><time>2026-04-26T18:13:07Z</time></trkpt><trkpt lat="40.61347658135879" lon="15.46440083864793"><ele>424.0</ele><time>2026-04-26T18:13:08Z</time></trkpt><trkpt lat="40.613400763766435" lon="15.46472106725144"><ele>430.0</ele><time>2026-04-26T18:13:09Z</time></trkpt><trkpt lat="40.6133185383919" lon="15.46503967919825"><ele>436.0</ele><time>2026-04-26T18:13:10Z</time></trkpt><trkpt lat="40.61322822693032" lon="15.465356094282528"><ele>443.0</ele><time>2026-04-26T18:13:11Z</time></trkpt><trkpt lat="40.613131205940185" lon="15.465665381482529"><ele>450.0</ele><time>2026-04-26T18:13:12Z</time></trkpt><trkpt lat="40.613028854113224" lon="15.465971470502183"><ele>455.5</ele><time>2026-04-26T18:13:13Z</time></trkpt><trkpt lat="40.612923900039654" lon="15.466279187848704"><ele>461.0</ele><time>2026-04-26T18:13:14Z</time></trkpt><trkpt lat="40.61281488562169" lon="15.466586853545682"><ele>451.5</ele><time>2026-04-26T18:13:15Z</time></trkpt><trkpt lat="40.612696144818024" lon="15.466890233666335"><ele>442.0</ele><time>2026-04-26T18:13:16Z</time></trkpt><trkpt lat="40.61257858234801" lon="15.467193996790611"><ele>442.0</ele><time>2026-04-26T18:13:17Z</time></trkpt><trkpt lat="40.61246042376517" lon="15.467498072211326"><ele>442.0</ele><time>2026-04-26T18:13:18Z</time></trkpt><trkpt lat="40.61234495426124" lon="15.467792260267569"><ele>451.5</ele><time>2026-04-26T18:13:19Z</time></trkpt><trkpt lat="40.61223579084416" lon="15.46807893078178"><ele>461.0</ele><time>2026-04-26T18:13:20Z</time></trkpt><trkpt lat="40.61212885068076" lon="15.4683642660252"><ele>461.0</ele><time>2026-04-26T18:13:21Z</time></trkpt><trkpt lat="40.61203467890732" lon="15.468660189042529"><ele>461.0</ele><time>2026-04-26T18:13:22Z</time></trkpt><trkpt lat="40.61195233215454" lon="15.46895839405995"><ele>457.5</ele><time>2026-04-26T18:13:23Z</time></trkpt><trkpt lat="40.611884274022046" lon="15.46926221177423"><ele>454.0</ele><time>2026-04-26T18:13:24Z</time></trkpt><trkpt lat="40.61182695303915" lon="15.469568629547904"><ele>458.5</ele><time>2026-04-26T18:13:25Z</time></trkpt><trkpt lat="40.61178205083599" lon="15.469873726023279"><ele>463.0</ele><time>2026-04-26T18:13:26Z</time></trkpt><trkpt lat="40.611748959034806" lon="15.470184098573338"><ele>468.0</ele><time>2026-04-26T18:13:27Z</time></trkpt><trkpt lat="40.61172726384444" lon="15.4704950764738"><ele>473.0</ele><time>2026-04-26T18:13:28Z</time></trkpt><trkpt lat="40.61171959549169" lon="15.470805919296957"><ele>473.0</ele><time>2026-04-26T18:13:29Z</time></trkpt><trkpt lat="40.6117279401626" lon="15.471112991174522"><ele>473.0</ele><time>2026-04-26T18:13:30Z</time></trkpt><trkpt lat="40.61174571087278" lon="15.471422699022849"><ele>475.5</ele><time>2026-04-26T18:13:31Z</time></trkpt><trkpt lat="40.611779546365035" lon="15.471733312440275"><ele>478.0</ele><time>2026-04-26T18:13:32Z</time></trkpt><trkpt lat="40.611825170411045" lon="15.472045019082058"><ele>477.0</ele><time>2026-04-26T18:13:33Z</time></trkpt><trkpt lat="40.611881974463685" lon="15.472354952654136"><ele>476.0</ele><time>2026-04-26T18:13:34Z</time></trkpt><trkpt lat="40.61195140526859" lon="15.47266272875824"><ele>484.5</ele><time>2026-04-26T18:13:35Z</time></trkpt><trkpt lat="40.612034861219755" lon="15.472969951709075"><ele>493.0</ele><time>2026-04-26T18:13:36Z</time></trkpt><trkpt lat="40.61212908793927" lon="15.473270627833418"><ele>493.0</ele><time>2026-04-26T18:13:37Z</time></trkpt><trkpt lat="40.612237267974244" lon="15.4735669807262"><ele>493.0</ele><time>2026-04-26T18:13:38Z</time></trkpt><trkpt lat="40.61235924354078" lon="15.473854617255595"><ele>492.5</ele><time>2026-04-26T18:13:39Z</time></trkpt><trkpt lat="40.61249804968084" lon="15.474135710035426"><ele>492.0</ele><time>2026-04-26T18:13:40Z</time></trkpt><trkpt lat="40.612645911612695" lon="15.47440696176765"><ele>491.0</ele><time>2026-04-26T18:13:41Z</time></trkpt><trkpt lat="40.612808807718714" lon="15.474666197064389"><ele>490.0</ele><time>2026-04-26T18:13:42Z</time></trkpt><trkpt lat="40.6129811768211" lon="15.47491476405006"><ele>495.0</ele><time>2026-04-26T18:13:43Z</time></trkpt><trkpt lat="40.613160790805466" lon="15.47515600149677"><ele>500.0</ele><time>2026-04-26T18:13:44Z</time></trkpt><trkpt lat="40.61334408072865" lon="15.475394417554268"><ele>499.5</ele><time>2026-04-26T18:13:45Z</time></trkpt><trkpt lat="40.613529728323506" lon="15.475635336416664"><ele>499.0</ele><time>2026-04-26T18:13:46Z</time></trkpt><trkpt lat="40.61371725181726" lon="15.475876955424894"><ele>499.0</ele><time>2026-04-26T18:13:47Z</time></trkpt><trkpt lat="40.613904167158815" lon="15.47611874754961"><ele>499.0</ele><time>2026-04-26T18:13:48Z</time></trkpt><trkpt lat="40.61409711999462" lon="15.476364105962558"><ele>494.0</ele><time>2026-04-26T18:13:49Z</time></trkpt><trkpt lat="40.61428279832161" lon="15.476609263579038"><ele>489.0</ele><time>2026-04-26T18:13:50Z</time></trkpt><trkpt lat="40.61447323576328" lon="15.476853974225685"><ele>495.0</ele><time>2026-04-26T18:13:51Z</time></trkpt><trkpt lat="40.61466220474324" lon="15.477097942484434"><ele>501.0</ele><time>2026-04-26T18:13:52Z</time></trkpt><trkpt lat="40.614852218984176" lon="15.477345459890273"><ele>501.0</ele><time>2026-04-26T18:13:53Z</time></trkpt><trkpt lat="40.61504027814433" lon="15.477593108049117"><ele>501.0</ele><time>2026-04-26T18:13:54Z</time></trkpt><trkpt lat="40.615227904259996" lon="15.477842299854771"><ele>508.5</ele><time>2026-04-26T18:13:55Z</time></trkpt><trkpt lat="40.61541913537917" lon="15.47809252899377"><ele>516.0</ele><time>2026-04-26T18:13:56Z</time></trkpt><trkpt lat="40.61560728324995" lon="15.478342898788267"><ele>516.0</ele><time>2026-04-26T18:13:57Z</time></trkpt><trkpt lat="40.61580174984079" lon="15.478593372675041"><ele>516.0</ele><time>2026-04-26T18:13:58Z</time></trkpt><trkpt lat="40.61598955352786" lon="15.478847800595462"><ele>523.0</ele><time>2026-04-26T18:13:59Z</time></trkpt><trkpt lat="40.61617309513087" lon="15.47908238463505"><ele>530.0</ele><time>2026-04-26T18:14:00Z</time></trkpt><trkpt lat="40.616340424547865" lon="15.47930053038006"><ele>530.0</ele><time>2026-04-26T18:14:01Z</time></trkpt><trkpt lat="40.61649893476495" lon="15.479517515541941"><ele>530.0</ele><time>2026-04-26T18:14:02Z</time></trkpt><trkpt lat="40.616652454654805" lon="15.479745946894578"><ele>524.0</ele><time>2026-04-26T18:14:03Z</time></trkpt><trkpt lat="40.6168147039002" lon="15.479977679526092"><ele>518.0</ele><time>2026-04-26T18:14:04Z</time></trkpt><trkpt lat="40.616948533374426" lon="15.480222893108966"><ele>521.5</ele><time>2026-04-26T18:14:05Z</time></trkpt><trkpt lat="40.61706867783356" lon="15.480477791680915"><ele>525.0</ele><time>2026-04-26T18:14:06Z</time></trkpt><trkpt lat="40.61718315947109" lon="15.480735321995933"><ele>525.0</ele><time>2026-04-26T18:14:07Z</time></trkpt><trkpt lat="40.617294144958194" lon="15.480998601024991"><ele>525.0</ele><time>2026-04-26T18:14:08Z</time></trkpt><trkpt lat="40.61739889100436" lon="15.48127164039351"><ele>522.5</ele><time>2026-04-26T18:14:09Z</time></trkpt><trkpt lat="40.61749293822074" lon="15.481553435128586"><ele>520.0</ele><time>2026-04-26T18:14:10Z</time></trkpt><trkpt lat="40.61758302106046" lon="15.481839839711538"><ele>519.0</ele><time>2026-04-26T18:14:11Z</time></trkpt><trkpt lat="40.61766499893144" lon="15.482133008055321"><ele>518.0</ele><time>2026-04-26T18:14:12Z</time></trkpt><trkpt lat="40.617734662625196" lon="15.482435086705827"><ele>518.0</ele><time>2026-04-26T18:14:13Z</time></trkpt><trkpt lat="40.61779362552764" lon="15.482742925505168"><ele>518.0</ele><time>2026-04-26T18:14:14Z</time></trkpt><trkpt lat="40.61784274067489" lon="15.483055290836695"><ele>524.5</ele><time>2026-04-26T18:14:15Z</time></trkpt><trkpt lat="40.61788539915753" lon="15.483372675610283"><ele>531.0</ele><time>2026-04-26T18:14:16Z</time></trkpt><trkpt lat="40.61791385466231" lon="15.483695776215995"><ele>532.5</ele><time>2026-04-26T18:14:17Z</time></trkpt><trkpt lat="40.617931512452486" lon="15.484024388989786"><ele>534.0</ele><time>2026-04-26T18:14:18Z</time></trkpt><trkpt lat="40.61794030227397" lon="15.484353377699456"><ele>537.0</ele><time>2026-04-26T18:14:19Z</time></trkpt><trkpt lat="40.617934668758075" lon="15.484684126797019"><ele>540.0</ele><time>2026-04-26T18:14:20Z</time></trkpt><trkpt lat="40.61791801331941" lon="15.48501668864002"><ele>540.0</ele><time>2026-04-26T18:14:21Z</time></trkpt><trkpt lat="40.617889964414175" lon="15.485348622661439"><ele>540.0</ele><time>2026-04-26T18:14:22Z</time></trkpt><trkpt lat="40.61784702701781" lon="15.485682173077317"><ele>540.0</ele><time>2026-04-26T18:14:23Z</time></trkpt><trkpt lat="40.6177920472374" lon="15.48601110567642"><ele>540.0</ele><time>2026-04-26T18:14:24Z</time></trkpt><trkpt lat="40.61772486194781" lon="15.486339113373097"><ele>540.0</ele><time>2026-04-26T18:14:25Z</time></trkpt><trkpt lat="40.61765059916597" lon="15.486662729796459"><ele>540.0</ele><time>2026-04-26T18:14:26Z</time></trkpt><trkpt lat="40.61755987464003" lon="15.48698256092871"><ele>543.5</ele><time>2026-04-26T18:14:27Z</time></trkpt><trkpt lat="40.61747118005859" lon="15.487298838311704"><ele>547.0</ele><time>2026-04-26T18:14:28Z</time></trkpt><trkpt lat="40.61739406835498" lon="15.487627662138658"><ele>550.0</ele><time>2026-04-26T18:14:29Z</time></trkpt><trkpt lat="40.617317092521695" lon="15.487955585246382"><ele>553.0</ele><time>2026-04-26T18:14:30Z</time></trkpt><trkpt lat="40.61723767127059" lon="15.48828129674329"><ele>553.0</ele><time>2026-04-26T18:14:31Z</time></trkpt><trkpt lat="40.61715665654705" lon="15.488609962353527"><ele>553.0</ele><time>2026-04-26T18:14:32Z</time></trkpt><trkpt lat="40.6170812504665" lon="15.488941394640513"><ele>556.5</ele><time>2026-04-26T18:14:33Z</time></trkpt><trkpt lat="40.617015572166615" lon="15.489276555122517"><ele>560.0</ele><time>2026-04-26T18:14:34Z</time></trkpt><trkpt lat="40.61696503906034" lon="15.489613380503085"><ele>560.0</ele><time>2026-04-26T18:14:35Z</time></trkpt><trkpt lat="40.616931885615536" lon="15.48995416542707"><ele>560.0</ele><time>2026-04-26T18:14:36Z</time></trkpt><trkpt lat="40.61691147646313" lon="15.490296050848453"><ele>561.5</ele><time>2026-04-26T18:14:37Z</time></trkpt><trkpt lat="40.616909968606485" lon="15.490638958932546"><ele>563.0</ele><time>2026-04-26T18:14:38Z</time></trkpt><trkpt lat="40.616904566708094" lon="15.490979446743827"><ele>563.5</ele><time>2026-04-26T18:14:39Z</time></trkpt><trkpt lat="40.61692821147042" lon="15.491320134436013"><ele>564.0</ele><time>2026-04-26T18:14:40Z</time></trkpt><trkpt lat="40.61696765397986" lon="15.49166059281885"><ele>569.5</ele><time>2026-04-26T18:14:41Z</time></trkpt><trkpt lat="40.617020026709675" lon="15.491997963646588"><ele>575.0</ele><time>2026-04-26T18:14:42Z</time></trkpt><trkpt lat="40.61708606177163" lon="15.492330440537764"><ele>575.0</ele><time>2026-04-26T18:14:43Z</time></trkpt><trkpt lat="40.61717364741436" lon="15.492658865175857"><ele>575.0</ele><time>2026-04-26T18:14:44Z</time></trkpt><trkpt lat="40.61727196609033" lon="15.49298151175857"><ele>573.5</ele><time>2026-04-26T18:14:45Z</time></trkpt><trkpt lat="40.6173910600426" lon="15.493293641466382"><ele>572.0</ele><time>2026-04-26T18:14:46Z</time></trkpt><trkpt lat="40.617525463398344" lon="15.49360000693265"><ele>570.0</ele><time>2026-04-26T18:14:47Z</time></trkpt><trkpt lat="40.617664588251145" lon="15.49389554841502"><ele>568.0</ele><time>2026-04-26T18:14:48Z</time></trkpt><trkpt lat="40.617815044809305" lon="15.494184829072687"><ele>570.5</ele><time>2026-04-26T18:14:49Z</time></trkpt><trkpt lat="40.617975734385794" lon="15.494471648307792"><ele>573.0</ele><time>2026-04-26T18:14:50Z</time></trkpt><trkpt lat="40.61813328297183" lon="15.494760346265377"><ele>573.0</ele><time>2026-04-26T18:14:51Z</time></trkpt><trkpt lat="40.618296333498016" lon="15.495052371328473"><ele>573.0</ele><time>2026-04-26T18:14:52Z</time></trkpt><trkpt lat="40.618457583166986" lon="15.495344505611428"><ele>570.0</ele><time>2026-04-26T18:14:53Z</time></trkpt><trkpt lat="40.61861662296922" lon="15.495639931284696"><ele>567.0</ele><time>2026-04-26T18:14:54Z</time></trkpt><trkpt lat="40.6187799879315" lon="15.49593594532515"><ele>569.5</ele><time>2026-04-26T18:14:55Z</time></trkpt><trkpt lat="40.61893931551974" lon="15.496234093020233"><ele>572.0</ele><time>2026-04-26T18:14:56Z</time></trkpt><trkpt lat="40.61910031473254" lon="15.496529715026305"><ele>572.0</ele><time>2026-04-26T18:14:57Z</time></trkpt><trkpt lat="40.61926118737289" lon="15.496821199510746"><ele>572.0</ele><time>2026-04-26T18:14:58Z</time></trkpt><trkpt lat="40.619414874780304" lon="15.497104873219406"><ele>578.5</ele><time>2026-04-26T18:14:59Z</time></trkpt><trkpt lat="40.619549273701004" lon="15.497386387806936"><ele>585.0</ele><time>2026-04-26T18:15:00Z</time></trkpt><trkpt lat="40.619668167848644" lon="15.497675523615708"><ele>585.5</ele><time>2026-04-26T18:15:01Z</time></trkpt><trkpt lat="40.61977712052617" lon="15.497973073900473"><ele>586.0</ele><time>2026-04-26T18:15:02Z</time></trkpt><trkpt lat="40.61987979836403" lon="15.498268650029777"><ele>586.0</ele><time>2026-04-26T18:15:03Z</time></trkpt><trkpt lat="40.6199777133249" lon="15.498561817413204"><ele>586.0</ele><time>2026-04-26T18:15:04Z</time></trkpt><trkpt lat="40.6200753677562" lon="15.498860665602852"><ele>583.0</ele><time>2026-04-26T18:15:05Z</time></trkpt><trkpt lat="40.620162086653345" lon="15.499165790803508"><ele>580.0</ele><time>2026-04-26T18:15:06Z</time></trkpt><trkpt lat="40.62023406625573" lon="15.499476809015453"><ele>576.0</ele><time>2026-04-26T18:15:07Z</time></trkpt><trkpt lat="40.62029794230404" lon="15.499795529827542"><ele>572.0</ele><time>2026-04-26T18:15:08Z</time></trkpt><trkpt lat="40.62036118194526" lon="15.500117210895842"><ele>576.5</ele><time>2026-04-26T18:15:09Z</time></trkpt><trkpt lat="40.620406613731866" lon="15.500442232231025"><ele>581.0</ele><time>2026-04-26T18:15:10Z</time></trkpt><trkpt lat="40.62044725487745" lon="15.500767698156826"><ele>581.0</ele><time>2026-04-26T18:15:11Z</time></trkpt><trkpt lat="40.62048259618373" lon="15.501094182601458"><ele>581.0</ele><time>2026-04-26T18:15:12Z</time></trkpt><trkpt lat="40.62051310895181" lon="15.501422206187398"><ele>580.5</ele><time>2026-04-26T18:15:13Z</time></trkpt><trkpt lat="40.62053875567563" lon="15.5017524465013"><ele>580.0</ele><time>2026-04-26T18:15:14Z</time></trkpt><trkpt lat="40.620565757178504" lon="15.502084240902828"><ele>582.5</ele><time>2026-04-26T18:15:15Z</time></trkpt><trkpt lat="40.62059477208005" lon="15.502414108046779"><ele>585.0</ele><time>2026-04-26T18:15:16Z</time></trkpt><trkpt lat="40.620627585812926" lon="15.502745680135778"><ele>592.5</ele><time>2026-04-26T18:15:17Z</time></trkpt><trkpt lat="40.62065590544629" lon="15.503079476606764"><ele>600.0</ele><time>2026-04-26T18:15:18Z</time></trkpt><trkpt lat="40.62068673466541" lon="15.503416180453375"><ele>621.0</ele><time>2026-04-26T18:15:19Z</time></trkpt><trkpt lat="40.62071953624195" lon="15.5037505450159"><ele>642.0</ele><time>2026-04-26T18:15:20Z</time></trkpt><trkpt lat="40.620750651487995" lon="15.504090879103595"><ele>642.0</ele><time>2026-04-26T18:15:21Z</time></trkpt><trkpt lat="40.62077853608663" lon="15.504438598085986"><ele>642.0</ele><time>2026-04-26T18:15:22.01Z</time></trkpt><trkpt lat="40.620806533469604" lon="15.504786486419478"><ele>662.5</ele><time>2026-04-26T18:15:23.013Z</time></trkpt><trkpt lat="40.62083452762443" lon="15.505136295255184"><ele>683.0</ele><time>2026-04-26T18:15:24.013Z</time></trkpt><trkpt lat="40.62086450097221" lon="15.505488807445593"><ele>696.5</ele><time>2026-04-26T18:15:25.012Z</time></trkpt><trkpt lat="40.62089657499769" lon="15.505842698792302"><ele>710.0</ele><time>2026-04-26T18:15:26.012Z</time></trkpt><trkpt lat="40.621312600598316" lon="15.510844253018043"><ele>651.0</ele><time>2026-04-26T18:15:41Z</time></trkpt><trkpt lat="40.62136826119587" lon="15.511143660658155"><ele>592.0</ele><time>2026-04-26T18:15:42Z</time></trkpt><trkpt lat="40.621468857989626" lon="15.51144783089529"><ele>588.0</ele><time>2026-04-26T18:15:43Z</time></trkpt><trkpt lat="40.621576040639624" lon="15.511746815422102"><ele>584.0</ele><time>2026-04-26T18:15:44Z</time></trkpt><trkpt lat="40.62167325534287" lon="15.512043579100125"><ele>581.5</ele><time>2026-04-26T18:15:45Z</time></trkpt><trkpt lat="40.621769499738264" lon="15.512343291433782"><ele>579.0</ele><time>2026-04-26T18:15:46Z</time></trkpt><trkpt lat="40.621867027390735" lon="15.512646507110803"><ele>581.5</ele><time>2026-04-26T18:15:47Z</time></trkpt><trkpt lat="40.62196970161441" lon="15.512954400404823"><ele>584.0</ele><time>2026-04-26T18:15:48Z</time></trkpt><trkpt lat="40.62207454188521" lon="15.51326316397022"><ele>584.0</ele><time>2026-04-26T18:15:49Z</time></trkpt><trkpt lat="40.622178881443716" lon="15.513574361608079"><ele>584.0</ele><time>2026-04-26T18:15:50Z</time></trkpt><trkpt lat="40.622275749294396" lon="15.513889533887074"><ele>580.5</ele><time>2026-04-26T18:15:51Z</time></trkpt><trkpt lat="40.62237205285867" lon="15.51420975761629"><ele>577.0</ele><time>2026-04-26T18:15:52Z</time></trkpt><trkpt lat="40.62245322935991" lon="15.51453534256462"><ele>577.5</ele><time>2026-04-26T18:15:53Z</time></trkpt><trkpt lat="40.62252871013435" lon="15.51486384454896"><ele>578.0</ele><time>2026-04-26T18:15:54Z</time></trkpt><trkpt lat="40.62259803288995" lon="15.515194354860322"><ele>581.0</ele><time>2026-04-26T18:15:55Z</time></trkpt><trkpt lat="40.62266109989404" lon="15.51552994990264"><ele>584.0</ele><time>2026-04-26T18:15:56Z</time></trkpt><trkpt lat="40.62270614866072" lon="15.515865871858214"><ele>584.0</ele><time>2026-04-26T18:15:57Z</time></trkpt><trkpt lat="40.62274141354707" lon="15.516186130382914"><ele>584.0</ele><time>2026-04-26T18:15:58Z</time></trkpt><trkpt lat="40.62277055473011" lon="15.51648313287181"><ele>589.0</ele><time>2026-04-26T18:15:59Z</time></trkpt><trkpt lat="40.6227977770352" lon="15.516782775244955"><ele>594.0</ele><time>2026-04-26T18:16:00Z</time></trkpt><trkpt lat="40.622817896552306" lon="15.517082651837672"><ele>601.5</ele><time>2026-04-26T18:16:01Z</time></trkpt><trkpt lat="40.622835798541324" lon="15.517382229674666"><ele>609.0</ele><time>2026-04-26T18:16:02Z</time></trkpt><trkpt lat="40.622854176871606" lon="15.517682513017318"><ele>612.5</ele><time>2026-04-26T18:16:03Z</time></trkpt><trkpt lat="40.6228748426146" lon="15.517984009159171"><ele>616.0</ele><time>2026-04-26T18:16:04Z</time></trkpt><trkpt lat="40.62289772777955" lon="15.51828330833352"><ele>616.0</ele><time>2026-04-26T18:16:05Z</time></trkpt><trkpt lat="40.62292132895861" lon="15.518587430826303"><ele>616.0</ele><time>2026-04-26T18:16:06Z</time></trkpt><trkpt lat="40.62294488445579" lon="15.518892507877903"><ele>618.0</ele><time>2026-04-26T18:16:07Z</time></trkpt><trkpt lat="40.62296751405274" lon="15.51920107540718"><ele>620.0</ele><time>2026-04-26T18:16:08Z</time></trkpt><trkpt lat="40.62298889685484" lon="15.519513209713239"><ele>621.0</ele><time>2026-04-26T18:16:09Z</time></trkpt><trkpt lat="40.62300758960609" lon="15.519826292488485"><ele>622.0</ele><time>2026-04-26T18:16:10Z</time></trkpt><trkpt lat="40.62302590900802" lon="15.520139508510807"><ele>624.0</ele><time>2026-04-26T18:16:11Z</time></trkpt><trkpt lat="40.62304711318016" lon="15.520454640461757"><ele>626.0</ele><time>2026-04-26T18:16:12Z</time></trkpt><trkpt lat="40.62306854375636" lon="15.520771286765711"><ele>626.0</ele><time>2026-04-26T18:16:13Z</time></trkpt><trkpt lat="40.62308567713797" lon="15.521090826320169"><ele>626.0</ele><time>2026-04-26T18:16:14Z</time></trkpt><trkpt lat="40.623104998637814" lon="15.52141220592213"><ele>626.5</ele><time>2026-04-26T18:16:15Z</time></trkpt><trkpt lat="40.62312256215617" lon="15.521737123780648"><ele>627.0</ele><time>2026-04-26T18:16:16Z</time></trkpt><trkpt lat="40.62313833003018" lon="15.522062332377718"><ele>625.5</ele><time>2026-04-26T18:16:17Z</time></trkpt><trkpt lat="40.62313922239997" lon="15.52239305222079"><ele>624.0</ele><time>2026-04-26T18:16:18Z</time></trkpt><trkpt lat="40.62316986827214" lon="15.522700460654912"><ele>623.5</ele><time>2026-04-26T18:16:19Z</time></trkpt><trkpt lat="40.62319463179055" lon="15.523017059665717"><ele>623.0</ele><time>2026-04-26T18:16:20Z</time></trkpt><trkpt lat="40.623254101509886" lon="15.523326762943446"><ele>623.0</ele><time>2026-04-26T18:16:21Z</time></trkpt><trkpt lat="40.62329354405357" lon="15.523643658707261"><ele>623.0</ele><time>2026-04-26T18:16:22Z</time></trkpt><trkpt lat="40.62331689866438" lon="15.523963769433294"><ele>623.0</ele><time>2026-04-26T18:16:23Z</time></trkpt><trkpt lat="40.62333078789778" lon="15.52428581932279"><ele>623.0</ele><time>2026-04-26T18:16:24Z</time></trkpt><trkpt lat="40.623342972127084" lon="15.524607014631552"><ele>624.0</ele><time>2026-04-26T18:16:25Z</time></trkpt><trkpt lat="40.623358409976476" lon="15.524929843622486"><ele>625.0</ele><time>2026-04-26T18:16:26Z</time></trkpt><trkpt lat="40.623371467406855" lon="15.525252372099878"><ele>627.5</ele><time>2026-04-26T18:16:27Z</time></trkpt><trkpt lat="40.62338015301621" lon="15.525577492633365"><ele>630.0</ele><time>2026-04-26T18:16:28Z</time></trkpt><trkpt lat="40.62338040108049" lon="15.525903701671423"><ele>631.0</ele><time>2026-04-26T18:16:29Z</time></trkpt><trkpt lat="40.62338309969729" lon="15.52623104888475"><ele>632.0</ele><time>2026-04-26T18:16:30Z</time></trkpt><trkpt lat="40.62338307599216" lon="15.526557370430702"><ele>632.0</ele><time>2026-04-26T18:16:31Z</time></trkpt><trkpt lat="40.623378351160206" lon="15.52688497996899"><ele>632.0</ele><time>2026-04-26T18:16:32Z</time></trkpt><trkpt lat="40.623370583564316" lon="15.527212047369893"><ele>633.5</ele><time>2026-04-26T18:16:33Z</time></trkpt><trkpt lat="40.623361009154465" lon="15.527543172578019"><ele>635.0</ele><time>2026-04-26T18:16:34Z</time></trkpt><trkpt lat="40.623352849451074" lon="15.527875137785934"><ele>637.5</ele><time>2026-04-26T18:16:35Z</time></trkpt><trkpt lat="40.62333957791825" lon="15.528207525078066"><ele>640.0</ele><time>2026-04-26T18:16:36Z</time></trkpt><trkpt lat="40.623313061354594" lon="15.528537694291911"><ele>640.5</ele><time>2026-04-26T18:16:37Z</time></trkpt><trkpt lat="40.623289197526766" lon="15.528868469221068"><ele>641.0</ele><time>2026-04-26T18:16:38Z</time></trkpt><trkpt lat="40.62326772262499" lon="15.529199886124161"><ele>641.0</ele><time>2026-04-26T18:16:39Z</time></trkpt><trkpt lat="40.62323782916058" lon="15.529530476671534"><ele>641.0</ele><time>2026-04-26T18:16:40Z</time></trkpt><trkpt lat="40.62320404069259" lon="15.52985975754946"><ele>641.0</ele><time>2026-04-26T18:16:41Z</time></trkpt><trkpt lat="40.623168994883656" lon="15.530188773438983"><ele>641.0</ele><time>2026-04-26T18:16:42Z</time></trkpt><trkpt lat="40.62313118971488" lon="15.530518115641032"><ele>644.0</ele><time>2026-04-26T18:16:43Z</time></trkpt><trkpt lat="40.62309015895525" lon="15.530849138713817"><ele>647.0</ele><time>2026-04-26T18:16:44Z</time></trkpt><trkpt lat="40.623050349803385" lon="15.531179600975282"><ele>650.0</ele><time>2026-04-26T18:16:45Z</time></trkpt><trkpt lat="40.623006564465975" lon="15.53150683769869"><ele>653.0</ele><time>2026-04-26T18:16:46Z</time></trkpt><trkpt lat="40.62296474971058" lon="15.531829852004224"><ele>656.5</ele><time>2026-04-26T18:16:47Z</time></trkpt><trkpt lat="40.62291607072467" lon="15.532150571462678"><ele>660.0</ele><time>2026-04-26T18:16:48Z</time></trkpt><trkpt lat="40.6228684526293" lon="15.532469429843635"><ele>660.0</ele><time>2026-04-26T18:16:49Z</time></trkpt><trkpt lat="40.622826432212186" lon="15.5327895834365"><ele>660.0</ele><time>2026-04-26T18:16:50Z</time></trkpt><trkpt lat="40.62277546768625" lon="15.53310477548962"><ele>661.5</ele><time>2026-04-26T18:16:51Z</time></trkpt><trkpt lat="40.62272631011423" lon="15.533418270162569"><ele>663.0</ele><time>2026-04-26T18:16:52Z</time></trkpt><trkpt lat="40.62267757254958" lon="15.533733006289925"><ele>663.5</ele><time>2026-04-26T18:16:53Z</time></trkpt><trkpt lat="40.62263095363707" lon="15.534042806678652"><ele>664.0</ele><time>2026-04-26T18:16:54Z</time></trkpt><trkpt lat="40.62258310709801" lon="15.534357991127106"><ele>666.0</ele><time>2026-04-26T18:16:55Z</time></trkpt><trkpt lat="40.622531991267394" lon="15.53467456913151"><ele>668.0</ele><time>2026-04-26T18:16:56Z</time></trkpt><trkpt lat="40.622480185935636" lon="15.534994646517754"><ele>668.0</ele><time>2026-04-26T18:16:57Z</time></trkpt><trkpt lat="40.62243211643744" lon="15.5353159315204"><ele>668.0</ele><time>2026-04-26T18:16:58Z</time></trkpt><trkpt lat="40.62238175169445" lon="15.535641047968031"><ele>671.5</ele><time>2026-04-26T18:16:59Z</time></trkpt><trkpt lat="40.62233021284798" lon="15.535969325149864"><ele>675.0</ele><time>2026-04-26T18:17:00Z</time></trkpt><trkpt lat="40.62228347329645" lon="15.536296785684367"><ele>677.0</ele><time>2026-04-26T18:17:01Z</time></trkpt><trkpt lat="40.62223400547188" lon="15.536624959042214"><ele>679.0</ele><time>2026-04-26T18:17:02Z</time></trkpt><trkpt lat="40.622188051464924" lon="15.536957085298393"><ele>680.0</ele><time>2026-04-26T18:17:03Z</time></trkpt><trkpt lat="40.62214066475368" lon="15.537287586465228"><ele>681.0</ele><time>2026-04-26T18:17:04Z</time></trkpt><trkpt lat="40.622092907936" lon="15.537622590828793"><ele>683.5</ele><time>2026-04-26T18:17:05Z</time></trkpt><trkpt lat="40.62204482801421" lon="15.537957508964356"><ele>686.0</ele><time>2026-04-26T18:17:06Z</time></trkpt><trkpt lat="40.621997484317795" lon="15.538280837525948"><ele>679.5</ele><time>2026-04-26T18:17:07Z</time></trkpt><trkpt lat="40.621957576848715" lon="15.53859622782398"><ele>673.0</ele><time>2026-04-26T18:17:08Z</time></trkpt><trkpt lat="40.62191304462157" lon="15.538906528569207"><ele>673.0</ele><time>2026-04-26T18:17:09Z</time></trkpt><trkpt lat="40.621868853487335" lon="15.539214981694375"><ele>673.0</ele><time>2026-04-26T18:17:10Z</time></trkpt><trkpt lat="40.6218232148701" lon="15.539524097251084"><ele>674.5</ele><time>2026-04-26T18:17:11Z</time></trkpt><trkpt lat="40.621782815969574" lon="15.539828685341318"><ele>676.0</ele><time>2026-04-26T18:17:12Z</time></trkpt><trkpt lat="40.62173806868159" lon="15.540131265564067"><ele>677.0</ele><time>2026-04-26T18:17:13Z</time></trkpt><trkpt lat="40.621693137595294" lon="15.540430499386618"><ele>678.0</ele><time>2026-04-26T18:17:14Z</time></trkpt><trkpt lat="40.62164954640758" lon="15.540720035102828"><ele>678.0</ele><time>2026-04-26T18:17:15Z</time></trkpt><trkpt lat="40.621609042754535" lon="15.54099633087086"><ele>678.0</ele><time>2026-04-26T18:17:16Z</time></trkpt><trkpt lat="40.62157474070583" lon="15.541262844324553"><ele>678.0</ele><time>2026-04-26T18:17:17Z</time></trkpt><trkpt lat="40.62154146585362" lon="15.541526111577504"><ele>680.0</ele><time>2026-04-26T18:17:18Z</time></trkpt><trkpt lat="40.62150189066421" lon="15.541782878697756"><ele>682.0</ele><time>2026-04-26T18:17:19Z</time></trkpt><trkpt lat="40.621458846891386" lon="15.5420434662827"><ele>684.0</ele><time>2026-04-26T18:17:20Z</time></trkpt><trkpt lat="40.62141510250449" lon="15.542309126913242"><ele>685.6666666666666</ele><time>2026-04-26T18:17:21Z</time></trkpt><trkpt lat="40.621365315436634" lon="15.542571989668195"><ele>687.3333333333333</ele><time>2026-04-26T18:17:22Z</time></trkpt><trkpt lat="40.621315001325826" lon="15.54283040476741"><ele>689.0</ele><time>2026-04-26T18:17:23Z</time></trkpt><trkpt lat="40.621260596916066" lon="15.543086547465203"><ele>687.6666666666666</ele><time>2026-04-26T18:17:24Z</time></trkpt><trkpt lat="40.62120077059244" lon="15.543347679577574"><ele>686.3333333333334</ele><time>2026-04-26T18:17:25Z</time></trkpt><trkpt lat="40.62114090024152" lon="15.54360819386965"><ele>685.0</ele><time>2026-04-26T18:17:26Z</time></trkpt><trkpt lat="40.62107863985878" lon="15.543855712463953"><ele>685.0</ele><time>2026-04-26T18:17:27Z</time></trkpt><trkpt lat="40.62101099731583" lon="15.54410205495778"><ele>685.0</ele><time>2026-04-26T18:17:28Z</time></trkpt><trkpt lat="40.62094552059782" lon="15.544357394691565"><ele>685.0</ele><time>2026-04-26T18:17:29Z</time></trkpt><trkpt lat="40.620873868071314" lon="15.544614229994181"><ele>688.3333333333334</ele><time>2026-04-26T18:17:30Z</time></trkpt><trkpt lat="40.6208002313904" lon="15.544877187511341"><ele>691.6666666666666</ele><time>2026-04-26T18:17:31Z</time></trkpt><trkpt lat="40.62072620109777" lon="15.545131116824116"><ele>695.0</ele><time>2026-04-26T18:17:32Z</time></trkpt><trkpt lat="40.62064762765184" lon="15.545378653055904"><ele>700.3333333333333</ele><time>2026-04-26T18:17:33Z</time></trkpt><trkpt lat="40.62056795807552" lon="15.545620373717563"><ele>705.6666666666666</ele><time>2026-04-26T18:17:34Z</time></trkpt><trkpt lat="40.6204807242665" lon="15.545861732749884"><ele>711.0</ele><time>2026-04-26T18:17:35Z</time></trkpt><trkpt lat="40.620386673359796" lon="15.546099408138385"><ele>698.3333333333334</ele><time>2026-04-26T18:17:36Z</time></trkpt><trkpt lat="40.62029105628443" lon="15.546344487630913"><ele>685.6666666666667</ele><time>2026-04-26T18:17:37Z</time></trkpt><trkpt lat="40.620192346230276" lon="15.546588000683826"><ele>673.0</ele><time>2026-04-26T18:17:38Z</time></trkpt><trkpt lat="40.62008659568786" lon="15.546826794344257"><ele>675.3333333333334</ele><time>2026-04-26T18:17:39Z</time></trkpt><trkpt lat="40.619987028489604" lon="15.54706602667441"><ele>677.6666666666666</ele><time>2026-04-26T18:17:40Z</time></trkpt><trkpt lat="40.619893575436045" lon="15.547299635453347"><ele>680.0</ele><time>2026-04-26T18:17:41Z</time></trkpt><trkpt lat="40.619816441176745" lon="15.547532855445237"><ele>680.0</ele><time>2026-04-26T18:17:42Z</time></trkpt><trkpt lat="40.61972728584359" lon="15.547752902068314"><ele>680.0</ele><time>2026-04-26T18:17:43Z</time></trkpt><trkpt lat="40.61963589593536" lon="15.547980824493589"><ele>680.0</ele><time>2026-04-26T18:17:44Z</time></trkpt><trkpt lat="40.61954218491879" lon="15.548212335133488"><ele>678.6666666666666</ele><time>2026-04-26T18:17:45Z</time></trkpt><trkpt lat="40.61944988999498" lon="15.548444017765464"><ele>677.3333333333334</ele><time>2026-04-26T18:17:46Z</time></trkpt><trkpt lat="40.619350643992306" lon="15.54868628406613"><ele>676.0</ele><time>2026-04-26T18:17:47Z</time></trkpt><trkpt lat="40.61925197144941" lon="15.548937356131574"><ele>676.0</ele><time>2026-04-26T18:17:48Z</time></trkpt><trkpt lat="40.61915947203676" lon="15.549204062567469"><ele>676.0</ele><time>2026-04-26T18:17:49Z</time></trkpt><trkpt lat="40.61907639866551" lon="15.549465768874466"><ele>676.0</ele><time>2026-04-26T18:17:50Z</time></trkpt><trkpt lat="40.618997177388096" lon="15.549738820877621"><ele>683.3333333333334</ele><time>2026-04-26T18:17:51Z</time></trkpt><trkpt lat="40.61892736580642" lon="15.550015761773617"><ele>690.6666666666666</ele><time>2026-04-26T18:17:52Z</time></trkpt><trkpt lat="40.61886463453614" lon="15.550287168372426"><ele>698.0</ele><time>2026-04-26T18:17:53Z</time></trkpt><trkpt lat="40.618814216883386" lon="15.55055714666546"><ele>706.0</ele><time>2026-04-26T18:17:54Z</time></trkpt><trkpt lat="40.61877024061823" lon="15.550818576201463"><ele>714.0</ele><time>2026-04-26T18:17:55Z</time></trkpt><trkpt lat="40.61873490786813" lon="15.551078751646399"><ele>722.0</ele><time>2026-04-26T18:17:56Z</time></trkpt><trkpt lat="40.61870175101467" lon="15.551344598137838"><ele>727.0</ele><time>2026-04-26T18:17:57Z</time></trkpt><trkpt lat="40.61867561938362" lon="15.551617018611417"><ele>732.0</ele><time>2026-04-26T18:17:58Z</time></trkpt><trkpt lat="40.6186568962149" lon="15.55189480902891"><ele>737.0</ele><time>2026-04-26T18:17:59Z</time></trkpt><trkpt lat="40.61864586900778" lon="15.552176449999676"><ele>736.3333333333333</ele><time>2026-04-26T18:18:00Z</time></trkpt><trkpt lat="40.61864048409716" lon="15.552462153838384"><ele>735.6666666666666</ele><time>2026-04-26T18:18:01Z</time></trkpt><trkpt lat="40.618646030900976" lon="15.552747334975177"><ele>735.0</ele><time>2026-04-26T18:18:02Z</time></trkpt><trkpt lat="40.61865222353481" lon="15.553035888253781"><ele>735.0</ele><time>2026-04-26T18:18:03Z</time></trkpt><trkpt lat="40.61865608092734" lon="15.553327575364246"><ele>735.0</ele><time>2026-04-26T18:18:04Z</time></trkpt><trkpt lat="40.618658998903825" lon="15.553624987212686"><ele>735.0</ele><time>2026-04-26T18:18:05Z</time></trkpt><trkpt lat="40.618665493263386" lon="15.553927992896467"><ele>736.0</ele><time>2026-04-26T18:18:06Z</time></trkpt><trkpt lat="40.618672405232616" lon="15.554227996060906"><ele>737.0</ele><time>2026-04-26T18:18:07Z</time></trkpt><trkpt lat="40.618677690395074" lon="15.554525235620485"><ele>737.3333333333333</ele><time>2026-04-26T18:18:08Z</time></trkpt><trkpt lat="40.61868234297357" lon="15.554807999280852"><ele>737.6666666666666</ele><time>2026-04-26T18:18:09Z</time></trkpt><trkpt lat="40.61868641921315" lon="15.55507657423123"><ele>738.0</ele><time>2026-04-26T18:18:10Z</time></trkpt><trkpt lat="40.61869210824526" lon="15.555334350024088"><ele>739.3333333333334</ele><time>2026-04-26T18:18:11Z</time></trkpt><trkpt lat="40.61869344820722" lon="15.555581907870073"><ele>740.6666666666667</ele><time>2026-04-26T18:18:12Z</time></trkpt><trkpt lat="40.61869131836508" lon="15.555823409215455"><ele>742.0</ele><time>2026-04-26T18:18:13Z</time></trkpt><trkpt lat="40.61870083368956" lon="15.556061993031033"><ele>745.0</ele><time>2026-04-26T18:18:14Z</time></trkpt><trkpt lat="40.61871189039178" lon="15.556289142784998"><ele>748.0</ele><time>2026-04-26T18:18:15Z</time></trkpt><trkpt lat="40.61872431044122" lon="15.556504398103218"><ele>751.0</ele><time>2026-04-26T18:18:16Z</time></trkpt><trkpt lat="40.61873955708494" lon="15.556710281817054"><ele>751.0</ele><time>2026-04-26T18:18:17Z</time></trkpt><trkpt lat="40.61875237056738" lon="15.55691454194816"><ele>751.0</ele><time>2026-04-26T18:18:18Z</time></trkpt><trkpt lat="40.6187697185986" lon="15.557112875849391"><ele>751.0</ele><time>2026-04-26T18:18:19Z</time></trkpt><trkpt lat="40.618792760306846" lon="15.557304243190233"><ele>749.75</ele><time>2026-04-26T18:18:20Z</time></trkpt><trkpt lat="40.61881915620897" lon="15.557491047428623"><ele>748.5</ele><time>2026-04-26T18:18:21Z</time></trkpt><trkpt lat="40.61884590402687" lon="15.557672224222072"><ele>747.25</ele><time>2026-04-26T18:18:22Z</time></trkpt><trkpt lat="40.618876608833524" lon="15.557852539498688"><ele>746.0</ele><time>2026-04-26T18:18:23Z</time></trkpt><trkpt lat="40.61890547144442" lon="15.558026116507616"><ele>744.0</ele><time>2026-04-26T18:18:24Z</time></trkpt><trkpt lat="40.61893802584502" lon="15.558193848311776"><ele>742.0</ele><time>2026-04-26T18:18:25Z</time></trkpt><trkpt lat="40.61897307098196" lon="15.558365622623196"><ele>740.0</ele><time>2026-04-26T18:18:26Z</time></trkpt><trkpt lat="40.61900698204586" lon="15.55853205391696"><ele>738.0</ele><time>2026-04-26T18:18:27Z</time></trkpt><trkpt lat="40.61904017482984" lon="15.558697333228277"><ele>735.5</ele><time>2026-04-26T18:18:28Z</time></trkpt><trkpt lat="40.619068554533875" lon="15.558860367638387"><ele>733.0</ele><time>2026-04-26T18:18:29Z</time></trkpt><trkpt lat="40.6191064692816" lon="15.559029522224865"><ele>730.5</ele><time>2026-04-26T18:18:30Z</time></trkpt><trkpt lat="40.61914290650693" lon="15.559202895175781"><ele>728.0</ele><time>2026-04-26T18:18:31Z</time></trkpt><trkpt lat="40.61918085882426" lon="15.559377777128223"><ele>726.5</ele><time>2026-04-26T18:18:32Z</time></trkpt><trkpt lat="40.61922227513147" lon="15.559553109351661"><ele>725.0</ele><time>2026-04-26T18:18:33Z</time></trkpt><trkpt lat="40.6192639443461" lon="15.559734370783461"><ele>723.5</ele><time>2026-04-26T18:18:34Z</time></trkpt><trkpt lat="40.619304224554256" lon="15.559915035651375"><ele>722.0</ele><time>2026-04-26T18:18:35Z</time></trkpt><trkpt lat="40.61934656844508" lon="15.560095908123596"><ele>722.0</ele><time>2026-04-26T18:18:36Z</time></trkpt><trkpt lat="40.61938407217632" lon="15.56027542284096"><ele>722.0</ele><time>2026-04-26T18:18:37Z</time></trkpt><trkpt lat="40.61942206035796" lon="15.56045222341026"><ele>722.0</ele><time>2026-04-26T18:18:38Z</time></trkpt><trkpt lat="40.619456082524074" lon="15.560628597261056"><ele>722.0</ele><time>2026-04-26T18:18:39Z</time></trkpt><trkpt lat="40.61949389373594" lon="15.56080714791355"><ele>725.25</ele><time>2026-04-26T18:18:40Z</time></trkpt><trkpt lat="40.619537224762" lon="15.5609827467466"><ele>728.5</ele><time>2026-04-26T18:18:41Z</time></trkpt><trkpt lat="40.6195780027941" lon="15.561159265892945"><ele>731.75</ele><time>2026-04-26T18:18:42Z</time></trkpt><trkpt lat="40.61961709783731" lon="15.561332424699549"><ele>735.0</ele><time>2026-04-26T18:18:43Z</time></trkpt><trkpt lat="40.61965262528747" lon="15.561506746311961"><ele>737.0</ele><time>2026-04-26T18:18:44Z</time></trkpt><trkpt lat="40.619691397730286" lon="15.561678053203227"><ele>739.0</ele><time>2026-04-26T18:18:45Z</time></trkpt><trkpt lat="40.61972336799062" lon="15.561858776364582"><ele>741.0</ele><time>2026-04-26T18:18:46Z</time></trkpt><trkpt lat="40.61975158634708" lon="15.56204514951762"><ele>743.0</ele><time>2026-04-26T18:18:47Z</time></trkpt><trkpt lat="40.61978652887845" lon="15.562244037269057"><ele>744.0</ele><time>2026-04-26T18:18:48Z</time></trkpt><trkpt lat="40.61982351570781" lon="15.5624538437047"><ele>745.0</ele><time>2026-04-26T18:18:49Z</time></trkpt><trkpt lat="40.61985301125552" lon="15.562666071736889"><ele>746.0</ele><time>2026-04-26T18:18:50Z</time></trkpt><trkpt lat="40.619869455737884" lon="15.562876511498738"><ele>747.3333333333333</ele><time>2026-04-26T18:18:51Z</time></trkpt><trkpt lat="40.61988909628822" lon="15.563083133850842"><ele>748.6666666666666</ele><time>2026-04-26T18:18:52Z</time></trkpt><trkpt lat="40.61990349096026" lon="15.563283509147583"><ele>750.0</ele><time>2026-04-26T18:18:53Z</time></trkpt><trkpt lat="40.61991683683095" lon="15.563483882516449"><ele>750.0</ele><time>2026-04-26T18:18:54Z</time></trkpt><trkpt lat="40.619926813200145" lon="15.563686721099998"><ele>750.0</ele><time>2026-04-26T18:18:55Z</time></trkpt><trkpt lat="40.61994816048763" lon="15.563886452070184"><ele>750.0</ele><time>2026-04-26T18:18:56Z</time></trkpt><trkpt lat="40.61995092232963" lon="15.564126917067346"><ele>750.3333333333334</ele><time>2026-04-26T18:18:57Z</time></trkpt><trkpt lat="40.61995611974516" lon="15.564370326538493"><ele>750.6666666666667</ele><time>2026-04-26T18:18:58Z</time></trkpt><trkpt lat="40.619956391508175" lon="15.56462211541729"><ele>751.0</ele><time>2026-04-26T18:18:59Z</time></trkpt><trkpt lat="40.61995601415612" lon="15.564888341263401"><ele>751.3333333333334</ele><time>2026-04-26T18:19:00Z</time></trkpt><trkpt lat="40.61993840153932" lon="15.565161566861551"><ele>751.6666666666666</ele><time>2026-04-26T18:19:01Z</time></trkpt><trkpt lat="40.619912101270955" lon="15.565445064076032"><ele>752.0</ele><time>2026-04-26T18:19:02Z</time></trkpt><trkpt lat="40.619884540119756" lon="15.565730315347599"><ele>755.0</ele><time>2026-04-26T18:19:03Z</time></trkpt><trkpt lat="40.6198447136558" lon="15.566018628065322"><ele>758.0</ele><time>2026-04-26T18:19:04Z</time></trkpt><trkpt lat="40.619794490569674" lon="15.566305518376515"><ele>761.0</ele><time>2026-04-26T18:19:05Z</time></trkpt><trkpt lat="40.61973618230479" lon="15.566593911223004"><ele>763.0</ele><time>2026-04-26T18:19:06Z</time></trkpt><trkpt lat="40.61967104178903" lon="15.566883628668872"><ele>765.0</ele><time>2026-04-26T18:19:07Z</time></trkpt><trkpt lat="40.619604719430484" lon="15.567177215972983"><ele>767.0</ele><time>2026-04-26T18:19:08Z</time></trkpt><trkpt lat="40.619529100534216" lon="15.567468754521405"><ele>769.0</ele><time>2026-04-26T18:19:09Z</time></trkpt><trkpt lat="40.619441204254215" lon="15.567759378273674"><ele>766.5</ele><time>2026-04-26T18:19:10Z</time></trkpt><trkpt lat="40.6193489344503" lon="15.568051814787388"><ele>764.0</ele><time>2026-04-26T18:19:11Z</time></trkpt><trkpt lat="40.619245933142054" lon="15.56833978162419"><ele>764.0</ele><time>2026-04-26T18:19:12Z</time></trkpt><trkpt lat="40.61913352044299" lon="15.56862521395112"><ele>764.0</ele><time>2026-04-26T18:19:13Z</time></trkpt><trkpt lat="40.61901795280413" lon="15.568909655492934"><ele>768.0</ele><time>2026-04-26T18:19:14Z</time></trkpt><trkpt lat="40.61889659637921" lon="15.569192329779314"><ele>772.0</ele><time>2026-04-26T18:19:15Z</time></trkpt><trkpt lat="40.618765076510286" lon="15.569469017012697"><ele>771.0</ele><time>2026-04-26T18:19:16Z</time></trkpt><trkpt lat="40.61863218499687" lon="15.569745832406065"><ele>770.0</ele><time>2026-04-26T18:19:17Z</time></trkpt><trkpt lat="40.61850097200753" lon="15.570025459312307"><ele>770.0</ele><time>2026-04-26T18:19:18Z</time></trkpt><trkpt lat="40.618368822956015" lon="15.570305777782897"><ele>770.0</ele><time>2026-04-26T18:19:19Z</time></trkpt><trkpt lat="40.618236569820304" lon="15.570588085537766"><ele>771.0</ele><time>2026-04-26T18:19:20Z</time></trkpt><trkpt lat="40.618103080738905" lon="15.570872834182557"><ele>772.0</ele><time>2026-04-26T18:19:21Z</time></trkpt><trkpt lat="40.61797175683552" lon="15.571150130592972"><ele>773.0</ele><time>2026-04-26T18:19:22Z</time></trkpt><trkpt lat="40.617849312402434" lon="15.571411598567181"><ele>774.0</ele><time>2026-04-26T18:19:23Z</time></trkpt><trkpt lat="40.61773644917787" lon="15.571654656144753"><ele>775.0</ele><time>2026-04-26T18:19:24Z</time></trkpt><trkpt lat="40.61763415278692" lon="15.57189552983167"><ele>776.6666666666666</ele><time>2026-04-26T18:19:25Z</time></trkpt><trkpt lat="40.61754031972986" lon="15.572137324915614"><ele>778.3333333333333</ele><time>2026-04-26T18:19:26Z</time></trkpt><trkpt lat="40.61745130370175" lon="15.572389193871272"><ele>780.0</ele><time>2026-04-26T18:19:27Z</time></trkpt><trkpt lat="40.61737600653639" lon="15.57265055426322"><ele>781.3333333333333</ele><time>2026-04-26T18:19:28Z</time></trkpt><trkpt lat="40.617310867409664" lon="15.572923651623247"><ele>782.6666666666666</ele><time>2026-04-26T18:19:29Z</time></trkpt><trkpt lat="40.61725509434942" lon="15.573206553083828"><ele>784.0</ele><time>2026-04-26T18:19:30Z</time></trkpt><trkpt lat="40.61721290068296" lon="15.573495801165762"><ele>786.0</ele><time>2026-04-26T18:19:31Z</time></trkpt><trkpt lat="40.617182369189024" lon="15.573788195543866"><ele>788.0</ele><time>2026-04-26T18:19:32Z</time></trkpt><trkpt lat="40.61716353119349" lon="15.574055758350736"><ele>790.0</ele><time>2026-04-26T18:19:33Z</time></trkpt><trkpt lat="40.61715577923296" lon="15.574309209331792"><ele>792.3333333333333</ele><time>2026-04-26T18:19:34Z</time></trkpt><trkpt lat="40.61716451606716" lon="15.57455232402525"><ele>794.6666666666667</ele><time>2026-04-26T18:19:35Z</time></trkpt><trkpt lat="40.61718173315699" lon="15.574781642057022"><ele>797.0</ele><time>2026-04-26T18:19:36Z</time></trkpt><trkpt lat="40.6172061149433" lon="15.57500596488751"><ele>797.0</ele><time>2026-04-26T18:19:37Z</time></trkpt><trkpt lat="40.617233783987444" lon="15.575226117296765"><ele>797.0</ele><time>2026-04-26T18:19:38Z</time></trkpt><trkpt lat="40.61726756662675" lon="15.575444240413711"><ele>797.0</ele><time>2026-04-26T18:19:39Z</time></trkpt><trkpt lat="40.61730811737386" lon="15.575644285106229"><ele>798.0</ele><time>2026-04-26T18:19:40Z</time></trkpt><trkpt lat="40.617349569021606" lon="15.575822984441228"><ele>799.0</ele><time>2026-04-26T18:19:41Z</time></trkpt><trkpt lat="40.61739500894649" lon="15.57598262699403"><ele>800.0</ele><time>2026-04-26T18:19:42Z</time></trkpt><trkpt lat="40.61744525299706" lon="15.576135316369264"><ele>801.0</ele><time>2026-04-26T18:19:43Z</time></trkpt><trkpt lat="40.61749210963626" lon="15.5762736739086"><ele>802.1999999999999</ele><time>2026-04-26T18:19:44Z</time></trkpt><trkpt lat="40.617536799937916" lon="15.57639796972416"><ele>803.4</ele><time>2026-04-26T18:19:45Z</time></trkpt><trkpt lat="40.617579051093045" lon="15.57651020404331"><ele>804.6</ele><time>2026-04-26T18:19:46Z</time></trkpt><trkpt lat="40.617629057836176" lon="15.57661555472989"><ele>805.8</ele><time>2026-04-26T18:19:47Z</time></trkpt><trkpt lat="40.617679915897135" lon="15.57671961670117"><ele>807.0</ele><time>2026-04-26T18:19:48Z</time></trkpt><trkpt lat="40.6177307563436" lon="15.576821672106883"><ele>807.0</ele><time>2026-04-26T18:19:49Z</time></trkpt><trkpt lat="40.61778390203787" lon="15.576923343377445"><ele>807.0</ele><time>2026-04-26T18:19:50Z</time></trkpt><trkpt lat="40.61784161899925" lon="15.577024685476088"><ele>807.0</ele><time>2026-04-26T18:19:51Z</time></trkpt><trkpt lat="40.617906304338284" lon="15.577117061707634"><ele>807.0</ele><time>2026-04-26T18:19:52Z</time></trkpt><trkpt lat="40.617969387190584" lon="15.577208593915698"><ele>807.0</ele><time>2026-04-26T18:19:53Z</time></trkpt><trkpt lat="40.618023497862495" lon="15.577297073114865"><ele>809.4000000000001</ele><time>2026-04-26T18:19:54Z</time></trkpt><trkpt lat="40.61808084785068" lon="15.57738645170414"><ele>811.8000000000001</ele><time>2026-04-26T18:19:55Z</time></trkpt><trkpt lat="40.61814054905332" lon="15.577474472474632"><ele>814.2</ele><time>2026-04-26T18:19:56Z</time></trkpt><trkpt lat="40.61820175301117" lon="15.577560525042452"><ele>816.6</ele><time>2026-04-26T18:19:57Z</time></trkpt><trkpt lat="40.618272194531755" lon="15.577651574215732"><ele>819.0</ele><time>2026-04-26T18:19:58Z</time></trkpt><trkpt lat="40.61834634683373" lon="15.577744489515347"><ele>819.0</ele><time>2026-04-26T18:19:59Z</time></trkpt><trkpt lat="40.6184292949706" lon="15.577849933303687"><ele>819.0</ele><time>2026-04-26T18:20:00Z</time></trkpt><trkpt lat="40.618528359138864" lon="15.577967430968094"><ele>819.0</ele><time>2026-04-26T18:20:01Z</time></trkpt><trkpt lat="40.61862709292467" lon="15.578095288262395"><ele>819.0</ele><time>2026-04-26T18:20:02Z</time></trkpt><trkpt lat="40.61873595176638" lon="15.578237281691418"><ele>817.0</ele><time>2026-04-26T18:20:03Z</time></trkpt><trkpt lat="40.61885119487632" lon="15.578375374670276"><ele>815.0</ele><time>2026-04-26T18:20:04.012Z</time></trkpt><trkpt lat="40.61897090705947" lon="15.57852000584668"><ele>813.0</ele><time>2026-04-26T18:20:05.012Z</time></trkpt><trkpt lat="40.62118150763271" lon="15.582409109934774"><ele>813.0</ele><time>2026-04-26T18:20:24Z</time></trkpt><trkpt lat="40.621308715868594" lon="15.582612533536386"><ele>813.0</ele><time>2026-04-26T18:20:25Z</time></trkpt><trkpt lat="40.62185924680422" lon="15.582937285293877"><ele>811.6666666666667</ele><time>2026-04-26T18:20:26Z</time></trkpt><trkpt lat="40.62198884171395" lon="15.583171018263458"><ele>810.3333333333334</ele><time>2026-04-26T18:20:27Z</time></trkpt><trkpt lat="40.62210353731226" lon="15.583413543384314"><ele>809.0</ele><time>2026-04-26T18:20:28Z</time></trkpt><trkpt lat="40.62220678932368" lon="15.583666154498122"><ele>809.6666666666667</ele><time>2026-04-26T18:20:29Z</time></trkpt><trkpt lat="40.622299420210545" lon="15.583922178602982"><ele>810.3333333333333</ele><time>2026-04-26T18:20:30Z</time></trkpt><trkpt lat="40.62238912063265" lon="15.584179750125188"><ele>811.0</ele><time>2026-04-26T18:20:31Z</time></trkpt><trkpt lat="40.62247437985952" lon="15.584442485597284"><ele>811.0</ele><time>2026-04-26T18:20:32Z</time></trkpt><trkpt lat="40.62256201302104" lon="15.584704079065407"><ele>811.0</ele><time>2026-04-26T18:20:33Z</time></trkpt><trkpt lat="40.622643472093024" lon="15.584961584829806"><ele>811.0</ele><time>2026-04-26T18:20:34Z</time></trkpt><trkpt lat="40.62272752535178" lon="15.58521838773927"><ele>812.0</ele><time>2026-04-26T18:20:35Z</time></trkpt><trkpt lat="40.62281139422034" lon="15.585473195016217"><ele>813.0</ele><time>2026-04-26T18:20:36Z</time></trkpt><trkpt lat="40.62290718072088" lon="15.585724429971902"><ele>814.0</ele><time>2026-04-26T18:20:37Z</time></trkpt><trkpt lat="40.62300708790524" lon="15.585963774358824"><ele>809.3333333333333</ele><time>2026-04-26T18:20:38Z</time></trkpt><trkpt lat="40.623115614088626" lon="15.586198143154844"><ele>804.6666666666667</ele><time>2026-04-26T18:20:39Z</time></trkpt><trkpt lat="40.6232359196465" lon="15.586419799457671"><ele>800.0</ele><time>2026-04-26T18:20:40Z</time></trkpt><trkpt lat="40.623363866988505" lon="15.586631746659295"><ele>800.0</ele><time>2026-04-26T18:20:41Z</time></trkpt><trkpt lat="40.623502260411534" lon="15.586835375873076"><ele>800.0</ele><time>2026-04-26T18:20:42Z</time></trkpt><trkpt lat="40.62364870599534" lon="15.587033049394101"><ele>800.0</ele><time>2026-04-26T18:20:43Z</time></trkpt><trkpt lat="40.62380014984333" lon="15.58722651424503"><ele>798.3333333333334</ele><time>2026-04-26T18:20:44Z</time></trkpt><trkpt lat="40.62396312372987" lon="15.587417012569826"><ele>796.6666666666667</ele><time>2026-04-26T18:20:45Z</time></trkpt><trkpt lat="40.62413738146574" lon="15.587597527233688"><ele>795.0</ele><time>2026-04-26T18:20:46Z</time></trkpt><trkpt lat="40.624322955254485" lon="15.587765264896243"><ele>795.0</ele><time>2026-04-26T18:20:47Z</time></trkpt><trkpt lat="40.62451736401773" lon="15.587919990449565"><ele>795.0</ele><time>2026-04-26T18:20:48Z</time></trkpt><trkpt lat="40.624713133060936" lon="15.588064264863128"><ele>795.0</ele><time>2026-04-26T18:20:49Z</time></trkpt><trkpt lat="40.62491548011724" lon="15.58819622513893"><ele>795.0</ele><time>2026-04-26T18:20:50Z</time></trkpt><trkpt lat="40.62512762050712" lon="15.588316474545566"><ele>795.0</ele><time>2026-04-26T18:20:51Z</time></trkpt><trkpt lat="40.62534104394785" lon="15.588428791934694"><ele>795.0</ele><time>2026-04-26T18:20:52Z</time></trkpt><trkpt lat="40.62555730666109" lon="15.588536567491058"><ele>795.0</ele><time>2026-04-26T18:20:53Z</time></trkpt><trkpt lat="40.62577289315858" lon="15.588646532176421"><ele>795.0</ele><time>2026-04-26T18:20:54Z</time></trkpt><trkpt lat="40.6259844036255" lon="15.588766938403207"><ele>794.0</ele><time>2026-04-26T18:20:55Z</time></trkpt><trkpt lat="40.62619451402077" lon="15.588899534292066"><ele>793.0</ele><time>2026-04-26T18:20:56Z</time></trkpt><trkpt lat="40.626400784275525" lon="15.58904582839618"><ele>793.0</ele><time>2026-04-26T18:20:57Z</time></trkpt><trkpt lat="40.62660044089231" lon="15.58921100509407"><ele>793.0</ele><time>2026-04-26T18:20:58Z</time></trkpt><trkpt lat="40.626792467517824" lon="15.589395708832178"><ele>795.5</ele><time>2026-04-26T18:20:59Z</time></trkpt><trkpt lat="40.626975299039124" lon="15.58959473555929"><ele>798.0</ele><time>2026-04-26T18:21:00Z</time></trkpt><trkpt lat="40.627150410395835" lon="15.589801463503292"><ele>792.5</ele><time>2026-04-26T18:21:01Z</time></trkpt><trkpt lat="40.62731447092805" lon="15.590023731681148"><ele>787.0</ele><time>2026-04-26T18:21:02Z</time></trkpt><trkpt lat="40.62746603434466" lon="15.590262938179174"><ele>788.5</ele><time>2026-04-26T18:21:03Z</time></trkpt><trkpt lat="40.62760779774627" lon="15.590512143750734"><ele>790.0</ele><time>2026-04-26T18:21:04Z</time></trkpt><trkpt lat="40.627741271698255" lon="15.590768224819298"><ele>786.5</ele><time>2026-04-26T18:21:05Z</time></trkpt><trkpt lat="40.627863056516674" lon="15.591034281060422"><ele>783.0</ele><time>2026-04-26T18:21:06Z</time></trkpt><trkpt lat="40.62796728916263" lon="15.591305887065086"><ele>781.5</ele><time>2026-04-26T18:21:07Z</time></trkpt><trkpt lat="40.62806176973363" lon="15.591578658000024"><ele>780.0</ele><time>2026-04-26T18:21:08Z</time></trkpt><trkpt lat="40.62814768875612" lon="15.591850652859664"><ele>780.6666666666667</ele><time>2026-04-26T18:21:09Z</time></trkpt><trkpt lat="40.62823238651629" lon="15.59212083629926"><ele>781.3333333333334</ele><time>2026-04-26T18:21:10Z</time></trkpt><trkpt lat="40.628318599268816" lon="15.592386404566525"><ele>782.0</ele><time>2026-04-26T18:21:11Z</time></trkpt><trkpt lat="40.62840926547765" lon="15.592649691945187"><ele>783.0</ele><time>2026-04-26T18:21:12Z</time></trkpt><trkpt lat="40.62849945774645" lon="15.59291865204993"><ele>784.0</ele><time>2026-04-26T18:21:13Z</time></trkpt><trkpt lat="40.628586468831834" lon="15.593193724653117"><ele>785.0</ele><time>2026-04-26T18:21:14Z</time></trkpt><trkpt lat="40.62867351349261" lon="15.59347305950937"><ele>781.0</ele><time>2026-04-26T18:21:15Z</time></trkpt><trkpt lat="40.628761093170404" lon="15.593756981225111"><ele>777.0</ele><time>2026-04-26T18:21:16Z</time></trkpt><trkpt lat="40.628849717982085" lon="15.594044761471979"><ele>777.0</ele><time>2026-04-26T18:21:17Z</time></trkpt><trkpt lat="40.62893326300556" lon="15.594332487131895"><ele>777.0</ele><time>2026-04-26T18:21:18Z</time></trkpt><trkpt lat="40.62901268623203" lon="15.594622206288063"><ele>776.0</ele><time>2026-04-26T18:21:19Z</time></trkpt><trkpt lat="40.62909745994383" lon="15.594912713303591"><ele>775.0</ele><time>2026-04-26T18:21:20Z</time></trkpt><trkpt lat="40.629182518647056" lon="15.59520396798134"><ele>773.0</ele><time>2026-04-26T18:21:21Z</time></trkpt><trkpt lat="40.62927113308364" lon="15.595491704166866"><ele>771.0</ele><time>2026-04-26T18:21:22Z</time></trkpt><trkpt lat="40.62937056494034" lon="15.595774951023664"><ele>771.0</ele><time>2026-04-26T18:21:23Z</time></trkpt><trkpt lat="40.629460252054145" lon="15.596058186439988"><ele>771.0</ele><time>2026-04-26T18:21:24Z</time></trkpt><trkpt lat="40.6295525060823" lon="15.596336083483047"><ele>766.0</ele><time>2026-04-26T18:21:25Z</time></trkpt><trkpt lat="40.62964154211704" lon="15.596612421591876"><ele>761.0</ele><time>2026-04-26T18:21:26Z</time></trkpt><trkpt lat="40.62972704218229" lon="15.596883559793758"><ele>761.6666666666666</ele><time>2026-04-26T18:21:27Z</time></trkpt><trkpt lat="40.62981139927472" lon="15.597152191455013"><ele>762.3333333333334</ele><time>2026-04-26T18:21:28Z</time></trkpt><trkpt lat="40.6298940304105" lon="15.597420874320276"><ele>763.0</ele><time>2026-04-26T18:21:29Z</time></trkpt><trkpt lat="40.62997635994801" lon="15.597690089147846"><ele>763.6666666666667</ele><time>2026-04-26T18:21:30Z</time></trkpt><trkpt lat="40.630058488712336" lon="15.59795895996346"><ele>764.3333333333334</ele><time>2026-04-26T18:21:31Z</time></trkpt><trkpt lat="40.63013865068779" lon="15.598227323523705"><ele>765.0</ele><time>2026-04-26T18:21:32Z</time></trkpt><trkpt lat="40.630211928510306" lon="15.598500765010991"><ele>766.3333333333333</ele><time>2026-04-26T18:21:33Z</time></trkpt><trkpt lat="40.63027587902762" lon="15.598780777014465"><ele>767.6666666666666</ele><time>2026-04-26T18:21:34Z</time></trkpt><trkpt lat="40.63033984309125" lon="15.599067637458287"><ele>769.0</ele><time>2026-04-26T18:21:35Z</time></trkpt><trkpt lat="40.63039200090338" lon="15.599353633968834"><ele>765.0</ele><time>2026-04-26T18:21:36Z</time></trkpt><trkpt lat="40.63044096068045" lon="15.599640683020855"><ele>761.0</ele><time>2026-04-26T18:21:37Z</time></trkpt><trkpt lat="40.63047664431301" lon="15.599928376266538"><ele>757.0</ele><time>2026-04-26T18:21:38Z</time></trkpt><trkpt lat="40.63050256346871" lon="15.600215551773314"><ele>756.0</ele><time>2026-04-26T18:21:39Z</time></trkpt><trkpt lat="40.6305153011596" lon="15.600503965907276"><ele>755.0</ele><time>2026-04-26T18:21:40Z</time></trkpt><trkpt lat="40.63052035664622" lon="15.600792971232986"><ele>754.0</ele><time>2026-04-26T18:21:41Z</time></trkpt><trkpt lat="40.630514406865004" lon="15.601085503239867"><ele>754.0</ele><time>2026-04-26T18:21:42Z</time></trkpt><trkpt lat="40.63049968132779" lon="15.601385524942986"><ele>754.0</ele><time>2026-04-26T18:21:43Z</time></trkpt><trkpt lat="40.630471853727016" lon="15.601690900886448"><ele>752.0</ele><time>2026-04-26T18:21:44Z</time></trkpt><trkpt lat="40.63044445011868" lon="15.602000796206848"><ele>750.0</ele><time>2026-04-26T18:21:45Z</time></trkpt><trkpt lat="40.63040483834129" lon="15.602315715107178"><ele>750.0</ele><time>2026-04-26T18:21:46Z</time></trkpt><trkpt lat="40.63035199573497" lon="15.602634318848716"><ele>750.0</ele><time>2026-04-26T18:21:47Z</time></trkpt><trkpt lat="40.630299127435535" lon="15.602946682521964"><ele>754.5</ele><time>2026-04-26T18:21:48Z</time></trkpt><trkpt lat="40.63024196035779" lon="15.60325116375295"><ele>759.0</ele><time>2026-04-26T18:21:49Z</time></trkpt><trkpt lat="40.630188389667346" lon="15.603553283659933"><ele>758.0</ele><time>2026-04-26T18:21:50Z</time></trkpt><trkpt lat="40.63013558302536" lon="15.603852980377438"><ele>757.0</ele><time>2026-04-26T18:21:51Z</time></trkpt><trkpt lat="40.630084489699655" lon="15.604150446521867"><ele>757.0</ele><time>2026-04-26T18:21:52Z</time></trkpt><trkpt lat="40.63003770396338" lon="15.60444832102275"><ele>757.0</ele><time>2026-04-26T18:21:53Z</time></trkpt><trkpt lat="40.629995644190686" lon="15.604749685838602"><ele>752.0</ele><time>2026-04-26T18:21:54Z</time></trkpt><trkpt lat="40.62995911197918" lon="15.605056569786761"><ele>747.0</ele><time>2026-04-26T18:21:55Z</time></trkpt><trkpt lat="40.629935047493376" lon="15.605369189526721"><ele>742.0</ele><time>2026-04-26T18:21:56Z</time></trkpt><trkpt lat="40.6299234636477" lon="15.605683625525712"><ele>737.0</ele><time>2026-04-26T18:21:57Z</time></trkpt><trkpt lat="40.629923711675524" lon="15.606000977839791"><ele>737.5</ele><time>2026-04-26T18:21:58Z</time></trkpt><trkpt lat="40.629942802084635" lon="15.606314524456808"><ele>738.0</ele><time>2026-04-26T18:21:59Z</time></trkpt><trkpt lat="40.62996713688611" lon="15.606624302232806"><ele>738.0</ele><time>2026-04-26T18:22:00Z</time></trkpt><trkpt lat="40.62999813965332" lon="15.606932185247608"><ele>738.0</ele><time>2026-04-26T18:22:01Z</time></trkpt><trkpt lat="40.630025527133036" lon="15.607245031632486"><ele>740.5</ele><time>2026-04-26T18:22:02Z</time></trkpt><trkpt lat="40.63005694217386" lon="15.607551489362892"><ele>743.0</ele><time>2026-04-26T18:22:03Z</time></trkpt><trkpt lat="40.630088874829134" lon="15.607848911261582"><ele>743.5</ele><time>2026-04-26T18:22:04Z</time></trkpt><trkpt lat="40.630120113836206" lon="15.608143435527802"><ele>744.0</ele><time>2026-04-26T18:22:05Z</time></trkpt><trkpt lat="40.630146575104746" lon="15.60844007704596"><ele>742.5</ele><time>2026-04-26T18:22:06Z</time></trkpt><trkpt lat="40.63016560842757" lon="15.608739755955497"><ele>741.0</ele><time>2026-04-26T18:22:07Z</time></trkpt><trkpt lat="40.630177493051455" lon="15.609041585399865"><ele>741.0</ele><time>2026-04-26T18:22:08Z</time></trkpt><trkpt lat="40.63017991091318" lon="15.609345348562174"><ele>741.0</ele><time>2026-04-26T18:22:09Z</time></trkpt><trkpt lat="40.63017487943813" lon="15.609650981971956"><ele>736.5</ele><time>2026-04-26T18:22:10Z</time></trkpt><trkpt lat="40.63015646111714" lon="15.609949159181594"><ele>732.0</ele><time>2026-04-26T18:22:11Z</time></trkpt><trkpt lat="40.630124173971375" lon="15.610241434559912"><ele>729.6666666666666</ele><time>2026-04-26T18:22:12Z</time></trkpt><trkpt lat="40.63007329231678" lon="15.610522641570487"><ele>727.3333333333333</ele><time>2026-04-26T18:22:13Z</time></trkpt><trkpt lat="40.63000537723328" lon="15.61079701138559"><ele>725.0</ele><time>2026-04-26T18:22:14Z</time></trkpt><trkpt lat="40.62992617896988" lon="15.611073980005726"><ele>722.0</ele><time>2026-04-26T18:22:15Z</time></trkpt><trkpt lat="40.62984076281803" lon="15.611352813921323"><ele>719.0</ele><time>2026-04-26T18:22:16Z</time></trkpt><trkpt lat="40.62973376708658" lon="15.611616255041795"><ele>719.0</ele><time>2026-04-26T18:22:17Z</time></trkpt><trkpt lat="40.629615859522495" lon="15.611863638866167"><ele>719.0</ele><time>2026-04-26T18:22:18Z</time></trkpt><trkpt lat="40.62948968229156" lon="15.612100440047053"><ele>719.0</ele><time>2026-04-26T18:22:19Z</time></trkpt><trkpt lat="40.62934541585869" lon="15.612330291896898"><ele>727.0</ele><time>2026-04-26T18:22:20Z</time></trkpt><trkpt lat="40.62917946612772" lon="15.612558829946959"><ele>735.0</ele><time>2026-04-26T18:22:21Z</time></trkpt><trkpt lat="40.628996747970234" lon="15.612777470740184"><ele>734.5</ele><time>2026-04-26T18:22:22Z</time></trkpt><trkpt lat="40.62880252270934" lon="15.612979996435255"><ele>734.0</ele><time>2026-04-26T18:22:23.012Z</time></trkpt><trkpt lat="40.62860876807435" lon="15.61315902719288"><ele>731.5</ele><time>2026-04-26T18:22:24.011Z</time></trkpt><trkpt lat="40.62841025370287" lon="15.613316277096056"><ele>729.0</ele><time>2026-04-26T18:22:25.013Z</time></trkpt><trkpt lat="40.62820960419853" lon="15.613452493025981"><ele>729.0</ele><time>2026-04-26T18:22:26.011Z</time></trkpt><trkpt lat="40.62800134856021" lon="15.613572336470222"><ele>729.0</ele><time>2026-04-26T18:22:27Z</time></trkpt><trkpt lat="40.627794691337165" lon="15.613681374722365"><ele>720.5</ele><time>2026-04-26T18:22:28Z</time></trkpt><trkpt lat="40.627561008469264" lon="15.613774908930958"><ele>712.0</ele><time>2026-04-26T18:22:29Z</time></trkpt><trkpt lat="40.62731252216419" lon="15.61386263345209"><ele>712.0</ele><time>2026-04-26T18:22:30Z</time></trkpt><trkpt lat="40.627058003032886" lon="15.613925470477007"><ele>712.0</ele><time>2026-04-26T18:22:31Z</time></trkpt><trkpt lat="40.62680550501994" lon="15.613976192882555"><ele>709.0</ele><time>2026-04-26T18:22:32Z</time></trkpt><trkpt lat="40.626554587012336" lon="15.61402439831531"><ele>706.0</ele><time>2026-04-26T18:22:33Z</time></trkpt><trkpt lat="40.62630246533046" lon="15.614062679138144"><ele>706.5</ele><time>2026-04-26T18:22:34Z</time></trkpt><trkpt lat="40.62605312105027" lon="15.614094526891396"><ele>707.0</ele><time>2026-04-26T18:22:35Z</time></trkpt><trkpt lat="40.625803310202805" lon="15.614129660069112"><ele>707.0</ele><time>2026-04-26T18:22:36Z</time></trkpt><trkpt lat="40.62555212257353" lon="15.614167796520205"><ele>707.0</ele><time>2026-04-26T18:22:37Z</time></trkpt><trkpt lat="40.62530147047613" lon="15.614207131272543"><ele>705.5</ele><time>2026-04-26T18:22:38Z</time></trkpt><trkpt lat="40.62505229214192" lon="15.614247970002573"><ele>704.0</ele><time>2026-04-26T18:22:39Z</time></trkpt><trkpt lat="40.62480166283765" lon="15.61428322620477"><ele>704.0</ele><time>2026-04-26T18:22:40Z</time></trkpt><trkpt lat="40.62454889528382" lon="15.6143164290091"><ele>704.0</ele><time>2026-04-26T18:22:41Z</time></trkpt><trkpt lat="40.62429818569366" lon="15.614348353832344"><ele>693.5</ele><time>2026-04-26T18:22:42Z</time></trkpt><trkpt lat="40.624058317277424" lon="15.614382442289525"><ele>683.0</ele><time>2026-04-26T18:22:43Z</time></trkpt><trkpt lat="40.62382136840627" lon="15.614412053409012"><ele>670.5</ele><time>2026-04-26T18:22:44Z</time></trkpt><trkpt lat="40.623581641235944" lon="15.614444633233305"><ele>658.0</ele><time>2026-04-26T18:22:45Z</time></trkpt><trkpt lat="40.623340464486915" lon="15.614479227585262"><ele>650.5</ele><time>2026-04-26T18:22:46Z</time></trkpt><trkpt lat="40.62309861332456" lon="15.614518194805328"><ele>643.0</ele><time>2026-04-26T18:22:47Z</time></trkpt><trkpt lat="40.622855951783464" lon="15.614554883224635"><ele>643.5</ele><time>2026-04-26T18:22:48Z</time></trkpt><trkpt lat="40.622612862598054" lon="15.614594962663567"><ele>644.0</ele><time>2026-04-26T18:22:49Z</time></trkpt><trkpt lat="40.622373808367854" lon="15.614643638483662"><ele>644.0</ele><time>2026-04-26T18:22:50Z</time></trkpt><trkpt lat="40.622138747607686" lon="15.614706655884072"><ele>644.0</ele><time>2026-04-26T18:22:51Z</time></trkpt><trkpt lat="40.62190539462733" lon="15.614790997987798"><ele>657.5</ele><time>2026-04-26T18:22:52Z</time></trkpt><trkpt lat="40.62167407786936" lon="15.614886770658217"><ele>671.0</ele><time>2026-04-26T18:22:53Z</time></trkpt><trkpt lat="40.62144988275225" lon="15.615010954228765"><ele>671.0</ele><time>2026-04-26T18:22:54Z</time></trkpt><trkpt lat="40.621230194218064" lon="15.615147841835094"><ele>671.0</ele><time>2026-04-26T18:22:55Z</time></trkpt><trkpt lat="40.62101914399682" lon="15.615293529451922"><ele>674.0</ele><time>2026-04-26T18:22:56Z</time></trkpt><trkpt lat="40.62081489311797" lon="15.615453017364187"><ele>677.0</ele><time>2026-04-26T18:22:57Z</time></trkpt><trkpt lat="40.62061730217318" lon="15.615625747500191"><ele>677.0</ele><time>2026-04-26T18:22:58Z</time></trkpt><trkpt lat="40.62042677647144" lon="15.615814089530959"><ele>677.0</ele><time>2026-04-26T18:22:59Z</time></trkpt><trkpt lat="40.620246093785575" lon="15.616010999644763"><ele>672.5</ele><time>2026-04-26T18:23:00Z</time></trkpt><trkpt lat="40.620074729907124" lon="15.616217909784766"><ele>668.0</ele><time>2026-04-26T18:23:01Z</time></trkpt><trkpt lat="40.6199157241562" lon="15.616435515047199"><ele>668.0</ele><time>2026-04-26T18:23:02Z</time></trkpt><trkpt lat="40.61976411184929" lon="15.616663925057491"><ele>668.0</ele><time>2026-04-26T18:23:03Z</time></trkpt><trkpt lat="40.61961780893188" lon="15.61689783537654"><ele>669.5</ele><time>2026-04-26T18:23:04Z</time></trkpt><trkpt lat="40.619479339115024" lon="15.617151159362082"><ele>671.0</ele><time>2026-04-26T18:23:05Z</time></trkpt><trkpt lat="40.61935031335816" lon="15.617416434495045"><ele>671.0</ele><time>2026-04-26T18:23:06Z</time></trkpt><trkpt lat="40.61922773508345" lon="15.617695647561185"><ele>671.0</ele><time>2026-04-26T18:23:07Z</time></trkpt><trkpt lat="40.619111711330746" lon="15.617977801096226"><ele>666.0</ele><time>2026-04-26T18:23:08Z</time></trkpt><trkpt lat="40.61900237982373" lon="15.618258993310839"><ele>661.0</ele><time>2026-04-26T18:23:09Z</time></trkpt><trkpt lat="40.61889425043017" lon="15.618539860599947"><ele>657.0</ele><time>2026-04-26T18:23:10Z</time></trkpt><trkpt lat="40.618786248229476" lon="15.618820650792767"><ele>653.0</ele><time>2026-04-26T18:23:11Z</time></trkpt><trkpt lat="40.61867640116591" lon="15.61910184352253"><ele>656.5</ele><time>2026-04-26T18:23:12Z</time></trkpt><trkpt lat="40.618562172245944" lon="15.619380931837739"><ele>660.0</ele><time>2026-04-26T18:23:13Z</time></trkpt><trkpt lat="40.618445543328754" lon="15.619652854012788"><ele>660.0</ele><time>2026-04-26T18:23:14Z</time></trkpt><trkpt lat="40.618328334127284" lon="15.619925144879504"><ele>660.0</ele><time>2026-04-26T18:23:15Z</time></trkpt><trkpt lat="40.6182081331724" lon="15.620194743433585"><ele>654.5</ele><time>2026-04-26T18:23:16Z</time></trkpt><trkpt lat="40.61808527242371" lon="15.620459295163885"><ele>649.0</ele><time>2026-04-26T18:23:17Z</time></trkpt><trkpt lat="40.61796115971861" lon="15.620719868532063"><ele>649.0</ele><time>2026-04-26T18:23:18Z</time></trkpt><trkpt lat="40.61783466181895" lon="15.620977967512509"><ele>649.0</ele><time>2026-04-26T18:23:19Z</time></trkpt><trkpt lat="40.6177074513963" lon="15.621233687579466"><ele>650.0</ele><time>2026-04-26T18:23:20Z</time></trkpt><trkpt lat="40.61757644635025" lon="15.621487639354447"><ele>651.0</ele><time>2026-04-26T18:23:21Z</time></trkpt><trkpt lat="40.61744508607843" lon="15.621737292736713"><ele>648.0</ele><time>2026-04-26T18:23:22Z</time></trkpt><trkpt lat="40.617316095137184" lon="15.62198325406446"><ele>645.0</ele><time>2026-04-26T18:23:23Z</time></trkpt><trkpt lat="40.61718771119346" lon="15.622222271535062"><ele>642.0</ele><time>2026-04-26T18:23:24Z</time></trkpt><trkpt lat="40.61706093664561" lon="15.62245630563293"><ele>641.6666666666666</ele><time>2026-04-26T18:23:25Z</time></trkpt><trkpt lat="40.616937287546214" lon="15.622680983657075"><ele>641.3333333333333</ele><time>2026-04-26T18:23:26Z</time></trkpt><trkpt lat="40.616817972134434" lon="15.622894476722404"><ele>641.0</ele><time>2026-04-26T18:23:27Z</time></trkpt><trkpt lat="40.61670509341435" lon="15.623100547064064"><ele>641.0</ele><time>2026-04-26T18:23:28Z</time></trkpt><trkpt lat="40.61660525677087" lon="15.623281793275273"><ele>641.0</ele><time>2026-04-26T18:23:29Z</time></trkpt><trkpt lat="40.616509430894155" lon="15.623454627421355"><ele>641.0</ele><time>2026-04-26T18:23:30Z</time></trkpt><trkpt lat="40.61641579808793" lon="15.623625585792157"><ele>638.75</ele><time>2026-04-26T18:23:31Z</time></trkpt><trkpt lat="40.6163291865901" lon="15.623789426604683"><ele>636.5</ele><time>2026-04-26T18:23:32Z</time></trkpt><trkpt lat="40.61624076019574" lon="15.623946192759439"><ele>634.25</ele><time>2026-04-26T18:23:33Z</time></trkpt><trkpt lat="40.61615889117598" lon="15.624090158366478"><ele>632.0</ele><time>2026-04-26T18:23:34Z</time></trkpt><trkpt lat="40.61607683287248" lon="15.624237679889486"><ele>631.25</ele><time>2026-04-26T18:23:35Z</time></trkpt><trkpt lat="40.615994230672975" lon="15.624391474129709"><ele>630.5</ele><time>2026-04-26T18:23:36Z</time></trkpt><trkpt lat="40.61590770763397" lon="15.624546805659312"><ele>629.75</ele><time>2026-04-26T18:23:37Z</time></trkpt><trkpt lat="40.6158196483978" lon="15.624706911263011"><ele>629.0</ele><time>2026-04-26T18:23:38Z</time></trkpt><trkpt lat="40.615732910275206" lon="15.6248637251044"><ele>627.5</ele><time>2026-04-26T18:23:39Z</time></trkpt><trkpt lat="40.61564892818821" lon="15.625015205779722"><ele>626.0</ele><time>2026-04-26T18:23:40Z</time></trkpt><trkpt lat="40.615568116641505" lon="15.625164553593075"><ele>624.5</ele><time>2026-04-26T18:23:41Z</time></trkpt><trkpt lat="40.61549101311736" lon="15.625313406865153"><ele>623.0</ele><time>2026-04-26T18:23:42Z</time></trkpt><trkpt lat="40.6154086307214" lon="15.625462166370225"><ele>621.25</ele><time>2026-04-26T18:23:43Z</time></trkpt><trkpt lat="40.615325103124" lon="15.6256157684499"><ele>619.5</ele><time>2026-04-26T18:23:44Z</time></trkpt><trkpt lat="40.615236598940946" lon="15.625773345692394"><ele>617.75</ele><time>2026-04-26T18:23:45Z</time></trkpt><trkpt lat="40.61514776260125" lon="15.625940045406542"><ele>616.0</ele><time>2026-04-26T18:23:46Z</time></trkpt><trkpt lat="40.61505545933353" lon="15.626121026155502"><ele>615.0</ele><time>2026-04-26T18:23:47Z</time></trkpt><trkpt lat="40.61496173296306" lon="15.626310839220109"><ele>614.0</ele><time>2026-04-26T18:23:48Z</time></trkpt><trkpt lat="40.61487802025653" lon="15.6265145653397"><ele>613.0</ele><time>2026-04-26T18:23:49Z</time></trkpt><trkpt lat="40.6147916583798" lon="15.62671572122066"><ele>613.0</ele><time>2026-04-26T18:23:50Z</time></trkpt><trkpt lat="40.614714221185636" lon="15.62691437826314"><ele>613.0</ele><time>2026-04-26T18:23:51Z</time></trkpt><trkpt lat="40.614642191594676" lon="15.627118345710755"><ele>613.0</ele><time>2026-04-26T18:23:52Z</time></trkpt><trkpt lat="40.61458028387909" lon="15.627324155286468"><ele>609.3333333333334</ele><time>2026-04-26T18:23:53Z</time></trkpt><trkpt lat="40.614522927946204" lon="15.627527447838364"><ele>605.6666666666666</ele><time>2026-04-26T18:23:54Z</time></trkpt><trkpt lat="40.61447065450276" lon="15.627731926231718"><ele>602.0</ele><time>2026-04-26T18:23:55Z</time></trkpt><trkpt lat="40.61442650724014" lon="15.627934898579369"><ele>598.0</ele><time>2026-04-26T18:23:56Z</time></trkpt><trkpt lat="40.614382341196894" lon="15.628144305612867"><ele>594.0</ele><time>2026-04-26T18:23:57Z</time></trkpt><trkpt lat="40.61434224975893" lon="15.628350916616798"><ele>590.0</ele><time>2026-04-26T18:23:58Z</time></trkpt><trkpt lat="40.614307612237525" lon="15.628563537893"><ele>587.3333333333333</ele><time>2026-04-26T18:23:59Z</time></trkpt><trkpt lat="40.61427562979918" lon="15.628782772219244"><ele>584.6666666666666</ele><time>2026-04-26T18:24:00Z</time></trkpt><trkpt lat="40.61423536366361" lon="15.629001099111502"><ele>582.0</ele><time>2026-04-26T18:24:01Z</time></trkpt><trkpt lat="40.61420742340477" lon="15.629233575353801"><ele>582.0</ele><time>2026-04-26T18:24:02Z</time></trkpt><trkpt lat="40.614174925086644" lon="15.629459683833966"><ele>582.0</ele><time>2026-04-26T18:24:03Z</time></trkpt><trkpt lat="40.614139945962194" lon="15.629688862048837"><ele>582.0</ele><time>2026-04-26T18:24:04Z</time></trkpt><trkpt lat="40.61410561978868" lon="15.62992444873801"><ele>575.6666666666666</ele><time>2026-04-26T18:24:05Z</time></trkpt><trkpt lat="40.61407292068957" lon="15.630162542908089"><ele>569.3333333333333</ele><time>2026-04-26T18:24:06Z</time></trkpt><trkpt lat="40.614036995694136" lon="15.630399376079977"><ele>563.0</ele><time>2026-04-26T18:24:07Z</time></trkpt><trkpt lat="40.61400202240122" lon="15.630635139728751"><ele>552.3333333333333</ele><time>2026-04-26T18:24:08Z</time></trkpt><trkpt lat="40.613968090715325" lon="15.630873171318436"><ele>541.6666666666666</ele><time>2026-04-26T18:24:09Z</time></trkpt><trkpt lat="40.61392579095197" lon="15.631128377618847"><ele>531.0</ele><time>2026-04-26T18:24:10Z</time></trkpt><trkpt lat="40.613883201693206" lon="15.631394246158802"><ele>522.6666666666666</ele><time>2026-04-26T18:24:11Z</time></trkpt><trkpt lat="40.613837903780876" lon="15.631673051770509"><ele>514.3333333333333</ele><time>2026-04-26T18:24:12Z</time></trkpt><trkpt lat="40.613793112739245" lon="15.631958103808033"><ele>506.0</ele><time>2026-04-26T18:24:13Z</time></trkpt><trkpt lat="40.61375126322188" lon="15.632225029043692"><ele>505.3333333333333</ele><time>2026-04-26T18:24:14Z</time></trkpt><trkpt lat="40.61371085288577" lon="15.63249042646787"><ele>504.66666666666663</ele><time>2026-04-26T18:24:15Z</time></trkpt><trkpt lat="40.61366890656233" lon="15.632750016046542"><ele>504.0</ele><time>2026-04-26T18:24:16Z</time></trkpt><trkpt lat="40.613627939044626" lon="15.633006456665253"><ele>504.0</ele><time>2026-04-26T18:24:17Z</time></trkpt><trkpt lat="40.61358697869704" lon="15.633261213148458"><ele>504.0</ele><time>2026-04-26T18:24:18Z</time></trkpt><trkpt lat="40.613547619982675" lon="15.63351443960984"><ele>504.0</ele><time>2026-04-26T18:24:19Z</time></trkpt><trkpt lat="40.61350735033614" lon="15.633772961991026"><ele>502.33333333333337</ele><time>2026-04-26T18:24:20Z</time></trkpt><trkpt lat="40.6134697010453" lon="15.634031860403658"><ele>500.6666666666667</ele><time>2026-04-26T18:24:21Z</time></trkpt><trkpt lat="40.61342937920319" lon="15.634291494715255"><ele>499.0</ele><time>2026-04-26T18:24:22Z</time></trkpt><trkpt lat="40.613389236186116" lon="15.634546388759745"><ele>514.3333333333334</ele><time>2026-04-26T18:24:23Z</time></trkpt><trkpt lat="40.61335175669336" lon="15.634799564321446"><ele>529.6666666666666</ele><time>2026-04-26T18:24:24Z</time></trkpt><trkpt lat="40.61331363980234" lon="15.635052422497024"><ele>545.0</ele><time>2026-04-26T18:24:25Z</time></trkpt><trkpt lat="40.613273082686945" lon="15.635303595960723"><ele>564.0</ele><time>2026-04-26T18:24:26Z</time></trkpt><trkpt lat="40.613235680967236" lon="15.635557048530298"><ele>583.0</ele><time>2026-04-26T18:24:27Z</time></trkpt><trkpt lat="40.61319986327484" lon="15.635807073397844"><ele>602.0</ele><time>2026-04-26T18:24:28Z</time></trkpt><trkpt lat="40.61316507944365" lon="15.636058647440326"><ele>610.6666666666666</ele><time>2026-04-26T18:24:29Z</time></trkpt><trkpt lat="40.61312591554951" lon="15.636328860500909"><ele>619.3333333333334</ele><time>2026-04-26T18:24:30Z</time></trkpt><trkpt lat="40.61308571423632" lon="15.636609314770043"><ele>628.0</ele><time>2026-04-26T18:24:31Z</time></trkpt><trkpt lat="40.6130515267438" lon="15.636901943919321"><ele>639.5</ele><time>2026-04-26T18:24:32Z</time></trkpt><trkpt lat="40.61302840281134" lon="15.637203466096457"><ele>651.0</ele><time>2026-04-26T18:24:33Z</time></trkpt><trkpt lat="40.61301224535838" lon="15.637509755618439"><ele>659.5</ele><time>2026-04-26T18:24:34Z</time></trkpt><trkpt lat="40.6129918385841" lon="15.637823055802112"><ele>668.0</ele><time>2026-04-26T18:24:35Z</time></trkpt><trkpt lat="40.61297263164006" lon="15.638147709790513"><ele>668.0</ele><time>2026-04-26T18:24:36.012Z</time></trkpt><trkpt lat="40.61295150684312" lon="15.638473377747193"><ele>668.0</ele><time>2026-04-26T18:24:37.013Z</time></trkpt><trkpt lat="40.612934685853794" lon="15.638805872982992"><ele>662.0</ele><time>2026-04-26T18:24:38.012Z</time></trkpt><trkpt lat="40.612922622638905" lon="15.639145461999508"><ele>656.0</ele><time>2026-04-26T18:24:39.011Z</time></trkpt><trkpt lat="40.6129103893643" lon="15.639487045323536"><ele>639.0</ele><time>2026-04-26T18:24:40.012Z</time></trkpt><trkpt lat="40.61279528778103" lon="15.640147766112946"><ele>631.0</ele><time>2026-04-26T18:24:42Z</time></trkpt><trkpt lat="40.61279226263309" lon="15.640489203841563"><ele>623.0</ele><time>2026-04-26T18:24:43Z</time></trkpt><trkpt lat="40.61277714139066" lon="15.640840946506797"><ele>624.0</ele><time>2026-04-26T18:24:44Z</time></trkpt><trkpt lat="40.61277057731139" lon="15.641186506428486"><ele>625.0</ele><time>2026-04-26T18:24:45Z</time></trkpt><trkpt lat="40.61276529379679" lon="15.641540624254421"><ele>625.0</ele><time>2026-04-26T18:24:46Z</time></trkpt><trkpt lat="40.61276961681401" lon="15.641895335657987"><ele>625.0</ele><time>2026-04-26T18:24:47Z</time></trkpt><trkpt lat="40.6127834303033" lon="15.6422478728195"><ele>630.0</ele><time>2026-04-26T18:24:48Z</time></trkpt><trkpt lat="40.61280136361632" lon="15.64259840365988"><ele>635.0</ele><time>2026-04-26T18:24:49Z</time></trkpt><trkpt lat="40.61282326862436" lon="15.642946372847112"><ele>647.0</ele><time>2026-04-26T18:24:50Z</time></trkpt><trkpt lat="40.6128537974303" lon="15.643293345304933"><ele>659.0</ele><time>2026-04-26T18:24:51Z</time></trkpt><trkpt lat="40.612884864825716" lon="15.643637067383848"><ele>661.0</ele><time>2026-04-26T18:24:52Z</time></trkpt><trkpt lat="40.61292669305102" lon="15.64397525841146"><ele>663.0</ele><time>2026-04-26T18:24:53Z</time></trkpt><trkpt lat="40.61297364349196" lon="15.644316419372936"><ele>662.5</ele><time>2026-04-26T18:24:54Z</time></trkpt><trkpt lat="40.613020535029186" lon="15.644653869570421"><ele>662.0</ele><time>2026-04-26T18:24:55Z</time></trkpt><trkpt lat="40.61307732737045" lon="15.644985104387855"><ele>663.5</ele><time>2026-04-26T18:24:56Z</time></trkpt><trkpt lat="40.61313677764747" lon="15.64531733212554"><ele>665.0</ele><time>2026-04-26T18:24:57Z</time></trkpt><trkpt lat="40.613191204235754" lon="15.645648651115952"><ele>665.0</ele><time>2026-04-26T18:24:58Z</time></trkpt><trkpt lat="40.613241030646726" lon="15.645981130214206"><ele>665.0</ele><time>2026-04-26T18:24:59Z</time></trkpt><trkpt lat="40.61329354617272" lon="15.64631535841435"><ele>666.0</ele><time>2026-04-26T18:25:00Z</time></trkpt><trkpt lat="40.61334857293011" lon="15.64664933084071"><ele>667.0</ele><time>2026-04-26T18:25:01Z</time></trkpt><trkpt lat="40.61339812719281" lon="15.646983946286229"><ele>667.0</ele><time>2026-04-26T18:25:02Z</time></trkpt><trkpt lat="40.613438007227145" lon="15.647315604118077"><ele>667.0</ele><time>2026-04-26T18:25:03Z</time></trkpt><trkpt lat="40.61346532629943" lon="15.647640054984542"><ele>668.5</ele><time>2026-04-26T18:25:04Z</time></trkpt><trkpt lat="40.61347837616899" lon="15.64795517084544"><ele>670.0</ele><time>2026-04-26T18:25:05Z</time></trkpt><trkpt lat="40.61348768664743" lon="15.648266385745345"><ele>670.0</ele><time>2026-04-26T18:25:06Z</time></trkpt><trkpt lat="40.61348786153434" lon="15.648571954731509"><ele>670.0</ele><time>2026-04-26T18:25:07Z</time></trkpt><trkpt lat="40.61348808439729" lon="15.648875311877271"><ele>669.0</ele><time>2026-04-26T18:25:08Z</time></trkpt><trkpt lat="40.61347633361478" lon="15.649180887191866"><ele>668.0</ele><time>2026-04-26T18:25:09Z</time></trkpt><trkpt lat="40.61345428302063" lon="15.649489548934273"><ele>668.0</ele><time>2026-04-26T18:25:10Z</time></trkpt><trkpt lat="40.613421270448434" lon="15.649798415208757"><ele>668.0</ele><time>2026-04-26T18:25:11Z</time></trkpt><trkpt lat="40.613387424393586" lon="15.65010614372297"><ele>669.0</ele><time>2026-04-26T18:25:12Z</time></trkpt><trkpt lat="40.61334170506978" lon="15.650410991401039"><ele>670.0</ele><time>2026-04-26T18:25:13Z</time></trkpt><trkpt lat="40.61329297220382" lon="15.650713968215845"><ele>670.0</ele><time>2026-04-26T18:25:14Z</time></trkpt><trkpt lat="40.61323385633799" lon="15.6510157241475"><ele>670.0</ele><time>2026-04-26T18:25:15Z</time></trkpt><trkpt lat="40.6131672921052" lon="15.65131733150286"><ele>672.0</ele><time>2026-04-26T18:25:16Z</time></trkpt><trkpt lat="40.61308963059557" lon="15.651614129811243"><ele>674.0</ele><time>2026-04-26T18:25:17Z</time></trkpt><trkpt lat="40.61300289773093" lon="15.651909464046271"><ele>673.5</ele><time>2026-04-26T18:25:18Z</time></trkpt><trkpt lat="40.61291004437195" lon="15.652201469286398"><ele>673.0</ele><time>2026-04-26T18:25:19Z</time></trkpt><trkpt lat="40.61280673155712" lon="15.652488014401094"><ele>674.5</ele><time>2026-04-26T18:25:20Z</time></trkpt><trkpt lat="40.612702695734136" lon="15.652773690468006"><ele>676.0</ele><time>2026-04-26T18:25:21Z</time></trkpt><trkpt lat="40.61259501474404" lon="15.653059284098708"><ele>676.0</ele><time>2026-04-26T18:25:22Z</time></trkpt><trkpt lat="40.612483889374936" lon="15.653344111780621"><ele>676.0</ele><time>2026-04-26T18:25:23Z</time></trkpt><trkpt lat="40.6123736766347" lon="15.653627815062448"><ele>675.5</ele><time>2026-04-26T18:25:24Z</time></trkpt><trkpt lat="40.61226585460458" lon="15.653913278572325"><ele>675.0</ele><time>2026-04-26T18:25:25Z</time></trkpt><trkpt lat="40.61215700566431" lon="15.654198903446133"><ele>675.0</ele><time>2026-04-26T18:25:26Z</time></trkpt><trkpt lat="40.61204962095449" lon="15.654488982156584"><ele>675.0</ele><time>2026-04-26T18:25:27Z</time></trkpt><trkpt lat="40.6119408506671" lon="15.654780604366467"><ele>679.5</ele><time>2026-04-26T18:25:28Z</time></trkpt><trkpt lat="40.61182636863816" lon="15.65507006847576"><ele>684.0</ele><time>2026-04-26T18:25:29Z</time></trkpt><trkpt lat="40.61171035024767" lon="15.655357364442175"><ele>685.0</ele><time>2026-04-26T18:25:30Z</time></trkpt><trkpt lat="40.61159521915987" lon="15.655644652586018"><ele>686.0</ele><time>2026-04-26T18:25:31Z</time></trkpt><trkpt lat="40.61147871451056" lon="15.655933540851088"><ele>688.5</ele><time>2026-04-26T18:25:32Z</time></trkpt><trkpt lat="40.61136459117384" lon="15.656223949570533"><ele>691.0</ele><time>2026-04-26T18:25:33Z</time></trkpt><trkpt lat="40.611256464690385" lon="15.656517455552551"><ele>693.5</ele><time>2026-04-26T18:25:34Z</time></trkpt><trkpt lat="40.611156264088635" lon="15.656816162903983"><ele>696.0</ele><time>2026-04-26T18:25:35Z</time></trkpt><trkpt lat="40.611069126498066" lon="15.657119830260433"><ele>696.5</ele><time>2026-04-26T18:25:36Z</time></trkpt><trkpt lat="40.61098881382855" lon="15.657428360808485"><ele>697.0</ele><time>2026-04-26T18:25:37Z</time></trkpt><trkpt lat="40.610911299873315" lon="15.657741229942465"><ele>698.5</ele><time>2026-04-26T18:25:38Z</time></trkpt><trkpt lat="40.61084018675413" lon="15.658055966189972"><ele>700.0</ele><time>2026-04-26T18:25:39Z</time></trkpt><trkpt lat="40.610776985591905" lon="15.65837377711457"><ele>701.5</ele><time>2026-04-26T18:25:40Z</time></trkpt><trkpt lat="40.61071847884132" lon="15.658693943081404"><ele>703.0</ele><time>2026-04-26T18:25:41Z</time></trkpt><trkpt lat="40.61066211903289" lon="15.659016293955517"><ele>703.0</ele><time>2026-04-26T18:25:42Z</time></trkpt><trkpt lat="40.61060779333126" lon="15.659337398210646"><ele>703.0</ele><time>2026-04-26T18:25:43Z</time></trkpt><trkpt lat="40.610551630098605" lon="15.659658674931393"><ele>702.5</ele><time>2026-04-26T18:25:44Z</time></trkpt><trkpt lat="40.610495246717164" lon="15.659980519317132"><ele>702.0</ele><time>2026-04-26T18:25:45Z</time></trkpt><trkpt lat="40.61044539542778" lon="15.660305047565048"><ele>702.0</ele><time>2026-04-26T18:25:46Z</time></trkpt><trkpt lat="40.610397939020544" lon="15.660628348899207"><ele>702.0</ele><time>2026-04-26T18:25:47Z</time></trkpt><trkpt lat="40.610351215649644" lon="15.660945629041178"><ele>708.5</ele><time>2026-04-26T18:25:48Z</time></trkpt><trkpt lat="40.610305249632106" lon="15.6612520534677"><ele>715.0</ele><time>2026-04-26T18:25:49Z</time></trkpt><trkpt lat="40.61025971192818" lon="15.661546993105489"><ele>715.0</ele><time>2026-04-26T18:25:50Z</time></trkpt><trkpt lat="40.61021465274432" lon="15.661834743245947"><ele>715.0</ele><time>2026-04-26T18:25:51Z</time></trkpt><trkpt lat="40.61016333383833" lon="15.662116600899038"><ele>715.0</ele><time>2026-04-26T18:25:52Z</time></trkpt><trkpt lat="40.610103840936574" lon="15.662403619804001"><ele>717.0</ele><time>2026-04-26T18:25:53Z</time></trkpt><trkpt lat="40.61004783972745" lon="15.662695786279238"><ele>719.0</ele><time>2026-04-26T18:25:54Z</time></trkpt><trkpt lat="40.60999665792243" lon="15.662994334938961"><ele>720.0</ele><time>2026-04-26T18:25:55Z</time></trkpt><trkpt lat="40.60995249131964" lon="15.663297568660587"><ele>721.0</ele><time>2026-04-26T18:25:56Z</time></trkpt><trkpt lat="40.6099167890362" lon="15.663608424373631"><ele>719.5</ele><time>2026-04-26T18:25:57Z</time></trkpt><trkpt lat="40.60989265717784" lon="15.663923535394352"><ele>718.0</ele><time>2026-04-26T18:25:58Z</time></trkpt><trkpt lat="40.6098814894101" lon="15.664241138670272"><ele>717.0</ele><time>2026-04-26T18:25:59Z</time></trkpt><trkpt lat="40.609881947333875" lon="15.664555850566723"><ele>716.0</ele><time>2026-04-26T18:26:00Z</time></trkpt><trkpt lat="40.60989013133117" lon="15.664867672077177"><ele>716.0</ele><time>2026-04-26T18:26:01Z</time></trkpt><trkpt lat="40.609910249840986" lon="15.665175016522792"><ele>716.0</ele><time>2026-04-26T18:26:02Z</time></trkpt><trkpt lat="40.60993787710703" lon="15.665478126082133"><ele>716.5</ele><time>2026-04-26T18:26:03Z</time></trkpt><trkpt lat="40.609977557677645" lon="15.66577932959662"><ele>717.0</ele><time>2026-04-26T18:26:04Z</time></trkpt><trkpt lat="40.61002316096886" lon="15.666076799984422"><ele>719.5</ele><time>2026-04-26T18:26:05Z</time></trkpt><trkpt lat="40.610085660104424" lon="15.666369870416558"><ele>722.0</ele><time>2026-04-26T18:26:06Z</time></trkpt><trkpt lat="40.61015436550013" lon="15.666654415633563"><ele>722.0</ele><time>2026-04-26T18:26:07Z</time></trkpt><trkpt lat="40.610227577307505" lon="15.666934178105693"><ele>722.0</ele><time>2026-04-26T18:26:08Z</time></trkpt><trkpt lat="40.61031083169442" lon="15.66720903587081"><ele>722.0</ele><time>2026-04-26T18:26:09Z</time></trkpt><trkpt lat="40.61039673643426" lon="15.667479681135045"><ele>722.6666666666666</ele><time>2026-04-26T18:26:10Z</time></trkpt><trkpt lat="40.61049313238208" lon="15.667741501818396"><ele>723.3333333333334</ele><time>2026-04-26T18:26:11Z</time></trkpt><trkpt lat="40.610596582652946" lon="15.667997189239669"><ele>724.0</ele><time>2026-04-26T18:26:12Z</time></trkpt><trkpt lat="40.610712901625476" lon="15.66824630834819"><ele>724.0</ele><time>2026-04-26T18:26:13Z</time></trkpt><trkpt lat="40.61083268379226" lon="15.66849079675467"><ele>724.0</ele><time>2026-04-26T18:26:14Z</time></trkpt><trkpt lat="40.61095866743685" lon="15.668732428186326"><ele>724.0</ele><time>2026-04-26T18:26:15Z</time></trkpt><trkpt lat="40.61109391231846" lon="15.668975148271036"><ele>725.5</ele><time>2026-04-26T18:26:16Z</time></trkpt><trkpt lat="40.611233027321944" lon="15.669217442657581"><ele>727.0</ele><time>2026-04-26T18:26:17Z</time></trkpt><trkpt lat="40.61137058949976" lon="15.669462706253794"><ele>728.5</ele><time>2026-04-26T18:26:18Z</time></trkpt><trkpt lat="40.6114992046496" lon="15.669719270688619"><ele>730.0</ele><time>2026-04-26T18:26:19Z</time></trkpt><trkpt lat="40.61162762363182" lon="15.669982113098358"><ele>730.0</ele><time>2026-04-26T18:26:20Z</time></trkpt><trkpt lat="40.611756097026344" lon="15.670248222346991"><ele>730.0</ele><time>2026-04-26T18:26:21Z</time></trkpt><trkpt lat="40.61187537480665" lon="15.670527054621429"><ele>731.5</ele><time>2026-04-26T18:26:22Z</time></trkpt><trkpt lat="40.61197966630065" lon="15.670810934571193"><ele>733.0</ele><time>2026-04-26T18:26:23Z</time></trkpt><trkpt lat="40.612071606806964" lon="15.67109522921029"><ele>738.0</ele><time>2026-04-26T18:26:24Z</time></trkpt><trkpt lat="40.61215359816556" lon="15.671378143131104"><ele>743.0</ele><time>2026-04-26T18:26:25Z</time></trkpt><trkpt lat="40.612220024335215" lon="15.671662088390566"><ele>744.6666666666666</ele><time>2026-04-26T18:26:26Z</time></trkpt><trkpt lat="40.612275002459626" lon="15.671949372157602"><ele>746.3333333333334</ele><time>2026-04-26T18:26:27Z</time></trkpt><trkpt lat="40.612320375715335" lon="15.672236828023149"><ele>748.0</ele><time>2026-04-26T18:26:28Z</time></trkpt><trkpt lat="40.61235083522069" lon="15.67252543590834"><ele>749.6666666666667</ele><time>2026-04-26T18:26:29Z</time></trkpt><trkpt lat="40.612373060405766" lon="15.672809347504156"><ele>751.3333333333334</ele><time>2026-04-26T18:26:30Z</time></trkpt><trkpt lat="40.61238525395739" lon="15.673092411737022"><ele>753.0</ele><time>2026-04-26T18:26:31Z</time></trkpt><trkpt lat="40.61238499682713" lon="15.67337264560684"><ele>753.3333333333334</ele><time>2026-04-26T18:26:32Z</time></trkpt><trkpt lat="40.61237572418201" lon="15.673654966019397"><ele>753.6666666666667</ele><time>2026-04-26T18:26:33Z</time></trkpt><trkpt lat="40.61235587949236" lon="15.673937898100947"><ele>754.0</ele><time>2026-04-26T18:26:34Z</time></trkpt><trkpt lat="40.61232299771592" lon="15.6742200523479"><ele>755.6666666666667</ele><time>2026-04-26T18:26:35Z</time></trkpt><trkpt lat="40.61227941992655" lon="15.674504995970995"><ele>757.3333333333334</ele><time>2026-04-26T18:26:36Z</time></trkpt><trkpt lat="40.61222724721239" lon="15.674792523179232"><ele>759.0</ele><time>2026-04-26T18:26:37Z</time></trkpt><trkpt lat="40.61215581604787" lon="15.67507334392623"><ele>762.0</ele><time>2026-04-26T18:26:38Z</time></trkpt><trkpt lat="40.61207904179965" lon="15.675356469575137"><ele>765.0</ele><time>2026-04-26T18:26:39Z</time></trkpt><trkpt lat="40.61199229188464" lon="15.675627366286328"><ele>763.0</ele><time>2026-04-26T18:26:40Z</time></trkpt><trkpt lat="40.6119038607324" lon="15.6758755773655"><ele>761.0</ele><time>2026-04-26T18:26:41Z</time></trkpt><trkpt lat="40.61181277328662" lon="15.676108146128383"><ele>759.0</ele><time>2026-04-26T18:26:42Z</time></trkpt><trkpt lat="40.611717210023734" lon="15.676327628363518"><ele>759.0</ele><time>2026-04-26T18:26:43Z</time></trkpt><trkpt lat="40.61161917766298" lon="15.676535645676864"><ele>759.0</ele><time>2026-04-26T18:26:44Z</time></trkpt><trkpt lat="40.611525050270316" lon="15.67673264515788"><ele>759.0</ele><time>2026-04-26T18:26:45Z</time></trkpt><trkpt lat="40.61143333706055" lon="15.676923137752924"><ele>763.6666666666667</ele><time>2026-04-26T18:26:46Z</time></trkpt><trkpt lat="40.61134164918308" lon="15.677104015107496"><ele>768.3333333333334</ele><time>2026-04-26T18:26:47Z</time></trkpt><trkpt lat="40.61124960673825" lon="15.677279775188707"><ele>773.0</ele><time>2026-04-26T18:26:48Z</time></trkpt><trkpt lat="40.611161912299586" lon="15.677449886205315"><ele>774.0</ele><time>2026-04-26T18:26:49Z</time></trkpt><trkpt lat="40.611075595492544" lon="15.677616483564952"><ele>775.0</ele><time>2026-04-26T18:26:50Z</time></trkpt><trkpt lat="40.61100229596574" lon="15.677786346539094"><ele>776.0</ele><time>2026-04-26T18:26:51Z</time></trkpt><trkpt lat="40.610938990797116" lon="15.67796017735319"><ele>777.0</ele><time>2026-04-26T18:26:52Z</time></trkpt><trkpt lat="40.610869769286225" lon="15.678126169765072"><ele>777.0</ele><time>2026-04-26T18:26:53Z</time></trkpt><trkpt lat="40.61079710405844" lon="15.67827718511108"><ele>777.0</ele><time>2026-04-26T18:26:54Z</time></trkpt><trkpt lat="40.6107197329459" lon="15.678419254347915"><ele>777.0</ele><time>2026-04-26T18:26:55Z</time></trkpt><trkpt lat="40.610651911541595" lon="15.678575192944844"><ele>777.0</ele><time>2026-04-26T18:26:56Z</time></trkpt><trkpt lat="40.610588954182646" lon="15.678743597119704"><ele>779.3333333333333</ele><time>2026-04-26T18:26:57Z</time></trkpt><trkpt lat="40.610517923735834" lon="15.678914839381596"><ele>781.6666666666666</ele><time>2026-04-26T18:26:58Z</time></trkpt><trkpt lat="40.610433924809875" lon="15.67908121491416"><ele>784.0</ele><time>2026-04-26T18:26:59Z</time></trkpt><trkpt lat="40.610337569638205" lon="15.679264416083084"><ele>782.3333333333333</ele><time>2026-04-26T18:27:00Z</time></trkpt><trkpt lat="40.61024103016457" lon="15.67945644790797"><ele>780.6666666666667</ele><time>2026-04-26T18:27:01Z</time></trkpt><trkpt lat="40.61013986235419" lon="15.67965611622913"><ele>779.0</ele><time>2026-04-26T18:27:02Z</time></trkpt><trkpt lat="40.610033044924066" lon="15.679864888027598"><ele>779.0</ele><time>2026-04-26T18:27:03Z</time></trkpt><trkpt lat="40.60992319157233" lon="15.680077682495579"><ele>779.0</ele><time>2026-04-26T18:27:04Z</time></trkpt><trkpt lat="40.6098154332592" lon="15.680295239758431"><ele>779.0</ele><time>2026-04-26T18:27:05Z</time></trkpt><trkpt lat="40.609707142258806" lon="15.680518538947078"><ele>780.6666666666667</ele><time>2026-04-26T18:27:06Z</time></trkpt><trkpt lat="40.60959845882014" lon="15.680748233643824"><ele>782.3333333333333</ele><time>2026-04-26T18:27:07Z</time></trkpt><trkpt lat="40.60949442022611" lon="15.680987941155335"><ele>784.0</ele><time>2026-04-26T18:27:08Z</time></trkpt><trkpt lat="40.609396552853596" lon="15.681235683669044"><ele>784.0</ele><time>2026-04-26T18:27:09Z</time></trkpt><trkpt lat="40.609303497827746" lon="15.6814905076712"><ele>784.0</ele><time>2026-04-26T18:27:10Z</time></trkpt><trkpt lat="40.60921695505172" lon="15.681744789770974"><ele>784.0</ele><time>2026-04-26T18:27:11Z</time></trkpt><trkpt lat="40.609138073039645" lon="15.681997124061766"><ele>786.3333333333333</ele><time>2026-04-26T18:27:12Z</time></trkpt><trkpt lat="40.60906713312881" lon="15.68225336681064"><ele>788.6666666666667</ele><time>2026-04-26T18:27:13Z</time></trkpt><trkpt lat="40.609003157321176" lon="15.682509416962375"><ele>791.0</ele><time>2026-04-26T18:27:14Z</time></trkpt><trkpt lat="40.60895003607907" lon="15.682768199723045"><ele>794.3333333333334</ele><time>2026-04-26T18:27:15Z</time></trkpt><trkpt lat="40.60890400108681" lon="15.683020887181302"><ele>797.6666666666667</ele><time>2026-04-26T18:27:16Z</time></trkpt><trkpt lat="40.608862604109476" lon="15.683271924870041"><ele>801.0</ele><time>2026-04-26T18:27:17Z</time></trkpt><trkpt lat="40.60883165377124" lon="15.683521315920867"><ele>802.6666666666667</ele><time>2026-04-26T18:27:18Z</time></trkpt><trkpt lat="40.60880698857428" lon="15.683766829343542"><ele>804.3333333333334</ele><time>2026-04-26T18:27:19Z</time></trkpt><trkpt lat="40.608785254051966" lon="15.684010734663522"><ele>806.0</ele><time>2026-04-26T18:27:20Z</time></trkpt><trkpt lat="40.608693108923774" lon="15.684246243079624"><ele>805.0</ele><time>2026-04-26T18:27:21Z</time></trkpt><trkpt lat="40.60868341388044" lon="15.684491627111269"><ele>804.0</ele><time>2026-04-26T18:27:22Z</time></trkpt><trkpt lat="40.60867807942606" lon="15.684731204543212"><ele>803.0</ele><time>2026-04-26T18:27:23Z</time></trkpt><trkpt lat="40.60867753045394" lon="15.684972204682962"><ele>803.0</ele><time>2026-04-26T18:27:24Z</time></trkpt><trkpt lat="40.60868151842392" lon="15.685215543860119"><ele>803.0</ele><time>2026-04-26T18:27:25Z</time></trkpt><trkpt lat="40.60868627226715" lon="15.685458258199214"><ele>803.0</ele><time>2026-04-26T18:27:26Z</time></trkpt><trkpt lat="40.60869109581109" lon="15.685700263645959"><ele>803.0</ele><time>2026-04-26T18:27:27Z</time></trkpt><trkpt lat="40.608694842436456" lon="15.685930927321863"><ele>803.0</ele><time>2026-04-26T18:27:28Z</time></trkpt><trkpt lat="40.60869855788187" lon="15.686159671279585"><ele>803.0</ele><time>2026-04-26T18:27:29Z</time></trkpt><trkpt lat="40.60870213328409" lon="15.686379793366152"><ele>804.25</ele><time>2026-04-26T18:27:30Z</time></trkpt><trkpt lat="40.6087060794544" lon="15.686588143694236"><ele>805.5</ele><time>2026-04-26T18:27:31Z</time></trkpt><trkpt lat="40.60870960950573" lon="15.686773672119168"><ele>806.75</ele><time>2026-04-26T18:27:32Z</time></trkpt><trkpt lat="40.60871217434305" lon="15.68691787640829"><ele>808.0</ele><time>2026-04-26T18:27:33Z</time></trkpt><trkpt lat="40.608714415391304" lon="15.687034191799215"><ele>808.4</ele><time>2026-04-26T18:27:34Z</time></trkpt><trkpt lat="40.608716714479755" lon="15.68715351971152"><ele>808.8</ele><time>2026-04-26T18:27:35Z</time></trkpt><trkpt lat="40.608710628422095" lon="15.687275887786564"><ele>809.2</ele><time>2026-04-26T18:27:36Z</time></trkpt><trkpt lat="40.60868977691835" lon="15.687428488102741"><ele>809.6</ele><time>2026-04-26T18:27:37Z</time></trkpt><trkpt lat="40.60864034931678" lon="15.687598611912543"><ele>810.0</ele><time>2026-04-26T18:27:38Z</time></trkpt><trkpt lat="40.60861332787678" lon="15.687803464401421"><ele>811.3333333333333</ele><time>2026-04-26T18:27:39Z</time></trkpt><trkpt lat="40.6086980896684" lon="15.688038882497677"><ele>812.6666666666666</ele><time>2026-04-26T18:27:40Z</time></trkpt><trkpt lat="40.60870469038892" lon="15.68827690497473"><ele>814.0</ele><time>2026-04-26T18:27:41Z</time></trkpt><trkpt lat="40.60871530046033" lon="15.688530002751074"><ele>815.6666666666666</ele><time>2026-04-26T18:27:42Z</time></trkpt><trkpt lat="40.60872106521453" lon="15.688798353570396"><ele>817.3333333333333</ele><time>2026-04-26T18:27:43Z</time></trkpt><trkpt lat="40.60872478461468" lon="15.689079368355248"><ele>819.0</ele><time>2026-04-26T18:27:44Z</time></trkpt><trkpt lat="40.608726403775385" lon="15.68937246184723"><ele>821.0</ele><time>2026-04-26T18:27:45Z</time></trkpt><trkpt lat="40.6087307574055" lon="15.689673770843063"><ele>823.0</ele><time>2026-04-26T18:27:46Z</time></trkpt><trkpt lat="40.608731915166686" lon="15.6899838232003"><ele>819.0</ele><time>2026-04-26T18:27:47Z</time></trkpt><trkpt lat="40.60873769617727" lon="15.690289012200669"><ele>815.0</ele><time>2026-04-26T18:27:48Z</time></trkpt><trkpt lat="40.60874499748641" lon="15.690596975369743"><ele>815.0</ele><time>2026-04-26T18:27:49Z</time></trkpt><trkpt lat="40.608748217747845" lon="15.69090623452883"><ele>815.0</ele><time>2026-04-26T18:27:50Z</time></trkpt><trkpt lat="40.60874763557888" lon="15.691212158858493"><ele>812.0</ele><time>2026-04-26T18:27:51Z</time></trkpt><trkpt lat="40.6087692537588" lon="15.691512475845178"><ele>809.0</ele><time>2026-04-26T18:27:52Z</time></trkpt><trkpt lat="40.60877525784239" lon="15.691817420805947"><ele>807.0</ele><time>2026-04-26T18:27:53Z</time></trkpt><trkpt lat="40.60877737438242" lon="15.692122273114192"><ele>805.0</ele><time>2026-04-26T18:27:54Z</time></trkpt><trkpt lat="40.608788259345495" lon="15.692424618585013"><ele>805.0</ele><time>2026-04-26T18:27:55Z</time></trkpt><trkpt lat="40.60879354273741" lon="15.692723518333706"><ele>805.0</ele><time>2026-04-26T18:27:56Z</time></trkpt><trkpt lat="40.60879874961598" lon="15.693021018414536"><ele>805.0</ele><time>2026-04-26T18:27:57Z</time></trkpt><trkpt lat="40.60880227186913" lon="15.693322968767104"><ele>805.0</ele><time>2026-04-26T18:27:58Z</time></trkpt><trkpt lat="40.60880924742648" lon="15.69362609268358"><ele>804.5</ele><time>2026-04-26T18:27:59Z</time></trkpt><trkpt lat="40.608813335197155" lon="15.693925403811882"><ele>804.0</ele><time>2026-04-26T18:28:00Z</time></trkpt><trkpt lat="40.60881515719758" lon="15.694223067897724"><ele>803.3333333333333</ele><time>2026-04-26T18:28:01Z</time></trkpt><trkpt lat="40.608818950487" lon="15.694511945933021"><ele>802.6666666666666</ele><time>2026-04-26T18:28:02Z</time></trkpt><trkpt lat="40.60882137859755" lon="15.694802035993002"><ele>802.0</ele><time>2026-04-26T18:28:03Z</time></trkpt><trkpt lat="40.608832887557085" lon="15.695097323128321"><ele>802.6666666666666</ele><time>2026-04-26T18:28:04Z</time></trkpt><trkpt lat="40.60883364323293" lon="15.695394596745906"><ele>803.3333333333333</ele><time>2026-04-26T18:28:05Z</time></trkpt><trkpt lat="40.60882756561734" lon="15.695687620927865"><ele>804.0</ele><time>2026-04-26T18:28:06Z</time></trkpt><trkpt lat="40.608809178723284" lon="15.695977808527198"><ele>803.6666666666667</ele><time>2026-04-26T18:28:07Z</time></trkpt><trkpt lat="40.608784066151856" lon="15.696266967293628"><ele>803.3333333333334</ele><time>2026-04-26T18:28:08Z</time></trkpt><trkpt lat="40.60874846380994" lon="15.696548685263684"><ele>803.0</ele><time>2026-04-26T18:28:09Z</time></trkpt><trkpt lat="40.60870241057024" lon="15.69682607375878"><ele>802.3333333333334</ele><time>2026-04-26T18:28:10Z</time></trkpt><trkpt lat="40.60865045252257" lon="15.697102524753888"><ele>801.6666666666667</ele><time>2026-04-26T18:28:11Z</time></trkpt><trkpt lat="40.608596391623024" lon="15.69737650350662"><ele>801.0</ele><time>2026-04-26T18:28:12Z</time></trkpt><trkpt lat="40.608540566884166" lon="15.697651735147092"><ele>801.0</ele><time>2026-04-26T18:28:13Z</time></trkpt><trkpt lat="40.60848083731428" lon="15.697935028243462"><ele>801.0</ele><time>2026-04-26T18:28:14Z</time></trkpt><trkpt lat="40.60841765903936" lon="15.698224949814799"><ele>801.0</ele><time>2026-04-26T18:28:15Z</time></trkpt><trkpt lat="40.60835557773894" lon="15.698517848318602"><ele>801.0</ele><time>2026-04-26T18:28:16Z</time></trkpt><trkpt lat="40.60829560978124" lon="15.698815299967615"><ele>800.5</ele><time>2026-04-26T18:28:17Z</time></trkpt><trkpt lat="40.608241457881114" lon="15.699118496430858"><ele>800.0</ele><time>2026-04-26T18:28:18Z</time></trkpt><trkpt lat="40.608191039255246" lon="15.699425206935466"><ele>800.0</ele><time>2026-04-26T18:28:19Z</time></trkpt><trkpt lat="40.60815422759145" lon="15.69973726701811"><ele>800.0</ele><time>2026-04-26T18:28:20Z</time></trkpt><trkpt lat="40.608118439102135" lon="15.700046811427319"><ele>800.5</ele><time>2026-04-26T18:28:21Z</time></trkpt><trkpt lat="40.608082706833166" lon="15.700352042935966"><ele>801.0</ele><time>2026-04-26T18:28:22Z</time></trkpt><trkpt lat="40.60805700510108" lon="15.700659109384457"><ele>801.0</ele><time>2026-04-26T18:28:23Z</time></trkpt><trkpt lat="40.608030636278535" lon="15.700970682007704"><ele>801.0</ele><time>2026-04-26T18:28:24Z</time></trkpt><trkpt lat="40.60800218107366" lon="15.701290548898282"><ele>801.0</ele><time>2026-04-26T18:28:25Z</time></trkpt><trkpt lat="40.607981930740344" lon="15.701608988610607"><ele>801.0</ele><time>2026-04-26T18:28:26Z</time></trkpt><trkpt lat="40.60796849299536" lon="15.701926685603043"><ele>801.0</ele><time>2026-04-26T18:28:27Z</time></trkpt><trkpt lat="40.607952734543716" lon="15.702245478483634"><ele>801.0</ele><time>2026-04-26T18:28:28Z</time></trkpt><trkpt lat="40.60794185664372" lon="15.702563203270993"><ele>800.0</ele><time>2026-04-26T18:28:29Z</time></trkpt><trkpt lat="40.60793119885516" lon="15.702882978051775"><ele>799.0</ele><time>2026-04-26T18:28:30Z</time></trkpt><trkpt lat="40.607917793577414" lon="15.70320423736702"><ele>799.0</ele><time>2026-04-26T18:28:31Z</time></trkpt><trkpt lat="40.60790828760409" lon="15.70352889275486"><ele>799.0</ele><time>2026-04-26T18:28:32Z</time></trkpt><trkpt lat="40.607897342226266" lon="15.703854507373999"><ele>798.5</ele><time>2026-04-26T18:28:33Z</time></trkpt><trkpt lat="40.607886198030194" lon="15.704181661040106"><ele>798.0</ele><time>2026-04-26T18:28:34Z</time></trkpt><trkpt lat="40.607876414689905" lon="15.704511531908977"><ele>796.0</ele><time>2026-04-26T18:28:35Z</time></trkpt><trkpt lat="40.60786701756799" lon="15.704843372150329"><ele>794.0</ele><time>2026-04-26T18:28:36Z</time></trkpt><trkpt lat="40.607854074503656" lon="15.705179428247707"><ele>793.0</ele><time>2026-04-26T18:28:37Z</time></trkpt><trkpt lat="40.60783498913547" lon="15.705510962561933"><ele>792.0</ele><time>2026-04-26T18:28:38Z</time></trkpt><trkpt lat="40.60782550445088" lon="15.705837261805483"><ele>789.0</ele><time>2026-04-26T18:28:39Z</time></trkpt><trkpt lat="40.60781246936276" lon="15.706163688468568"><ele>786.0</ele><time>2026-04-26T18:28:40Z</time></trkpt><trkpt lat="40.60779783300377" lon="15.70649239297106"><ele>786.0</ele><time>2026-04-26T18:28:41Z</time></trkpt><trkpt lat="40.607790084913084" lon="15.70682002430082"><ele>786.0</ele><time>2026-04-26T18:28:42Z</time></trkpt><trkpt lat="40.60777561603972" lon="15.707147834914124"><ele>786.0</ele><time>2026-04-26T18:28:43Z</time></trkpt><trkpt lat="40.607760938488134" lon="15.707475571452587"><ele>786.0</ele><time>2026-04-26T18:28:44Z</time></trkpt><trkpt lat="40.607752938684705" lon="15.707805920422011"><ele>786.0</ele><time>2026-04-26T18:28:45Z</time></trkpt><trkpt lat="40.60773466574496" lon="15.708133964461732"><ele>786.0</ele><time>2026-04-26T18:28:46Z</time></trkpt><trkpt lat="40.607727372566615" lon="15.708462225412783"><ele>785.5</ele><time>2026-04-26T18:28:47Z</time></trkpt><trkpt lat="40.60771643639277" lon="15.708789439082649"><ele>785.0</ele><time>2026-04-26T18:28:48Z</time></trkpt><trkpt lat="40.60769882286357" lon="15.70911600660071"><ele>783.5</ele><time>2026-04-26T18:28:49Z</time></trkpt><trkpt lat="40.60769292306772" lon="15.709440519030366"><ele>782.0</ele><time>2026-04-26T18:28:50Z</time></trkpt><trkpt lat="40.60768428689717" lon="15.70976742729851"><ele>782.0</ele><time>2026-04-26T18:28:51Z</time></trkpt><trkpt lat="40.60767349284559" lon="15.710091679397493"><ele>782.0</ele><time>2026-04-26T18:28:52Z</time></trkpt><trkpt lat="40.607661766690285" lon="15.710418928306899"><ele>782.5</ele><time>2026-04-26T18:28:53Z</time></trkpt><trkpt lat="40.60765344693224" lon="15.710744605203756"><ele>783.0</ele><time>2026-04-26T18:28:54Z</time></trkpt><trkpt lat="40.60764074424215" lon="15.711063547567443"><ele>781.5</ele><time>2026-04-26T18:28:55Z</time></trkpt><trkpt lat="40.60762850076086" lon="15.711381579001445"><ele>780.0</ele><time>2026-04-26T18:28:56Z</time></trkpt><trkpt lat="40.60762141447738" lon="15.711695366973492"><ele>780.0</ele><time>2026-04-26T18:28:57Z</time></trkpt><trkpt lat="40.60761983402484" lon="15.712011665943365"><ele>780.0</ele><time>2026-04-26T18:28:58Z</time></trkpt><trkpt lat="40.607621527616125" lon="15.712330814571308"><ele>780.0</ele><time>2026-04-26T18:28:59Z</time></trkpt><trkpt lat="40.60762541123753" lon="15.712651992497474"><ele>780.0</ele><time>2026-04-26T18:29:00Z</time></trkpt><trkpt lat="40.60763338813053" lon="15.71297499849535"><ele>780.0</ele><time>2026-04-26T18:29:01Z</time></trkpt><trkpt lat="40.60764153835291" lon="15.713299248533845"><ele>780.0</ele><time>2026-04-26T18:29:02Z</time></trkpt><trkpt lat="40.607653571689156" lon="15.713624440957823"><ele>780.0</ele><time>2026-04-26T18:29:03Z</time></trkpt><trkpt lat="40.60766796085188" lon="15.713951882203908"><ele>780.0</ele><time>2026-04-26T18:29:04Z</time></trkpt><trkpt lat="40.60768836992699" lon="15.714280720072248"><ele>778.5</ele><time>2026-04-26T18:29:05Z</time></trkpt><trkpt lat="40.607715151858194" lon="15.71460729697202"><ele>777.0</ele><time>2026-04-26T18:29:06Z</time></trkpt><trkpt lat="40.60773755928881" lon="15.714937133807231"><ele>776.5</ele><time>2026-04-26T18:29:07Z</time></trkpt><trkpt lat="40.6077672641773" lon="15.715263995010059"><ele>776.0</ele><time>2026-04-26T18:29:08Z</time></trkpt><trkpt lat="40.60780025671035" lon="15.715592135001142"><ele>777.5</ele><time>2026-04-26T18:29:09Z</time></trkpt><trkpt lat="40.607834391859285" lon="15.715921352519661"><ele>779.0</ele><time>2026-04-26T18:29:10Z</time></trkpt><trkpt lat="40.60787246164184" lon="15.716248674506142"><ele>779.0</ele><time>2026-04-26T18:29:11Z</time></trkpt><trkpt lat="40.607916510907124" lon="15.71657126050453"><ele>779.0</ele><time>2026-04-26T18:29:12Z</time></trkpt><trkpt lat="40.607963482457514" lon="15.716890725528332"><ele>779.0</ele><time>2026-04-26T18:29:13Z</time></trkpt><trkpt lat="40.608009951406004" lon="15.717208836246858"><ele>779.0</ele><time>2026-04-26T18:29:14Z</time></trkpt><trkpt lat="40.60805603321078" lon="15.7175259043357"><ele>779.5</ele><time>2026-04-26T18:29:15Z</time></trkpt><trkpt lat="40.6081064608189" lon="15.717843024505605"><ele>780.0</ele><time>2026-04-26T18:29:16Z</time></trkpt><trkpt lat="40.60816006170335" lon="15.718160080115412"><ele>780.0</ele><time>2026-04-26T18:29:17Z</time></trkpt><trkpt lat="40.60821193942972" lon="15.718475888130019"><ele>780.0</ele><time>2026-04-26T18:29:18Z</time></trkpt><trkpt lat="40.60825738278786" lon="15.71879337149108"><ele>779.5</ele><time>2026-04-26T18:29:19Z</time></trkpt><trkpt lat="40.60830671601759" lon="15.719110189166642"><ele>779.0</ele><time>2026-04-26T18:29:20Z</time></trkpt><trkpt lat="40.60835241366942" lon="15.719426120647459"><ele>780.5</ele><time>2026-04-26T18:29:21Z</time></trkpt><trkpt lat="40.60839918773623" lon="15.719742321450992"><ele>782.0</ele><time>2026-04-26T18:29:22Z</time></trkpt><trkpt lat="40.60844484923098" lon="15.720058089514067"><ele>781.0</ele><time>2026-04-26T18:29:23Z</time></trkpt><trkpt lat="40.608495615162994" lon="15.720373128002251"><ele>780.0</ele><time>2026-04-26T18:29:24Z</time></trkpt><trkpt lat="40.60854484597038" lon="15.720687235602325"><ele>780.0</ele><time>2026-04-26T18:29:25Z</time></trkpt><trkpt lat="40.60859339760854" lon="15.721004068578392"><ele>780.0</ele><time>2026-04-26T18:29:26Z</time></trkpt><trkpt lat="40.60864240731608" lon="15.721325222736622"><ele>781.5</ele><time>2026-04-26T18:29:27Z</time></trkpt><trkpt lat="40.60869282117991" lon="15.721649432674868"><ele>783.0</ele><time>2026-04-26T18:29:28Z</time></trkpt><trkpt lat="40.608745754131306" lon="15.721979965983504"><ele>783.0</ele><time>2026-04-26T18:29:29Z</time></trkpt><trkpt lat="40.608799644726886" lon="15.722317482408135"><ele>783.0</ele><time>2026-04-26T18:29:30Z</time></trkpt><trkpt lat="40.608850067433174" lon="15.72266062874738"><ele>782.5</ele><time>2026-04-26T18:29:31Z</time></trkpt><trkpt lat="40.60890866975534" lon="15.723008338078927"><ele>782.0</ele><time>2026-04-26T18:29:32Z</time></trkpt><trkpt lat="40.60896717981588" lon="15.723360038377733"><ele>782.5</ele><time>2026-04-26T18:29:33Z</time></trkpt><trkpt lat="40.60902654990638" lon="15.72371668118445"><ele>783.0</ele><time>2026-04-26T18:29:34Z</time></trkpt><trkpt lat="40.6090873942484" lon="15.724077050577531"><ele>782.5</ele><time>2026-04-26T18:29:35Z</time></trkpt><trkpt lat="40.609157875863104" lon="15.72443732390965"><ele>782.0</ele><time>2026-04-26T18:29:36Z</time></trkpt><trkpt lat="40.60922149804183" lon="15.72479467393137"><ele>782.0</ele><time>2026-04-26T18:29:37Z</time></trkpt><trkpt lat="40.609282679028574" lon="15.72514486358224"><ele>782.0</ele><time>2026-04-26T18:29:38Z</time></trkpt><trkpt lat="40.609345037461075" lon="15.72548637190056"><ele>781.5</ele><time>2026-04-26T18:29:39Z</time></trkpt><trkpt lat="40.60940981534778" lon="15.725823794449878"><ele>781.0</ele><time>2026-04-26T18:29:40Z</time></trkpt><trkpt lat="40.609476975861696" lon="15.7261565002857"><ele>782.0</ele><time>2026-04-26T18:29:41Z</time></trkpt><trkpt lat="40.60954418659346" lon="15.726482255528193"><ele>783.0</ele><time>2026-04-26T18:29:42Z</time></trkpt><trkpt lat="40.60960690833378" lon="15.726799728270072"><ele>781.5</ele><time>2026-04-26T18:29:43Z</time></trkpt><trkpt lat="40.609669685201546" lon="15.727112329635407"><ele>780.0</ele><time>2026-04-26T18:29:44Z</time></trkpt><trkpt lat="40.609734358175054" lon="15.727421992529788"><ele>778.0</ele><time>2026-04-26T18:29:45Z</time></trkpt><trkpt lat="40.609799170598116" lon="15.727735497272016"><ele>776.0</ele><time>2026-04-26T18:29:46Z</time></trkpt><trkpt lat="40.60986273777799" lon="15.728054018241949"><ele>776.0</ele><time>2026-04-26T18:29:47Z</time></trkpt><trkpt lat="40.60992612514718" lon="15.728367148909522"><ele>776.0</ele><time>2026-04-26T18:29:48Z</time></trkpt><trkpt lat="40.60999519413606" lon="15.728681481389529"><ele>774.0</ele><time>2026-04-26T18:29:49Z</time></trkpt><trkpt lat="40.61005819735213" lon="15.72899211930008"><ele>772.0</ele><time>2026-04-26T18:29:50Z</time></trkpt><trkpt lat="40.61012288633988" lon="15.72930163535026"><ele>772.5</ele><time>2026-04-26T18:29:51Z</time></trkpt><trkpt lat="40.61018629057075" lon="15.729609822224052"><ele>773.0</ele><time>2026-04-26T18:29:52Z</time></trkpt><trkpt lat="40.610247621952276" lon="15.72991826537971"><ele>772.0</ele><time>2026-04-26T18:29:53Z</time></trkpt><trkpt lat="40.610310500102656" lon="15.730225169654114"><ele>771.0</ele><time>2026-04-26T18:29:54Z</time></trkpt><trkpt lat="40.61037286925604" lon="15.730530424377891"><ele>775.0</ele><time>2026-04-26T18:29:55Z</time></trkpt><trkpt lat="40.610439816791875" lon="15.730833900790323"><ele>779.0</ele><time>2026-04-26T18:29:56Z</time></trkpt><trkpt lat="40.61050287443312" lon="15.731139715313413"><ele>779.0</ele><time>2026-04-26T18:29:57Z</time></trkpt><trkpt lat="40.61056529585744" lon="15.731446146022217"><ele>779.0</ele><time>2026-04-26T18:29:58Z</time></trkpt><trkpt lat="40.610631670637986" lon="15.731756525120609"><ele>780.0</ele><time>2026-04-26T18:29:59Z</time></trkpt><trkpt lat="40.61069187871763" lon="15.732071976469348"><ele>781.0</ele><time>2026-04-26T18:30:00Z</time></trkpt><trkpt lat="40.61075546697243" lon="15.73239536162615"><ele>780.5</ele><time>2026-04-26T18:30:01Z</time></trkpt><trkpt lat="40.610822075437966" lon="15.732723204645051"><ele>780.0</ele><time>2026-04-26T18:30:02Z</time></trkpt><trkpt lat="40.610886318426516" lon="15.733054546532719"><ele>780.0</ele><time>2026-04-26T18:30:03Z</time></trkpt><trkpt lat="40.610954231564776" lon="15.733385715708588"><ele>780.0</ele><time>2026-04-26T18:30:04Z</time></trkpt><trkpt lat="40.61102030575421" lon="15.733720902862318"><ele>777.5</ele><time>2026-04-26T18:30:05Z</time></trkpt><trkpt lat="40.611092624988316" lon="15.734057225625355"><ele>775.0</ele><time>2026-04-26T18:30:06Z</time></trkpt><trkpt lat="40.611162092078224" lon="15.73439520162281"><ele>775.0</ele><time>2026-04-26T18:30:07Z</time></trkpt><trkpt lat="40.61123148619017" lon="15.734737067287734"><ele>775.0</ele><time>2026-04-26T18:30:08Z</time></trkpt><trkpt lat="40.61130338004191" lon="15.735080300582332"><ele>774.0</ele><time>2026-04-26T18:30:09Z</time></trkpt><trkpt lat="40.61138187209911" lon="15.735425513956354"><ele>773.0</ele><time>2026-04-26T18:30:10Z</time></trkpt><trkpt lat="40.61146191599596" lon="15.735772843879246"><ele>772.0</ele><time>2026-04-26T18:30:11Z</time></trkpt><trkpt lat="40.61154231657767" lon="15.736123033764137"><ele>771.0</ele><time>2026-04-26T18:30:12Z</time></trkpt><trkpt lat="40.611617833989854" lon="15.736476840751381"><ele>771.0</ele><time>2026-04-26T18:30:13Z</time></trkpt><trkpt lat="40.61169524334769" lon="15.736830701533671"><ele>771.0</ele><time>2026-04-26T18:30:14Z</time></trkpt><trkpt lat="40.61177120209474" lon="15.737186234608059"><ele>768.5</ele><time>2026-04-26T18:30:15Z</time></trkpt><trkpt lat="40.61184619144127" lon="15.737544774417104"><ele>766.0</ele><time>2026-04-26T18:30:16Z</time></trkpt><trkpt lat="40.61192757456138" lon="15.737906715872855"><ele>764.0</ele><time>2026-04-26T18:30:17Z</time></trkpt><trkpt lat="40.61199839755958" lon="15.738263241367196"><ele>762.0</ele><time>2026-04-26T18:30:18Z</time></trkpt><trkpt lat="40.61207325345445" lon="15.738610114156561"><ele>761.0</ele><time>2026-04-26T18:30:19Z</time></trkpt><trkpt lat="40.612144385267584" lon="15.738957159866263"><ele>760.0</ele><time>2026-04-26T18:30:20Z</time></trkpt><trkpt lat="40.61221524423075" lon="15.739303586416973"><ele>759.5</ele><time>2026-04-26T18:30:21Z</time></trkpt><trkpt lat="40.612286375903984" lon="15.73964831700841"><ele>759.0</ele><time>2026-04-26T18:30:22Z</time></trkpt><trkpt lat="40.612358483950224" lon="15.739995080579932"><ele>758.5</ele><time>2026-04-26T18:30:23Z</time></trkpt><trkpt lat="40.61243182938592" lon="15.740342153800684"><ele>758.0</ele><time>2026-04-26T18:30:24Z</time></trkpt><trkpt lat="40.61250611880514" lon="15.740687772004748"><ele>758.0</ele><time>2026-04-26T18:30:25Z</time></trkpt><trkpt lat="40.61257688674434" lon="15.741033263031001"><ele>758.0</ele><time>2026-04-26T18:30:26Z</time></trkpt><trkpt lat="40.61264751677261" lon="15.741379635566261"><ele>756.5</ele><time>2026-04-26T18:30:27Z</time></trkpt><trkpt lat="40.61271894327741" lon="15.741725621879436"><ele>755.0</ele><time>2026-04-26T18:30:28Z</time></trkpt><trkpt lat="40.612788946220746" lon="15.742070116100212"><ele>759.0</ele><time>2026-04-26T18:30:29Z</time></trkpt><trkpt lat="40.61286450106716" lon="15.742409205323115"><ele>763.0</ele><time>2026-04-26T18:30:30Z</time></trkpt><trkpt lat="40.61294235018556" lon="15.742747096771888"><ele>763.0</ele><time>2026-04-26T18:30:31Z</time></trkpt><trkpt lat="40.6130249832898" lon="15.74308661819947"><ele>763.0</ele><time>2026-04-26T18:30:32Z</time></trkpt><trkpt lat="40.613119846782055" lon="15.743417804451616"><ele>760.5</ele><time>2026-04-26T18:30:33Z</time></trkpt><trkpt lat="40.61322464507328" lon="15.743742709843445"><ele>758.0</ele><time>2026-04-26T18:30:34Z</time></trkpt><trkpt lat="40.61334698779257" lon="15.744063455047675"><ele>758.0</ele><time>2026-04-26T18:30:35Z</time></trkpt><trkpt lat="40.613482833923854" lon="15.744375903184677"><ele>758.0</ele><time>2026-04-26T18:30:36Z</time></trkpt><trkpt lat="40.61361824499642" lon="15.74468466505759"><ele>757.0</ele><time>2026-04-26T18:30:37Z</time></trkpt><trkpt lat="40.61376147433925" lon="15.744988888987034"><ele>756.0</ele><time>2026-04-26T18:30:38Z</time></trkpt><trkpt lat="40.613907748348495" lon="15.745292601852485"><ele>749.5</ele><time>2026-04-26T18:30:39Z</time></trkpt><trkpt lat="40.61405154505636" lon="15.745599594019023"><ele>743.0</ele><time>2026-04-26T18:30:40Z</time></trkpt><trkpt lat="40.61418865623421" lon="15.74590856320974"><ele>739.0</ele><time>2026-04-26T18:30:41Z</time></trkpt><trkpt lat="40.61432989287564" lon="15.746217860940186"><ele>735.0</ele><time>2026-04-26T18:30:42Z</time></trkpt><trkpt lat="40.61447550841621" lon="15.746526951999362"><ele>736.5</ele><time>2026-04-26T18:30:43Z</time></trkpt><trkpt lat="40.614622057966024" lon="15.746831683496257"><ele>738.0</ele><time>2026-04-26T18:30:44Z</time></trkpt><trkpt lat="40.61477217119853" lon="15.747126702734677"><ele>738.0</ele><time>2026-04-26T18:30:45Z</time></trkpt><trkpt lat="40.61492861759713" lon="15.747408344650816"><ele>738.0</ele><time>2026-04-26T18:30:46Z</time></trkpt><trkpt lat="40.615095046236846" lon="15.747680911637305"><ele>738.5</ele><time>2026-04-26T18:30:47Z</time></trkpt><trkpt lat="40.61527546439709" lon="15.747944266947304"><ele>739.0</ele><time>2026-04-26T18:30:48Z</time></trkpt><trkpt lat="40.61547291266704" lon="15.748184220628527"><ele>739.0</ele><time>2026-04-26T18:30:49Z</time></trkpt><trkpt lat="40.61567967739783" lon="15.748403755562919"><ele>739.0</ele><time>2026-04-26T18:30:50Z</time></trkpt><trkpt lat="40.615889727833206" lon="15.74862533770669"><ele>737.0</ele><time>2026-04-26T18:30:51Z</time></trkpt><trkpt lat="40.61610247268514" lon="15.748855284520058"><ele>735.0</ele><time>2026-04-26T18:30:52Z</time></trkpt><trkpt lat="40.616321460209406" lon="15.749086203518086"><ele>735.0</ele><time>2026-04-26T18:30:53Z</time></trkpt><trkpt lat="40.616530268282105" lon="15.749329093683409"><ele>735.0</ele><time>2026-04-26T18:30:54Z</time></trkpt><trkpt lat="40.61673618057623" lon="15.749582432742123"><ele>734.5</ele><time>2026-04-26T18:30:55Z</time></trkpt><trkpt lat="40.616926225078544" lon="15.749855395623987"><ele>734.0</ele><time>2026-04-26T18:30:56Z</time></trkpt><trkpt lat="40.61710501848634" lon="15.750149084567232"><ele>732.0</ele><time>2026-04-26T18:30:57Z</time></trkpt><trkpt lat="40.617268855426246" lon="15.750456867048282"><ele>730.0</ele><time>2026-04-26T18:30:58Z</time></trkpt><trkpt lat="40.61741810931031" lon="15.75077567769571"><ele>728.5</ele><time>2026-04-26T18:30:59Z</time></trkpt><trkpt lat="40.6175545014734" lon="15.751101587961701"><ele>727.0</ele><time>2026-04-26T18:31:00Z</time></trkpt><trkpt lat="40.61767904782959" lon="15.751432595227431"><ele>727.0</ele><time>2026-04-26T18:31:01Z</time></trkpt><trkpt lat="40.61780277808541" lon="15.751766282091689"><ele>727.0</ele><time>2026-04-26T18:31:02Z</time></trkpt><trkpt lat="40.61793494567724" lon="15.752098689397089"><ele>727.0</ele><time>2026-04-26T18:31:03Z</time></trkpt><trkpt lat="40.618065551509204" lon="15.752432815005648"><ele>727.0</ele><time>2026-04-26T18:31:04Z</time></trkpt><trkpt lat="40.61819867440471" lon="15.752766304324863"><ele>727.0</ele><time>2026-04-26T18:31:05Z</time></trkpt><trkpt lat="40.618336075312364" lon="15.753096885684755"><ele>727.0</ele><time>2026-04-26T18:31:06Z</time></trkpt><trkpt lat="40.61848200382148" lon="15.753418530723298"><ele>726.5</ele><time>2026-04-26T18:31:07Z</time></trkpt><trkpt lat="40.61864011939799" lon="15.753730860408876"><ele>726.0</ele><time>2026-04-26T18:31:08Z</time></trkpt><trkpt lat="40.618808711925865" lon="15.754034585175994"><ele>726.0</ele><time>2026-04-26T18:31:09Z</time></trkpt><trkpt lat="40.618987550576485" lon="15.754328064753375"><ele>726.0</ele><time>2026-04-26T18:31:10Z</time></trkpt><trkpt lat="40.61917718023674" lon="15.75460763128706"><ele>726.0</ele><time>2026-04-26T18:31:11Z</time></trkpt><trkpt lat="40.6193724538244" lon="15.754874409737209"><ele>726.0</ele><time>2026-04-26T18:31:12Z</time></trkpt><trkpt lat="40.619570186816425" lon="15.755137687156616"><ele>722.0</ele><time>2026-04-26T18:31:13Z</time></trkpt><trkpt lat="40.61976501377851" lon="15.75539604470189"><ele>718.0</ele><time>2026-04-26T18:31:14Z</time></trkpt><trkpt lat="40.61996585805802" lon="15.75565527564284"><ele>718.0</ele><time>2026-04-26T18:31:15Z</time></trkpt><trkpt lat="40.62016856285075" lon="15.755917181976285"><ele>718.0</ele><time>2026-04-26T18:31:16Z</time></trkpt><trkpt lat="40.6203692077753" lon="15.756180673022053"><ele>717.5</ele><time>2026-04-26T18:31:17Z</time></trkpt><trkpt lat="40.62056969614394" lon="15.756438909028766"><ele>717.0</ele><time>2026-04-26T18:31:18Z</time></trkpt><trkpt lat="40.62076425169696" lon="15.75669228277476"><ele>714.0</ele><time>2026-04-26T18:31:19Z</time></trkpt><trkpt lat="40.62095049475649" lon="15.756938724804442"><ele>711.0</ele><time>2026-04-26T18:31:20Z</time></trkpt><trkpt lat="40.62113094643545" lon="15.757185629759757"><ele>712.5</ele><time>2026-04-26T18:31:21Z</time></trkpt><trkpt lat="40.62130504281554" lon="15.757435728637114"><ele>714.0</ele><time>2026-04-26T18:31:22Z</time></trkpt><trkpt lat="40.621471390478625" lon="15.757702435246545"><ele>714.0</ele><time>2026-04-26T18:31:23Z</time></trkpt><trkpt lat="40.621621379661484" lon="15.757988946738354"><ele>714.0</ele><time>2026-04-26T18:31:24Z</time></trkpt><trkpt lat="40.62175554235708" lon="15.758282165723278"><ele>712.0</ele><time>2026-04-26T18:31:25Z</time></trkpt><trkpt lat="40.621876093151215" lon="15.758580457305198"><ele>710.0</ele><time>2026-04-26T18:31:26Z</time></trkpt><trkpt lat="40.62198395261444" lon="15.758883385036105"><ele>712.0</ele><time>2026-04-26T18:31:27Z</time></trkpt><trkpt lat="40.622082206899805" lon="15.759193126446629"><ele>714.0</ele><time>2026-04-26T18:31:28Z</time></trkpt><trkpt lat="40.6221682328153" lon="15.75951706597278"><ele>714.0</ele><time>2026-04-26T18:31:29Z</time></trkpt><trkpt lat="40.62224572456677" lon="15.7598529379734"><ele>714.0</ele><time>2026-04-26T18:31:30Z</time></trkpt><trkpt lat="40.62232338404644" lon="15.76019479312727"><ele>709.5</ele><time>2026-04-26T18:31:31Z</time></trkpt><trkpt lat="40.62240258631016" lon="15.760542574078663"><ele>705.0</ele><time>2026-04-26T18:31:32Z</time></trkpt><trkpt lat="40.622483047918394" lon="15.760895517009114"><ele>704.0</ele><time>2026-04-26T18:31:33Z</time></trkpt><trkpt lat="40.62256485887041" lon="15.761252410142793"><ele>703.0</ele><time>2026-04-26T18:31:34Z</time></trkpt><trkpt lat="40.622647131546216" lon="15.761602982222467"><ele>703.0</ele><time>2026-04-26T18:31:35Z</time></trkpt><trkpt lat="40.62273348175531" lon="15.761945859504022"><ele>703.0</ele><time>2026-04-26T18:31:36Z</time></trkpt><trkpt lat="40.622828106511676" lon="15.762285635002073"><ele>704.0</ele><time>2026-04-26T18:31:37Z</time></trkpt><trkpt lat="40.62293085109385" lon="15.762618763243395"><ele>705.0</ele><time>2026-04-26T18:31:38Z</time></trkpt><trkpt lat="40.62304325578495" lon="15.762941531339784"><ele>705.0</ele><time>2026-04-26T18:31:39Z</time></trkpt><trkpt lat="40.62315900853956" lon="15.763254561715504"><ele>705.0</ele><time>2026-04-26T18:31:40Z</time></trkpt><trkpt lat="40.623277248225136" lon="15.76355641471654"><ele>703.0</ele><time>2026-04-26T18:31:41Z</time></trkpt><trkpt lat="40.623385035128415" lon="15.76385150807064"><ele>701.0</ele><time>2026-04-26T18:31:42Z</time></trkpt><trkpt lat="40.623494799610114" lon="15.764144725995397"><ele>699.5</ele><time>2026-04-26T18:31:43Z</time></trkpt><trkpt lat="40.623605030062606" lon="15.764436406913699"><ele>698.0</ele><time>2026-04-26T18:31:44Z</time></trkpt><trkpt lat="40.62371566729795" lon="15.764726259011631"><ele>700.5</ele><time>2026-04-26T18:31:45Z</time></trkpt><trkpt lat="40.62382079391888" lon="15.765012924568016"><ele>703.0</ele><time>2026-04-26T18:31:46Z</time></trkpt><trkpt lat="40.62392340613592" lon="15.765299788602208"><ele>703.0</ele><time>2026-04-26T18:31:47Z</time></trkpt><trkpt lat="40.62402558174748" lon="15.765583930205882"><ele>703.0</ele><time>2026-04-26T18:31:48Z</time></trkpt><trkpt lat="40.62413009105915" lon="15.765861233423573"><ele>701.0</ele><time>2026-04-26T18:31:49Z</time></trkpt><trkpt lat="40.624233719621415" lon="15.766135295628889"><ele>699.0</ele><time>2026-04-26T18:31:50Z</time></trkpt><trkpt lat="40.62433029047801" lon="15.766406503378112"><ele>699.0</ele><time>2026-04-26T18:31:51Z</time></trkpt><trkpt lat="40.62443243704667" lon="15.76667508078745"><ele>699.0</ele><time>2026-04-26T18:31:52Z</time></trkpt><trkpt lat="40.6245329805268" lon="15.766941154647029"><ele>698.0</ele><time>2026-04-26T18:31:53Z</time></trkpt><trkpt lat="40.62463265754679" lon="15.767205199612992"><ele>697.0</ele><time>2026-04-26T18:31:54Z</time></trkpt><trkpt lat="40.62473040019174" lon="15.767471000048813"><ele>696.0</ele><time>2026-04-26T18:31:55Z</time></trkpt><trkpt lat="40.62483110208128" lon="15.76773656435906"><ele>696.0</ele><time>2026-04-26T18:31:56Z</time></trkpt><trkpt lat="40.6249312360521" lon="15.768007523880545"><ele>696.0</ele><time>2026-04-26T18:31:57Z</time></trkpt><trkpt lat="40.62503113421514" lon="15.768282192039967"><ele>694.0</ele><time>2026-04-26T18:31:58Z</time></trkpt><trkpt lat="40.62513060691394" lon="15.76855803146628"><ele>692.0</ele><time>2026-04-26T18:31:59Z</time></trkpt><trkpt lat="40.62522705687947" lon="15.768827936399992"><ele>697.0</ele><time>2026-04-26T18:32:00Z</time></trkpt><trkpt lat="40.6253292564293" lon="15.769093397853021"><ele>702.0</ele><time>2026-04-26T18:32:01Z</time></trkpt><trkpt lat="40.625429729594096" lon="15.76935790777806"><ele>698.5</ele><time>2026-04-26T18:32:02Z</time></trkpt><trkpt lat="40.62552475936935" lon="15.769624729634927"><ele>695.0</ele><time>2026-04-26T18:32:03Z</time></trkpt><trkpt lat="40.62561705465316" lon="15.76989653082719"><ele>695.0</ele><time>2026-04-26T18:32:04Z</time></trkpt><trkpt lat="40.625696422541814" lon="15.770176301275614"><ele>695.0</ele><time>2026-04-26T18:32:05Z</time></trkpt><trkpt lat="40.62576579935192" lon="15.770467008021795"><ele>694.0</ele><time>2026-04-26T18:32:06Z</time></trkpt><trkpt lat="40.62582180390419" lon="15.770770452517048"><ele>693.0</ele><time>2026-04-26T18:32:07Z</time></trkpt><trkpt lat="40.62586369148202" lon="15.771081014126038"><ele>693.0</ele><time>2026-04-26T18:32:08Z</time></trkpt><trkpt lat="40.62589188414132" lon="15.771397666412865"><ele>693.0</ele><time>2026-04-26T18:32:09Z</time></trkpt><trkpt lat="40.62590502160085" lon="15.771713938194585"><ele>692.5</ele><time>2026-04-26T18:32:10Z</time></trkpt><trkpt lat="40.62590477034136" lon="15.772027170596488"><ele>692.0</ele><time>2026-04-26T18:32:11Z</time></trkpt><trkpt lat="40.625898118031756" lon="15.772335809444082"><ele>692.0</ele><time>2026-04-26T18:32:12Z</time></trkpt><trkpt lat="40.62587754601785" lon="15.772630610609344"><ele>692.0</ele><time>2026-04-26T18:32:13Z</time></trkpt><trkpt lat="40.625844268448446" lon="15.77291492910803"><ele>692.0</ele><time>2026-04-26T18:32:14Z</time></trkpt><trkpt lat="40.62580625799639" lon="15.773189383421796"><ele>692.3333333333333</ele><time>2026-04-26T18:32:15Z</time></trkpt><trkpt lat="40.625760023531015" lon="15.773457959958794"><ele>692.6666666666666</ele><time>2026-04-26T18:32:16Z</time></trkpt><trkpt lat="40.62570075138859" lon="15.773719665078417"><ele>693.0</ele><time>2026-04-26T18:32:17Z</time></trkpt><trkpt lat="40.62563396279243" lon="15.773982741874045"><ele>694.0</ele><time>2026-04-26T18:32:18Z</time></trkpt><trkpt lat="40.625562696219575" lon="15.774248388351197"><ele>695.0</ele><time>2026-04-26T18:32:19Z</time></trkpt><trkpt lat="40.625486595629894" lon="15.774510692720597"><ele>696.0</ele><time>2026-04-26T18:32:20Z</time></trkpt><trkpt lat="40.62540186772109" lon="15.774771841822893"><ele>694.0</ele><time>2026-04-26T18:32:21Z</time></trkpt><trkpt lat="40.62531269977889" lon="15.775023520754328"><ele>692.0</ele><time>2026-04-26T18:32:22Z</time></trkpt><trkpt lat="40.625223691557004" lon="15.77526212020993"><ele>690.0</ele><time>2026-04-26T18:32:23Z</time></trkpt><trkpt lat="40.625141804324" lon="15.775500687955143"><ele>690.0</ele><time>2026-04-26T18:32:24Z</time></trkpt><trkpt lat="40.62506183387605" lon="15.775734586386685"><ele>690.0</ele><time>2026-04-26T18:32:25Z</time></trkpt><trkpt lat="40.62498636064489" lon="15.77596010636425"><ele>690.0</ele><time>2026-04-26T18:32:26Z</time></trkpt><trkpt lat="40.62491140616606" lon="15.776182132102319"><ele>690.6666666666666</ele><time>2026-04-26T18:32:27Z</time></trkpt><trkpt lat="40.6248436261447" lon="15.776404043038985"><ele>691.3333333333333</ele><time>2026-04-26T18:32:28Z</time></trkpt><trkpt lat="40.62477773212823" lon="15.776627207183928"><ele>692.0</ele><time>2026-04-26T18:32:29Z</time></trkpt><trkpt lat="40.624720384256385" lon="15.776852185072988"><ele>694.3333333333333</ele><time>2026-04-26T18:32:30Z</time></trkpt><trkpt lat="40.62466898585511" lon="15.777076179083632"><ele>696.6666666666666</ele><time>2026-04-26T18:32:31Z</time></trkpt><trkpt lat="40.624630337282426" lon="15.77730212219805"><ele>699.0</ele><time>2026-04-26T18:32:32Z</time></trkpt><trkpt lat="40.62459943520423" lon="15.777526210914543"><ele>699.0</ele><time>2026-04-26T18:32:33Z</time></trkpt><trkpt lat="40.624572731621996" lon="15.77774759349098"><ele>699.0</ele><time>2026-04-26T18:32:34Z</time></trkpt><trkpt lat="40.624548494480386" lon="15.77797045238858"><ele>699.0</ele><time>2026-04-26T18:32:35Z</time></trkpt><trkpt lat="40.6245278921277" lon="15.778192565360547"><ele>699.0</ele><time>2026-04-26T18:32:36Z</time></trkpt><trkpt lat="40.624509799884294" lon="15.778409745740376"><ele>699.0</ele><time>2026-04-26T18:32:37Z</time></trkpt><trkpt lat="40.624488681832645" lon="15.778619991337676"><ele>699.0</ele><time>2026-04-26T18:32:38Z</time></trkpt><trkpt lat="40.62446949255884" lon="15.77882790580907"><ele>694.0</ele><time>2026-04-26T18:32:39Z</time></trkpt><trkpt lat="40.62445158243732" lon="15.779038656099557"><ele>689.0</ele><time>2026-04-26T18:32:40Z</time></trkpt><trkpt lat="40.62443573326069" lon="15.779247649539238"><ele>684.0</ele><time>2026-04-26T18:32:41Z</time></trkpt><trkpt lat="40.624417970968956" lon="15.779454341554922"><ele>684.0</ele><time>2026-04-26T18:32:42Z</time></trkpt><trkpt lat="40.62440399546919" lon="15.779650783948401"><ele>684.0</ele><time>2026-04-26T18:32:43Z</time></trkpt><trkpt lat="40.6243830468887" lon="15.77984247105087"><ele>684.0</ele><time>2026-04-26T18:32:44Z</time></trkpt><trkpt lat="40.624364185800204" lon="15.780033290522464"><ele>684.0</ele><time>2026-04-26T18:32:45Z</time></trkpt><trkpt lat="40.624346486175774" lon="15.780226428291211"><ele>684.5</ele><time>2026-04-26T18:32:46Z</time></trkpt><trkpt lat="40.62433161586191" lon="15.78041623433077"><ele>685.0</ele><time>2026-04-26T18:32:47Z</time></trkpt><trkpt lat="40.62430995642171" lon="15.780603015382932"><ele>685.5</ele><time>2026-04-26T18:32:48Z</time></trkpt><trkpt lat="40.624299755443474" lon="15.78077716215619"><ele>686.0</ele><time>2026-04-26T18:32:49Z</time></trkpt><trkpt lat="40.62429046377718" lon="15.780947037891607"><ele>686.75</ele><time>2026-04-26T18:32:50Z</time></trkpt><trkpt lat="40.62427532095243" lon="15.781114549164842"><ele>687.5</ele><time>2026-04-26T18:32:51Z</time></trkpt><trkpt lat="40.62426020090241" lon="15.781279812214116"><ele>688.25</ele><time>2026-04-26T18:32:52Z</time></trkpt><trkpt lat="40.62425598224503" lon="15.781444014639948"><ele>689.0</ele><time>2026-04-26T18:32:53Z</time></trkpt><trkpt lat="40.62424058302303" lon="15.781601924434037"><ele>689.0</ele><time>2026-04-26T18:32:54Z</time></trkpt><trkpt lat="40.624231479508765" lon="15.781757614309903"><ele>689.0</ele><time>2026-04-26T18:32:55Z</time></trkpt><trkpt lat="40.624209557270184" lon="15.78190699161098"><ele>689.0</ele><time>2026-04-26T18:32:56Z</time></trkpt><trkpt lat="40.624193493603585" lon="15.782050151104766"><ele>689.0</ele><time>2026-04-26T18:32:57Z</time></trkpt><trkpt lat="40.624171287055646" lon="15.782178450876847"><ele>689.0</ele><time>2026-04-26T18:32:58Z</time></trkpt><trkpt lat="40.624136587443566" lon="15.782287936414853"><ele>689.8000000000001</ele><time>2026-04-26T18:32:59Z</time></trkpt><trkpt lat="40.624056980841594" lon="15.782383314961711"><ele>690.6</ele><time>2026-04-26T18:33:00Z</time></trkpt><trkpt lat="40.62395155548954" lon="15.78245721656548"><ele>691.4</ele><time>2026-04-26T18:33:01Z</time></trkpt><trkpt lat="40.62384671255035" lon="15.782502404229266"><ele>692.2</ele><time>2026-04-26T18:33:02Z</time></trkpt><trkpt lat="40.623757887066525" lon="15.782550737534228"><ele>693.0</ele><time>2026-04-26T18:33:03Z</time></trkpt><trkpt lat="40.62368417564228" lon="15.782618813080164"><ele>692.8</ele><time>2026-04-26T18:33:04Z</time></trkpt><trkpt lat="40.62362363175177" lon="15.782714734476038"><ele>692.5999999999999</ele><time>2026-04-26T18:33:05Z</time></trkpt><trkpt lat="40.62359578204194" lon="15.78283202984606"><ele>692.4000000000001</ele><time>2026-04-26T18:33:06Z</time></trkpt><trkpt lat="40.62359928486684" lon="15.782951075834573"><ele>692.2</ele><time>2026-04-26T18:33:07Z</time></trkpt><trkpt lat="40.62363398704519" lon="15.78308810125254"><ele>692.0</ele><time>2026-04-26T18:33:08Z</time></trkpt><trkpt lat="40.62370040250906" lon="15.783245641097272"><ele>692.0</ele><time>2026-04-26T18:33:09Z</time></trkpt><trkpt lat="40.62378982520808" lon="15.783399428675898"><ele>692.0</ele><time>2026-04-26T18:33:10Z</time></trkpt><trkpt lat="40.62385126828651" lon="15.783549374693514"><ele>692.0</ele><time>2026-04-26T18:33:11Z</time></trkpt><trkpt lat="40.62391525524923" lon="15.783702167084634"><ele>692.0</ele><time>2026-04-26T18:33:12Z</time></trkpt><trkpt lat="40.62397572306151" lon="15.78384852055226"><ele>690.5</ele><time>2026-04-26T18:33:13Z</time></trkpt><trkpt lat="40.62404392183891" lon="15.783987311677686"><ele>689.0</ele><time>2026-04-26T18:33:14Z</time></trkpt><trkpt lat="40.6241099872295" lon="15.784124448259773"><ele>687.5</ele><time>2026-04-26T18:33:15Z</time></trkpt><trkpt lat="40.624175572848294" lon="15.784258112934458"><ele>686.0</ele><time>2026-04-26T18:33:16Z</time></trkpt><trkpt lat="40.62422691885138" lon="15.784392716700598"><ele>685.0</ele><time>2026-04-26T18:33:17Z</time></trkpt><trkpt lat="40.624270284904185" lon="15.784508610236774"><ele>684.0</ele><time>2026-04-26T18:33:18Z</time></trkpt><trkpt lat="40.62431164221733" lon="15.784623438862507"><ele>683.0</ele><time>2026-04-26T18:33:19Z</time></trkpt><trkpt lat="40.624340805659486" lon="15.784732414338588"><ele>682.0</ele><time>2026-04-26T18:33:20Z</time></trkpt><trkpt lat="40.62437270294193" lon="15.784844613501637"><ele>681.0</ele><time>2026-04-26T18:33:21Z</time></trkpt><trkpt lat="40.62439199513899" lon="15.784964404753008"><ele>681.0</ele><time>2026-04-26T18:33:22Z</time></trkpt><trkpt lat="40.6244107503418" lon="15.78509173732584"><ele>681.0</ele><time>2026-04-26T18:33:23Z</time></trkpt><trkpt lat="40.62443099125672" lon="15.785222760774667"><ele>681.0</ele><time>2026-04-26T18:33:24Z</time></trkpt><trkpt lat="40.62445265721409" lon="15.785357428461412"><ele>681.0</ele><time>2026-04-26T18:33:25Z</time></trkpt><trkpt lat="40.62447459873236" lon="15.785492781404406"><ele>681.0</ele><time>2026-04-26T18:33:26Z</time></trkpt><trkpt lat="40.624494961922196" lon="15.78562272386606"><ele>682.5</ele><time>2026-04-26T18:33:27Z</time></trkpt><trkpt lat="40.62451611087693" lon="15.785749409789759"><ele>684.0</ele><time>2026-04-26T18:33:28Z</time></trkpt><trkpt lat="40.62453575656672" lon="15.785869116132238"><ele>685.5</ele><time>2026-04-26T18:33:29Z</time></trkpt><trkpt lat="40.62455911111707" lon="15.785976737788829"><ele>687.0</ele><time>2026-04-26T18:33:30Z</time></trkpt><trkpt lat="40.62457269835569" lon="15.786082712786637"><ele>688.5</ele><time>2026-04-26T18:33:31Z</time></trkpt><trkpt lat="40.624588507877604" lon="15.786180513259131"><ele>690.0</ele><time>2026-04-26T18:33:32Z</time></trkpt><trkpt lat="40.62460338050607" lon="15.786279250476204"><ele>690.0</ele><time>2026-04-26T18:33:33Z</time></trkpt><trkpt lat="40.6246206148481" lon="15.786380728267483"><ele>690.0</ele><time>2026-04-26T18:33:34Z</time></trkpt><trkpt lat="40.6246335177879" lon="15.786483577440748"><ele>690.0</ele><time>2026-04-26T18:33:35Z</time></trkpt><trkpt lat="40.62465149703907" lon="15.786588938627562"><ele>690.0</ele><time>2026-04-26T18:33:36Z</time></trkpt><trkpt lat="40.624671368213995" lon="15.7866897329358"><ele>690.0</ele><time>2026-04-26T18:33:37Z</time></trkpt><trkpt lat="40.624685518148056" lon="15.786783586099652"><ele>690.0</ele><time>2026-04-26T18:33:38Z</time></trkpt><trkpt lat="40.62469320288116" lon="15.7868779400011"><ele>689.3333333333334</ele><time>2026-04-26T18:33:39Z</time></trkpt><trkpt lat="40.62469822671613" lon="15.786984113041143"><ele>688.6666666666666</ele><time>2026-04-26T18:33:40Z</time></trkpt><trkpt lat="40.62470717183293" lon="15.787089352810442"><ele>688.0</ele><time>2026-04-26T18:33:41Z</time></trkpt><trkpt lat="40.62470971049816" lon="15.787189065821778"><ele>687.3333333333333</ele><time>2026-04-26T18:33:42Z</time></trkpt><trkpt lat="40.624713522779835" lon="15.78727728840038"><ele>686.6666666666666</ele><time>2026-04-26T18:33:43Z</time></trkpt><trkpt lat="40.624720441835045" lon="15.78736459662192"><ele>686.0</ele><time>2026-04-26T18:33:44Z</time></trkpt><trkpt lat="40.62472856508398" lon="15.787470849006013"><ele>686.0</ele><time>2026-04-26T18:33:46Z</time></trkpt><trkpt lat="40.62468020696752" lon="15.787572755203708"><ele>686.0</ele><time>2026-04-26T18:33:49Z</time></trkpt><trkpt lat="40.624699983325776" lon="15.787661350738258"><ele>686.0</ele><time>2026-04-26T18:33:52Z</time></trkpt><trkpt lat="40.62474555422965" lon="15.787755836373409"><ele>686.0</ele><time>2026-04-26T18:35:22Z</time></trkpt><trkpt lat="40.62476703774782" lon="15.787923595288314"><ele>686.0</ele><time>2026-04-26T18:35:24Z</time></trkpt><trkpt lat="40.62477557481576" lon="15.788035379408882"><ele>684.5</ele><time>2026-04-26T18:35:25Z</time></trkpt><trkpt lat="40.624775876461975" lon="15.7881638331604"><ele>683.0</ele><time>2026-04-26T18:35:26Z</time></trkpt><trkpt lat="40.624800149617144" lon="15.788292187387443"><ele>681.5</ele><time>2026-04-26T18:35:27Z</time></trkpt><trkpt lat="40.62479940800462" lon="15.788450822702023"><ele>680.0</ele><time>2026-04-26T18:35:28Z</time></trkpt><trkpt lat="40.62479650399567" lon="15.78863582533516"><ele>680.0</ele><time>2026-04-26T18:35:29Z</time></trkpt><trkpt lat="40.62478686588935" lon="15.788863731581719"><ele>680.0</ele><time>2026-04-26T18:35:30Z</time></trkpt><trkpt lat="40.62477487153255" lon="15.789084061249307"><ele>680.0</ele><time>2026-04-26T18:35:31Z</time></trkpt><trkpt lat="40.62477617162724" lon="15.789285532895144"><ele>680.25</ele><time>2026-04-26T18:35:32Z</time></trkpt><trkpt lat="40.62478201280897" lon="15.78947516932192"><ele>680.5</ele><time>2026-04-26T18:35:33Z</time></trkpt><trkpt lat="40.62479108055273" lon="15.789668299253815"><ele>680.75</ele><time>2026-04-26T18:35:34Z</time></trkpt><trkpt lat="40.624794830322315" lon="15.789858760242714"><ele>681.0</ele><time>2026-04-26T18:35:35Z</time></trkpt><trkpt lat="40.62480766963733" lon="15.790043785080082"><ele>682.5</ele><time>2026-04-26T18:35:36Z</time></trkpt><trkpt lat="40.62481765003087" lon="15.790219129337306"><ele>684.0</ele><time>2026-04-26T18:35:37Z</time></trkpt><trkpt lat="40.624830387382595" lon="15.790386770698152"><ele>685.5</ele><time>2026-04-26T18:35:38Z</time></trkpt><trkpt lat="40.624810218630564" lon="15.790521454753478"><ele>687.0</ele><time>2026-04-26T18:35:39Z</time></trkpt><trkpt lat="40.624783796831196" lon="15.790645577991274"><ele>687.0</ele><time>2026-04-26T18:35:40Z</time></trkpt><trkpt lat="40.624764727585486" lon="15.790764327286016"><ele>687.0</ele><time>2026-04-26T18:35:41Z</time></trkpt><trkpt lat="40.62475290439771" lon="15.790870608509445"><ele>687.0</ele><time>2026-04-26T18:35:42Z</time></trkpt><trkpt lat="40.624743698083996" lon="15.790967607585783"><ele>687.0</ele><time>2026-04-26T18:35:43Z</time></trkpt><trkpt lat="40.62473158997531" lon="15.791050373242301"><ele>687.0</ele><time>2026-04-26T18:35:44Z</time></trkpt><trkpt lat="40.62471771102075" lon="15.791212699907568"><ele>687.0</ele><time>2026-04-26T18:35:46Z</time></trkpt><trkpt lat="40.624688811352094" lon="15.791351187116984"><ele>687.5</ele><time>2026-04-26T18:35:48Z</time></trkpt><trkpt lat="40.62467235257222" lon="15.791486640764859"><ele>688.0</ele><time>2026-04-26T18:35:50Z</time></trkpt><trkpt lat="40.62470604728403" lon="15.791626057076108"><ele>688.5</ele><time>2026-04-26T18:35:52Z</time></trkpt><trkpt lat="40.62470327809412" lon="15.791720701190249"><ele>689.0</ele><time>2026-04-26T18:35:53Z</time></trkpt><trkpt lat="40.62471821074153" lon="15.791812850482243"><ele>689.5</ele><time>2026-04-26T18:35:54Z</time></trkpt><trkpt lat="40.6247252060181" lon="15.791906233185536"><ele>690.0</ele><time>2026-04-26T18:35:55Z</time></trkpt><trkpt lat="40.624723101600814" lon="15.79200470419294"><ele>688.6</ele><time>2026-04-26T18:35:56Z</time></trkpt><trkpt lat="40.624726648275896" lon="15.792117170510519"><ele>687.2</ele><time>2026-04-26T18:35:57Z</time></trkpt><trkpt lat="40.62474083792244" lon="15.792259628521963"><ele>685.8</ele><time>2026-04-26T18:35:58Z</time></trkpt><trkpt lat="40.624759969287325" lon="15.792397439855215"><ele>684.4</ele><time>2026-04-26T18:35:59Z</time></trkpt><trkpt lat="40.62477678138655" lon="15.79249322771002"><ele>683.0</ele><time>2026-04-26T18:36:00Z</time></trkpt><trkpt lat="40.62480448883269" lon="15.792632846868084"><ele>681.5</ele><time>2026-04-26T18:36:02Z</time></trkpt><trkpt lat="40.62482743143971" lon="15.792735008154414"><ele>680.0</ele><time>2026-04-26T18:36:04Z</time></trkpt><trkpt lat="40.624833022369" lon="15.792872550693067"><ele>678.5</ele><time>2026-04-26T18:36:07Z</time></trkpt><trkpt lat="40.624799424843374" lon="15.792956724826357"><ele>677.0</ele><time>2026-04-26T18:36:08Z</time></trkpt><trkpt lat="40.62479024738575" lon="15.79305807630636"><ele>675.5</ele><time>2026-04-26T18:36:09Z</time></trkpt><trkpt lat="40.62482181853263" lon="15.793151352394137"><ele>674.0</ele><time>2026-04-26T18:36:10Z</time></trkpt><trkpt lat="40.62489863109586" lon="15.79325198508623"><ele>674.0</ele><time>2026-04-26T18:36:11Z</time></trkpt><trkpt lat="40.6249888356913" lon="15.793339069095547"><ele>674.0</ele><time>2026-04-26T18:36:12Z</time></trkpt><trkpt lat="40.62509896567873" lon="15.793443082318802"><ele>674.0</ele><time>2026-04-26T18:36:13Z</time></trkpt><trkpt lat="40.625215125669065" lon="15.793573686707871"><ele>674.0</ele><time>2026-04-26T18:36:14Z</time></trkpt><trkpt lat="40.6253015077544" lon="15.793720700018309"><ele>674.0</ele><time>2026-04-26T18:36:15Z</time></trkpt><trkpt lat="40.62539145068258" lon="15.793829987010236"><ele>674.0</ele><time>2026-04-26T18:36:16Z</time></trkpt><trkpt lat="40.625454708312155" lon="15.793943850481357"><ele>674.0</ele><time>2026-04-26T18:36:17Z</time></trkpt><trkpt lat="40.62551250087861" lon="15.794061499397158"><ele>674.0</ele><time>2026-04-26T18:36:18Z</time></trkpt><trkpt lat="40.625549059128424" lon="15.794175184682542"><ele>674.0</ele><time>2026-04-26T18:36:19Z</time></trkpt><trkpt lat="40.62556993876227" lon="15.794295259660897"><ele>673.6</ele><time>2026-04-26T18:36:20Z</time></trkpt><trkpt lat="40.62558245508124" lon="15.794427809233218"><ele>673.2</ele><time>2026-04-26T18:36:21Z</time></trkpt><trkpt lat="40.62563892896882" lon="15.794560385292046"><ele>672.8000000000001</ele><time>2026-04-26T18:36:22Z</time></trkpt><trkpt lat="40.62570558796316" lon="15.794663604746097"><ele>672.4000000000001</ele><time>2026-04-26T18:36:23Z</time></trkpt><trkpt lat="40.62577760661205" lon="15.794764235786547"><ele>672.0</ele><time>2026-04-26T18:36:24Z</time></trkpt><trkpt lat="40.62584350753133" lon="15.794858437739524"><ele>672.0</ele><time>2026-04-26T18:36:25Z</time></trkpt><trkpt lat="40.625964285186775" lon="15.794890199727888"><ele>672.0</ele><time>2026-04-26T18:36:26Z</time></trkpt><trkpt lat="40.626036368524545" lon="15.794978408634606"><ele>672.0</ele><time>2026-04-26T18:36:27Z</time></trkpt><trkpt lat="40.626112152821015" lon="15.795066005190376"><ele>672.0</ele><time>2026-04-26T18:36:28Z</time></trkpt><trkpt lat="40.62619402591584" lon="15.79515185353198"><ele>672.0</ele><time>2026-04-26T18:36:29Z</time></trkpt><trkpt lat="40.62627902629988" lon="15.795230271663055"><ele>671.8</ele><time>2026-04-26T18:36:30Z</time></trkpt><trkpt lat="40.626377360324604" lon="15.795294831741122"><ele>671.6</ele><time>2026-04-26T18:36:31Z</time></trkpt><trkpt lat="40.626479738152135" lon="15.795337506880804"><ele>671.4</ele><time>2026-04-26T18:36:32Z</time></trkpt><trkpt lat="40.62659233486249" lon="15.795355452928538"><ele>671.1999999999999</ele><time>2026-04-26T18:36:33Z</time></trkpt><trkpt lat="40.62670376440529" lon="15.79537493078637"><ele>671.0</ele><time>2026-04-26T18:36:34Z</time></trkpt><trkpt lat="40.6267966841226" lon="15.795402957566798"><ele>671.0</ele><time>2026-04-26T18:36:35Z</time></trkpt><trkpt lat="40.62687668184274" lon="15.79542619260302"><ele>671.0</ele><time>2026-04-26T18:36:36Z</time></trkpt><trkpt lat="40.62695357219647" lon="15.795476905790323"><ele>671.0</ele><time>2026-04-26T18:36:37Z</time></trkpt><trkpt lat="40.62700745770112" lon="15.795562217187316"><ele>671.0</ele><time>2026-04-26T18:36:38Z</time></trkpt><trkpt lat="40.6270613267016" lon="15.795647892437517"><ele>671.0</ele><time>2026-04-26T18:36:39Z</time></trkpt><trkpt lat="40.627105533169356" lon="15.79575076271867"><ele>671.0</ele><time>2026-04-26T18:36:40Z</time></trkpt><trkpt lat="40.62718788252184" lon="15.795835802427634"><ele>671.25</ele><time>2026-04-26T18:36:41Z</time></trkpt><trkpt lat="40.62725851487191" lon="15.79597670838973"><ele>671.5</ele><time>2026-04-26T18:36:42Z</time></trkpt><trkpt lat="40.62733624041816" lon="15.796112341772087"><ele>671.75</ele><time>2026-04-26T18:36:43Z</time></trkpt><trkpt lat="40.627415481205446" lon="15.796208818195023"><ele>672.0</ele><time>2026-04-26T18:36:44Z</time></trkpt><trkpt lat="40.62751482923578" lon="15.796269457920603"><ele>672.25</ele><time>2026-04-26T18:36:45Z</time></trkpt><trkpt lat="40.62762784457263" lon="15.796304284456449"><ele>672.5</ele><time>2026-04-26T18:36:46Z</time></trkpt><trkpt lat="40.627745584950056" lon="15.79624710004453"><ele>672.75</ele><time>2026-04-26T18:36:47Z</time></trkpt><trkpt lat="40.62787948096159" lon="15.796173622792326"><ele>673.0</ele><time>2026-04-26T18:36:48Z</time></trkpt><trkpt lat="40.628010891670655" lon="15.79611687366826"><ele>673.25</ele><time>2026-04-26T18:36:49Z</time></trkpt><trkpt lat="40.62813012699903" lon="15.79610477516434"><ele>673.5</ele><time>2026-04-26T18:36:50Z</time></trkpt><trkpt lat="40.628245925425496" lon="15.796112761326759"><ele>673.75</ele><time>2026-04-26T18:36:51Z</time></trkpt><trkpt lat="40.62835832038598" lon="15.79614391757917"><ele>674.0</ele><time>2026-04-26T18:36:52Z</time></trkpt><trkpt lat="40.62846369671644" lon="15.796191553617772"><ele>674.0</ele><time>2026-04-26T18:36:53Z</time></trkpt><trkpt lat="40.62855751194486" lon="15.796276618584802"><ele>674.0</ele><time>2026-04-26T18:36:54Z</time></trkpt><trkpt lat="40.6286253107147" lon="15.796366460285114"><ele>674.0</ele><time>2026-04-26T18:36:55Z</time></trkpt><trkpt lat="40.62868226437964" lon="15.7964686572455"><ele>674.0</ele><time>2026-04-26T18:36:56Z</time></trkpt><trkpt lat="40.62871700371505" lon="15.796579555163625"><ele>674.0</ele><time>2026-04-26T18:36:57Z</time></trkpt><trkpt lat="40.62873290909251" lon="15.79669198553649"><ele>674.8000000000001</ele><time>2026-04-26T18:36:58Z</time></trkpt><trkpt lat="40.62874304881318" lon="15.796830909354737"><ele>675.6</ele><time>2026-04-26T18:36:59Z</time></trkpt><trkpt lat="40.62876049947742" lon="15.796973590603127"><ele>676.4</ele><time>2026-04-26T18:37:00Z</time></trkpt><trkpt lat="40.62882516161754" lon="15.79708829414914"><ele>677.2</ele><time>2026-04-26T18:37:01Z</time></trkpt><trkpt lat="40.62889805599118" lon="15.797156145147579"><ele>678.0</ele><time>2026-04-26T18:37:02Z</time></trkpt><trkpt lat="40.628993114268056" lon="15.797170125115182"><ele>681.75</ele><time>2026-04-26T18:37:03Z</time></trkpt><trkpt lat="40.62908546285994" lon="15.797147559643694"><ele>685.5</ele><time>2026-04-26T18:37:04Z</time></trkpt><trkpt lat="40.62917362654722" lon="15.797058420555263"><ele>689.25</ele><time>2026-04-26T18:37:05Z</time></trkpt><trkpt lat="40.62927456096953" lon="15.796968508778802"><ele>693.0</ele><time>2026-04-26T18:37:06Z</time></trkpt><trkpt lat="40.629393050996775" lon="15.796886536859297"><ele>690.5</ele><time>2026-04-26T18:37:07Z</time></trkpt><trkpt lat="40.62951691069946" lon="15.796826159735916"><ele>688.0</ele><time>2026-04-26T18:37:08Z</time></trkpt><trkpt lat="40.62964647819845" lon="15.79680243360912"><ele>685.5</ele><time>2026-04-26T18:37:09Z</time></trkpt><trkpt lat="40.629767622571926" lon="15.796799192672117"><ele>683.0</ele><time>2026-04-26T18:37:10Z</time></trkpt><trkpt lat="40.62984635107769" lon="15.796790851665413"><ele>683.0</ele><time>2026-04-26T18:37:11Z</time></trkpt><trkpt lat="40.62992340956161" lon="15.796790874278868"><ele>683.0</ele><time>2026-04-26T18:37:12Z</time></trkpt><trkpt lat="40.63000341874763" lon="15.796792245245284"><ele>683.0</ele><time>2026-04-26T18:37:13Z</time></trkpt><trkpt lat="40.63008341532557" lon="15.796785352211483"><ele>683.0</ele><time>2026-04-26T18:37:14Z</time></trkpt><trkpt lat="40.630171079430475" lon="15.79677818809789"><ele>683.0</ele><time>2026-04-26T18:37:15Z</time></trkpt><trkpt lat="40.63027025931697" lon="15.796778153963961"><ele>683.0</ele><time>2026-04-26T18:37:16Z</time></trkpt><trkpt lat="40.63037688748316" lon="15.796769638974668"><ele>684.5</ele><time>2026-04-26T18:37:17Z</time></trkpt><trkpt lat="40.63048092859762" lon="15.796753247648711"><ele>686.0</ele><time>2026-04-26T18:37:18Z</time></trkpt><trkpt lat="40.630584686474855" lon="15.796721050874163"><ele>687.5</ele><time>2026-04-26T18:37:19Z</time></trkpt><trkpt lat="40.6306940750269" lon="15.796661838344846"><ele>689.0</ele><time>2026-04-26T18:37:20Z</time></trkpt><trkpt lat="40.63081460502859" lon="15.796577830815298"><ele>689.0</ele><time>2026-04-26T18:37:21Z</time></trkpt><trkpt lat="40.630936669456716" lon="15.796443735135833"><ele>689.0</ele><time>2026-04-26T18:37:22Z</time></trkpt><trkpt lat="40.63108498735135" lon="15.796332051116979"><ele>689.0</ele><time>2026-04-26T18:37:23Z</time></trkpt><trkpt lat="40.63121312157517" lon="15.796169742274614"><ele>690.3333333333333</ele><time>2026-04-26T18:37:24Z</time></trkpt><trkpt lat="40.63133713287134" lon="15.795984899581608"><ele>691.6666666666666</ele><time>2026-04-26T18:37:25Z</time></trkpt><trkpt lat="40.63147018183485" lon="15.795785833005331"><ele>693.0</ele><time>2026-04-26T18:37:26Z</time></trkpt><trkpt lat="40.63161076637742" lon="15.795582436596687"><ele>693.0</ele><time>2026-04-26T18:37:27Z</time></trkpt><trkpt lat="40.63175209949655" lon="15.795365093672808"><ele>693.0</ele><time>2026-04-26T18:37:28Z</time></trkpt><trkpt lat="40.631897172487335" lon="15.795148289127932"><ele>693.0</ele><time>2026-04-26T18:37:29Z</time></trkpt><trkpt lat="40.632037119785636" lon="15.794928871825544"><ele>695.6666666666666</ele><time>2026-04-26T18:37:30Z</time></trkpt><trkpt lat="40.63216360179679" lon="15.794726261396368"><ele>698.3333333333333</ele><time>2026-04-26T18:37:31Z</time></trkpt><trkpt lat="40.63227571652238" lon="15.794543548677707"><ele>701.0</ele><time>2026-04-26T18:37:32Z</time></trkpt><trkpt lat="40.63238776351058" lon="15.794388612183347"><ele>699.6666666666666</ele><time>2026-04-26T18:37:33Z</time></trkpt><trkpt lat="40.63251656434286" lon="15.794266569254738"><ele>698.3333333333334</ele><time>2026-04-26T18:37:34Z</time></trkpt><trkpt lat="40.63265990606201" lon="15.794196307308267"><ele>697.0</ele><time>2026-04-26T18:37:35Z</time></trkpt><trkpt lat="40.63281766143202" lon="15.794160665183833"><ele>697.0</ele><time>2026-04-26T18:37:36Z</time></trkpt><trkpt lat="40.632990063780866" lon="15.794153087032402"><ele>697.0</ele><time>2026-04-26T18:37:37Z</time></trkpt><trkpt lat="40.633166361366655" lon="15.79418219074659"><ele>697.0</ele><time>2026-04-26T18:37:38Z</time></trkpt><trkpt lat="40.63334059574738" lon="15.794262422711128"><ele>698.0</ele><time>2026-04-26T18:37:39Z</time></trkpt><trkpt lat="40.63351082265075" lon="15.794381464985449"><ele>699.0</ele><time>2026-04-26T18:37:40Z</time></trkpt><trkpt lat="40.63368202182533" lon="15.794520180402992"><ele>700.0</ele><time>2026-04-26T18:37:41Z</time></trkpt><trkpt lat="40.633861363326695" lon="15.794660360195907"><ele>700.0</ele><time>2026-04-26T18:37:42Z</time></trkpt><trkpt lat="40.634049237929545" lon="15.794804675816568"><ele>700.0</ele><time>2026-04-26T18:37:43Z</time></trkpt><trkpt lat="40.63423776467025" lon="15.794946742334204"><ele>700.0</ele><time>2026-04-26T18:37:44Z</time></trkpt><trkpt lat="40.63442853766141" lon="15.795077659086939"><ele>703.5</ele><time>2026-04-26T18:37:45Z</time></trkpt><trkpt lat="40.63463063988121" lon="15.795218918848942"><ele>707.0</ele><time>2026-04-26T18:37:46Z</time></trkpt><trkpt lat="40.6348536396925" lon="15.7953130232918"><ele>707.0</ele><time>2026-04-26T18:37:47Z</time></trkpt><trkpt lat="40.63508424080623" lon="15.795376665197027"><ele>707.0</ele><time>2026-04-26T18:37:48Z</time></trkpt><trkpt lat="40.63532278276994" lon="15.795403458854166"><ele>709.0</ele><time>2026-04-26T18:37:49Z</time></trkpt><trkpt lat="40.6355650196688" lon="15.79539336528607"><ele>711.0</ele><time>2026-04-26T18:37:50Z</time></trkpt><trkpt lat="40.635808061699585" lon="15.7954135725733"><ele>711.0</ele><time>2026-04-26T18:37:51Z</time></trkpt><trkpt lat="40.63605313226241" lon="15.795397174553038"><ele>711.0</ele><time>2026-04-26T18:37:52Z</time></trkpt><trkpt lat="40.63629410474259" lon="15.795410184689919"><ele>710.3333333333334</ele><time>2026-04-26T18:37:53Z</time></trkpt><trkpt lat="40.63652436842822" lon="15.79542279634425"><ele>709.6666666666667</ele><time>2026-04-26T18:37:54Z</time></trkpt><trkpt lat="40.63674186838763" lon="15.79544537999724"><ele>709.0</ele><time>2026-04-26T18:37:55Z</time></trkpt><trkpt lat="40.63694681973788" lon="15.795487541648798"><ele>709.0</ele><time>2026-04-26T18:37:56Z</time></trkpt><trkpt lat="40.637144439986464" lon="15.79555370652501"><ele>709.0</ele><time>2026-04-26T18:37:57Z</time></trkpt><trkpt lat="40.63733924640647" lon="15.795639382574354"><ele>709.0</ele><time>2026-04-26T18:37:58Z</time></trkpt><trkpt lat="40.6375154403074" lon="15.79573459413011"><ele>709.0</ele><time>2026-04-26T18:37:59Z</time></trkpt><trkpt lat="40.63766877055893" lon="15.795855308060268"><ele>709.0</ele><time>2026-04-26T18:38:00Z</time></trkpt><trkpt lat="40.63782785487027" lon="15.795961285155794"><ele>709.0</ele><time>2026-04-26T18:38:01Z</time></trkpt><trkpt lat="40.637984504887775" lon="15.796055454554399"><ele>709.3333333333334</ele><time>2026-04-26T18:38:02Z</time></trkpt><trkpt lat="40.63813899414912" lon="15.796150291831253"><ele>709.6666666666666</ele><time>2026-04-26T18:38:03Z</time></trkpt><trkpt lat="40.63828360491896" lon="15.796239141920553"><ele>710.0</ele><time>2026-04-26T18:38:04Z</time></trkpt><trkpt lat="40.63843134238151" lon="15.796329367447612"><ele>710.0</ele><time>2026-04-26T18:38:05Z</time></trkpt><trkpt lat="40.638575447985254" lon="15.796394276531524"><ele>710.0</ele><time>2026-04-26T18:38:06Z</time></trkpt><trkpt lat="40.63872080855514" lon="15.796488206978186"><ele>710.0</ele><time>2026-04-26T18:38:07Z</time></trkpt><trkpt lat="40.63887092566292" lon="15.796579247318947"><ele>710.0</ele><time>2026-04-26T18:38:08Z</time></trkpt><trkpt lat="40.639006918335255" lon="15.796687769375428"><ele>710.0</ele><time>2026-04-26T18:38:09Z</time></trkpt><trkpt lat="40.63915357040724" lon="15.79675840953296"><ele>710.0</ele><time>2026-04-26T18:38:10Z</time></trkpt><trkpt lat="40.639288798222736" lon="15.796848782245469"><ele>711.6666666666666</ele><time>2026-04-26T18:38:11Z</time></trkpt><trkpt lat="40.63942745404419" lon="15.796942097240166"><ele>713.3333333333334</ele><time>2026-04-26T18:38:12Z</time></trkpt><trkpt lat="40.63955856870194" lon="15.797046129252063"><ele>715.0</ele><time>2026-04-26T18:38:13Z</time></trkpt><trkpt lat="40.63968128179849" lon="15.79716114762991"><ele>715.0</ele><time>2026-04-26T18:38:14Z</time></trkpt><trkpt lat="40.6397972631462" lon="15.797288858269308"><ele>715.0</ele><time>2026-04-26T18:38:15.001Z</time></trkpt><trkpt lat="40.639908230030905" lon="15.797431632239395"><ele>715.0</ele><time>2026-04-26T18:38:16.001Z</time></trkpt><trkpt lat="40.64001742694485" lon="15.797577179014036"><ele>716.75</ele><time>2026-04-26T18:38:17.001Z</time></trkpt><trkpt lat="40.64012052610412" lon="15.797723381567785"><ele>718.5</ele><time>2026-04-26T18:38:18.001Z</time></trkpt><trkpt lat="40.640222336365895" lon="15.797866942775721"><ele>720.25</ele><time>2026-04-26T18:38:19.001Z</time></trkpt><trkpt lat="40.640324000036514" lon="15.798008860158008"><ele>722.0</ele><time>2026-04-26T18:38:20Z</time></trkpt><trkpt lat="40.640425560525884" lon="15.798151872043308"><ele>722.0</ele><time>2026-04-26T18:38:21Z</time></trkpt><trkpt lat="40.640529299093785" lon="15.798292050916297"><ele>722.0</ele><time>2026-04-26T18:38:22Z</time></trkpt><trkpt lat="40.6406319814216" lon="15.79843422886535"><ele>722.0</ele><time>2026-04-26T18:38:23Z</time></trkpt><trkpt lat="40.64073600916346" lon="15.798577424644465"><ele>722.0</ele><time>2026-04-26T18:38:24Z</time></trkpt><trkpt lat="40.640848791231576" lon="15.798725161038776"><ele>721.0</ele><time>2026-04-26T18:38:25Z</time></trkpt><trkpt lat="40.640965816556154" lon="15.798881598182357"><ele>720.0</ele><time>2026-04-26T18:38:26Z</time></trkpt><trkpt lat="40.64108876474125" lon="15.799046594011207"><ele>719.0</ele><time>2026-04-26T18:38:27Z</time></trkpt><trkpt lat="40.64121328990578" lon="15.799218131923027"><ele>718.3333333333333</ele><time>2026-04-26T18:38:28Z</time></trkpt><trkpt lat="40.64133619694315" lon="15.799366197651883"><ele>717.6666666666666</ele><time>2026-04-26T18:38:29Z</time></trkpt><trkpt lat="40.64146624241952" lon="15.799489434759172"><ele>717.0</ele><time>2026-04-26T18:38:30Z</time></trkpt><trkpt lat="40.6416009060737" lon="15.799590586758336"><ele>717.0</ele><time>2026-04-26T18:38:31Z</time></trkpt><trkpt lat="40.641739363438084" lon="15.799665213175258"><ele>717.0</ele><time>2026-04-26T18:38:32Z</time></trkpt><trkpt lat="40.64188005759224" lon="15.799715997522433"><ele>717.0</ele><time>2026-04-26T18:38:33Z</time></trkpt><trkpt lat="40.64202070914265" lon="15.799740235124931"><ele>717.0</ele><time>2026-04-26T18:38:34Z</time></trkpt><trkpt lat="40.64214775695864" lon="15.799750694421846"><ele>717.0</ele><time>2026-04-26T18:38:35Z</time></trkpt><trkpt lat="40.6422633821837" lon="15.799744677015372"><ele>717.0</ele><time>2026-04-26T18:38:36Z</time></trkpt><trkpt lat="40.642363444066014" lon="15.799733840040984"><ele>717.0</ele><time>2026-04-26T18:38:37Z</time></trkpt><trkpt lat="40.64244741890668" lon="15.799741222527409"><ele>717.0</ele><time>2026-04-26T18:38:38Z</time></trkpt><trkpt lat="40.642530404143194" lon="15.799772769575963"><ele>717.0</ele><time>2026-04-26T18:38:39Z</time></trkpt><trkpt lat="40.64261349128994" lon="15.79986251550209"><ele>717.0</ele><time>2026-04-26T18:38:40Z</time></trkpt><trkpt lat="40.642654480149794" lon="15.799945648229293"><ele>717.0</ele><time>2026-04-26T18:38:41Z</time></trkpt><trkpt lat="40.64268715814491" lon="15.800077322168523"><ele>717.0</ele><time>2026-04-26T18:38:42Z</time></trkpt><trkpt lat="40.64271216658826" lon="15.800229761232496"><ele>717.0</ele><time>2026-04-26T18:38:43Z</time></trkpt><trkpt lat="40.64262126860551" lon="15.800412856231297"><ele>720.0</ele><time>2026-04-26T18:38:44Z</time></trkpt><trkpt lat="40.64256947074512" lon="15.800612398024155"><ele>723.0</ele><time>2026-04-26T18:38:45Z</time></trkpt><trkpt lat="40.642521646129616" lon="15.800812756463321"><ele>726.0</ele><time>2026-04-26T18:38:46Z</time></trkpt><trkpt lat="40.64248135413554" lon="15.801034097008177"><ele>727.3333333333334</ele><time>2026-04-26T18:38:47Z</time></trkpt><trkpt lat="40.64243366016626" lon="15.801254394255409"><ele>728.6666666666667</ele><time>2026-04-26T18:38:48Z</time></trkpt><trkpt lat="40.642381009112825" lon="15.801486560210016"><ele>730.0</ele><time>2026-04-26T18:38:49Z</time></trkpt><trkpt lat="40.6423304520895" lon="15.80172379511485"><ele>733.3333333333334</ele><time>2026-04-26T18:38:50Z</time></trkpt><trkpt lat="40.64228516316064" lon="15.801951550823997"><ele>736.6666666666666</ele><time>2026-04-26T18:38:51Z</time></trkpt><trkpt lat="40.642246489496095" lon="15.802165744208157"><ele>740.0</ele><time>2026-04-26T18:38:52Z</time></trkpt><trkpt lat="40.642209595612734" lon="15.802354529688142"><ele>740.0</ele><time>2026-04-26T18:38:53Z</time></trkpt><trkpt lat="40.642173321571924" lon="15.80252757241267"><ele>740.0</ele><time>2026-04-26T18:38:54Z</time></trkpt><trkpt lat="40.64213775627256" lon="15.802697382327683"><ele>740.0</ele><time>2026-04-26T18:38:55Z</time></trkpt><trkpt lat="40.642100382840255" lon="15.802878557882165"><ele>740.0</ele><time>2026-04-26T18:38:56Z</time></trkpt><trkpt lat="40.64205975571275" lon="15.803024698153473"><ele>741.6</ele><time>2026-04-26T18:38:57Z</time></trkpt><trkpt lat="40.64201453602965" lon="15.803133762303009"><ele>743.2</ele><time>2026-04-26T18:38:58Z</time></trkpt><trkpt lat="40.6419690112135" lon="15.803234039648606"><ele>744.8</ele><time>2026-04-26T18:38:59Z</time></trkpt><trkpt lat="40.641919514406894" lon="15.803317422773274"><ele>746.4</ele><time>2026-04-26T18:39:00Z</time></trkpt><trkpt lat="40.64184486086873" lon="15.803395606306703"><ele>748.0</ele><time>2026-04-26T18:39:01Z</time></trkpt><trkpt lat="40.641753290928314" lon="15.803467072269402"><ele>750.8</ele><time>2026-04-26T18:39:02Z</time></trkpt><trkpt lat="40.64163521951673" lon="15.80349766032528"><ele>753.5999999999999</ele><time>2026-04-26T18:39:03Z</time></trkpt><trkpt lat="40.64152135902725" lon="15.803497785330293"><ele>756.4000000000001</ele><time>2026-04-26T18:39:04Z</time></trkpt><trkpt lat="40.641434204051556" lon="15.803499211704594"><ele>759.2</ele><time>2026-04-26T18:39:05Z</time></trkpt><trkpt lat="40.64131829174908" lon="15.803538105963284"><ele>762.0</ele><time>2026-04-26T18:39:07Z</time></trkpt><trkpt lat="40.64128416157484" lon="15.803610644589137"><ele>762.0</ele><time>2026-04-26T18:39:08Z</time></trkpt><trkpt lat="40.641280144210434" lon="15.803748493326935"><ele>762.0</ele><time>2026-04-26T18:39:10Z</time></trkpt><trkpt lat="40.64135503450172" lon="15.803835061062841"><ele>762.0</ele><time>2026-04-26T18:39:12Z</time></trkpt><trkpt lat="40.64142088965985" lon="15.803846391129262"><ele>762.0</ele><time>2026-04-26T18:39:13Z</time></trkpt><trkpt lat="40.64149017407988" lon="15.803835162364974"><ele>762.0</ele><time>2026-04-26T18:39:14Z</time></trkpt><trkpt lat="40.64156271090056" lon="15.803806918319689"><ele>762.0</ele><time>2026-04-26T18:39:15Z</time></trkpt><trkpt lat="40.641641991796824" lon="15.803755854051007"><ele>762.0</ele><time>2026-04-26T18:39:16Z</time></trkpt><trkpt lat="40.64171519022543" lon="15.803703753580413"><ele>762.0</ele><time>2026-04-26T18:39:17Z</time></trkpt><trkpt lat="40.641785722843494" lon="15.803685571926264"><ele>762.0</ele><time>2026-04-26T18:39:18Z</time></trkpt><trkpt lat="40.64185540712052" lon="15.80370165691055"><ele>762.0</ele><time>2026-04-26T18:39:19Z</time></trkpt><trkpt lat="40.64191272064294" lon="15.803751347246704"><ele>762.0</ele><time>2026-04-26T18:39:20Z</time></trkpt><trkpt lat="40.641938130910106" lon="15.803837692739517"><ele>762.0</ele><time>2026-04-26T18:39:21Z</time></trkpt><trkpt lat="40.6419778998863" lon="15.803902642100057"><ele>762.0</ele><time>2026-04-26T18:39:22Z</time></trkpt><trkpt lat="40.64206994920521" lon="15.803958675870486"><ele>761.0</ele><time>2026-04-26T18:39:24Z</time></trkpt><trkpt lat="40.64215039453469" lon="15.803961004204192"><ele>760.0</ele><time>2026-04-26T18:39:25Z</time></trkpt><trkpt lat="40.6422445838725" lon="15.803972910358796"><ele>759.0</ele><time>2026-04-26T18:39:26Z</time></trkpt><trkpt lat="40.64233523536099" lon="15.803956285176042"><ele>758.0</ele><time>2026-04-26T18:39:27Z</time></trkpt><trkpt lat="40.64241536855462" lon="15.803972635078468"><ele>757.0</ele><time>2026-04-26T18:39:28Z</time></trkpt><trkpt lat="40.642516938280025" lon="15.803987570084276"><ele>757.0</ele><time>2026-04-26T18:39:29Z</time></trkpt><trkpt lat="40.64263802367721" lon="15.804013101361752"><ele>757.0</ele><time>2026-04-26T18:39:30Z</time></trkpt><trkpt lat="40.64274602964131" lon="15.804029512719536"><ele>757.0</ele><time>2026-04-26T18:39:31Z</time></trkpt><trkpt lat="40.642824544163794" lon="15.804049005273388"><ele>757.0</ele><time>2026-04-26T18:39:32Z</time></trkpt><trkpt lat="40.64292760576141" lon="15.804065888514923"><ele>757.0</ele><time>2026-04-26T18:39:34Z</time></trkpt><trkpt lat="40.64300593878266" lon="15.804056669318905"><ele>755.8</ele><time>2026-04-26T18:39:36Z</time></trkpt><trkpt lat="40.643143869067444" lon="15.804065391718225"><ele>754.6</ele><time>2026-04-26T18:39:38Z</time></trkpt><trkpt lat="40.64321446025068" lon="15.804068358941448"><ele>753.4</ele><time>2026-04-26T18:39:39Z</time></trkpt><trkpt lat="40.64332019867433" lon="15.804031956485106"><ele>752.1999999999999</ele><time>2026-04-26T18:39:41Z</time></trkpt><trkpt lat="40.64339111982881" lon="15.803991339333047"><ele>751.0</ele><time>2026-04-26T18:39:43Z</time></trkpt><trkpt lat="40.64348470987189" lon="15.803936255481998"><ele>751.0</ele><time>2026-04-26T18:39:46Z</time></trkpt><trkpt lat="40.64355327091257" lon="15.80388763284781"><ele>751.0</ele><time>2026-04-26T18:39:48Z</time></trkpt><trkpt lat="40.64366034480035" lon="15.803838295964498"><ele>751.0</ele><time>2026-04-26T18:39:50Z</time></trkpt><trkpt lat="40.64373315539438" lon="15.803798676152713"><ele>751.0</ele><time>2026-04-26T18:39:52Z</time></trkpt><trkpt lat="40.64380308386067" lon="15.803748743941918"><ele>751.0</ele><time>2026-04-26T18:39:54Z</time></trkpt><trkpt lat="40.643868619599715" lon="15.803707222975284"><ele>751.0</ele><time>2026-04-26T18:39:56Z</time></trkpt><trkpt lat="40.64393386006153" lon="15.803664127629485"><ele>750.8</ele><time>2026-04-26T18:39:58Z</time></trkpt><trkpt lat="40.644003449187316" lon="15.803590862352614"><ele>750.5999999999999</ele><time>2026-04-26T18:40:00Z</time></trkpt><trkpt lat="40.644071597067295" lon="15.803495211450505"><ele>750.4</ele><time>2026-04-26T18:40:02Z</time></trkpt><trkpt lat="40.6441304631312" lon="15.803398152628011"><ele>750.2</ele><time>2026-04-26T18:40:04Z</time></trkpt><trkpt lat="40.64418334589611" lon="15.803259783658307"><ele>750.0</ele><time>2026-04-26T18:40:06Z</time></trkpt><trkpt lat="40.64423103054322" lon="15.803195143892575"><ele>749.0</ele><time>2026-04-26T18:40:07Z</time></trkpt><trkpt lat="40.64426580985487" lon="15.80312001866239"><ele>748.0</ele><time>2026-04-26T18:40:08Z</time></trkpt><trkpt lat="40.64432403417071" lon="15.803037037755074"><ele>747.0</ele><time>2026-04-26T18:40:09Z</time></trkpt><trkpt lat="40.644356298467166" lon="15.802933779592186"><ele>746.0</ele><time>2026-04-26T18:40:10Z</time></trkpt><trkpt lat="40.64435422129628" lon="15.802823632678155"><ele>745.0</ele><time>2026-04-26T18:40:11Z</time></trkpt><trkpt lat="40.644374257638034" lon="15.802707617514647"><ele>744.0</ele><time>2026-04-26T18:40:12Z</time></trkpt><trkpt lat="40.6444200075211" lon="15.802577905155308"><ele>744.2</ele><time>2026-04-26T18:40:13Z</time></trkpt><trkpt lat="40.64447554772924" lon="15.802478850712117"><ele>744.4000000000001</ele><time>2026-04-26T18:40:14Z</time></trkpt><trkpt lat="40.64454436406823" lon="15.802383676980343"><ele>744.6</ele><time>2026-04-26T18:40:15Z</time></trkpt><trkpt lat="40.64462944965918" lon="15.802288820581754"><ele>744.8</ele><time>2026-04-26T18:40:16Z</time></trkpt><trkpt lat="40.64468899231709" lon="15.802212967996658"><ele>745.0</ele><time>2026-04-26T18:40:17Z</time></trkpt><trkpt lat="40.644730609201254" lon="15.80213742490331"><ele>745.0</ele><time>2026-04-26T18:40:18Z</time></trkpt><trkpt lat="40.64477211275521" lon="15.802067927546204"><ele>745.0</ele><time>2026-04-26T18:40:19Z</time></trkpt><trkpt lat="40.644819360905224" lon="15.801998047507185"><ele>745.0</ele><time>2026-04-26T18:40:20Z</time></trkpt><trkpt lat="40.64487460855444" lon="15.801925264332086"><ele>745.0</ele><time>2026-04-26T18:40:21Z</time></trkpt><trkpt lat="40.64493242203687" lon="15.801844926659147"><ele>745.0</ele><time>2026-04-26T18:40:22Z</time></trkpt><trkpt lat="40.64498519226974" lon="15.801766673658236"><ele>745.0</ele><time>2026-04-26T18:40:23.001Z</time></trkpt><trkpt lat="40.64503747284299" lon="15.801660025459281"><ele>744.4</ele><time>2026-04-26T18:40:24.001Z</time></trkpt><trkpt lat="40.64508796785877" lon="15.801541821542827"><ele>743.8</ele><time>2026-04-26T18:40:25.001Z</time></trkpt><trkpt lat="40.64513017113398" lon="15.801434778938876"><ele>743.2</ele><time>2026-04-26T18:40:26Z</time></trkpt><trkpt lat="40.645175528937926" lon="15.801337568625346"><ele>742.6</ele><time>2026-04-26T18:40:27Z</time></trkpt><trkpt lat="40.6452235883911" lon="15.801216582629962"><ele>742.0</ele><time>2026-04-26T18:40:28Z</time></trkpt><trkpt lat="40.645271077255856" lon="15.801107713220622"><ele>742.0</ele><time>2026-04-26T18:40:29Z</time></trkpt><trkpt lat="40.645315697937356" lon="15.800998830873063"><ele>742.0</ele><time>2026-04-26T18:40:30Z</time></trkpt><trkpt lat="40.64536376344387" lon="15.800896004120832"><ele>742.0</ele><time>2026-04-26T18:40:31Z</time></trkpt><trkpt lat="40.64540825791325" lon="15.800787901120275"><ele>742.0</ele><time>2026-04-26T18:40:32Z</time></trkpt><trkpt lat="40.645443720678934" lon="15.800681214984252"><ele>742.0</ele><time>2026-04-26T18:40:33Z</time></trkpt><trkpt lat="40.64548145337192" lon="15.80056759776379"><ele>742.0</ele><time>2026-04-26T18:40:34Z</time></trkpt><trkpt lat="40.64552294441876" lon="15.800448083947531"><ele>742.0</ele><time>2026-04-26T18:40:35Z</time></trkpt><trkpt lat="40.64557262750969" lon="15.80031229849499"><ele>742.0</ele><time>2026-04-26T18:40:36Z</time></trkpt><trkpt lat="40.64562247334469" lon="15.800151857202032"><ele>742.0</ele><time>2026-04-26T18:40:37Z</time></trkpt><trkpt lat="40.645665448178676" lon="15.800016026901574"><ele>742.0</ele><time>2026-04-26T18:40:38Z</time></trkpt><trkpt lat="40.645708381294746" lon="15.799890633738618"><ele>742.0</ele><time>2026-04-26T18:40:39Z</time></trkpt><trkpt lat="40.64574747668201" lon="15.799775895308208"><ele>742.0</ele><time>2026-04-26T18:40:40Z</time></trkpt><trkpt lat="40.64577775068932" lon="15.799675465741341"><ele>742.0</ele><time>2026-04-26T18:40:41Z</time></trkpt><trkpt lat="40.64580425479438" lon="15.79958501874472"><ele>742.0</ele><time>2026-04-26T18:40:42Z</time></trkpt><trkpt lat="40.64585086833809" lon="15.799507128225294"><ele>742.0</ele><time>2026-04-26T18:40:43Z</time></trkpt><trkpt lat="40.645907598420735" lon="15.799432449274194"><ele>742.0</ele><time>2026-04-26T18:40:44Z</time></trkpt><trkpt lat="40.64598296758986" lon="15.799383465112527"><ele>742.0</ele><time>2026-04-26T18:40:45Z</time></trkpt><trkpt lat="40.646033612115126" lon="15.799321795788309"><ele>742.0</ele><time>2026-04-26T18:40:46Z</time></trkpt><trkpt lat="40.64608263618156" lon="15.799263688919327"><ele>742.0</ele><time>2026-04-26T18:40:47Z</time></trkpt><trkpt lat="40.646132240812264" lon="15.79920489507482"><ele>742.0</ele><time>2026-04-26T18:40:48Z</time></trkpt><trkpt lat="40.646189608481755" lon="15.79913690004898"><ele>742.0</ele><time>2026-04-26T18:40:49Z</time></trkpt><trkpt lat="40.646251359046644" lon="15.799048328730812"><ele>742.3333333333334</ele><time>2026-04-26T18:40:50Z</time></trkpt><trkpt lat="40.64629603452595" lon="15.798962424198436"><ele>742.6666666666667</ele><time>2026-04-26T18:40:51Z</time></trkpt><trkpt lat="40.64635611501643" lon="15.798910427195228"><ele>743.0</ele><time>2026-04-26T18:40:52Z</time></trkpt><trkpt lat="40.64641177903473" lon="15.798857654671677"><ele>743.3333333333334</ele><time>2026-04-26T18:40:53Z</time></trkpt><trkpt lat="40.64646581679648" lon="15.798801284913711"><ele>743.6666666666666</ele><time>2026-04-26T18:40:54Z</time></trkpt><trkpt lat="40.6465127787312" lon="15.79873508429861"><ele>744.0</ele><time>2026-04-26T18:40:55Z</time></trkpt><trkpt lat="40.646611486844016" lon="15.798651735366423"><ele>744.0</ele><time>2026-04-26T18:40:57Z</time></trkpt><trkpt lat="40.646675569999225" lon="15.798660691693547"><ele>744.0</ele><time>2026-04-26T18:40:58Z</time></trkpt><trkpt lat="40.64675936792108" lon="15.798779210135184"><ele>744.0</ele><time>2026-04-26T18:41:00Z</time></trkpt><trkpt lat="40.646767111432716" lon="15.798868910929043"><ele>744.0</ele><time>2026-04-26T18:41:01Z</time></trkpt><trkpt lat="40.64674770911124" lon="15.798953417171337"><ele>744.0</ele><time>2026-04-26T18:41:02Z</time></trkpt><trkpt lat="40.64668985456491" lon="15.799021819823835"><ele>744.0</ele><time>2026-04-26T18:41:03Z</time></trkpt><trkpt lat="40.646597348937945" lon="15.79908296207123"><ele>744.0</ele><time>2026-04-26T18:41:04Z</time></trkpt><trkpt lat="40.646527068669165" lon="15.79914307136567"><ele>744.0</ele><time>2026-04-26T18:41:05Z</time></trkpt><trkpt lat="40.64648801587755" lon="15.799228592839382"><ele>744.0</ele><time>2026-04-26T18:41:06Z</time></trkpt><trkpt lat="40.64646826130448" lon="15.799319031809244"><ele>744.0</ele><time>2026-04-26T18:41:07Z</time></trkpt><trkpt lat="40.64644970528237" lon="15.799404404037139"><ele>744.0</ele><time>2026-04-26T18:41:08Z</time></trkpt><trkpt lat="40.64642769321363" lon="15.799495133837777"><ele>744.0</ele><time>2026-04-26T18:41:09Z</time></trkpt><trkpt lat="40.64643625635894" lon="15.799601702010817"><ele>745.1666666666666</ele><time>2026-04-26T18:41:10Z</time></trkpt><trkpt lat="40.646483363457406" lon="15.799693343099312"><ele>746.3333333333334</ele><time>2026-04-26T18:41:11Z</time></trkpt><trkpt lat="40.64655587284636" lon="15.799776649574833"><ele>747.5</ele><time>2026-04-26T18:41:12Z</time></trkpt><trkpt lat="40.64663045426123" lon="15.79985650652575"><ele>748.6666666666667</ele><time>2026-04-26T18:41:13Z</time></trkpt><trkpt lat="40.64669569045679" lon="15.799933602744177"><ele>749.8333333333334</ele><time>2026-04-26T18:41:14Z</time></trkpt><trkpt lat="40.64671714477911" lon="15.80001841761704"><ele>751.0</ele><time>2026-04-26T18:41:15Z</time></trkpt><trkpt lat="40.646767447328294" lon="15.800133965564083"><ele>750.8</ele><time>2026-04-26T18:41:17Z</time></trkpt><trkpt lat="40.64680083552823" lon="15.800225097886594"><ele>750.5999999999999</ele><time>2026-04-26T18:41:20Z</time></trkpt><trkpt lat="40.64668463374096" lon="15.80033769937103"><ele>750.4</ele><time>2026-04-26T18:41:22Z</time></trkpt><trkpt lat="40.64662091359257" lon="15.800425995375154"><ele>750.2</ele><time>2026-04-26T18:41:23Z</time></trkpt><trkpt lat="40.64656422110912" lon="15.800512252867273"><ele>750.0</ele><time>2026-04-26T18:41:24Z</time></trkpt><trkpt lat="40.646505560966375" lon="15.800603695330363"><ele>750.0</ele><time>2026-04-26T18:41:25Z</time></trkpt><trkpt lat="40.646448235296944" lon="15.800696458892538"><ele>750.0</ele><time>2026-04-26T18:41:26Z</time></trkpt><trkpt lat="40.64638984951254" lon="15.800794031012959"><ele>750.0</ele><time>2026-04-26T18:41:27Z</time></trkpt><trkpt lat="40.646323520922735" lon="15.800904876830522"><ele>750.0</ele><time>2026-04-26T18:41:28Z</time></trkpt><trkpt lat="40.64624882706528" lon="15.801037358749278"><ele>750.0</ele><time>2026-04-26T18:41:29Z</time></trkpt><trkpt lat="40.64615248996121" lon="15.80119000865183"><ele>749.3333333333334</ele><time>2026-04-26T18:41:30Z</time></trkpt><trkpt lat="40.64605373361801" lon="15.80136888224585"><ele>748.6666666666667</ele><time>2026-04-26T18:41:31Z</time></trkpt><trkpt lat="40.64595664178783" lon="15.801561301140463"><ele>748.0</ele><time>2026-04-26T18:41:32Z</time></trkpt><trkpt lat="40.64586096253248" lon="15.801757705867091"><ele>750.3333333333334</ele><time>2026-04-26T18:41:33Z</time></trkpt><trkpt lat="40.645755232931386" lon="15.801964809024462"><ele>752.6666666666666</ele><time>2026-04-26T18:41:34Z</time></trkpt><trkpt lat="40.64564480543405" lon="15.80212860091947"><ele>755.0</ele><time>2026-04-26T18:41:35Z</time></trkpt><trkpt lat="40.64556931960185" lon="15.802302635162293"><ele>755.0</ele><time>2026-04-26T18:41:36Z</time></trkpt><trkpt lat="40.645513135905546" lon="15.802468632587622"><ele>755.0</ele><time>2026-04-26T18:41:37Z</time></trkpt><trkpt lat="40.645481032728156" lon="15.802637281214455"><ele>755.0</ele><time>2026-04-26T18:41:38Z</time></trkpt><trkpt lat="40.64546781342639" lon="15.802802068918492"><ele>755.0</ele><time>2026-04-26T18:41:39Z</time></trkpt><trkpt lat="40.645436879351415" lon="15.802939712003434"><ele>755.6</ele><time>2026-04-26T18:41:40Z</time></trkpt><trkpt lat="40.64542873960815" lon="15.803065137965588"><ele>756.2</ele><time>2026-04-26T18:41:41Z</time></trkpt><trkpt lat="40.645404424788666" lon="15.803163640888394"><ele>756.8</ele><time>2026-04-26T18:41:42Z</time></trkpt><trkpt lat="40.64539115297212" lon="15.803312985007453"><ele>757.4</ele><time>2026-04-26T18:41:44Z</time></trkpt><trkpt lat="40.64535877549421" lon="15.803506239153577"><ele>758.0</ele><time>2026-04-26T18:41:46Z</time></trkpt><trkpt lat="40.64533740143053" lon="15.803601395140525"><ele>758.0</ele><time>2026-04-26T18:41:47Z</time></trkpt><trkpt lat="40.64531830530204" lon="15.803685116109616"><ele>758.0</ele><time>2026-04-26T18:41:48Z</time></trkpt><trkpt lat="40.6453076065897" lon="15.80377902968297"><ele>758.0</ele><time>2026-04-26T18:41:49Z</time></trkpt><trkpt lat="40.64525007196793" lon="15.803899477917001"><ele>758.0</ele><time>2026-04-26T18:41:51Z</time></trkpt><trkpt lat="40.6451809095878" lon="15.804008003637644"><ele>758.0</ele><time>2026-04-26T18:41:53Z</time></trkpt><trkpt lat="40.64511426464768" lon="15.804144023902339"><ele>757.0</ele><time>2026-04-26T18:41:55Z</time></trkpt><trkpt lat="40.644987194823926" lon="15.804143283530209"><ele>756.0</ele><time>2026-04-26T18:41:56Z</time></trkpt><trkpt lat="40.6448953342884" lon="15.804187753407698"><ele>755.0</ele><time>2026-04-26T18:41:57Z</time></trkpt><trkpt lat="40.64478218955711" lon="15.804239561491748"><ele>754.0</ele><time>2026-04-26T18:41:58Z</time></trkpt><trkpt lat="40.64463977434594" lon="15.804279367776601"><ele>752.6666666666667</ele><time>2026-04-26T18:41:59Z</time></trkpt><trkpt lat="40.644492864502034" lon="15.804351571402082"><ele>751.3333333333334</ele><time>2026-04-26T18:42:00Z</time></trkpt><trkpt lat="40.644339285202015" lon="15.804426751650485"><ele>750.0</ele><time>2026-04-26T18:42:01Z</time></trkpt><trkpt lat="40.64417067639749" lon="15.8044966179134"><ele>750.0</ele><time>2026-04-26T18:42:02Z</time></trkpt><trkpt lat="40.64399139046733" lon="15.804564369288586"><ele>750.0</ele><time>2026-04-26T18:42:03Z</time></trkpt><trkpt lat="40.643823795401424" lon="15.804618411969402"><ele>750.0</ele><time>2026-04-26T18:42:04Z</time></trkpt><trkpt lat="40.6436809943572" lon="15.804685696038138"><ele>751.4</ele><time>2026-04-26T18:42:05Z</time></trkpt><trkpt lat="40.64355967372691" lon="15.804745557092202"><ele>752.8</ele><time>2026-04-26T18:42:06Z</time></trkpt><trkpt lat="40.64344901125315" lon="15.804770341764916"><ele>754.2</ele><time>2026-04-26T18:42:07Z</time></trkpt><trkpt lat="40.64335613106883" lon="15.804815608235703"><ele>755.6</ele><time>2026-04-26T18:42:08Z</time></trkpt><trkpt lat="40.643274548409636" lon="15.804857899022014"><ele>757.0</ele><time>2026-04-26T18:42:09Z</time></trkpt><trkpt lat="40.64320033940556" lon="15.804898541518154"><ele>757.0</ele><time>2026-04-26T18:42:10Z</time></trkpt><trkpt lat="40.643136600818835" lon="15.804932612036458"><ele>757.0</ele><time>2026-04-26T18:42:11Z</time></trkpt><trkpt lat="40.643067610068236" lon="15.804950690672849"><ele>757.0</ele><time>2026-04-26T18:42:12Z</time></trkpt><trkpt lat="40.64299421308178" lon="15.804952245111801"><ele>757.0</ele><time>2026-04-26T18:42:13Z</time></trkpt><trkpt lat="40.64290105333993" lon="15.804954994124268"><ele>757.0</ele><time>2026-04-26T18:42:14Z</time></trkpt><trkpt lat="40.642798787890335" lon="15.80492369636809"><ele>757.0</ele><time>2026-04-26T18:42:15Z</time></trkpt><trkpt lat="40.6426792383625" lon="15.80489168684929"><ele>759.2</ele><time>2026-04-26T18:42:16Z</time></trkpt><trkpt lat="40.642549649385224" lon="15.80486940247812"><ele>761.4000000000001</ele><time>2026-04-26T18:42:17Z</time></trkpt><trkpt lat="40.64246409358549" lon="15.80485546843715"><ele>763.5999999999999</ele><time>2026-04-26T18:42:18Z</time></trkpt><trkpt lat="40.642377572530066" lon="15.80484575341897"><ele>765.8</ele><time>2026-04-26T18:42:20Z</time></trkpt><trkpt lat="40.6423420253946" lon="15.804774696244902"><ele>768.0</ele><time>2026-04-26T18:42:23Z</time></trkpt><trkpt lat="40.64237396342636" lon="15.804641152620396"><ele>768.0</ele><time>2026-04-26T18:42:27Z</time></trkpt><trkpt lat="40.64240362078988" lon="15.804554424167186"><ele>768.0</ele><time>2026-04-26T18:42:30.001Z</time></trkpt><trkpt lat="40.64238737546759" lon="15.804469693993093"><ele>768.0</ele><time>2026-04-26T18:42:34Z</time></trkpt><trkpt lat="40.64235178872687" lon="15.804548989547756"><ele>768.0</ele><time>2026-04-26T18:42:50Z</time></trkpt><trkpt lat="40.642336178681234" lon="15.80462983560675"><ele>768.0</ele><time>2026-04-26T18:42:56Z</time></trkpt></trkseg></trk></gpx>